<?xml version="1.0" encoding="UTF-8" standalone="no" ?>
<gpx xmlns="http://www.topografix.com/GPX/1/1" xmlns:xsi="http://www.w3.org/2001/XMLSchema-instance" xsi:schemaLocation="http://www.topografix.com/GPX/1/1 http://www.topografix.com/GPX/1/1/gpx.xsd" version="1.1" creator="VisuGPX - https://www.visugpx.com">
  <metadata>
    <name>2019-09-07 08:06:05 Jour</name>
    <desc><![CDATA[

]]></desc>
  </metadata>
  <trk>
    <name><![CDATA[2019-09-07 08:06:05 Jour]]></name>
    <trkseg>
      <trkpt lat="42.92769" lon="0.89322">
        <ele>663.98</ele>
        <time>2019-09-07T06:06:05Z</time>
      </trkpt>
      <trkpt lat="42.9277" lon="0.89323">
        <ele>663.77</ele>
        <time>2019-09-07T06:06:06Z</time>
      </trkpt>
      <trkpt lat="42.92791" lon="0.89343">
        <ele>663.03</ele>
        <time>2019-09-07T06:06:31Z</time>
      </trkpt>
      <trkpt lat="42.92809" lon="0.89356">
        <ele>662.74</ele>
        <time>2019-09-07T06:06:48Z</time>
      </trkpt>
      <trkpt lat="42.92811" lon="0.89356">
        <ele>662.79</ele>
        <time>2019-09-07T06:06:49Z</time>
      </trkpt>
      <trkpt lat="42.92813" lon="0.89356">
        <ele>662.97</ele>
        <time>2019-09-07T06:06:50Z</time>
      </trkpt>
      <trkpt lat="42.92833" lon="0.89359">
        <ele>662.51</ele>
        <time>2019-09-07T06:07:08Z</time>
      </trkpt>
      <trkpt lat="42.92834" lon="0.89361">
        <ele>662.41</ele>
        <time>2019-09-07T06:07:09Z</time>
      </trkpt>
      <trkpt lat="42.92835" lon="0.89362">
        <ele>662.31</ele>
        <time>2019-09-07T06:07:10Z</time>
      </trkpt>
      <trkpt lat="42.92835" lon="0.89364">
        <ele>662.21</ele>
        <time>2019-09-07T06:07:11Z</time>
      </trkpt>
      <trkpt lat="42.92836" lon="0.89366">
        <ele>662.13</ele>
        <time>2019-09-07T06:07:12Z</time>
      </trkpt>
      <trkpt lat="42.92836" lon="0.89367">
        <ele>662.04</ele>
        <time>2019-09-07T06:07:13Z</time>
      </trkpt>
      <trkpt lat="42.92837" lon="0.89369">
        <ele>661.97</ele>
        <time>2019-09-07T06:07:14Z</time>
      </trkpt>
      <trkpt lat="42.92843" lon="0.8939">
        <ele>661.25</ele>
        <time>2019-09-07T06:07:27Z</time>
      </trkpt>
      <trkpt lat="42.92848" lon="0.8942">
        <ele>660.23</ele>
        <time>2019-09-07T06:07:46Z</time>
      </trkpt>
      <trkpt lat="42.92855" lon="0.89445">
        <ele>659.7</ele>
        <time>2019-09-07T06:08:02Z</time>
      </trkpt>
      <trkpt lat="42.92862" lon="0.89458">
        <ele>659.49</ele>
        <time>2019-09-07T06:08:11Z</time>
      </trkpt>
      <trkpt lat="42.92867" lon="0.89473">
        <ele>659.46</ele>
        <time>2019-09-07T06:08:22Z</time>
      </trkpt>
      <trkpt lat="42.92872" lon="0.89483">
        <ele>659.4</ele>
        <time>2019-09-07T06:08:28Z</time>
      </trkpt>
      <trkpt lat="42.92873" lon="0.89485">
        <ele>659.39</ele>
        <time>2019-09-07T06:08:29Z</time>
      </trkpt>
      <trkpt lat="42.92873" lon="0.89487">
        <ele>659.37</ele>
        <time>2019-09-07T06:08:30Z</time>
      </trkpt>
      <trkpt lat="42.92874" lon="0.89489">
        <ele>659.35</ele>
        <time>2019-09-07T06:08:31Z</time>
      </trkpt>
      <trkpt lat="42.92874" lon="0.8949">
        <ele>659.34</ele>
        <time>2019-09-07T06:08:32Z</time>
      </trkpt>
      <trkpt lat="42.92875" lon="0.89492">
        <ele>659.33</ele>
        <time>2019-09-07T06:08:33Z</time>
      </trkpt>
      <trkpt lat="42.9289" lon="0.89513">
        <ele>659.66</ele>
        <time>2019-09-07T06:08:49Z</time>
      </trkpt>
      <trkpt lat="42.92891" lon="0.89513">
        <ele>659.66</ele>
        <time>2019-09-07T06:08:50Z</time>
      </trkpt>
      <trkpt lat="42.92893" lon="0.89513">
        <ele>659.66</ele>
        <time>2019-09-07T06:08:51Z</time>
      </trkpt>
      <trkpt lat="42.92896" lon="0.89509">
        <ele>659.95</ele>
        <time>2019-09-07T06:09:06Z</time>
      </trkpt>
      <trkpt lat="42.92898" lon="0.89507">
        <ele>660</ele>
        <time>2019-09-07T06:09:08Z</time>
      </trkpt>
      <trkpt lat="42.92898" lon="0.89506">
        <ele>660.01</ele>
        <time>2019-09-07T06:09:09Z</time>
      </trkpt>
      <trkpt lat="42.9291" lon="0.89513">
        <ele>661.29</ele>
        <time>2019-09-07T06:09:23Z</time>
      </trkpt>
      <trkpt lat="42.92924" lon="0.89523">
        <ele>663.27</ele>
        <time>2019-09-07T06:09:40Z</time>
      </trkpt>
      <trkpt lat="42.92936" lon="0.8953">
        <ele>665.96</ele>
        <time>2019-09-07T06:09:56Z</time>
      </trkpt>
      <trkpt lat="42.92943" lon="0.89541">
        <ele>668.97</ele>
        <time>2019-09-07T06:10:13Z</time>
      </trkpt>
      <trkpt lat="42.92954" lon="0.89547">
        <ele>671.97</ele>
        <time>2019-09-07T06:10:31Z</time>
      </trkpt>
      <trkpt lat="42.92964" lon="0.89554">
        <ele>675.09</ele>
        <time>2019-09-07T06:10:51Z</time>
      </trkpt>
      <trkpt lat="42.92965" lon="0.89555">
        <ele>676.97</ele>
        <time>2019-09-07T06:11:13Z</time>
      </trkpt>
      <trkpt lat="42.92966" lon="0.89555">
        <ele>677.02</ele>
        <time>2019-09-07T06:11:53Z</time>
      </trkpt>
      <trkpt lat="42.92969" lon="0.89559">
        <ele>677.28</ele>
        <time>2019-09-07T06:12:30Z</time>
      </trkpt>
      <trkpt lat="42.9298" lon="0.89566">
        <ele>677.17</ele>
        <time>2019-09-07T06:12:49Z</time>
      </trkpt>
      <trkpt lat="42.92989" lon="0.89582">
        <ele>677.17</ele>
        <time>2019-09-07T06:13:15Z</time>
      </trkpt>
      <trkpt lat="42.92992" lon="0.89593">
        <ele>689.35</ele>
        <time>2019-09-07T06:13:30Z</time>
      </trkpt>
      <trkpt lat="42.92992" lon="0.89594">
        <ele>689.23</ele>
        <time>2019-09-07T06:13:31Z</time>
      </trkpt>
      <trkpt lat="42.92989" lon="0.89594">
        <ele>690.03</ele>
        <time>2019-09-07T06:13:50Z</time>
      </trkpt>
      <trkpt lat="42.92992" lon="0.89599">
        <ele>690.42</ele>
        <time>2019-09-07T06:14:23Z</time>
      </trkpt>
      <trkpt lat="42.93" lon="0.89609">
        <ele>693.5</ele>
        <time>2019-09-07T06:14:41Z</time>
      </trkpt>
      <trkpt lat="42.9301" lon="0.89615">
        <ele>696.67</ele>
        <time>2019-09-07T06:14:57Z</time>
      </trkpt>
      <trkpt lat="42.9302" lon="0.89621">
        <ele>699.8</ele>
        <time>2019-09-07T06:15:14Z</time>
      </trkpt>
      <trkpt lat="42.93026" lon="0.89625">
        <ele>702.89</ele>
        <time>2019-09-07T06:15:30Z</time>
      </trkpt>
      <trkpt lat="42.93027" lon="0.89626">
        <ele>705.96</ele>
        <time>2019-09-07T06:15:47Z</time>
      </trkpt>
      <trkpt lat="42.93031" lon="0.89635">
        <ele>709.02</ele>
        <time>2019-09-07T06:16:05Z</time>
      </trkpt>
      <trkpt lat="42.93041" lon="0.89634">
        <ele>712.03</ele>
        <time>2019-09-07T06:16:23Z</time>
      </trkpt>
      <trkpt lat="42.93047" lon="0.89645">
        <ele>715.13</ele>
        <time>2019-09-07T06:16:41Z</time>
      </trkpt>
      <trkpt lat="42.9305" lon="0.89656">
        <ele>718.23</ele>
        <time>2019-09-07T06:17:02Z</time>
      </trkpt>
      <trkpt lat="42.93057" lon="0.89662">
        <ele>721.31</ele>
        <time>2019-09-07T06:17:21Z</time>
      </trkpt>
      <trkpt lat="42.93062" lon="0.89666">
        <ele>724.37</ele>
        <time>2019-09-07T06:17:40Z</time>
      </trkpt>
      <trkpt lat="42.93069" lon="0.89671">
        <ele>727.4</ele>
        <time>2019-09-07T06:18:01Z</time>
      </trkpt>
      <trkpt lat="42.93074" lon="0.89681">
        <ele>730.18</ele>
        <time>2019-09-07T06:18:21Z</time>
      </trkpt>
      <trkpt lat="42.93083" lon="0.89681">
        <ele>733.14</ele>
        <time>2019-09-07T06:18:42Z</time>
      </trkpt>
      <trkpt lat="42.93091" lon="0.89675">
        <ele>736.21</ele>
        <time>2019-09-07T06:19:02Z</time>
      </trkpt>
      <trkpt lat="42.93095" lon="0.89678">
        <ele>739.12</ele>
        <time>2019-09-07T06:19:22Z</time>
      </trkpt>
      <trkpt lat="42.93097" lon="0.89686">
        <ele>742.04</ele>
        <time>2019-09-07T06:19:43Z</time>
      </trkpt>
      <trkpt lat="42.93101" lon="0.89682">
        <ele>744.71</ele>
        <time>2019-09-07T06:20:04Z</time>
      </trkpt>
      <trkpt lat="42.93104" lon="0.89686">
        <ele>747.82</ele>
        <time>2019-09-07T06:20:26Z</time>
      </trkpt>
      <trkpt lat="42.93111" lon="0.89683">
        <ele>750.66</ele>
        <time>2019-09-07T06:20:48Z</time>
      </trkpt>
      <trkpt lat="42.93116" lon="0.89687">
        <ele>753.66</ele>
        <time>2019-09-07T06:21:09Z</time>
      </trkpt>
      <trkpt lat="42.93121" lon="0.89688">
        <ele>756.76</ele>
        <time>2019-09-07T06:21:31Z</time>
      </trkpt>
      <trkpt lat="42.93127" lon="0.89695">
        <ele>759.77</ele>
        <time>2019-09-07T06:21:52Z</time>
      </trkpt>
      <trkpt lat="42.93141" lon="0.89706">
        <ele>762.9</ele>
        <time>2019-09-07T06:22:12Z</time>
      </trkpt>
      <trkpt lat="42.93148" lon="0.89708">
        <ele>765.89</ele>
        <time>2019-09-07T06:22:32Z</time>
      </trkpt>
      <trkpt lat="42.93158" lon="0.89709">
        <ele>768.89</ele>
        <time>2019-09-07T06:22:51Z</time>
      </trkpt>
      <trkpt lat="42.93167" lon="0.89716">
        <ele>771.12</ele>
        <time>2019-09-07T06:23:06Z</time>
      </trkpt>
      <trkpt lat="42.93175" lon="0.89715">
        <ele>773.99</ele>
        <time>2019-09-07T06:23:24Z</time>
      </trkpt>
      <trkpt lat="42.93187" lon="0.89717">
        <ele>777.09</ele>
        <time>2019-09-07T06:23:44Z</time>
      </trkpt>
      <trkpt lat="42.93194" lon="0.89719">
        <ele>779.71</ele>
        <time>2019-09-07T06:23:59Z</time>
      </trkpt>
      <trkpt lat="42.93202" lon="0.89721">
        <ele>782.91</ele>
        <time>2019-09-07T06:24:19Z</time>
      </trkpt>
      <trkpt lat="42.93208" lon="0.8972">
        <ele>785.84</ele>
        <time>2019-09-07T06:24:38Z</time>
      </trkpt>
      <trkpt lat="42.9321" lon="0.8972">
        <ele>785.84</ele>
        <time>2019-09-07T06:25:07Z</time>
      </trkpt>
      <trkpt lat="42.9321" lon="0.89723">
        <ele>787.02</ele>
        <time>2019-09-07T06:25:31Z</time>
      </trkpt>
      <trkpt lat="42.93214" lon="0.89733">
        <ele>790.17</ele>
        <time>2019-09-07T06:25:50Z</time>
      </trkpt>
      <trkpt lat="42.93218" lon="0.89743">
        <ele>793.27</ele>
        <time>2019-09-07T06:26:08Z</time>
      </trkpt>
      <trkpt lat="42.93222" lon="0.89753">
        <ele>796.29</ele>
        <time>2019-09-07T06:26:27Z</time>
      </trkpt>
      <trkpt lat="42.93227" lon="0.89762">
        <ele>799.36</ele>
        <time>2019-09-07T06:26:45Z</time>
      </trkpt>
      <trkpt lat="42.93231" lon="0.89773">
        <ele>802.48</ele>
        <time>2019-09-07T06:27:04Z</time>
      </trkpt>
      <trkpt lat="42.93235" lon="0.89783">
        <ele>805.54</ele>
        <time>2019-09-07T06:27:25Z</time>
      </trkpt>
      <trkpt lat="42.93246" lon="0.89791">
        <ele>808.55</ele>
        <time>2019-09-07T06:27:52Z</time>
      </trkpt>
      <trkpt lat="42.93253" lon="0.89783">
        <ele>811.61</ele>
        <time>2019-09-07T06:28:12Z</time>
      </trkpt>
      <trkpt lat="42.93258" lon="0.89764">
        <ele>813.98</ele>
        <time>2019-09-07T06:28:31Z</time>
      </trkpt>
      <trkpt lat="42.93272" lon="0.89746">
        <ele>815.09</ele>
        <time>2019-09-07T06:28:52Z</time>
      </trkpt>
      <trkpt lat="42.93283" lon="0.89736">
        <ele>816.32</ele>
        <time>2019-09-07T06:29:05Z</time>
      </trkpt>
      <trkpt lat="42.93297" lon="0.89723">
        <ele>819.14</ele>
        <time>2019-09-07T06:29:27Z</time>
      </trkpt>
      <trkpt lat="42.93307" lon="0.89712">
        <ele>821.11</ele>
        <time>2019-09-07T06:29:43Z</time>
      </trkpt>
      <trkpt lat="42.93315" lon="0.89699">
        <ele>824.14</ele>
        <time>2019-09-07T06:30:00Z</time>
      </trkpt>
      <trkpt lat="42.93325" lon="0.89686">
        <ele>827.24</ele>
        <time>2019-09-07T06:30:21Z</time>
      </trkpt>
      <trkpt lat="42.93336" lon="0.89674">
        <ele>830.03</ele>
        <time>2019-09-07T06:30:39Z</time>
      </trkpt>
      <trkpt lat="42.93346" lon="0.89662">
        <ele>832.88</ele>
        <time>2019-09-07T06:30:57Z</time>
      </trkpt>
      <trkpt lat="42.93356" lon="0.89651">
        <ele>835.25</ele>
        <time>2019-09-07T06:31:13Z</time>
      </trkpt>
      <trkpt lat="42.93362" lon="0.8964">
        <ele>838.32</ele>
        <time>2019-09-07T06:31:31Z</time>
      </trkpt>
      <trkpt lat="42.93373" lon="0.89623">
        <ele>841.44</ele>
        <time>2019-09-07T06:31:52Z</time>
      </trkpt>
      <trkpt lat="42.93385" lon="0.89612">
        <ele>844.53</ele>
        <time>2019-09-07T06:32:14Z</time>
      </trkpt>
      <trkpt lat="42.93399" lon="0.89596">
        <ele>847.46</ele>
        <time>2019-09-07T06:32:36Z</time>
      </trkpt>
      <trkpt lat="42.93413" lon="0.89586">
        <ele>850.09</ele>
        <time>2019-09-07T06:32:56Z</time>
      </trkpt>
      <trkpt lat="42.93429" lon="0.89571">
        <ele>851.86</ele>
        <time>2019-09-07T06:33:17Z</time>
      </trkpt>
      <trkpt lat="42.93441" lon="0.89562">
        <ele>852.97</ele>
        <time>2019-09-07T06:33:31Z</time>
      </trkpt>
      <trkpt lat="42.93455" lon="0.89553">
        <ele>854.36</ele>
        <time>2019-09-07T06:33:48Z</time>
      </trkpt>
      <trkpt lat="42.93468" lon="0.89543">
        <ele>856.3</ele>
        <time>2019-09-07T06:34:06Z</time>
      </trkpt>
      <trkpt lat="42.93485" lon="0.89533">
        <ele>858.46</ele>
        <time>2019-09-07T06:34:25Z</time>
      </trkpt>
      <trkpt lat="42.93505" lon="0.89535">
        <ele>859.92</ele>
        <time>2019-09-07T06:34:44Z</time>
      </trkpt>
      <trkpt lat="42.93521" lon="0.89534">
        <ele>861.4</ele>
        <time>2019-09-07T06:35:02Z</time>
      </trkpt>
      <trkpt lat="42.93537" lon="0.89531">
        <ele>863.35</ele>
        <time>2019-09-07T06:35:19Z</time>
      </trkpt>
      <trkpt lat="42.93544" lon="0.89532">
        <ele>866.46</ele>
        <time>2019-09-07T06:35:34Z</time>
      </trkpt>
      <trkpt lat="42.93556" lon="0.89535">
        <ele>869.4</ele>
        <time>2019-09-07T06:35:51Z</time>
      </trkpt>
      <trkpt lat="42.93582" lon="0.89543">
        <ele>869.09</ele>
        <time>2019-09-07T06:36:09Z</time>
      </trkpt>
      <trkpt lat="42.93599" lon="0.89536">
        <ele>867.26</ele>
        <time>2019-09-07T06:36:26Z</time>
      </trkpt>
      <trkpt lat="42.93615" lon="0.8953">
        <ele>867.56</ele>
        <time>2019-09-07T06:36:45Z</time>
      </trkpt>
      <trkpt lat="42.93629" lon="0.89527">
        <ele>868.09</ele>
        <time>2019-09-07T06:37:03Z</time>
      </trkpt>
      <trkpt lat="42.93652" lon="0.89518">
        <ele>867.14</ele>
        <time>2019-09-07T06:37:21Z</time>
      </trkpt>
      <trkpt lat="42.93672" lon="0.8951">
        <ele>868.37</ele>
        <time>2019-09-07T06:37:40Z</time>
      </trkpt>
      <trkpt lat="42.93694" lon="0.89503">
        <ele>869.87</ele>
        <time>2019-09-07T06:37:56Z</time>
      </trkpt>
      <trkpt lat="42.93702" lon="0.89497">
        <ele>871.16</ele>
        <time>2019-09-07T06:38:05Z</time>
      </trkpt>
      <trkpt lat="42.93707" lon="0.89481">
        <ele>874.17</ele>
        <time>2019-09-07T06:38:21Z</time>
      </trkpt>
      <trkpt lat="42.93724" lon="0.8946">
        <ele>877.11</ele>
        <time>2019-09-07T06:38:40Z</time>
      </trkpt>
      <trkpt lat="42.93732" lon="0.89445">
        <ele>879.8</ele>
        <time>2019-09-07T06:38:59Z</time>
      </trkpt>
      <trkpt lat="42.93745" lon="0.89438">
        <ele>881.88</ele>
        <time>2019-09-07T06:39:16Z</time>
      </trkpt>
      <trkpt lat="42.93766" lon="0.89419">
        <ele>884.08</ele>
        <time>2019-09-07T06:39:36Z</time>
      </trkpt>
      <trkpt lat="42.9378" lon="0.89405">
        <ele>885.94</ele>
        <time>2019-09-07T06:39:55Z</time>
      </trkpt>
      <trkpt lat="42.93789" lon="0.894">
        <ele>887.1</ele>
        <time>2019-09-07T06:40:10Z</time>
      </trkpt>
      <trkpt lat="42.93807" lon="0.89396">
        <ele>885.65</ele>
        <time>2019-09-07T06:40:26Z</time>
      </trkpt>
      <trkpt lat="42.93829" lon="0.89391">
        <ele>884.81</ele>
        <time>2019-09-07T06:40:41Z</time>
      </trkpt>
      <trkpt lat="42.93845" lon="0.89392">
        <ele>884.26</ele>
        <time>2019-09-07T06:40:56Z</time>
      </trkpt>
      <trkpt lat="42.93865" lon="0.89393">
        <ele>885.26</ele>
        <time>2019-09-07T06:41:16Z</time>
      </trkpt>
      <trkpt lat="42.93882" lon="0.89393">
        <ele>887.28</ele>
        <time>2019-09-07T06:41:34Z</time>
      </trkpt>
      <trkpt lat="42.93901" lon="0.89389">
        <ele>889.52</ele>
        <time>2019-09-07T06:41:52Z</time>
      </trkpt>
      <trkpt lat="42.93919" lon="0.89386">
        <ele>892.07</ele>
        <time>2019-09-07T06:42:09Z</time>
      </trkpt>
      <trkpt lat="42.93935" lon="0.89376">
        <ele>894.95</ele>
        <time>2019-09-07T06:42:28Z</time>
      </trkpt>
      <trkpt lat="42.93935" lon="0.89349">
        <ele>896.56</ele>
        <time>2019-09-07T06:42:46Z</time>
      </trkpt>
      <trkpt lat="42.93933" lon="0.89333">
        <ele>897.32</ele>
        <time>2019-09-07T06:42:56Z</time>
      </trkpt>
      <trkpt lat="42.93929" lon="0.89301">
        <ele>898.4</ele>
        <time>2019-09-07T06:43:12Z</time>
      </trkpt>
      <trkpt lat="42.93936" lon="0.89282">
        <ele>898.43</ele>
        <time>2019-09-07T06:43:28Z</time>
      </trkpt>
      <trkpt lat="42.9395" lon="0.89259">
        <ele>897.65</ele>
        <time>2019-09-07T06:43:46Z</time>
      </trkpt>
      <trkpt lat="42.93951" lon="0.89257">
        <ele>896.6</ele>
        <time>2019-09-07T06:43:57Z</time>
      </trkpt>
      <trkpt lat="42.93952" lon="0.89256">
        <ele>896.64</ele>
        <time>2019-09-07T06:43:58Z</time>
      </trkpt>
      <trkpt lat="42.93953" lon="0.89255">
        <ele>896.66</ele>
        <time>2019-09-07T06:43:59Z</time>
      </trkpt>
      <trkpt lat="42.93954" lon="0.89254">
        <ele>896.67</ele>
        <time>2019-09-07T06:44:00Z</time>
      </trkpt>
      <trkpt lat="42.93954" lon="0.89253">
        <ele>896.67</ele>
        <time>2019-09-07T06:44:01Z</time>
      </trkpt>
      <trkpt lat="42.93955" lon="0.89252">
        <ele>896.66</ele>
        <time>2019-09-07T06:44:02Z</time>
      </trkpt>
      <trkpt lat="42.93974" lon="0.89233">
        <ele>894.64</ele>
        <time>2019-09-07T06:44:19Z</time>
      </trkpt>
      <trkpt lat="42.93986" lon="0.89224">
        <ele>892.35</ele>
        <time>2019-09-07T06:44:31Z</time>
      </trkpt>
      <trkpt lat="42.93987" lon="0.89223">
        <ele>892.1</ele>
        <time>2019-09-07T06:44:32Z</time>
      </trkpt>
      <trkpt lat="42.93988" lon="0.89222">
        <ele>891.96</ele>
        <time>2019-09-07T06:44:33Z</time>
      </trkpt>
      <trkpt lat="42.9399" lon="0.89221">
        <ele>891.9</ele>
        <time>2019-09-07T06:44:34Z</time>
      </trkpt>
      <trkpt lat="42.93991" lon="0.89221">
        <ele>891.9</ele>
        <time>2019-09-07T06:44:35Z</time>
      </trkpt>
      <trkpt lat="42.9401" lon="0.89216">
        <ele>889.1</ele>
        <time>2019-09-07T06:44:49Z</time>
      </trkpt>
      <trkpt lat="42.94028" lon="0.89213">
        <ele>886.5</ele>
        <time>2019-09-07T06:45:04Z</time>
      </trkpt>
      <trkpt lat="42.94046" lon="0.89208">
        <ele>883.68</ele>
        <time>2019-09-07T06:45:20Z</time>
      </trkpt>
      <trkpt lat="42.94067" lon="0.89206">
        <ele>881.3</ele>
        <time>2019-09-07T06:45:35Z</time>
      </trkpt>
      <trkpt lat="42.9408" lon="0.89203">
        <ele>880.08</ele>
        <time>2019-09-07T06:45:44Z</time>
      </trkpt>
      <trkpt lat="42.94098" lon="0.89196">
        <ele>878.35</ele>
        <time>2019-09-07T06:45:58Z</time>
      </trkpt>
      <trkpt lat="42.94105" lon="0.89193">
        <ele>877.86</ele>
        <time>2019-09-07T06:46:02Z</time>
      </trkpt>
      <trkpt lat="42.94106" lon="0.89191">
        <ele>877.76</ele>
        <time>2019-09-07T06:46:03Z</time>
      </trkpt>
      <trkpt lat="42.94108" lon="0.8919">
        <ele>877.65</ele>
        <time>2019-09-07T06:46:04Z</time>
      </trkpt>
      <trkpt lat="42.94116" lon="0.89185">
        <ele>877.03</ele>
        <time>2019-09-07T06:46:10Z</time>
      </trkpt>
      <trkpt lat="42.94118" lon="0.89184">
        <ele>876.95</ele>
        <time>2019-09-07T06:46:11Z</time>
      </trkpt>
      <trkpt lat="42.94119" lon="0.89183">
        <ele>876.87</ele>
        <time>2019-09-07T06:46:12Z</time>
      </trkpt>
      <trkpt lat="42.94122" lon="0.89182">
        <ele>876.72</ele>
        <time>2019-09-07T06:46:14Z</time>
      </trkpt>
      <trkpt lat="42.94124" lon="0.89181">
        <ele>876.64</ele>
        <time>2019-09-07T06:46:15Z</time>
      </trkpt>
      <trkpt lat="42.94125" lon="0.89181">
        <ele>876.59</ele>
        <time>2019-09-07T06:46:16Z</time>
      </trkpt>
      <trkpt lat="42.94134" lon="0.89177">
        <ele>875.99</ele>
        <time>2019-09-07T06:46:24Z</time>
      </trkpt>
      <trkpt lat="42.94144" lon="0.89176">
        <ele>875.51</ele>
        <time>2019-09-07T06:46:31Z</time>
      </trkpt>
      <trkpt lat="42.9416" lon="0.89172">
        <ele>874.92</ele>
        <time>2019-09-07T06:46:43Z</time>
      </trkpt>
      <trkpt lat="42.94182" lon="0.89159">
        <ele>874.36</ele>
        <time>2019-09-07T06:46:59Z</time>
      </trkpt>
      <trkpt lat="42.94197" lon="0.89155">
        <ele>874.2</ele>
        <time>2019-09-07T06:47:13Z</time>
      </trkpt>
      <trkpt lat="42.94211" lon="0.89154">
        <ele>874.26</ele>
        <time>2019-09-07T06:47:25Z</time>
      </trkpt>
      <trkpt lat="42.9422" lon="0.89152">
        <ele>874.29</ele>
        <time>2019-09-07T06:47:31Z</time>
      </trkpt>
      <trkpt lat="42.94222" lon="0.89151">
        <ele>874.3</ele>
        <time>2019-09-07T06:47:32Z</time>
      </trkpt>
      <trkpt lat="42.94224" lon="0.8915">
        <ele>874.33</ele>
        <time>2019-09-07T06:47:33Z</time>
      </trkpt>
      <trkpt lat="42.94225" lon="0.8915">
        <ele>874.36</ele>
        <time>2019-09-07T06:47:34Z</time>
      </trkpt>
      <trkpt lat="42.94227" lon="0.8915">
        <ele>874.4</ele>
        <time>2019-09-07T06:47:35Z</time>
      </trkpt>
      <trkpt lat="42.94228" lon="0.89149">
        <ele>874.43</ele>
        <time>2019-09-07T06:47:36Z</time>
      </trkpt>
      <trkpt lat="42.94229" lon="0.89149">
        <ele>874.45</ele>
        <time>2019-09-07T06:47:37Z</time>
      </trkpt>
      <trkpt lat="42.94245" lon="0.89142">
        <ele>875.21</ele>
        <time>2019-09-07T06:47:53Z</time>
      </trkpt>
      <trkpt lat="42.94259" lon="0.89131">
        <ele>875.57</ele>
        <time>2019-09-07T06:48:05Z</time>
      </trkpt>
      <trkpt lat="42.9426" lon="0.8913">
        <ele>875.57</ele>
        <time>2019-09-07T06:48:06Z</time>
      </trkpt>
      <trkpt lat="42.94265" lon="0.89126">
        <ele>875.51</ele>
        <time>2019-09-07T06:48:10Z</time>
      </trkpt>
      <trkpt lat="42.94272" lon="0.89121">
        <ele>875.45</ele>
        <time>2019-09-07T06:48:15Z</time>
      </trkpt>
      <trkpt lat="42.94273" lon="0.89119">
        <ele>875.44</ele>
        <time>2019-09-07T06:48:16Z</time>
      </trkpt>
      <trkpt lat="42.94279" lon="0.89111">
        <ele>875.4</ele>
        <time>2019-09-07T06:48:22Z</time>
      </trkpt>
      <trkpt lat="42.9429" lon="0.89094">
        <ele>875.29</ele>
        <time>2019-09-07T06:48:34Z</time>
      </trkpt>
      <trkpt lat="42.94302" lon="0.89078">
        <ele>875.26</ele>
        <time>2019-09-07T06:48:48Z</time>
      </trkpt>
      <trkpt lat="42.94303" lon="0.89077">
        <ele>875.27</ele>
        <time>2019-09-07T06:48:49Z</time>
      </trkpt>
      <trkpt lat="42.94305" lon="0.89076">
        <ele>875.27</ele>
        <time>2019-09-07T06:48:50Z</time>
      </trkpt>
      <trkpt lat="42.94325" lon="0.89058">
        <ele>874.82</ele>
        <time>2019-09-07T06:49:08Z</time>
      </trkpt>
      <trkpt lat="42.94326" lon="0.89058">
        <ele>874.79</ele>
        <time>2019-09-07T06:49:09Z</time>
      </trkpt>
      <trkpt lat="42.9433" lon="0.89056">
        <ele>874.43</ele>
        <time>2019-09-07T06:49:13Z</time>
      </trkpt>
      <trkpt lat="42.94331" lon="0.89055">
        <ele>874.55</ele>
        <time>2019-09-07T06:49:14Z</time>
      </trkpt>
      <trkpt lat="42.94353" lon="0.89047">
        <ele>875</ele>
        <time>2019-09-07T06:49:31Z</time>
      </trkpt>
      <trkpt lat="42.94356" lon="0.89046">
        <ele>885.15</ele>
        <time>2019-09-07T06:49:35Z</time>
      </trkpt>
      <trkpt lat="42.94357" lon="0.89045">
        <ele>880.2</ele>
        <time>2019-09-07T06:49:36Z</time>
      </trkpt>
      <trkpt lat="42.9436" lon="0.89044">
        <ele>876.42</ele>
        <time>2019-09-07T06:49:38Z</time>
      </trkpt>
      <trkpt lat="42.94361" lon="0.89044">
        <ele>875.77</ele>
        <time>2019-09-07T06:49:39Z</time>
      </trkpt>
      <trkpt lat="42.9437" lon="0.89039">
        <ele>875.05</ele>
        <time>2019-09-07T06:49:45Z</time>
      </trkpt>
      <trkpt lat="42.94377" lon="0.89032">
        <ele>874.94</ele>
        <time>2019-09-07T06:49:51Z</time>
      </trkpt>
      <trkpt lat="42.9438" lon="0.89027">
        <ele>874.92</ele>
        <time>2019-09-07T06:49:54Z</time>
      </trkpt>
      <trkpt lat="42.94381" lon="0.89025">
        <ele>874.9</ele>
        <time>2019-09-07T06:49:55Z</time>
      </trkpt>
      <trkpt lat="42.94395" lon="0.8901">
        <ele>874.94</ele>
        <time>2019-09-07T06:50:09Z</time>
      </trkpt>
      <trkpt lat="42.94408" lon="0.88996">
        <ele>875.08</ele>
        <time>2019-09-07T06:50:22Z</time>
      </trkpt>
      <trkpt lat="42.9442" lon="0.88975">
        <ele>875.08</ele>
        <time>2019-09-07T06:50:36Z</time>
      </trkpt>
      <trkpt lat="42.94421" lon="0.88974">
        <ele>875.1</ele>
        <time>2019-09-07T06:50:37Z</time>
      </trkpt>
      <trkpt lat="42.9444" lon="0.8896">
        <ele>875.39</ele>
        <time>2019-09-07T06:50:54Z</time>
      </trkpt>
      <trkpt lat="42.94459" lon="0.88945">
        <ele>875.37</ele>
        <time>2019-09-07T06:51:10Z</time>
      </trkpt>
      <trkpt lat="42.94477" lon="0.8893">
        <ele>874.07</ele>
        <time>2019-09-07T06:51:28Z</time>
      </trkpt>
      <trkpt lat="42.94497" lon="0.88917">
        <ele>872.02</ele>
        <time>2019-09-07T06:51:45Z</time>
      </trkpt>
      <trkpt lat="42.94503" lon="0.88914">
        <ele>871.67</ele>
        <time>2019-09-07T06:51:49Z</time>
      </trkpt>
      <trkpt lat="42.94524" lon="0.88892">
        <ele>870.47</ele>
        <time>2019-09-07T06:52:08Z</time>
      </trkpt>
      <trkpt lat="42.94531" lon="0.88871">
        <ele>869.71</ele>
        <time>2019-09-07T06:52:28Z</time>
      </trkpt>
      <trkpt lat="42.94531" lon="0.88871">
        <ele>869.71</ele>
        <time>2019-09-07T06:52:33Z</time>
      </trkpt>
      <trkpt lat="42.94532" lon="0.8887">
        <ele>869.72</ele>
        <time>2019-09-07T06:52:34Z</time>
      </trkpt>
      <trkpt lat="42.94532" lon="0.88869">
        <ele>869.73</ele>
        <time>2019-09-07T06:52:35Z</time>
      </trkpt>
      <trkpt lat="42.94533" lon="0.88867">
        <ele>869.73</ele>
        <time>2019-09-07T06:52:36Z</time>
      </trkpt>
      <trkpt lat="42.94534" lon="0.88866">
        <ele>869.73</ele>
        <time>2019-09-07T06:52:37Z</time>
      </trkpt>
      <trkpt lat="42.94541" lon="0.88848">
        <ele>868.78</ele>
        <time>2019-09-07T06:52:51Z</time>
      </trkpt>
      <trkpt lat="42.94543" lon="0.88847">
        <ele>868.67</ele>
        <time>2019-09-07T06:52:52Z</time>
      </trkpt>
      <trkpt lat="42.94544" lon="0.88839">
        <ele>867.81</ele>
        <time>2019-09-07T06:53:00Z</time>
      </trkpt>
      <trkpt lat="42.94544" lon="0.88837">
        <ele>867.75</ele>
        <time>2019-09-07T06:53:01Z</time>
      </trkpt>
      <trkpt lat="42.94545" lon="0.88836">
        <ele>867.61</ele>
        <time>2019-09-07T06:53:02Z</time>
      </trkpt>
      <trkpt lat="42.94545" lon="0.88833">
        <ele>867.3</ele>
        <time>2019-09-07T06:53:04Z</time>
      </trkpt>
      <trkpt lat="42.94545" lon="0.88814">
        <ele>865.49</ele>
        <time>2019-09-07T06:53:16Z</time>
      </trkpt>
      <trkpt lat="42.94534" lon="0.88781">
        <ele>862.79</ele>
        <time>2019-09-07T06:53:37Z</time>
      </trkpt>
      <trkpt lat="42.94524" lon="0.88764">
        <ele>862.55</ele>
        <time>2019-09-07T06:53:51Z</time>
      </trkpt>
      <trkpt lat="42.94524" lon="0.88763">
        <ele>862.55</ele>
        <time>2019-09-07T06:53:52Z</time>
      </trkpt>
      <trkpt lat="42.94521" lon="0.88758">
        <ele>862.64</ele>
        <time>2019-09-07T06:53:56Z</time>
      </trkpt>
      <trkpt lat="42.9451" lon="0.88747">
        <ele>862.43</ele>
        <time>2019-09-07T06:54:06Z</time>
      </trkpt>
      <trkpt lat="42.94495" lon="0.88735">
        <ele>859.56</ele>
        <time>2019-09-07T06:54:23Z</time>
      </trkpt>
      <trkpt lat="42.94493" lon="0.88732">
        <ele>859.23</ele>
        <time>2019-09-07T06:54:32Z</time>
      </trkpt>
      <trkpt lat="42.94492" lon="0.88731">
        <ele>859.25</ele>
        <time>2019-09-07T06:54:33Z</time>
      </trkpt>
      <trkpt lat="42.94491" lon="0.8873">
        <ele>859.26</ele>
        <time>2019-09-07T06:54:34Z</time>
      </trkpt>
      <trkpt lat="42.9449" lon="0.88729">
        <ele>859.26</ele>
        <time>2019-09-07T06:54:35Z</time>
      </trkpt>
      <trkpt lat="42.94488" lon="0.88728">
        <ele>859.24</ele>
        <time>2019-09-07T06:54:36Z</time>
      </trkpt>
      <trkpt lat="42.94469" lon="0.88708">
        <ele>856.17</ele>
        <time>2019-09-07T06:54:56Z</time>
      </trkpt>
      <trkpt lat="42.94466" lon="0.88704">
        <ele>854.64</ele>
        <time>2019-09-07T06:55:14Z</time>
      </trkpt>
      <trkpt lat="42.94465" lon="0.88701">
        <ele>854.68</ele>
        <time>2019-09-07T06:55:24Z</time>
      </trkpt>
      <trkpt lat="42.94464" lon="0.887">
        <ele>854.68</ele>
        <time>2019-09-07T06:55:25Z</time>
      </trkpt>
      <trkpt lat="42.94463" lon="0.88699">
        <ele>854.68</ele>
        <time>2019-09-07T06:55:26Z</time>
      </trkpt>
      <trkpt lat="42.94451" lon="0.88685">
        <ele>852.86</ele>
        <time>2019-09-07T06:55:48Z</time>
      </trkpt>
      <trkpt lat="42.9445" lon="0.88685">
        <ele>852.66</ele>
        <time>2019-09-07T06:56:09Z</time>
      </trkpt>
      <trkpt lat="42.94449" lon="0.88682">
        <ele>852.66</ele>
        <time>2019-09-07T06:56:11Z</time>
      </trkpt>
      <trkpt lat="42.94448" lon="0.88679">
        <ele>852.61</ele>
        <time>2019-09-07T06:56:14Z</time>
      </trkpt>
      <trkpt lat="42.94447" lon="0.88678">
        <ele>852.57</ele>
        <time>2019-09-07T06:56:15Z</time>
      </trkpt>
      <trkpt lat="42.94434" lon="0.88657">
        <ele>851.31</ele>
        <time>2019-09-07T06:56:30Z</time>
      </trkpt>
      <trkpt lat="42.94426" lon="0.88645">
        <ele>850.22</ele>
        <time>2019-09-07T06:56:40Z</time>
      </trkpt>
      <trkpt lat="42.94426" lon="0.88623">
        <ele>849.62</ele>
        <time>2019-09-07T06:56:54Z</time>
      </trkpt>
      <trkpt lat="42.94421" lon="0.88598">
        <ele>850.16</ele>
        <time>2019-09-07T06:57:08Z</time>
      </trkpt>
      <trkpt lat="42.94409" lon="0.88577">
        <ele>850.59</ele>
        <time>2019-09-07T06:57:25Z</time>
      </trkpt>
      <trkpt lat="42.94407" lon="0.88574">
        <ele>850.53</ele>
        <time>2019-09-07T06:57:27Z</time>
      </trkpt>
      <trkpt lat="42.94406" lon="0.88572">
        <ele>850.5</ele>
        <time>2019-09-07T06:57:28Z</time>
      </trkpt>
      <trkpt lat="42.94403" lon="0.88569">
        <ele>850.34</ele>
        <time>2019-09-07T06:57:30Z</time>
      </trkpt>
      <trkpt lat="42.94392" lon="0.8855">
        <ele>850.66</ele>
        <time>2019-09-07T06:57:44Z</time>
      </trkpt>
      <trkpt lat="42.94382" lon="0.88539">
        <ele>851.77</ele>
        <time>2019-09-07T06:57:54Z</time>
      </trkpt>
      <trkpt lat="42.94373" lon="0.88531">
        <ele>852.62</ele>
        <time>2019-09-07T06:58:02Z</time>
      </trkpt>
      <trkpt lat="42.94363" lon="0.88514">
        <ele>853.56</ele>
        <time>2019-09-07T06:58:15Z</time>
      </trkpt>
      <trkpt lat="42.94362" lon="0.88512">
        <ele>853.59</ele>
        <time>2019-09-07T06:58:16Z</time>
      </trkpt>
      <trkpt lat="42.94353" lon="0.88494">
        <ele>853.59</ele>
        <time>2019-09-07T06:58:28Z</time>
      </trkpt>
      <trkpt lat="42.94351" lon="0.88493">
        <ele>853.59</ele>
        <time>2019-09-07T06:58:30Z</time>
      </trkpt>
      <trkpt lat="42.94338" lon="0.88483">
        <ele>855.95</ele>
        <time>2019-09-07T06:58:47Z</time>
      </trkpt>
      <trkpt lat="42.94338" lon="0.88459">
        <ele>858.99</ele>
        <time>2019-09-07T06:59:05Z</time>
      </trkpt>
      <trkpt lat="42.94338" lon="0.88458">
        <ele>859.12</ele>
        <time>2019-09-07T06:59:06Z</time>
      </trkpt>
      <trkpt lat="42.94332" lon="0.88434">
        <ele>861.43</ele>
        <time>2019-09-07T06:59:23Z</time>
      </trkpt>
      <trkpt lat="42.94327" lon="0.88412">
        <ele>863.39</ele>
        <time>2019-09-07T06:59:40Z</time>
      </trkpt>
      <trkpt lat="42.94325" lon="0.88405">
        <ele>864.1</ele>
        <time>2019-09-07T06:59:45Z</time>
      </trkpt>
      <trkpt lat="42.9432" lon="0.88397">
        <ele>864.87</ele>
        <time>2019-09-07T06:59:52Z</time>
      </trkpt>
      <trkpt lat="42.9432" lon="0.88395">
        <ele>865</ele>
        <time>2019-09-07T06:59:53Z</time>
      </trkpt>
      <trkpt lat="42.94315" lon="0.88383">
        <ele>865.94</ele>
        <time>2019-09-07T07:00:02Z</time>
      </trkpt>
      <trkpt lat="42.94314" lon="0.88382">
        <ele>866</ele>
        <time>2019-09-07T07:00:03Z</time>
      </trkpt>
      <trkpt lat="42.94313" lon="0.88374">
        <ele>866.26</ele>
        <time>2019-09-07T07:00:09Z</time>
      </trkpt>
      <trkpt lat="42.94307" lon="0.88355">
        <ele>866.53</ele>
        <time>2019-09-07T07:00:23Z</time>
      </trkpt>
      <trkpt lat="42.94305" lon="0.88348">
        <ele>866.56</ele>
        <time>2019-09-07T07:00:27Z</time>
      </trkpt>
      <trkpt lat="42.94303" lon="0.88336">
        <ele>866.71</ele>
        <time>2019-09-07T07:00:33Z</time>
      </trkpt>
      <trkpt lat="42.943" lon="0.8832">
        <ele>867.5</ele>
        <time>2019-09-07T07:00:47Z</time>
      </trkpt>
      <trkpt lat="42.94302" lon="0.88313">
        <ele>869.34</ele>
        <time>2019-09-07T07:00:57Z</time>
      </trkpt>
      <trkpt lat="42.9431" lon="0.88303">
        <ele>872.56</ele>
        <time>2019-09-07T07:01:14Z</time>
      </trkpt>
      <trkpt lat="42.94315" lon="0.88299">
        <ele>875.69</ele>
        <time>2019-09-07T07:01:30Z</time>
      </trkpt>
      <trkpt lat="42.94332" lon="0.88286">
        <ele>878.35</ele>
        <time>2019-09-07T07:01:48Z</time>
      </trkpt>
      <trkpt lat="42.94339" lon="0.88267">
        <ele>881.36</ele>
        <time>2019-09-07T07:02:07Z</time>
      </trkpt>
      <trkpt lat="42.94348" lon="0.88244">
        <ele>882.72</ele>
        <time>2019-09-07T07:02:25Z</time>
      </trkpt>
      <trkpt lat="42.9435" lon="0.8823">
        <ele>882.84</ele>
        <time>2019-09-07T07:02:35Z</time>
      </trkpt>
      <trkpt lat="42.94349" lon="0.88219">
        <ele>882.91</ele>
        <time>2019-09-07T07:02:41Z</time>
      </trkpt>
      <trkpt lat="42.94349" lon="0.88207">
        <ele>882.74</ele>
        <time>2019-09-07T07:02:48Z</time>
      </trkpt>
      <trkpt lat="42.94356" lon="0.8819">
        <ele>881.73</ele>
        <time>2019-09-07T07:03:00Z</time>
      </trkpt>
      <trkpt lat="42.94367" lon="0.88162">
        <ele>880.07</ele>
        <time>2019-09-07T07:03:19Z</time>
      </trkpt>
      <trkpt lat="42.94371" lon="0.88129">
        <ele>879.68</ele>
        <time>2019-09-07T07:03:39Z</time>
      </trkpt>
      <trkpt lat="42.9437" lon="0.88104">
        <ele>878.26</ele>
        <time>2019-09-07T07:03:58Z</time>
      </trkpt>
      <trkpt lat="42.94374" lon="0.88083">
        <ele>877.45</ele>
        <time>2019-09-07T07:04:13Z</time>
      </trkpt>
      <trkpt lat="42.94374" lon="0.88075">
        <ele>877.62</ele>
        <time>2019-09-07T07:04:18Z</time>
      </trkpt>
      <trkpt lat="42.94375" lon="0.88057">
        <ele>878.06</ele>
        <time>2019-09-07T07:04:37Z</time>
      </trkpt>
      <trkpt lat="42.94378" lon="0.8803">
        <ele>878.06</ele>
        <time>2019-09-07T07:04:56Z</time>
      </trkpt>
      <trkpt lat="42.94384" lon="0.88001">
        <ele>878.06</ele>
        <time>2019-09-07T07:05:15Z</time>
      </trkpt>
      <trkpt lat="42.94385" lon="0.87994">
        <ele>882.26</ele>
        <time>2019-09-07T07:05:22Z</time>
      </trkpt>
      <trkpt lat="42.94385" lon="0.87993">
        <ele>882.37</ele>
        <time>2019-09-07T07:05:23Z</time>
      </trkpt>
      <trkpt lat="42.94385" lon="0.87984">
        <ele>883.86</ele>
        <time>2019-09-07T07:05:36Z</time>
      </trkpt>
      <trkpt lat="42.94381" lon="0.87958">
        <ele>887.01</ele>
        <time>2019-09-07T07:05:56Z</time>
      </trkpt>
      <trkpt lat="42.94367" lon="0.87936">
        <ele>890.02</ele>
        <time>2019-09-07T07:06:14Z</time>
      </trkpt>
      <trkpt lat="42.94354" lon="0.87922">
        <ele>892.26</ele>
        <time>2019-09-07T07:06:39Z</time>
      </trkpt>
      <trkpt lat="42.9433" lon="0.87905">
        <ele>893.93</ele>
        <time>2019-09-07T07:06:59Z</time>
      </trkpt>
      <trkpt lat="42.94313" lon="0.87891">
        <ele>896.39</ele>
        <time>2019-09-07T07:07:18Z</time>
      </trkpt>
      <trkpt lat="42.94293" lon="0.87886">
        <ele>896.17</ele>
        <time>2019-09-07T07:07:33Z</time>
      </trkpt>
      <trkpt lat="42.94276" lon="0.87883">
        <ele>894.31</ele>
        <time>2019-09-07T07:07:48Z</time>
      </trkpt>
      <trkpt lat="42.9426" lon="0.87885">
        <ele>891.7</ele>
        <time>2019-09-07T07:08:05Z</time>
      </trkpt>
      <trkpt lat="42.9425" lon="0.87886">
        <ele>888.6</ele>
        <time>2019-09-07T07:08:17Z</time>
      </trkpt>
      <trkpt lat="42.94251" lon="0.87869">
        <ele>885.6</ele>
        <time>2019-09-07T07:08:31Z</time>
      </trkpt>
      <trkpt lat="42.94252" lon="0.87856">
        <ele>882.57</ele>
        <time>2019-09-07T07:08:43Z</time>
      </trkpt>
      <trkpt lat="42.94253" lon="0.87848">
        <ele>881.37</ele>
        <time>2019-09-07T07:08:48Z</time>
      </trkpt>
      <trkpt lat="42.94256" lon="0.87833">
        <ele>879.01</ele>
        <time>2019-09-07T07:08:58Z</time>
      </trkpt>
      <trkpt lat="42.94264" lon="0.87816">
        <ele>875.65</ele>
        <time>2019-09-07T07:09:12Z</time>
      </trkpt>
      <trkpt lat="42.94272" lon="0.87802">
        <ele>872.65</ele>
        <time>2019-09-07T07:09:25Z</time>
      </trkpt>
      <trkpt lat="42.94286" lon="0.87785">
        <ele>870.36</ele>
        <time>2019-09-07T07:09:42Z</time>
      </trkpt>
      <trkpt lat="42.94296" lon="0.87767">
        <ele>869.4</ele>
        <time>2019-09-07T07:09:55Z</time>
      </trkpt>
      <trkpt lat="42.94296" lon="0.87764">
        <ele>869.33</ele>
        <time>2019-09-07T07:09:57Z</time>
      </trkpt>
      <trkpt lat="42.9429" lon="0.87739">
        <ele>869.74</ele>
        <time>2019-09-07T07:10:17Z</time>
      </trkpt>
      <trkpt lat="42.94289" lon="0.87738">
        <ele>869.65</ele>
        <time>2019-09-07T07:10:18Z</time>
      </trkpt>
      <trkpt lat="42.94275" lon="0.87716">
        <ele>867.39</ele>
        <time>2019-09-07T07:10:35Z</time>
      </trkpt>
      <trkpt lat="42.94255" lon="0.87696">
        <ele>865.5</ele>
        <time>2019-09-07T07:10:52Z</time>
      </trkpt>
      <trkpt lat="42.94249" lon="0.87682">
        <ele>862.4</ele>
        <time>2019-09-07T07:11:03Z</time>
      </trkpt>
      <trkpt lat="42.94244" lon="0.87668">
        <ele>860.08</ele>
        <time>2019-09-07T07:11:15Z</time>
      </trkpt>
      <trkpt lat="42.94249" lon="0.87648">
        <ele>856.99</ele>
        <time>2019-09-07T07:11:30Z</time>
      </trkpt>
      <trkpt lat="42.94251" lon="0.87639">
        <ele>855.64</ele>
        <time>2019-09-07T07:11:36Z</time>
      </trkpt>
      <trkpt lat="42.94256" lon="0.87612">
        <ele>853.04</ele>
        <time>2019-09-07T07:11:52Z</time>
      </trkpt>
      <trkpt lat="42.9426" lon="0.87604">
        <ele>852.45</ele>
        <time>2019-09-07T07:11:59Z</time>
      </trkpt>
      <trkpt lat="42.94268" lon="0.87583">
        <ele>851.9</ele>
        <time>2019-09-07T07:12:12Z</time>
      </trkpt>
      <trkpt lat="42.9428" lon="0.87561">
        <ele>850.32</ele>
        <time>2019-09-07T07:12:27Z</time>
      </trkpt>
      <trkpt lat="42.9428" lon="0.87535">
        <ele>848.43</ele>
        <time>2019-09-07T07:12:40Z</time>
      </trkpt>
      <trkpt lat="42.94282" lon="0.87505">
        <ele>847.71</ele>
        <time>2019-09-07T07:12:56Z</time>
      </trkpt>
      <trkpt lat="42.94276" lon="0.87486">
        <ele>848.3</ele>
        <time>2019-09-07T07:13:10Z</time>
      </trkpt>
      <trkpt lat="42.94263" lon="0.87472">
        <ele>849.27</ele>
        <time>2019-09-07T07:13:22Z</time>
      </trkpt>
      <trkpt lat="42.94241" lon="0.87465">
        <ele>850.83</ele>
        <time>2019-09-07T07:13:38Z</time>
      </trkpt>
      <trkpt lat="42.94225" lon="0.87465">
        <ele>852.49</ele>
        <time>2019-09-07T07:13:55Z</time>
      </trkpt>
      <trkpt lat="42.94213" lon="0.87472">
        <ele>853.66</ele>
        <time>2019-09-07T07:14:05Z</time>
      </trkpt>
      <trkpt lat="42.94199" lon="0.87479">
        <ele>854.15</ele>
        <time>2019-09-07T07:14:20Z</time>
      </trkpt>
      <trkpt lat="42.94175" lon="0.87473">
        <ele>855.79</ele>
        <time>2019-09-07T07:14:39Z</time>
      </trkpt>
      <trkpt lat="42.9417" lon="0.87472">
        <ele>856.07</ele>
        <time>2019-09-07T07:14:44Z</time>
      </trkpt>
      <trkpt lat="42.94153" lon="0.87461">
        <ele>856.19</ele>
        <time>2019-09-07T07:15:03Z</time>
      </trkpt>
      <trkpt lat="42.94143" lon="0.87439">
        <ele>858.54</ele>
        <time>2019-09-07T07:15:22Z</time>
      </trkpt>
      <trkpt lat="42.94125" lon="0.87426">
        <ele>859.31</ele>
        <time>2019-09-07T07:15:40Z</time>
      </trkpt>
      <trkpt lat="42.94103" lon="0.87399">
        <ele>859.25</ele>
        <time>2019-09-07T07:16:01Z</time>
      </trkpt>
      <trkpt lat="42.94089" lon="0.87377">
        <ele>859.32</ele>
        <time>2019-09-07T07:16:19Z</time>
      </trkpt>
      <trkpt lat="42.94078" lon="0.8736">
        <ele>858.09</ele>
        <time>2019-09-07T07:16:37Z</time>
      </trkpt>
      <trkpt lat="42.94068" lon="0.87339">
        <ele>858.19</ele>
        <time>2019-09-07T07:16:52Z</time>
      </trkpt>
      <trkpt lat="42.94062" lon="0.87328">
        <ele>858.3</ele>
        <time>2019-09-07T07:16:58Z</time>
      </trkpt>
      <trkpt lat="42.94048" lon="0.873">
        <ele>858.91</ele>
        <time>2019-09-07T07:17:16Z</time>
      </trkpt>
      <trkpt lat="42.94034" lon="0.87285">
        <ele>858.75</ele>
        <time>2019-09-07T07:17:31Z</time>
      </trkpt>
      <trkpt lat="42.94011" lon="0.87267">
        <ele>858.98</ele>
        <time>2019-09-07T07:17:52Z</time>
      </trkpt>
      <trkpt lat="42.93995" lon="0.87246">
        <ele>860.07</ele>
        <time>2019-09-07T07:18:09Z</time>
      </trkpt>
      <trkpt lat="42.93989" lon="0.87237">
        <ele>861</ele>
        <time>2019-09-07T07:18:27Z</time>
      </trkpt>
      <trkpt lat="42.93985" lon="0.87223">
        <ele>861.31</ele>
        <time>2019-09-07T07:18:46Z</time>
      </trkpt>
      <trkpt lat="42.93973" lon="0.87196">
        <ele>862.42</ele>
        <time>2019-09-07T07:19:03Z</time>
      </trkpt>
      <trkpt lat="42.93962" lon="0.87174">
        <ele>863.05</ele>
        <time>2019-09-07T07:19:19Z</time>
      </trkpt>
      <trkpt lat="42.93945" lon="0.87145">
        <ele>862.28</ele>
        <time>2019-09-07T07:19:39Z</time>
      </trkpt>
      <trkpt lat="42.93934" lon="0.87128">
        <ele>862.1</ele>
        <time>2019-09-07T07:19:58Z</time>
      </trkpt>
      <trkpt lat="42.93926" lon="0.8711">
        <ele>859.07</ele>
        <time>2019-09-07T07:20:13Z</time>
      </trkpt>
      <trkpt lat="42.93914" lon="0.87084">
        <ele>856.01</ele>
        <time>2019-09-07T07:20:27Z</time>
      </trkpt>
      <trkpt lat="42.93908" lon="0.87065">
        <ele>852.99</ele>
        <time>2019-09-07T07:20:41Z</time>
      </trkpt>
      <trkpt lat="42.93915" lon="0.87034">
        <ele>853.74</ele>
        <time>2019-09-07T07:21:00Z</time>
      </trkpt>
      <trkpt lat="42.93918" lon="0.87031">
        <ele>854.24</ele>
        <time>2019-09-07T07:21:03Z</time>
      </trkpt>
      <trkpt lat="42.93923" lon="0.8701">
        <ele>856.01</ele>
        <time>2019-09-07T07:21:17Z</time>
      </trkpt>
      <trkpt lat="42.93924" lon="0.86988">
        <ele>857.76</ele>
        <time>2019-09-07T07:21:32Z</time>
      </trkpt>
      <trkpt lat="42.93924" lon="0.86979">
        <ele>858.74</ele>
        <time>2019-09-07T07:21:37Z</time>
      </trkpt>
      <trkpt lat="42.93923" lon="0.86969">
        <ele>860.28</ele>
        <time>2019-09-07T07:21:55Z</time>
      </trkpt>
      <trkpt lat="42.93923" lon="0.86955">
        <ele>860.87</ele>
        <time>2019-09-07T07:22:10Z</time>
      </trkpt>
      <trkpt lat="42.93924" lon="0.86948">
        <ele>861.03</ele>
        <time>2019-09-07T07:22:16Z</time>
      </trkpt>
      <trkpt lat="42.93926" lon="0.86922">
        <ele>858.88</ele>
        <time>2019-09-07T07:22:31Z</time>
      </trkpt>
      <trkpt lat="42.93932" lon="0.86895">
        <ele>856.97</ele>
        <time>2019-09-07T07:22:45Z</time>
      </trkpt>
      <trkpt lat="42.93939" lon="0.86868">
        <ele>854.2</ele>
        <time>2019-09-07T07:23:01Z</time>
      </trkpt>
      <trkpt lat="42.93951" lon="0.86846">
        <ele>853.68</ele>
        <time>2019-09-07T07:23:17Z</time>
      </trkpt>
      <trkpt lat="42.93952" lon="0.86843">
        <ele>853.32</ele>
        <time>2019-09-07T07:23:25Z</time>
      </trkpt>
      <trkpt lat="42.93952" lon="0.86842">
        <ele>853.35</ele>
        <time>2019-09-07T07:23:26Z</time>
      </trkpt>
      <trkpt lat="42.93953" lon="0.86841">
        <ele>853.39</ele>
        <time>2019-09-07T07:23:27Z</time>
      </trkpt>
      <trkpt lat="42.93954" lon="0.8684">
        <ele>853.41</ele>
        <time>2019-09-07T07:23:28Z</time>
      </trkpt>
      <trkpt lat="42.93954" lon="0.86839">
        <ele>853.42</ele>
        <time>2019-09-07T07:23:29Z</time>
      </trkpt>
      <trkpt lat="42.93964" lon="0.86818">
        <ele>853.27</ele>
        <time>2019-09-07T07:23:44Z</time>
      </trkpt>
      <trkpt lat="42.93973" lon="0.86793">
        <ele>852.7</ele>
        <time>2019-09-07T07:23:59Z</time>
      </trkpt>
      <trkpt lat="42.9398" lon="0.86776">
        <ele>852.63</ele>
        <time>2019-09-07T07:24:10Z</time>
      </trkpt>
      <trkpt lat="42.9398" lon="0.86775">
        <ele>852.63</ele>
        <time>2019-09-07T07:24:11Z</time>
      </trkpt>
      <trkpt lat="42.93981" lon="0.86773">
        <ele>852.63</ele>
        <time>2019-09-07T07:24:12Z</time>
      </trkpt>
      <trkpt lat="42.93982" lon="0.86771">
        <ele>852.63</ele>
        <time>2019-09-07T07:24:13Z</time>
      </trkpt>
      <trkpt lat="42.93983" lon="0.86769">
        <ele>852.63</ele>
        <time>2019-09-07T07:24:14Z</time>
      </trkpt>
      <trkpt lat="42.93983" lon="0.86768">
        <ele>852.63</ele>
        <time>2019-09-07T07:24:15Z</time>
      </trkpt>
      <trkpt lat="42.93984" lon="0.86766">
        <ele>852.63</ele>
        <time>2019-09-07T07:24:16Z</time>
      </trkpt>
      <trkpt lat="42.93985" lon="0.86765">
        <ele>852.61</ele>
        <time>2019-09-07T07:24:17Z</time>
      </trkpt>
      <trkpt lat="42.93986" lon="0.86764">
        <ele>852.58</ele>
        <time>2019-09-07T07:24:18Z</time>
      </trkpt>
      <trkpt lat="42.94001" lon="0.86744">
        <ele>851.17</ele>
        <time>2019-09-07T07:24:35Z</time>
      </trkpt>
      <trkpt lat="42.94009" lon="0.86742">
        <ele>850.85</ele>
        <time>2019-09-07T07:24:41Z</time>
      </trkpt>
      <trkpt lat="42.9401" lon="0.86741">
        <ele>850.8</ele>
        <time>2019-09-07T07:24:42Z</time>
      </trkpt>
      <trkpt lat="42.94014" lon="0.86725">
        <ele>850.63</ele>
        <time>2019-09-07T07:24:52Z</time>
      </trkpt>
      <trkpt lat="42.94014" lon="0.86723">
        <ele>850.62</ele>
        <time>2019-09-07T07:24:53Z</time>
      </trkpt>
      <trkpt lat="42.94014" lon="0.86721">
        <ele>850.6</ele>
        <time>2019-09-07T07:24:54Z</time>
      </trkpt>
      <trkpt lat="42.94014" lon="0.8672">
        <ele>850.58</ele>
        <time>2019-09-07T07:24:55Z</time>
      </trkpt>
      <trkpt lat="42.94016" lon="0.86695">
        <ele>849.08</ele>
        <time>2019-09-07T07:25:10Z</time>
      </trkpt>
      <trkpt lat="42.94016" lon="0.86673">
        <ele>848.01</ele>
        <time>2019-09-07T07:25:21Z</time>
      </trkpt>
      <trkpt lat="42.94016" lon="0.86672">
        <ele>847.91</ele>
        <time>2019-09-07T07:25:22Z</time>
      </trkpt>
      <trkpt lat="42.94019" lon="0.86661">
        <ele>847.73</ele>
        <time>2019-09-07T07:25:28Z</time>
      </trkpt>
      <trkpt lat="42.94019" lon="0.86659">
        <ele>847.74</ele>
        <time>2019-09-07T07:25:29Z</time>
      </trkpt>
      <trkpt lat="42.94022" lon="0.86649">
        <ele>848.01</ele>
        <time>2019-09-07T07:25:35Z</time>
      </trkpt>
      <trkpt lat="42.94023" lon="0.86643">
        <ele>848.22</ele>
        <time>2019-09-07T07:25:39Z</time>
      </trkpt>
      <trkpt lat="42.94024" lon="0.86641">
        <ele>848.28</ele>
        <time>2019-09-07T07:25:40Z</time>
      </trkpt>
      <trkpt lat="42.94026" lon="0.86636">
        <ele>848.53</ele>
        <time>2019-09-07T07:25:44Z</time>
      </trkpt>
      <trkpt lat="42.94035" lon="0.86614">
        <ele>849.55</ele>
        <time>2019-09-07T07:25:59Z</time>
      </trkpt>
      <trkpt lat="42.9404" lon="0.86603">
        <ele>850.12</ele>
        <time>2019-09-07T07:26:07Z</time>
      </trkpt>
      <trkpt lat="42.94043" lon="0.86599">
        <ele>850.33</ele>
        <time>2019-09-07T07:26:11Z</time>
      </trkpt>
      <trkpt lat="42.94046" lon="0.86597">
        <ele>850.53</ele>
        <time>2019-09-07T07:26:14Z</time>
      </trkpt>
      <trkpt lat="42.94059" lon="0.86587">
        <ele>851.49</ele>
        <time>2019-09-07T07:26:25Z</time>
      </trkpt>
      <trkpt lat="42.94069" lon="0.86577">
        <ele>852.53</ele>
        <time>2019-09-07T07:26:35Z</time>
      </trkpt>
      <trkpt lat="42.94081" lon="0.86569">
        <ele>853.79</ele>
        <time>2019-09-07T07:26:46Z</time>
      </trkpt>
      <trkpt lat="42.94091" lon="0.86559">
        <ele>855.04</ele>
        <time>2019-09-07T07:26:59Z</time>
      </trkpt>
      <trkpt lat="42.94102" lon="0.8655">
        <ele>856.29</ele>
        <time>2019-09-07T07:27:11Z</time>
      </trkpt>
      <trkpt lat="42.94103" lon="0.86549">
        <ele>856.51</ele>
        <time>2019-09-07T07:27:12Z</time>
      </trkpt>
      <trkpt lat="42.94109" lon="0.86539">
        <ele>857.3</ele>
        <time>2019-09-07T07:27:20Z</time>
      </trkpt>
      <trkpt lat="42.9411" lon="0.86538">
        <ele>857.43</ele>
        <time>2019-09-07T07:27:21Z</time>
      </trkpt>
      <trkpt lat="42.94114" lon="0.86521">
        <ele>858.45</ele>
        <time>2019-09-07T07:27:31Z</time>
      </trkpt>
      <trkpt lat="42.94116" lon="0.86515">
        <ele>858.78</ele>
        <time>2019-09-07T07:27:35Z</time>
      </trkpt>
      <trkpt lat="42.94116" lon="0.86513">
        <ele>858.81</ele>
        <time>2019-09-07T07:27:36Z</time>
      </trkpt>
      <trkpt lat="42.94117" lon="0.86512">
        <ele>858.84</ele>
        <time>2019-09-07T07:27:37Z</time>
      </trkpt>
      <trkpt lat="42.94117" lon="0.86509">
        <ele>858.86</ele>
        <time>2019-09-07T07:27:38Z</time>
      </trkpt>
      <trkpt lat="42.94121" lon="0.86494">
        <ele>861.14</ele>
        <time>2019-09-07T07:27:48Z</time>
      </trkpt>
      <trkpt lat="42.94126" lon="0.86486">
        <ele>861.39</ele>
        <time>2019-09-07T07:27:56Z</time>
      </trkpt>
      <trkpt lat="42.94127" lon="0.86484">
        <ele>861.58</ele>
        <time>2019-09-07T07:27:58Z</time>
      </trkpt>
      <trkpt lat="42.94127" lon="0.86482">
        <ele>861.68</ele>
        <time>2019-09-07T07:27:59Z</time>
      </trkpt>
      <trkpt lat="42.94131" lon="0.86464">
        <ele>863.92</ele>
        <time>2019-09-07T07:28:15Z</time>
      </trkpt>
      <trkpt lat="42.94148" lon="0.86452">
        <ele>867.04</ele>
        <time>2019-09-07T07:28:34Z</time>
      </trkpt>
      <trkpt lat="42.94161" lon="0.86444">
        <ele>870.09</ele>
        <time>2019-09-07T07:28:51Z</time>
      </trkpt>
      <trkpt lat="42.94176" lon="0.86438">
        <ele>872.88</ele>
        <time>2019-09-07T07:29:09Z</time>
      </trkpt>
      <trkpt lat="42.94186" lon="0.86436">
        <ele>875.39</ele>
        <time>2019-09-07T07:29:26Z</time>
      </trkpt>
      <trkpt lat="42.94204" lon="0.86427">
        <ele>878.26</ele>
        <time>2019-09-07T07:29:44Z</time>
      </trkpt>
      <trkpt lat="42.94218" lon="0.8642">
        <ele>881.33</ele>
        <time>2019-09-07T07:30:01Z</time>
      </trkpt>
      <trkpt lat="42.94231" lon="0.86405">
        <ele>884.41</ele>
        <time>2019-09-07T07:30:20Z</time>
      </trkpt>
      <trkpt lat="42.94237" lon="0.86387">
        <ele>887.47</ele>
        <time>2019-09-07T07:30:36Z</time>
      </trkpt>
      <trkpt lat="42.94243" lon="0.86372">
        <ele>890.65</ele>
        <time>2019-09-07T07:30:54Z</time>
      </trkpt>
      <trkpt lat="42.94245" lon="0.86355">
        <ele>893.74</ele>
        <time>2019-09-07T07:31:10Z</time>
      </trkpt>
      <trkpt lat="42.94249" lon="0.86339">
        <ele>896.76</ele>
        <time>2019-09-07T07:31:27Z</time>
      </trkpt>
      <trkpt lat="42.94252" lon="0.86322">
        <ele>899.92</ele>
        <time>2019-09-07T07:31:44Z</time>
      </trkpt>
      <trkpt lat="42.94251" lon="0.86303">
        <ele>902.38</ele>
        <time>2019-09-07T07:31:59Z</time>
      </trkpt>
      <trkpt lat="42.94252" lon="0.86281">
        <ele>905.47</ele>
        <time>2019-09-07T07:32:17Z</time>
      </trkpt>
      <trkpt lat="42.94257" lon="0.86264">
        <ele>908.51</ele>
        <time>2019-09-07T07:32:35Z</time>
      </trkpt>
      <trkpt lat="42.94261" lon="0.86241">
        <ele>911.61</ele>
        <time>2019-09-07T07:32:54Z</time>
      </trkpt>
      <trkpt lat="42.94262" lon="0.86237">
        <ele>912.05</ele>
        <time>2019-09-07T07:32:57Z</time>
      </trkpt>
      <trkpt lat="42.94266" lon="0.86217">
        <ele>914.56</ele>
        <time>2019-09-07T07:33:15Z</time>
      </trkpt>
      <trkpt lat="42.94266" lon="0.86194">
        <ele>917.24</ele>
        <time>2019-09-07T07:33:31Z</time>
      </trkpt>
      <trkpt lat="42.94266" lon="0.86181">
        <ele>918.73</ele>
        <time>2019-09-07T07:33:44Z</time>
      </trkpt>
      <trkpt lat="42.94268" lon="0.86155">
        <ele>920.21</ele>
        <time>2019-09-07T07:34:01Z</time>
      </trkpt>
      <trkpt lat="42.94277" lon="0.86144">
        <ele>920.72</ele>
        <time>2019-09-07T07:34:11Z</time>
      </trkpt>
      <trkpt lat="42.94281" lon="0.86138">
        <ele>921.11</ele>
        <time>2019-09-07T07:34:15Z</time>
      </trkpt>
      <trkpt lat="42.94287" lon="0.86121">
        <ele>922.18</ele>
        <time>2019-09-07T07:34:27Z</time>
      </trkpt>
      <trkpt lat="42.94298" lon="0.86106">
        <ele>923.74</ele>
        <time>2019-09-07T07:34:43Z</time>
      </trkpt>
      <trkpt lat="42.94301" lon="0.86097">
        <ele>925.34</ele>
        <time>2019-09-07T07:34:56Z</time>
      </trkpt>
      <trkpt lat="42.94306" lon="0.86099">
        <ele>925.69</ele>
        <time>2019-09-07T07:35:19Z</time>
      </trkpt>
      <trkpt lat="42.94308" lon="0.86096">
        <ele>925.87</ele>
        <time>2019-09-07T07:35:45Z</time>
      </trkpt>
      <trkpt lat="42.94311" lon="0.86073">
        <ele>927.76</ele>
        <time>2019-09-07T07:36:02Z</time>
      </trkpt>
      <trkpt lat="42.94314" lon="0.86048">
        <ele>930.27</ele>
        <time>2019-09-07T07:36:19Z</time>
      </trkpt>
      <trkpt lat="42.94316" lon="0.86033">
        <ele>932.02</ele>
        <time>2019-09-07T07:36:31Z</time>
      </trkpt>
      <trkpt lat="42.94316" lon="0.86015">
        <ele>934.99</ele>
        <time>2019-09-07T07:36:48Z</time>
      </trkpt>
      <trkpt lat="42.94318" lon="0.85997">
        <ele>938.03</ele>
        <time>2019-09-07T07:37:08Z</time>
      </trkpt>
      <trkpt lat="42.94326" lon="0.85973">
        <ele>940.78</ele>
        <time>2019-09-07T07:37:25Z</time>
      </trkpt>
      <trkpt lat="42.94329" lon="0.85942">
        <ele>943.57</ele>
        <time>2019-09-07T07:37:45Z</time>
      </trkpt>
      <trkpt lat="42.94338" lon="0.85919">
        <ele>946.36</ele>
        <time>2019-09-07T07:38:03Z</time>
      </trkpt>
      <trkpt lat="42.94344" lon="0.85904">
        <ele>948.8</ele>
        <time>2019-09-07T07:38:21Z</time>
      </trkpt>
      <trkpt lat="42.9435" lon="0.85882">
        <ele>951.33</ele>
        <time>2019-09-07T07:38:38Z</time>
      </trkpt>
      <trkpt lat="42.94353" lon="0.85876">
        <ele>952.35</ele>
        <time>2019-09-07T07:38:45Z</time>
      </trkpt>
      <trkpt lat="42.94362" lon="0.8586">
        <ele>955.1</ele>
        <time>2019-09-07T07:39:06Z</time>
      </trkpt>
      <trkpt lat="42.94374" lon="0.85847">
        <ele>957.48</ele>
        <time>2019-09-07T07:39:24Z</time>
      </trkpt>
      <trkpt lat="42.94395" lon="0.85842">
        <ele>960.75</ele>
        <time>2019-09-07T07:39:42Z</time>
      </trkpt>
      <trkpt lat="42.94409" lon="0.85844">
        <ele>963.03</ele>
        <time>2019-09-07T07:40:00Z</time>
      </trkpt>
      <trkpt lat="42.9442" lon="0.85845">
        <ele>966.06</ele>
        <time>2019-09-07T07:40:14Z</time>
      </trkpt>
      <trkpt lat="42.94428" lon="0.85846">
        <ele>969.22</ele>
        <time>2019-09-07T07:40:30Z</time>
      </trkpt>
      <trkpt lat="42.94433" lon="0.85848">
        <ele>972.23</ele>
        <time>2019-09-07T07:40:44Z</time>
      </trkpt>
      <trkpt lat="42.94443" lon="0.85848">
        <ele>974.09</ele>
        <time>2019-09-07T07:40:54Z</time>
      </trkpt>
      <trkpt lat="42.94461" lon="0.85856">
        <ele>976.69</ele>
        <time>2019-09-07T07:41:13Z</time>
      </trkpt>
      <trkpt lat="42.94471" lon="0.85862">
        <ele>979.49</ele>
        <time>2019-09-07T07:41:34Z</time>
      </trkpt>
      <trkpt lat="42.94486" lon="0.85863">
        <ele>982.78</ele>
        <time>2019-09-07T07:41:51Z</time>
      </trkpt>
      <trkpt lat="42.94496" lon="0.85864">
        <ele>985.92</ele>
        <time>2019-09-07T07:42:08Z</time>
      </trkpt>
      <trkpt lat="42.94504" lon="0.85865">
        <ele>988.93</ele>
        <time>2019-09-07T07:42:24Z</time>
      </trkpt>
      <trkpt lat="42.94514" lon="0.85864">
        <ele>991.11</ele>
        <time>2019-09-07T07:42:48Z</time>
      </trkpt>
      <trkpt lat="42.94522" lon="0.85861">
        <ele>994.26</ele>
        <time>2019-09-07T07:43:03Z</time>
      </trkpt>
      <trkpt lat="42.94529" lon="0.85857">
        <ele>997.41</ele>
        <time>2019-09-07T07:43:19Z</time>
      </trkpt>
      <trkpt lat="42.94539" lon="0.85851">
        <ele>1000.53</ele>
        <time>2019-09-07T07:43:34Z</time>
      </trkpt>
      <trkpt lat="42.94552" lon="0.85838">
        <ele>1003.47</ele>
        <time>2019-09-07T07:43:53Z</time>
      </trkpt>
      <trkpt lat="42.94552" lon="0.85822">
        <ele>1006.09</ele>
        <time>2019-09-07T07:44:09Z</time>
      </trkpt>
      <trkpt lat="42.94557" lon="0.858">
        <ele>1008.73</ele>
        <time>2019-09-07T07:44:29Z</time>
      </trkpt>
      <trkpt lat="42.94561" lon="0.85778">
        <ele>1011.26</ele>
        <time>2019-09-07T07:44:46Z</time>
      </trkpt>
      <trkpt lat="42.94566" lon="0.85758">
        <ele>1013.84</ele>
        <time>2019-09-07T07:45:03Z</time>
      </trkpt>
      <trkpt lat="42.94568" lon="0.85736">
        <ele>1016.76</ele>
        <time>2019-09-07T07:45:21Z</time>
      </trkpt>
      <trkpt lat="42.94572" lon="0.85714">
        <ele>1019.66</ele>
        <time>2019-09-07T07:45:42Z</time>
      </trkpt>
      <trkpt lat="42.94574" lon="0.85712">
        <ele>1020.1</ele>
        <time>2019-09-07T07:45:45Z</time>
      </trkpt>
      <trkpt lat="42.94579" lon="0.85688">
        <ele>1022.27</ele>
        <time>2019-09-07T07:46:03Z</time>
      </trkpt>
      <trkpt lat="42.94581" lon="0.85663">
        <ele>1023.94</ele>
        <time>2019-09-07T07:46:20Z</time>
      </trkpt>
      <trkpt lat="42.9458" lon="0.85648">
        <ele>1026.76</ele>
        <time>2019-09-07T07:46:39Z</time>
      </trkpt>
      <trkpt lat="42.94576" lon="0.85621">
        <ele>1029.75</ele>
        <time>2019-09-07T07:46:57Z</time>
      </trkpt>
      <trkpt lat="42.94574" lon="0.85596">
        <ele>1032.42</ele>
        <time>2019-09-07T07:47:16Z</time>
      </trkpt>
      <trkpt lat="42.94574" lon="0.85573">
        <ele>1034.81</ele>
        <time>2019-09-07T07:47:35Z</time>
      </trkpt>
      <trkpt lat="42.94576" lon="0.85546">
        <ele>1037.63</ele>
        <time>2019-09-07T07:47:55Z</time>
      </trkpt>
      <trkpt lat="42.94581" lon="0.85534">
        <ele>1040.48</ele>
        <time>2019-09-07T07:48:13Z</time>
      </trkpt>
      <trkpt lat="42.9457" lon="0.85513">
        <ele>1042.54</ele>
        <time>2019-09-07T07:48:29Z</time>
      </trkpt>
      <trkpt lat="42.94557" lon="0.85499">
        <ele>1045.61</ele>
        <time>2019-09-07T07:48:46Z</time>
      </trkpt>
      <trkpt lat="42.94545" lon="0.85488">
        <ele>1048.63</ele>
        <time>2019-09-07T07:49:04Z</time>
      </trkpt>
      <trkpt lat="42.94531" lon="0.85478">
        <ele>1051.69</ele>
        <time>2019-09-07T07:49:22Z</time>
      </trkpt>
      <trkpt lat="42.94525" lon="0.85477">
        <ele>1053.69</ele>
        <time>2019-09-07T07:49:40Z</time>
      </trkpt>
      <trkpt lat="42.94521" lon="0.85468">
        <ele>1054.63</ele>
        <time>2019-09-07T07:50:00Z</time>
      </trkpt>
      <trkpt lat="42.94517" lon="0.85464">
        <ele>1057.67</ele>
        <time>2019-09-07T07:50:16Z</time>
      </trkpt>
      <trkpt lat="42.94512" lon="0.85454">
        <ele>1060.67</ele>
        <time>2019-09-07T07:50:29Z</time>
      </trkpt>
      <trkpt lat="42.94512" lon="0.85443">
        <ele>1063.68</ele>
        <time>2019-09-07T07:50:43Z</time>
      </trkpt>
      <trkpt lat="42.94504" lon="0.85428">
        <ele>1065.89</ele>
        <time>2019-09-07T07:50:57Z</time>
      </trkpt>
      <trkpt lat="42.94498" lon="0.85421">
        <ele>1066.39</ele>
        <time>2019-09-07T07:51:05Z</time>
      </trkpt>
      <trkpt lat="42.94494" lon="0.85415">
        <ele>1068</ele>
        <time>2019-09-07T07:51:10Z</time>
      </trkpt>
      <trkpt lat="42.94489" lon="0.85397">
        <ele>1068.45</ele>
        <time>2019-09-07T07:51:24Z</time>
      </trkpt>
      <trkpt lat="42.9449" lon="0.85391">
        <ele>1068.89</ele>
        <time>2019-09-07T07:51:28Z</time>
      </trkpt>
      <trkpt lat="42.94492" lon="0.85386">
        <ele>1069.91</ele>
        <time>2019-09-07T07:51:48Z</time>
      </trkpt>
      <trkpt lat="42.94501" lon="0.85381">
        <ele>1070.75</ele>
        <time>2019-09-07T07:52:01Z</time>
      </trkpt>
      <trkpt lat="42.94518" lon="0.85372">
        <ele>1073.57</ele>
        <time>2019-09-07T07:52:20Z</time>
      </trkpt>
      <trkpt lat="42.94529" lon="0.85359">
        <ele>1076.58</ele>
        <time>2019-09-07T07:52:36Z</time>
      </trkpt>
      <trkpt lat="42.94535" lon="0.85341">
        <ele>1079.22</ele>
        <time>2019-09-07T07:52:54Z</time>
      </trkpt>
      <trkpt lat="42.94544" lon="0.85318">
        <ele>1081.56</ele>
        <time>2019-09-07T07:53:11Z</time>
      </trkpt>
      <trkpt lat="42.94545" lon="0.85314">
        <ele>1081.77</ele>
        <time>2019-09-07T07:53:13Z</time>
      </trkpt>
      <trkpt lat="42.94546" lon="0.85307">
        <ele>1082.89</ele>
        <time>2019-09-07T07:53:25Z</time>
      </trkpt>
      <trkpt lat="42.94549" lon="0.85302">
        <ele>1083.06</ele>
        <time>2019-09-07T07:53:36Z</time>
      </trkpt>
      <trkpt lat="42.94559" lon="0.85287">
        <ele>1084.93</ele>
        <time>2019-09-07T07:53:52Z</time>
      </trkpt>
      <trkpt lat="42.94569" lon="0.8527">
        <ele>1087.04</ele>
        <time>2019-09-07T07:54:10Z</time>
      </trkpt>
      <trkpt lat="42.94579" lon="0.85254">
        <ele>1088.62</ele>
        <time>2019-09-07T07:54:24Z</time>
      </trkpt>
      <trkpt lat="42.94586" lon="0.85233">
        <ele>1089.53</ele>
        <time>2019-09-07T07:54:37Z</time>
      </trkpt>
      <trkpt lat="42.94593" lon="0.85215">
        <ele>1091.07</ele>
        <time>2019-09-07T07:54:51Z</time>
      </trkpt>
      <trkpt lat="42.946" lon="0.85184">
        <ele>1091.94</ele>
        <time>2019-09-07T07:55:12Z</time>
      </trkpt>
      <trkpt lat="42.94608" lon="0.85161">
        <ele>1092.78</ele>
        <time>2019-09-07T07:55:29Z</time>
      </trkpt>
      <trkpt lat="42.94611" lon="0.85144">
        <ele>1094.01</ele>
        <time>2019-09-07T07:55:43Z</time>
      </trkpt>
      <trkpt lat="42.94616" lon="0.85126">
        <ele>1095.56</ele>
        <time>2019-09-07T07:56:00Z</time>
      </trkpt>
      <trkpt lat="42.9462" lon="0.85093">
        <ele>1097.08</ele>
        <time>2019-09-07T07:56:17Z</time>
      </trkpt>
      <trkpt lat="42.94623" lon="0.85064">
        <ele>1096.79</ele>
        <time>2019-09-07T07:56:35Z</time>
      </trkpt>
      <trkpt lat="42.9463" lon="0.85043">
        <ele>1097.85</ele>
        <time>2019-09-07T07:56:53Z</time>
      </trkpt>
      <trkpt lat="42.94635" lon="0.8503">
        <ele>1097.89</ele>
        <time>2019-09-07T07:57:01Z</time>
      </trkpt>
      <trkpt lat="42.94645" lon="0.85007">
        <ele>1098.76</ele>
        <time>2019-09-07T07:57:19Z</time>
      </trkpt>
      <trkpt lat="42.94655" lon="0.8498">
        <ele>1099.32</ele>
        <time>2019-09-07T07:57:36Z</time>
      </trkpt>
      <trkpt lat="42.94664" lon="0.84959">
        <ele>1100.06</ele>
        <time>2019-09-07T07:57:53Z</time>
      </trkpt>
      <trkpt lat="42.94676" lon="0.84943">
        <ele>1101.04</ele>
        <time>2019-09-07T07:58:11Z</time>
      </trkpt>
      <trkpt lat="42.94694" lon="0.84938">
        <ele>1101.36</ele>
        <time>2019-09-07T07:58:29Z</time>
      </trkpt>
      <trkpt lat="42.94705" lon="0.84935">
        <ele>1100.74</ele>
        <time>2019-09-07T07:58:36Z</time>
      </trkpt>
      <trkpt lat="42.94725" lon="0.84933">
        <ele>1098.97</ele>
        <time>2019-09-07T07:58:54Z</time>
      </trkpt>
      <trkpt lat="42.9475" lon="0.84926">
        <ele>1096.88</ele>
        <time>2019-09-07T07:59:12Z</time>
      </trkpt>
      <trkpt lat="42.94759" lon="0.84899">
        <ele>1097.84</ele>
        <time>2019-09-07T07:59:33Z</time>
      </trkpt>
      <trkpt lat="42.94761" lon="0.84881">
        <ele>1098.67</ele>
        <time>2019-09-07T07:59:49Z</time>
      </trkpt>
      <trkpt lat="42.94763" lon="0.84871">
        <ele>1101.7</ele>
        <time>2019-09-07T08:00:04Z</time>
      </trkpt>
      <trkpt lat="42.94766" lon="0.84853">
        <ele>1104.75</ele>
        <time>2019-09-07T08:00:19Z</time>
      </trkpt>
      <trkpt lat="42.94768" lon="0.84827">
        <ele>1107.76</ele>
        <time>2019-09-07T08:00:37Z</time>
      </trkpt>
      <trkpt lat="42.94766" lon="0.84805">
        <ele>1110.93</ele>
        <time>2019-09-07T08:00:55Z</time>
      </trkpt>
      <trkpt lat="42.94766" lon="0.84786">
        <ele>1113.97</ele>
        <time>2019-09-07T08:01:12Z</time>
      </trkpt>
      <trkpt lat="42.94772" lon="0.84767">
        <ele>1116.95</ele>
        <time>2019-09-07T08:01:32Z</time>
      </trkpt>
      <trkpt lat="42.94777" lon="0.84753">
        <ele>1120.15</ele>
        <time>2019-09-07T08:01:48Z</time>
      </trkpt>
      <trkpt lat="42.94784" lon="0.84728">
        <ele>1122.52</ele>
        <time>2019-09-07T08:02:09Z</time>
      </trkpt>
      <trkpt lat="42.94796" lon="0.84716">
        <ele>1122.98</ele>
        <time>2019-09-07T08:02:24Z</time>
      </trkpt>
      <trkpt lat="42.9481" lon="0.84707">
        <ele>1124.13</ele>
        <time>2019-09-07T08:02:40Z</time>
      </trkpt>
      <trkpt lat="42.94827" lon="0.84691">
        <ele>1123.62</ele>
        <time>2019-09-07T08:02:56Z</time>
      </trkpt>
      <trkpt lat="42.94826" lon="0.84687">
        <ele>1123.59</ele>
        <time>2019-09-07T08:02:58Z</time>
      </trkpt>
      <trkpt lat="42.94825" lon="0.84672">
        <ele>1124.96</ele>
        <time>2019-09-07T08:03:17Z</time>
      </trkpt>
      <trkpt lat="42.9482" lon="0.84649">
        <ele>1125.75</ele>
        <time>2019-09-07T08:03:34Z</time>
      </trkpt>
      <trkpt lat="42.94817" lon="0.84641">
        <ele>1126.3</ele>
        <time>2019-09-07T08:03:39Z</time>
      </trkpt>
      <trkpt lat="42.94817" lon="0.84624">
        <ele>1127.39</ele>
        <time>2019-09-07T08:03:54Z</time>
      </trkpt>
      <trkpt lat="42.94816" lon="0.8462">
        <ele>1128.36</ele>
        <time>2019-09-07T08:04:21Z</time>
      </trkpt>
      <trkpt lat="42.94815" lon="0.84617">
        <ele>1128.35</ele>
        <time>2019-09-07T08:04:52Z</time>
      </trkpt>
      <trkpt lat="42.94815" lon="0.84617">
        <ele>1135.65</ele>
        <time>2019-09-07T08:04:55Z</time>
      </trkpt>
      <trkpt lat="42.94814" lon="0.84617">
        <ele>1132.07</ele>
        <time>2019-09-07T08:04:56Z</time>
      </trkpt>
      <trkpt lat="42.94814" lon="0.84617">
        <ele>1128.86</ele>
        <time>2019-09-07T08:04:59Z</time>
      </trkpt>
      <trkpt lat="42.94815" lon="0.84617">
        <ele>1128.62</ele>
        <time>2019-09-07T08:05:00Z</time>
      </trkpt>
      <trkpt lat="42.9482" lon="0.84604">
        <ele>1128.38</ele>
        <time>2019-09-07T08:05:18Z</time>
      </trkpt>
      <trkpt lat="42.94825" lon="0.84586">
        <ele>1128.38</ele>
        <time>2019-09-07T08:05:36Z</time>
      </trkpt>
      <trkpt lat="42.9483" lon="0.84563">
        <ele>1128.38</ele>
        <time>2019-09-07T08:05:55Z</time>
      </trkpt>
      <trkpt lat="42.9483" lon="0.84561">
        <ele>1135.19</ele>
        <time>2019-09-07T08:05:56Z</time>
      </trkpt>
      <trkpt lat="42.9483" lon="0.8456">
        <ele>1135.23</ele>
        <time>2019-09-07T08:05:57Z</time>
      </trkpt>
      <trkpt lat="42.94832" lon="0.84553">
        <ele>1135.31</ele>
        <time>2019-09-07T08:06:03Z</time>
      </trkpt>
      <trkpt lat="42.94841" lon="0.84532">
        <ele>1137.42</ele>
        <time>2019-09-07T08:06:22Z</time>
      </trkpt>
      <trkpt lat="42.94852" lon="0.84513">
        <ele>1138.12</ele>
        <time>2019-09-07T08:06:40Z</time>
      </trkpt>
      <trkpt lat="42.94861" lon="0.84485">
        <ele>1140.94</ele>
        <time>2019-09-07T08:06:58Z</time>
      </trkpt>
      <trkpt lat="42.94864" lon="0.84462">
        <ele>1142.65</ele>
        <time>2019-09-07T08:07:17Z</time>
      </trkpt>
      <trkpt lat="42.94862" lon="0.84438">
        <ele>1145.09</ele>
        <time>2019-09-07T08:07:37Z</time>
      </trkpt>
      <trkpt lat="42.94857" lon="0.84416">
        <ele>1145.4</ele>
        <time>2019-09-07T08:07:55Z</time>
      </trkpt>
      <trkpt lat="42.94851" lon="0.84394">
        <ele>1144.43</ele>
        <time>2019-09-07T08:08:10Z</time>
      </trkpt>
      <trkpt lat="42.94844" lon="0.8437">
        <ele>1145.03</ele>
        <time>2019-09-07T08:08:30Z</time>
      </trkpt>
      <trkpt lat="42.94842" lon="0.84357">
        <ele>1146.37</ele>
        <time>2019-09-07T08:08:40Z</time>
      </trkpt>
      <trkpt lat="42.94843" lon="0.84348">
        <ele>1148.75</ele>
        <time>2019-09-07T08:09:01Z</time>
      </trkpt>
      <trkpt lat="42.9484" lon="0.84326">
        <ele>1150.25</ele>
        <time>2019-09-07T08:09:19Z</time>
      </trkpt>
      <trkpt lat="42.94841" lon="0.84302">
        <ele>1149.96</ele>
        <time>2019-09-07T08:09:35Z</time>
      </trkpt>
      <trkpt lat="42.94837" lon="0.84272">
        <ele>1149.57</ele>
        <time>2019-09-07T08:09:54Z</time>
      </trkpt>
      <trkpt lat="42.94838" lon="0.84243">
        <ele>1150.38</ele>
        <time>2019-09-07T08:10:12Z</time>
      </trkpt>
      <trkpt lat="42.94843" lon="0.84225">
        <ele>1151.29</ele>
        <time>2019-09-07T08:10:27Z</time>
      </trkpt>
      <trkpt lat="42.94847" lon="0.84205">
        <ele>1154.02</ele>
        <time>2019-09-07T08:10:44Z</time>
      </trkpt>
      <trkpt lat="42.94847" lon="0.84179">
        <ele>1154.1</ele>
        <time>2019-09-07T08:11:00Z</time>
      </trkpt>
      <trkpt lat="42.94849" lon="0.8416">
        <ele>1153.84</ele>
        <time>2019-09-07T08:11:14Z</time>
      </trkpt>
      <trkpt lat="42.94852" lon="0.84141">
        <ele>1155.85</ele>
        <time>2019-09-07T08:11:28Z</time>
      </trkpt>
      <trkpt lat="42.94852" lon="0.84138">
        <ele>1156.13</ele>
        <time>2019-09-07T08:11:30Z</time>
      </trkpt>
      <trkpt lat="42.94854" lon="0.84127">
        <ele>1156.98</ele>
        <time>2019-09-07T08:11:42Z</time>
      </trkpt>
      <trkpt lat="42.94854" lon="0.84121">
        <ele>1157.54</ele>
        <time>2019-09-07T08:12:00Z</time>
      </trkpt>
      <trkpt lat="42.94855" lon="0.84118">
        <ele>1157.95</ele>
        <time>2019-09-07T08:12:22Z</time>
      </trkpt>
      <trkpt lat="42.94854" lon="0.84121">
        <ele>1158.25</ele>
        <time>2019-09-07T08:12:54Z</time>
      </trkpt>
      <trkpt lat="42.94853" lon="0.84122">
        <ele>1157.93</ele>
        <time>2019-09-07T08:13:17Z</time>
      </trkpt>
      <trkpt lat="42.94852" lon="0.84122">
        <ele>1157.92</ele>
        <time>2019-09-07T08:13:49Z</time>
      </trkpt>
      <trkpt lat="42.94853" lon="0.84122">
        <ele>1157.37</ele>
        <time>2019-09-07T08:14:12Z</time>
      </trkpt>
      <trkpt lat="42.94853" lon="0.84123">
        <ele>1157.37</ele>
        <time>2019-09-07T08:14:33Z</time>
      </trkpt>
      <trkpt lat="42.94854" lon="0.84126">
        <ele>1157.52</ele>
        <time>2019-09-07T08:14:59Z</time>
      </trkpt>
      <trkpt lat="42.94855" lon="0.84126">
        <ele>1156.99</ele>
        <time>2019-09-07T08:15:26Z</time>
      </trkpt>
      <trkpt lat="42.94855" lon="0.84124">
        <ele>1156.68</ele>
        <time>2019-09-07T08:16:04Z</time>
      </trkpt>
      <trkpt lat="42.94855" lon="0.84125">
        <ele>1157.08</ele>
        <time>2019-09-07T08:16:37Z</time>
      </trkpt>
      <trkpt lat="42.94855" lon="0.84126">
        <ele>1156.97</ele>
        <time>2019-09-07T08:17:05Z</time>
      </trkpt>
      <trkpt lat="42.94857" lon="0.84127">
        <ele>1157.07</ele>
        <time>2019-09-07T08:17:33Z</time>
      </trkpt>
      <trkpt lat="42.94856" lon="0.84124">
        <ele>1156.98</ele>
        <time>2019-09-07T08:17:58Z</time>
      </trkpt>
      <trkpt lat="42.94855" lon="0.84125">
        <ele>1158</ele>
        <time>2019-09-07T08:18:28Z</time>
      </trkpt>
      <trkpt lat="42.94855" lon="0.84125">
        <ele>1157.18</ele>
        <time>2019-09-07T08:19:01Z</time>
      </trkpt>
      <trkpt lat="42.94855" lon="0.84126">
        <ele>1157.18</ele>
        <time>2019-09-07T08:19:32Z</time>
      </trkpt>
      <trkpt lat="42.94854" lon="0.84123">
        <ele>1157.18</ele>
        <time>2019-09-07T08:19:57Z</time>
      </trkpt>
      <trkpt lat="42.94854" lon="0.84123">
        <ele>1157.18</ele>
        <time>2019-09-07T08:20:29Z</time>
      </trkpt>
      <trkpt lat="42.94853" lon="0.84122">
        <ele>1157.18</ele>
        <time>2019-09-07T08:20:59Z</time>
      </trkpt>
      <trkpt lat="42.94851" lon="0.84121">
        <ele>1157.18</ele>
        <time>2019-09-07T08:21:26Z</time>
      </trkpt>
      <trkpt lat="42.94853" lon="0.84122">
        <ele>1157.18</ele>
        <time>2019-09-07T08:21:55Z</time>
      </trkpt>
      <trkpt lat="42.94852" lon="0.84121">
        <ele>1157.18</ele>
        <time>2019-09-07T08:22:24Z</time>
      </trkpt>
      <trkpt lat="42.94854" lon="0.84126">
        <ele>1157.18</ele>
        <time>2019-09-07T08:22:55Z</time>
      </trkpt>
      <trkpt lat="42.94856" lon="0.84126">
        <ele>1157.18</ele>
        <time>2019-09-07T08:23:32Z</time>
      </trkpt>
      <trkpt lat="42.94857" lon="0.84129">
        <ele>1157.18</ele>
        <time>2019-09-07T08:24:01Z</time>
      </trkpt>
      <trkpt lat="42.94859" lon="0.84133">
        <ele>1157.18</ele>
        <time>2019-09-07T08:24:27Z</time>
      </trkpt>
      <trkpt lat="42.9486" lon="0.84128">
        <ele>1157.18</ele>
        <time>2019-09-07T08:25:00Z</time>
      </trkpt>
      <trkpt lat="42.94856" lon="0.84127">
        <ele>1157.18</ele>
        <time>2019-09-07T08:25:27Z</time>
      </trkpt>
      <trkpt lat="42.94856" lon="0.84128">
        <ele>1157.18</ele>
        <time>2019-09-07T08:25:54Z</time>
      </trkpt>
      <trkpt lat="42.94858" lon="0.84127">
        <ele>1157.18</ele>
        <time>2019-09-07T08:26:20Z</time>
      </trkpt>
      <trkpt lat="42.94855" lon="0.84127">
        <ele>1157.18</ele>
        <time>2019-09-07T08:26:42Z</time>
      </trkpt>
      <trkpt lat="42.94855" lon="0.84125">
        <ele>1157.18</ele>
        <time>2019-09-07T08:27:03Z</time>
      </trkpt>
      <trkpt lat="42.94855" lon="0.84123">
        <ele>1157.18</ele>
        <time>2019-09-07T08:27:25Z</time>
      </trkpt>
      <trkpt lat="42.94853" lon="0.84122">
        <ele>1157.18</ele>
        <time>2019-09-07T08:28:14Z</time>
      </trkpt>
      <trkpt lat="42.94853" lon="0.84119">
        <ele>1157.18</ele>
        <time>2019-09-07T08:28:41Z</time>
      </trkpt>
      <trkpt lat="42.94855" lon="0.84122">
        <ele>1157.18</ele>
        <time>2019-09-07T08:29:09Z</time>
      </trkpt>
      <trkpt lat="42.94853" lon="0.84121">
        <ele>1157.18</ele>
        <time>2019-09-07T08:29:38Z</time>
      </trkpt>
      <trkpt lat="42.94852" lon="0.8412">
        <ele>1157.18</ele>
        <time>2019-09-07T08:30:08Z</time>
      </trkpt>
      <trkpt lat="42.94855" lon="0.84114">
        <ele>1157.18</ele>
        <time>2019-09-07T08:30:28Z</time>
      </trkpt>
      <trkpt lat="42.94863" lon="0.84095">
        <ele>1157.18</ele>
        <time>2019-09-07T08:30:45Z</time>
      </trkpt>
      <trkpt lat="42.94866" lon="0.84085">
        <ele>1160.36</ele>
        <time>2019-09-07T08:30:53Z</time>
      </trkpt>
      <trkpt lat="42.94866" lon="0.84084">
        <ele>1160.45</ele>
        <time>2019-09-07T08:30:54Z</time>
      </trkpt>
      <trkpt lat="42.94869" lon="0.84058">
        <ele>1161.13</ele>
        <time>2019-09-07T08:31:11Z</time>
      </trkpt>
      <trkpt lat="42.94874" lon="0.84037">
        <ele>1161.68</ele>
        <time>2019-09-07T08:31:26Z</time>
      </trkpt>
      <trkpt lat="42.94876" lon="0.84014">
        <ele>1162.06</ele>
        <time>2019-09-07T08:31:41Z</time>
      </trkpt>
      <trkpt lat="42.94879" lon="0.83994">
        <ele>1163.3</ele>
        <time>2019-09-07T08:31:55Z</time>
      </trkpt>
      <trkpt lat="42.94879" lon="0.83993">
        <ele>1163.36</ele>
        <time>2019-09-07T08:31:56Z</time>
      </trkpt>
      <trkpt lat="42.94878" lon="0.8397">
        <ele>1163.77</ele>
        <time>2019-09-07T08:32:12Z</time>
      </trkpt>
      <trkpt lat="42.94878" lon="0.83947">
        <ele>1164.87</ele>
        <time>2019-09-07T08:32:28Z</time>
      </trkpt>
      <trkpt lat="42.94881" lon="0.83926">
        <ele>1165.96</ele>
        <time>2019-09-07T08:32:43Z</time>
      </trkpt>
      <trkpt lat="42.94884" lon="0.8391">
        <ele>1167.44</ele>
        <time>2019-09-07T08:32:57Z</time>
      </trkpt>
      <trkpt lat="42.94887" lon="0.83884">
        <ele>1168.94</ele>
        <time>2019-09-07T08:33:14Z</time>
      </trkpt>
      <trkpt lat="42.94894" lon="0.83855">
        <ele>1171.02</ele>
        <time>2019-09-07T08:33:35Z</time>
      </trkpt>
      <trkpt lat="42.94896" lon="0.8382">
        <ele>1172.14</ele>
        <time>2019-09-07T08:33:56Z</time>
      </trkpt>
      <trkpt lat="42.94895" lon="0.83795">
        <ele>1174.63</ele>
        <time>2019-09-07T08:34:12Z</time>
      </trkpt>
      <trkpt lat="42.94895" lon="0.83769">
        <ele>1177.14</ele>
        <time>2019-09-07T08:34:31Z</time>
      </trkpt>
      <trkpt lat="42.94896" lon="0.83741">
        <ele>1178.58</ele>
        <time>2019-09-07T08:34:49Z</time>
      </trkpt>
      <trkpt lat="42.949" lon="0.83723">
        <ele>1180.71</ele>
        <time>2019-09-07T08:35:06Z</time>
      </trkpt>
      <trkpt lat="42.94904" lon="0.83697">
        <ele>1181.86</ele>
        <time>2019-09-07T08:35:25Z</time>
      </trkpt>
      <trkpt lat="42.94906" lon="0.83671">
        <ele>1182.13</ele>
        <time>2019-09-07T08:35:41Z</time>
      </trkpt>
      <trkpt lat="42.94903" lon="0.83656">
        <ele>1181.79</ele>
        <time>2019-09-07T08:35:48Z</time>
      </trkpt>
      <trkpt lat="42.94903" lon="0.83654">
        <ele>1181.7</ele>
        <time>2019-09-07T08:35:49Z</time>
      </trkpt>
      <trkpt lat="42.94899" lon="0.83627">
        <ele>1180.1</ele>
        <time>2019-09-07T08:36:04Z</time>
      </trkpt>
      <trkpt lat="42.94898" lon="0.83616">
        <ele>1179.59</ele>
        <time>2019-09-07T08:36:10Z</time>
      </trkpt>
      <trkpt lat="42.94902" lon="0.83595">
        <ele>1180.06</ele>
        <time>2019-09-07T08:36:25Z</time>
      </trkpt>
      <trkpt lat="42.94907" lon="0.83579">
        <ele>1181.19</ele>
        <time>2019-09-07T08:36:39Z</time>
      </trkpt>
      <trkpt lat="42.94907" lon="0.83568">
        <ele>1182.02</ele>
        <time>2019-09-07T08:36:52Z</time>
      </trkpt>
      <trkpt lat="42.94908" lon="0.83544">
        <ele>1181.18</ele>
        <time>2019-09-07T08:37:08Z</time>
      </trkpt>
      <trkpt lat="42.94913" lon="0.83522">
        <ele>1183.04</ele>
        <time>2019-09-07T08:37:26Z</time>
      </trkpt>
      <trkpt lat="42.94916" lon="0.83493">
        <ele>1184.22</ele>
        <time>2019-09-07T08:37:46Z</time>
      </trkpt>
      <trkpt lat="42.94917" lon="0.8348">
        <ele>1183.53</ele>
        <time>2019-09-07T08:37:55Z</time>
      </trkpt>
      <trkpt lat="42.94922" lon="0.83464">
        <ele>1182.58</ele>
        <time>2019-09-07T08:38:09Z</time>
      </trkpt>
      <trkpt lat="42.94926" lon="0.83446">
        <ele>1182.15</ele>
        <time>2019-09-07T08:38:26Z</time>
      </trkpt>
      <trkpt lat="42.94931" lon="0.83432">
        <ele>1182.93</ele>
        <time>2019-09-07T08:38:41Z</time>
      </trkpt>
      <trkpt lat="42.94939" lon="0.83418">
        <ele>1182.93</ele>
        <time>2019-09-07T08:38:56Z</time>
      </trkpt>
      <trkpt lat="42.94946" lon="0.83395">
        <ele>1182.99</ele>
        <time>2019-09-07T08:39:16Z</time>
      </trkpt>
      <trkpt lat="42.94948" lon="0.83372">
        <ele>1183.71</ele>
        <time>2019-09-07T08:39:33Z</time>
      </trkpt>
      <trkpt lat="42.94954" lon="0.83353">
        <ele>1181.43</ele>
        <time>2019-09-07T08:39:48Z</time>
      </trkpt>
      <trkpt lat="42.94961" lon="0.83333">
        <ele>1180.03</ele>
        <time>2019-09-07T08:40:04Z</time>
      </trkpt>
      <trkpt lat="42.94968" lon="0.83332">
        <ele>1180.11</ele>
        <time>2019-09-07T08:40:18Z</time>
      </trkpt>
      <trkpt lat="42.94976" lon="0.8335">
        <ele>1179.5</ele>
        <time>2019-09-07T08:40:35Z</time>
      </trkpt>
      <trkpt lat="42.94988" lon="0.8337">
        <ele>1178.74</ele>
        <time>2019-09-07T08:40:50Z</time>
      </trkpt>
      <trkpt lat="42.94998" lon="0.83397">
        <ele>1177.7</ele>
        <time>2019-09-07T08:41:06Z</time>
      </trkpt>
      <trkpt lat="42.95016" lon="0.8341">
        <ele>1175.25</ele>
        <time>2019-09-07T08:41:22Z</time>
      </trkpt>
      <trkpt lat="42.95031" lon="0.83421">
        <ele>1173.45</ele>
        <time>2019-09-07T08:41:40Z</time>
      </trkpt>
      <trkpt lat="42.95052" lon="0.83425">
        <ele>1172.4</ele>
        <time>2019-09-07T08:41:55Z</time>
      </trkpt>
      <trkpt lat="42.95068" lon="0.83437">
        <ele>1171.44</ele>
        <time>2019-09-07T08:42:14Z</time>
      </trkpt>
      <trkpt lat="42.95074" lon="0.83446">
        <ele>1168.3</ele>
        <time>2019-09-07T08:42:33Z</time>
      </trkpt>
      <trkpt lat="42.95084" lon="0.83454">
        <ele>1165.18</ele>
        <time>2019-09-07T08:42:46Z</time>
      </trkpt>
      <trkpt lat="42.95091" lon="0.83457">
        <ele>1162.07</ele>
        <time>2019-09-07T08:42:59Z</time>
      </trkpt>
      <trkpt lat="42.95099" lon="0.83457">
        <ele>1158.76</ele>
        <time>2019-09-07T08:43:09Z</time>
      </trkpt>
      <trkpt lat="42.95112" lon="0.83458">
        <ele>1155.6</ele>
        <time>2019-09-07T08:43:19Z</time>
      </trkpt>
      <trkpt lat="42.95116" lon="0.8346">
        <ele>1152.52</ele>
        <time>2019-09-07T08:43:29Z</time>
      </trkpt>
      <trkpt lat="42.95128" lon="0.83466">
        <ele>1149.41</ele>
        <time>2019-09-07T08:43:41Z</time>
      </trkpt>
      <trkpt lat="42.95145" lon="0.8348">
        <ele>1146.91</ele>
        <time>2019-09-07T08:43:58Z</time>
      </trkpt>
      <trkpt lat="42.9516" lon="0.83488">
        <ele>1143.75</ele>
        <time>2019-09-07T08:44:13Z</time>
      </trkpt>
      <trkpt lat="42.95182" lon="0.83496">
        <ele>1141.95</ele>
        <time>2019-09-07T08:44:30Z</time>
      </trkpt>
      <trkpt lat="42.95194" lon="0.83504">
        <ele>1139.03</ele>
        <time>2019-09-07T08:44:44Z</time>
      </trkpt>
      <trkpt lat="42.95212" lon="0.83509">
        <ele>1136.98</ele>
        <time>2019-09-07T08:45:02Z</time>
      </trkpt>
      <trkpt lat="42.95233" lon="0.83515">
        <ele>1135.47</ele>
        <time>2019-09-07T08:45:14Z</time>
      </trkpt>
      <trkpt lat="42.95244" lon="0.83527">
        <ele>1132.17</ele>
        <time>2019-09-07T08:45:27Z</time>
      </trkpt>
      <trkpt lat="42.95254" lon="0.83531">
        <ele>1128.97</ele>
        <time>2019-09-07T08:45:43Z</time>
      </trkpt>
      <trkpt lat="42.95275" lon="0.83531">
        <ele>1129.37</ele>
        <time>2019-09-07T08:46:02Z</time>
      </trkpt>
      <trkpt lat="42.95289" lon="0.83521">
        <ele>1131.5</ele>
        <time>2019-09-07T08:46:23Z</time>
      </trkpt>
      <trkpt lat="42.95305" lon="0.83503">
        <ele>1131.86</ele>
        <time>2019-09-07T08:46:42Z</time>
      </trkpt>
      <trkpt lat="42.95318" lon="0.83488">
        <ele>1133.76</ele>
        <time>2019-09-07T08:46:59Z</time>
      </trkpt>
      <trkpt lat="42.95328" lon="0.83472">
        <ele>1135.84</ele>
        <time>2019-09-07T08:47:16Z</time>
      </trkpt>
      <trkpt lat="42.95331" lon="0.83468">
        <ele>1136.06</ele>
        <time>2019-09-07T08:47:19Z</time>
      </trkpt>
      <trkpt lat="42.95334" lon="0.83465">
        <ele>1136.08</ele>
        <time>2019-09-07T08:47:21Z</time>
      </trkpt>
      <trkpt lat="42.95344" lon="0.83444">
        <ele>1137.05</ele>
        <time>2019-09-07T08:47:37Z</time>
      </trkpt>
      <trkpt lat="42.95354" lon="0.83418">
        <ele>1135.97</ele>
        <time>2019-09-07T08:47:56Z</time>
      </trkpt>
      <trkpt lat="42.95366" lon="0.8339">
        <ele>1135.08</ele>
        <time>2019-09-07T08:48:14Z</time>
      </trkpt>
      <trkpt lat="42.95378" lon="0.83369">
        <ele>1135.81</ele>
        <time>2019-09-07T08:48:31Z</time>
      </trkpt>
      <trkpt lat="42.95391" lon="0.8335">
        <ele>1135.35</ele>
        <time>2019-09-07T08:48:48Z</time>
      </trkpt>
      <trkpt lat="42.95393" lon="0.83332">
        <ele>1135.17</ele>
        <time>2019-09-07T08:48:59Z</time>
      </trkpt>
      <trkpt lat="42.95393" lon="0.83301">
        <ele>1132.64</ele>
        <time>2019-09-07T08:49:17Z</time>
      </trkpt>
      <trkpt lat="42.95391" lon="0.83282">
        <ele>1131.15</ele>
        <time>2019-09-07T08:49:33Z</time>
      </trkpt>
      <trkpt lat="42.95388" lon="0.83253">
        <ele>1128.68</ele>
        <time>2019-09-07T08:49:52Z</time>
      </trkpt>
      <trkpt lat="42.95393" lon="0.83234">
        <ele>1125.42</ele>
        <time>2019-09-07T08:50:06Z</time>
      </trkpt>
      <trkpt lat="42.95403" lon="0.83213">
        <ele>1124.51</ele>
        <time>2019-09-07T08:50:24Z</time>
      </trkpt>
      <trkpt lat="42.95412" lon="0.83188">
        <ele>1124.53</ele>
        <time>2019-09-07T08:50:42Z</time>
      </trkpt>
      <trkpt lat="42.95413" lon="0.83153">
        <ele>1124.11</ele>
        <time>2019-09-07T08:51:01Z</time>
      </trkpt>
      <trkpt lat="42.95403" lon="0.83125">
        <ele>1124.04</ele>
        <time>2019-09-07T08:51:19Z</time>
      </trkpt>
      <trkpt lat="42.95407" lon="0.83111">
        <ele>1124.86</ele>
        <time>2019-09-07T08:51:35Z</time>
      </trkpt>
      <trkpt lat="42.95415" lon="0.83105">
        <ele>1123.16</ele>
        <time>2019-09-07T08:51:47Z</time>
      </trkpt>
      <trkpt lat="42.9543" lon="0.83097">
        <ele>1119.86</ele>
        <time>2019-09-07T08:52:01Z</time>
      </trkpt>
      <trkpt lat="42.95439" lon="0.83074">
        <ele>1120.16</ele>
        <time>2019-09-07T08:52:18Z</time>
      </trkpt>
      <trkpt lat="42.95446" lon="0.83048">
        <ele>1120.32</ele>
        <time>2019-09-07T08:52:36Z</time>
      </trkpt>
      <trkpt lat="42.95442" lon="0.83018">
        <ele>1117.96</ele>
        <time>2019-09-07T08:52:56Z</time>
      </trkpt>
      <trkpt lat="42.95444" lon="0.82997">
        <ele>1118.95</ele>
        <time>2019-09-07T08:53:19Z</time>
      </trkpt>
      <trkpt lat="42.95447" lon="0.82976">
        <ele>1122.02</ele>
        <time>2019-09-07T08:53:38Z</time>
      </trkpt>
      <trkpt lat="42.95456" lon="0.82953">
        <ele>1124.71</ele>
        <time>2019-09-07T08:53:59Z</time>
      </trkpt>
      <trkpt lat="42.95464" lon="0.82927">
        <ele>1125.27</ele>
        <time>2019-09-07T08:54:19Z</time>
      </trkpt>
      <trkpt lat="42.95471" lon="0.82902">
        <ele>1126.43</ele>
        <time>2019-09-07T08:54:37Z</time>
      </trkpt>
      <trkpt lat="42.95475" lon="0.82888">
        <ele>1128.65</ele>
        <time>2019-09-07T08:54:52Z</time>
      </trkpt>
      <trkpt lat="42.95478" lon="0.82862">
        <ele>1131.8</ele>
        <time>2019-09-07T08:55:11Z</time>
      </trkpt>
      <trkpt lat="42.95481" lon="0.82848">
        <ele>1132.32</ele>
        <time>2019-09-07T08:55:26Z</time>
      </trkpt>
      <trkpt lat="42.95482" lon="0.82849">
        <ele>1132.29</ele>
        <time>2019-09-07T08:55:27Z</time>
      </trkpt>
      <trkpt lat="42.95496" lon="0.82858">
        <ele>1132.59</ele>
        <time>2019-09-07T08:55:46Z</time>
      </trkpt>
      <trkpt lat="42.95516" lon="0.82874">
        <ele>1129.9</ele>
        <time>2019-09-07T08:56:02Z</time>
      </trkpt>
      <trkpt lat="42.95517" lon="0.82875">
        <ele>1129.66</ele>
        <time>2019-09-07T08:56:03Z</time>
      </trkpt>
      <trkpt lat="42.95539" lon="0.82892">
        <ele>1126.48</ele>
        <time>2019-09-07T08:56:21Z</time>
      </trkpt>
      <trkpt lat="42.95553" lon="0.82904">
        <ele>1123.35</ele>
        <time>2019-09-07T08:56:35Z</time>
      </trkpt>
      <trkpt lat="42.95574" lon="0.82916">
        <ele>1120.85</ele>
        <time>2019-09-07T08:56:55Z</time>
      </trkpt>
      <trkpt lat="42.9559" lon="0.82913">
        <ele>1120.83</ele>
        <time>2019-09-07T08:57:03Z</time>
      </trkpt>
      <trkpt lat="42.95607" lon="0.829">
        <ele>1121.97</ele>
        <time>2019-09-07T08:57:19Z</time>
      </trkpt>
      <trkpt lat="42.95622" lon="0.82884">
        <ele>1124.81</ele>
        <time>2019-09-07T08:57:37Z</time>
      </trkpt>
      <trkpt lat="42.95637" lon="0.82895">
        <ele>1127.36</ele>
        <time>2019-09-07T08:57:54Z</time>
      </trkpt>
      <trkpt lat="42.95645" lon="0.82901">
        <ele>1127.5</ele>
        <time>2019-09-07T08:58:00Z</time>
      </trkpt>
      <trkpt lat="42.95657" lon="0.82902">
        <ele>1124.74</ele>
        <time>2019-09-07T08:58:17Z</time>
      </trkpt>
      <trkpt lat="42.95676" lon="0.82902">
        <ele>1121.73</ele>
        <time>2019-09-07T08:58:32Z</time>
      </trkpt>
      <trkpt lat="42.95684" lon="0.82879">
        <ele>1119.27</ele>
        <time>2019-09-07T08:58:50Z</time>
      </trkpt>
      <trkpt lat="42.95688" lon="0.82851">
        <ele>1116.21</ele>
        <time>2019-09-07T08:59:07Z</time>
      </trkpt>
      <trkpt lat="42.9569" lon="0.82828">
        <ele>1114.24</ele>
        <time>2019-09-07T08:59:22Z</time>
      </trkpt>
      <trkpt lat="42.95697" lon="0.82803">
        <ele>1111.57</ele>
        <time>2019-09-07T08:59:38Z</time>
      </trkpt>
      <trkpt lat="42.957" lon="0.82787">
        <ele>1108.93</ele>
        <time>2019-09-07T08:59:56Z</time>
      </trkpt>
      <trkpt lat="42.95698" lon="0.82786">
        <ele>1108.78</ele>
        <time>2019-09-07T09:00:20Z</time>
      </trkpt>
      <trkpt lat="42.95698" lon="0.82788">
        <ele>1108.85</ele>
        <time>2019-09-07T09:00:47Z</time>
      </trkpt>
      <trkpt lat="42.95706" lon="0.82757">
        <ele>1106.39</ele>
        <time>2019-09-07T09:01:04Z</time>
      </trkpt>
      <trkpt lat="42.95709" lon="0.8274">
        <ele>1105.58</ele>
        <time>2019-09-07T09:01:13Z</time>
      </trkpt>
      <trkpt lat="42.95707" lon="0.82734">
        <ele>1105.41</ele>
        <time>2019-09-07T09:01:17Z</time>
      </trkpt>
      <trkpt lat="42.95704" lon="0.82726">
        <ele>1104.96</ele>
        <time>2019-09-07T09:01:24Z</time>
      </trkpt>
      <trkpt lat="42.95703" lon="0.82699">
        <ele>1102.44</ele>
        <time>2019-09-07T09:01:41Z</time>
      </trkpt>
      <trkpt lat="42.95715" lon="0.82681">
        <ele>1100.51</ele>
        <time>2019-09-07T09:01:56Z</time>
      </trkpt>
      <trkpt lat="42.95726" lon="0.82684">
        <ele>1099.51</ele>
        <time>2019-09-07T09:02:04Z</time>
      </trkpt>
      <trkpt lat="42.95747" lon="0.82708">
        <ele>1098.39</ele>
        <time>2019-09-07T09:02:24Z</time>
      </trkpt>
      <trkpt lat="42.95758" lon="0.82719">
        <ele>1098.15</ele>
        <time>2019-09-07T09:02:39Z</time>
      </trkpt>
      <trkpt lat="42.95776" lon="0.82727">
        <ele>1098.07</ele>
        <time>2019-09-07T09:02:56Z</time>
      </trkpt>
      <trkpt lat="42.95798" lon="0.82728">
        <ele>1098.31</ele>
        <time>2019-09-07T09:03:14Z</time>
      </trkpt>
      <trkpt lat="42.95825" lon="0.82735">
        <ele>1098.55</ele>
        <time>2019-09-07T09:03:32Z</time>
      </trkpt>
      <trkpt lat="42.95842" lon="0.82747">
        <ele>1101.61</ele>
        <time>2019-09-07T09:03:53Z</time>
      </trkpt>
      <trkpt lat="42.95862" lon="0.82764">
        <ele>1104.66</ele>
        <time>2019-09-07T09:04:13Z</time>
      </trkpt>
      <trkpt lat="42.95881" lon="0.82778">
        <ele>1107.67</ele>
        <time>2019-09-07T09:04:32Z</time>
      </trkpt>
      <trkpt lat="42.95891" lon="0.82784">
        <ele>1110.67</ele>
        <time>2019-09-07T09:04:51Z</time>
      </trkpt>
      <trkpt lat="42.959" lon="0.82785">
        <ele>1113.52</ele>
        <time>2019-09-07T09:05:09Z</time>
      </trkpt>
      <trkpt lat="42.95922" lon="0.8277">
        <ele>1113.63</ele>
        <time>2019-09-07T09:05:25Z</time>
      </trkpt>
      <trkpt lat="42.95917" lon="0.82744">
        <ele>1114.97</ele>
        <time>2019-09-07T09:05:42Z</time>
      </trkpt>
      <trkpt lat="42.95906" lon="0.82725">
        <ele>1116.27</ele>
        <time>2019-09-07T09:05:58Z</time>
      </trkpt>
      <trkpt lat="42.95902" lon="0.82701">
        <ele>1118.09</ele>
        <time>2019-09-07T09:06:15Z</time>
      </trkpt>
      <trkpt lat="42.95894" lon="0.82674">
        <ele>1119.88</ele>
        <time>2019-09-07T09:06:34Z</time>
      </trkpt>
      <trkpt lat="42.95889" lon="0.82656">
        <ele>1121.12</ele>
        <time>2019-09-07T09:06:50Z</time>
      </trkpt>
      <trkpt lat="42.95902" lon="0.82637">
        <ele>1122.01</ele>
        <time>2019-09-07T09:07:05Z</time>
      </trkpt>
      <trkpt lat="42.95915" lon="0.82627">
        <ele>1123.01</ele>
        <time>2019-09-07T09:07:19Z</time>
      </trkpt>
      <trkpt lat="42.95931" lon="0.82614">
        <ele>1124.6</ele>
        <time>2019-09-07T09:07:37Z</time>
      </trkpt>
      <trkpt lat="42.95931" lon="0.82591">
        <ele>1123.66</ele>
        <time>2019-09-07T09:07:53Z</time>
      </trkpt>
      <trkpt lat="42.95936" lon="0.82577">
        <ele>1120.54</ele>
        <time>2019-09-07T09:08:06Z</time>
      </trkpt>
      <trkpt lat="42.95938" lon="0.82553">
        <ele>1117.51</ele>
        <time>2019-09-07T09:08:20Z</time>
      </trkpt>
      <trkpt lat="42.95937" lon="0.8254">
        <ele>1114.84</ele>
        <time>2019-09-07T09:08:47Z</time>
      </trkpt>
      <trkpt lat="42.9594" lon="0.82528">
        <ele>1111.85</ele>
        <time>2019-09-07T09:08:57Z</time>
      </trkpt>
      <trkpt lat="42.9594" lon="0.82523">
        <ele>1111.28</ele>
        <time>2019-09-07T09:08:59Z</time>
      </trkpt>
      <trkpt lat="42.95944" lon="0.82502">
        <ele>1108.15</ele>
        <time>2019-09-07T09:09:12Z</time>
      </trkpt>
      <trkpt lat="42.95945" lon="0.82486">
        <ele>1105.12</ele>
        <time>2019-09-07T09:09:24Z</time>
      </trkpt>
      <trkpt lat="42.95948" lon="0.82473">
        <ele>1102.76</ele>
        <time>2019-09-07T09:09:37Z</time>
      </trkpt>
      <trkpt lat="42.95951" lon="0.8246">
        <ele>1099.69</ele>
        <time>2019-09-07T09:09:49Z</time>
      </trkpt>
      <trkpt lat="42.95956" lon="0.82448">
        <ele>1096.88</ele>
        <time>2019-09-07T09:09:58Z</time>
      </trkpt>
      <trkpt lat="42.95964" lon="0.82433">
        <ele>1093.65</ele>
        <time>2019-09-07T09:10:08Z</time>
      </trkpt>
      <trkpt lat="42.95971" lon="0.82427">
        <ele>1091.01</ele>
        <time>2019-09-07T09:10:16Z</time>
      </trkpt>
      <trkpt lat="42.95978" lon="0.82418">
        <ele>1087.8</ele>
        <time>2019-09-07T09:10:24Z</time>
      </trkpt>
      <trkpt lat="42.95986" lon="0.8241">
        <ele>1084.64</ele>
        <time>2019-09-07T09:10:32Z</time>
      </trkpt>
      <trkpt lat="42.95996" lon="0.82403">
        <ele>1081.57</ele>
        <time>2019-09-07T09:10:42Z</time>
      </trkpt>
      <trkpt lat="42.96012" lon="0.82379">
        <ele>1080.01</ele>
        <time>2019-09-07T09:10:59Z</time>
      </trkpt>
      <trkpt lat="42.96016" lon="0.82375">
        <ele>1079.15</ele>
        <time>2019-09-07T09:11:03Z</time>
      </trkpt>
      <trkpt lat="42.9603" lon="0.82371">
        <ele>1077.16</ele>
        <time>2019-09-07T09:11:17Z</time>
      </trkpt>
      <trkpt lat="42.96043" lon="0.82368">
        <ele>1079.04</ele>
        <time>2019-09-07T09:11:36Z</time>
      </trkpt>
      <trkpt lat="42.96051" lon="0.82354">
        <ele>1079.91</ele>
        <time>2019-09-07T09:11:48Z</time>
      </trkpt>
      <trkpt lat="42.96053" lon="0.82336">
        <ele>1080.81</ele>
        <time>2019-09-07T09:11:59Z</time>
      </trkpt>
      <trkpt lat="42.96062" lon="0.82326">
        <ele>1081.66</ele>
        <time>2019-09-07T09:12:11Z</time>
      </trkpt>
      <trkpt lat="42.96074" lon="0.8231">
        <ele>1081.45</ele>
        <time>2019-09-07T09:12:24Z</time>
      </trkpt>
      <trkpt lat="42.96083" lon="0.82304">
        <ele>1080.99</ele>
        <time>2019-09-07T09:12:32Z</time>
      </trkpt>
      <trkpt lat="42.96104" lon="0.82304">
        <ele>1079.37</ele>
        <time>2019-09-07T09:12:49Z</time>
      </trkpt>
      <trkpt lat="42.96121" lon="0.823">
        <ele>1077.13</ele>
        <time>2019-09-07T09:13:03Z</time>
      </trkpt>
      <trkpt lat="42.96126" lon="0.82282">
        <ele>1074.06</ele>
        <time>2019-09-07T09:13:16Z</time>
      </trkpt>
      <trkpt lat="42.96133" lon="0.82257">
        <ele>1070.9</ele>
        <time>2019-09-07T09:13:32Z</time>
      </trkpt>
      <trkpt lat="42.96136" lon="0.82252">
        <ele>1069.99</ele>
        <time>2019-09-07T09:13:36Z</time>
      </trkpt>
      <trkpt lat="42.96144" lon="0.82232">
        <ele>1066.98</ele>
        <time>2019-09-07T09:13:49Z</time>
      </trkpt>
      <trkpt lat="42.96149" lon="0.82219">
        <ele>1064.98</ele>
        <time>2019-09-07T09:13:58Z</time>
      </trkpt>
      <trkpt lat="42.96155" lon="0.82203">
        <ele>1062.9</ele>
        <time>2019-09-07T09:14:08Z</time>
      </trkpt>
      <trkpt lat="42.96165" lon="0.82182">
        <ele>1059.7</ele>
        <time>2019-09-07T09:14:22Z</time>
      </trkpt>
      <trkpt lat="42.96175" lon="0.82168">
        <ele>1056.67</ele>
        <time>2019-09-07T09:14:34Z</time>
      </trkpt>
      <trkpt lat="42.96187" lon="0.82147">
        <ele>1053.52</ele>
        <time>2019-09-07T09:14:50Z</time>
      </trkpt>
      <trkpt lat="42.96197" lon="0.82124">
        <ele>1050.44</ele>
        <time>2019-09-07T09:15:04Z</time>
      </trkpt>
      <trkpt lat="42.96196" lon="0.82093">
        <ele>1047.6</ele>
        <time>2019-09-07T09:15:22Z</time>
      </trkpt>
      <trkpt lat="42.96202" lon="0.82068">
        <ele>1046.26</ele>
        <time>2019-09-07T09:15:37Z</time>
      </trkpt>
      <trkpt lat="42.96207" lon="0.82037">
        <ele>1045.54</ele>
        <time>2019-09-07T09:15:55Z</time>
      </trkpt>
      <trkpt lat="42.96208" lon="0.82015">
        <ele>1044.27</ele>
        <time>2019-09-07T09:16:09Z</time>
      </trkpt>
      <trkpt lat="42.96209" lon="0.81986">
        <ele>1043.6</ele>
        <time>2019-09-07T09:16:27Z</time>
      </trkpt>
      <trkpt lat="42.96217" lon="0.81962">
        <ele>1041.86</ele>
        <time>2019-09-07T09:16:42Z</time>
      </trkpt>
      <trkpt lat="42.96229" lon="0.8194">
        <ele>1040.36</ele>
        <time>2019-09-07T09:16:56Z</time>
      </trkpt>
      <trkpt lat="42.96235" lon="0.81928">
        <ele>1037.18</ele>
        <time>2019-09-07T09:17:07Z</time>
      </trkpt>
      <trkpt lat="42.96241" lon="0.81912">
        <ele>1034.04</ele>
        <time>2019-09-07T09:17:19Z</time>
      </trkpt>
      <trkpt lat="42.96249" lon="0.81891">
        <ele>1031.14</ele>
        <time>2019-09-07T09:17:34Z</time>
      </trkpt>
      <trkpt lat="42.9626" lon="0.81872">
        <ele>1028.55</ele>
        <time>2019-09-07T09:17:50Z</time>
      </trkpt>
      <trkpt lat="42.96268" lon="0.81844">
        <ele>1025.88</ele>
        <time>2019-09-07T09:18:07Z</time>
      </trkpt>
      <trkpt lat="42.96269" lon="0.8184">
        <ele>1025.87</ele>
        <time>2019-09-07T09:18:09Z</time>
      </trkpt>
      <trkpt lat="42.96279" lon="0.81817">
        <ele>1026.18</ele>
        <time>2019-09-07T09:18:25Z</time>
      </trkpt>
      <trkpt lat="42.96291" lon="0.81801">
        <ele>1025.58</ele>
        <time>2019-09-07T09:18:40Z</time>
      </trkpt>
      <trkpt lat="42.96301" lon="0.81778">
        <ele>1025.63</ele>
        <time>2019-09-07T09:18:55Z</time>
      </trkpt>
      <trkpt lat="42.96308" lon="0.81764">
        <ele>1022.45</ele>
        <time>2019-09-07T09:19:08Z</time>
      </trkpt>
      <trkpt lat="42.96315" lon="0.81744">
        <ele>1019.4</ele>
        <time>2019-09-07T09:19:21Z</time>
      </trkpt>
      <trkpt lat="42.96325" lon="0.81727">
        <ele>1017.03</ele>
        <time>2019-09-07T09:19:37Z</time>
      </trkpt>
      <trkpt lat="42.9633" lon="0.81701">
        <ele>1013.91</ele>
        <time>2019-09-07T09:19:54Z</time>
      </trkpt>
      <trkpt lat="42.9633" lon="0.81674">
        <ele>1010.97</ele>
        <time>2019-09-07T09:20:12Z</time>
      </trkpt>
      <trkpt lat="42.96328" lon="0.81645">
        <ele>1009.02</ele>
        <time>2019-09-07T09:20:32Z</time>
      </trkpt>
      <trkpt lat="42.96333" lon="0.8162">
        <ele>1007.37</ele>
        <time>2019-09-07T09:20:48Z</time>
      </trkpt>
      <trkpt lat="42.96338" lon="0.81587">
        <ele>1005.01</ele>
        <time>2019-09-07T09:21:08Z</time>
      </trkpt>
      <trkpt lat="42.96343" lon="0.81568">
        <ele>1002.92</ele>
        <time>2019-09-07T09:21:22Z</time>
      </trkpt>
      <trkpt lat="42.9635" lon="0.81541">
        <ele>1001.34</ele>
        <time>2019-09-07T09:21:38Z</time>
      </trkpt>
      <trkpt lat="42.96357" lon="0.81513">
        <ele>1000.8</ele>
        <time>2019-09-07T09:21:54Z</time>
      </trkpt>
      <trkpt lat="42.96366" lon="0.81491">
        <ele>1000.72</ele>
        <time>2019-09-07T09:22:10Z</time>
      </trkpt>
      <trkpt lat="42.96368" lon="0.81472">
        <ele>1000.81</ele>
        <time>2019-09-07T09:22:33Z</time>
      </trkpt>
      <trkpt lat="42.96376" lon="0.81452">
        <ele>1001.43</ele>
        <time>2019-09-07T09:22:50Z</time>
      </trkpt>
      <trkpt lat="42.96387" lon="0.81422">
        <ele>1001.31</ele>
        <time>2019-09-07T09:23:10Z</time>
      </trkpt>
      <trkpt lat="42.96389" lon="0.81392">
        <ele>1000.7</ele>
        <time>2019-09-07T09:23:26Z</time>
      </trkpt>
      <trkpt lat="42.96393" lon="0.81363">
        <ele>1000.7</ele>
        <time>2019-09-07T09:23:43Z</time>
      </trkpt>
      <trkpt lat="42.96394" lon="0.81348">
        <ele>996.01</ele>
        <time>2019-09-07T09:23:51Z</time>
      </trkpt>
      <trkpt lat="42.96393" lon="0.81339">
        <ele>992.66</ele>
        <time>2019-09-07T09:23:57Z</time>
      </trkpt>
      <trkpt lat="42.96393" lon="0.81335">
        <ele>992.21</ele>
        <time>2019-09-07T09:23:59Z</time>
      </trkpt>
      <trkpt lat="42.96389" lon="0.81313">
        <ele>989.13</ele>
        <time>2019-09-07T09:24:14Z</time>
      </trkpt>
      <trkpt lat="42.96389" lon="0.81284">
        <ele>987.44</ele>
        <time>2019-09-07T09:24:31Z</time>
      </trkpt>
      <trkpt lat="42.96389" lon="0.8126">
        <ele>984.34</ele>
        <time>2019-09-07T09:24:46Z</time>
      </trkpt>
      <trkpt lat="42.96391" lon="0.81232">
        <ele>981.29</ele>
        <time>2019-09-07T09:25:02Z</time>
      </trkpt>
      <trkpt lat="42.96389" lon="0.8121">
        <ele>978.26</ele>
        <time>2019-09-07T09:25:16Z</time>
      </trkpt>
      <trkpt lat="42.96392" lon="0.81189">
        <ele>975.25</ele>
        <time>2019-09-07T09:25:31Z</time>
      </trkpt>
      <trkpt lat="42.96391" lon="0.81162">
        <ele>972.18</ele>
        <time>2019-09-07T09:25:46Z</time>
      </trkpt>
      <trkpt lat="42.96386" lon="0.81138">
        <ele>970.31</ele>
        <time>2019-09-07T09:26:00Z</time>
      </trkpt>
      <trkpt lat="42.96387" lon="0.81125">
        <ele>967.25</ele>
        <time>2019-09-07T09:26:10Z</time>
      </trkpt>
      <trkpt lat="42.9639" lon="0.81108">
        <ele>964.17</ele>
        <time>2019-09-07T09:26:22Z</time>
      </trkpt>
      <trkpt lat="42.96395" lon="0.81086">
        <ele>961.06</ele>
        <time>2019-09-07T09:26:36Z</time>
      </trkpt>
      <trkpt lat="42.96396" lon="0.81076">
        <ele>959.61</ele>
        <time>2019-09-07T09:26:42Z</time>
      </trkpt>
      <trkpt lat="42.96399" lon="0.81053">
        <ele>956.42</ele>
        <time>2019-09-07T09:26:55Z</time>
      </trkpt>
      <trkpt lat="42.96403" lon="0.81033">
        <ele>953.38</ele>
        <time>2019-09-07T09:27:08Z</time>
      </trkpt>
      <trkpt lat="42.96407" lon="0.81012">
        <ele>950.36</ele>
        <time>2019-09-07T09:27:20Z</time>
      </trkpt>
      <trkpt lat="42.96409" lon="0.80991">
        <ele>947.27</ele>
        <time>2019-09-07T09:27:31Z</time>
      </trkpt>
      <trkpt lat="42.9641" lon="0.80964">
        <ele>944.08</ele>
        <time>2019-09-07T09:27:47Z</time>
      </trkpt>
      <trkpt lat="42.96411" lon="0.80948">
        <ele>940.97</ele>
        <time>2019-09-07T09:27:58Z</time>
      </trkpt>
      <trkpt lat="42.96413" lon="0.80926">
        <ele>937.79</ele>
        <time>2019-09-07T09:28:11Z</time>
      </trkpt>
      <trkpt lat="42.96418" lon="0.80905">
        <ele>934.78</ele>
        <time>2019-09-07T09:28:23Z</time>
      </trkpt>
      <trkpt lat="42.96421" lon="0.80887">
        <ele>931.69</ele>
        <time>2019-09-07T09:28:34Z</time>
      </trkpt>
      <trkpt lat="42.96431" lon="0.80869">
        <ele>928.57</ele>
        <time>2019-09-07T09:28:47Z</time>
      </trkpt>
      <trkpt lat="42.96441" lon="0.80854">
        <ele>925.53</ele>
        <time>2019-09-07T09:28:59Z</time>
      </trkpt>
      <trkpt lat="42.96454" lon="0.80845">
        <ele>922.31</ele>
        <time>2019-09-07T09:29:12Z</time>
      </trkpt>
      <trkpt lat="42.96461" lon="0.80845">
        <ele>919.2</ele>
        <time>2019-09-07T09:29:26Z</time>
      </trkpt>
      <trkpt lat="42.96468" lon="0.80838">
        <ele>917.33</ele>
        <time>2019-09-07T09:29:32Z</time>
      </trkpt>
      <trkpt lat="42.96477" lon="0.80833">
        <ele>913.98</ele>
        <time>2019-09-07T09:29:40Z</time>
      </trkpt>
      <trkpt lat="42.96481" lon="0.80831">
        <ele>910.76</ele>
        <time>2019-09-07T09:29:49Z</time>
      </trkpt>
      <trkpt lat="42.96491" lon="0.80827">
        <ele>907.64</ele>
        <time>2019-09-07T09:29:58Z</time>
      </trkpt>
      <trkpt lat="42.96502" lon="0.80822">
        <ele>904.22</ele>
        <time>2019-09-07T09:30:07Z</time>
      </trkpt>
      <trkpt lat="42.96511" lon="0.80821">
        <ele>901.18</ele>
        <time>2019-09-07T09:30:15Z</time>
      </trkpt>
      <trkpt lat="42.96518" lon="0.8082">
        <ele>899.31</ele>
        <time>2019-09-07T09:30:20Z</time>
      </trkpt>
      <trkpt lat="42.96527" lon="0.80822">
        <ele>896.16</ele>
        <time>2019-09-07T09:30:29Z</time>
      </trkpt>
      <trkpt lat="42.96535" lon="0.80822">
        <ele>893.1</ele>
        <time>2019-09-07T09:30:38Z</time>
      </trkpt>
      <trkpt lat="42.96542" lon="0.8082">
        <ele>889.91</ele>
        <time>2019-09-07T09:30:46Z</time>
      </trkpt>
      <trkpt lat="42.96552" lon="0.80818">
        <ele>886.65</ele>
        <time>2019-09-07T09:30:57Z</time>
      </trkpt>
      <trkpt lat="42.96555" lon="0.80815">
        <ele>883.15</ele>
        <time>2019-09-07T09:31:07Z</time>
      </trkpt>
      <trkpt lat="42.96556" lon="0.80806">
        <ele>882.92</ele>
        <time>2019-09-07T09:31:31Z</time>
      </trkpt>
      <trkpt lat="42.96565" lon="0.80803">
        <ele>882.82</ele>
        <time>2019-09-07T09:32:06Z</time>
      </trkpt>
      <trkpt lat="42.96565" lon="0.80805">
        <ele>882.58</ele>
        <time>2019-09-07T09:32:30Z</time>
      </trkpt>
      <trkpt lat="42.96572" lon="0.80805">
        <ele>882.4</ele>
        <time>2019-09-07T09:32:56Z</time>
      </trkpt>
      <trkpt lat="42.96572" lon="0.80808">
        <ele>882.33</ele>
        <time>2019-09-07T09:33:14Z</time>
      </trkpt>
      <trkpt lat="42.96578" lon="0.80808">
        <ele>882.79</ele>
        <time>2019-09-07T09:33:38Z</time>
      </trkpt>
      <trkpt lat="42.96582" lon="0.80801">
        <ele>882.79</ele>
        <time>2019-09-07T09:34:08Z</time>
      </trkpt>
      <trkpt lat="42.96587" lon="0.80794">
        <ele>876.15</ele>
        <time>2019-09-07T09:34:23Z</time>
      </trkpt>
      <trkpt lat="42.96588" lon="0.80794">
        <ele>876.04</ele>
        <time>2019-09-07T09:34:24Z</time>
      </trkpt>
      <trkpt lat="42.96601" lon="0.80783">
        <ele>872.95</ele>
        <time>2019-09-07T09:34:44Z</time>
      </trkpt>
      <trkpt lat="42.96619" lon="0.80766">
        <ele>870.42</ele>
        <time>2019-09-07T09:35:02Z</time>
      </trkpt>
      <trkpt lat="42.96637" lon="0.80747">
        <ele>869.37</ele>
        <time>2019-09-07T09:35:20Z</time>
      </trkpt>
      <trkpt lat="42.96657" lon="0.80741">
        <ele>867.74</ele>
        <time>2019-09-07T09:35:39Z</time>
      </trkpt>
      <trkpt lat="42.96662" lon="0.80723">
        <ele>864.61</ele>
        <time>2019-09-07T09:35:53Z</time>
      </trkpt>
      <trkpt lat="42.96661" lon="0.80716">
        <ele>861.3</ele>
        <time>2019-09-07T09:36:03Z</time>
      </trkpt>
      <trkpt lat="42.96659" lon="0.80699">
        <ele>858.21</ele>
        <time>2019-09-07T09:36:12Z</time>
      </trkpt>
      <trkpt lat="42.96655" lon="0.80682">
        <ele>855.12</ele>
        <time>2019-09-07T09:36:21Z</time>
      </trkpt>
      <trkpt lat="42.96662" lon="0.80681">
        <ele>852.11</ele>
        <time>2019-09-07T09:36:33Z</time>
      </trkpt>
      <trkpt lat="42.96681" lon="0.80696">
        <ele>850.66</ele>
        <time>2019-09-07T09:36:50Z</time>
      </trkpt>
      <trkpt lat="42.96704" lon="0.80712">
        <ele>849.24</ele>
        <time>2019-09-07T09:37:08Z</time>
      </trkpt>
      <trkpt lat="42.96729" lon="0.80719">
        <ele>847.96</ele>
        <time>2019-09-07T09:37:25Z</time>
      </trkpt>
      <trkpt lat="42.96747" lon="0.80731">
        <ele>846.47</ele>
        <time>2019-09-07T09:37:42Z</time>
      </trkpt>
      <trkpt lat="42.96777" lon="0.80725">
        <ele>845.8</ele>
        <time>2019-09-07T09:38:00Z</time>
      </trkpt>
      <trkpt lat="42.96783" lon="0.80723">
        <ele>845.86</ele>
        <time>2019-09-07T09:38:05Z</time>
      </trkpt>
      <trkpt lat="42.96798" lon="0.8072">
        <ele>845.03</ele>
        <time>2019-09-07T09:38:18Z</time>
      </trkpt>
      <trkpt lat="42.96804" lon="0.80732">
        <ele>843.25</ele>
        <time>2019-09-07T09:38:28Z</time>
      </trkpt>
      <trkpt lat="42.96805" lon="0.80755">
        <ele>840.13</ele>
        <time>2019-09-07T09:38:41Z</time>
      </trkpt>
      <trkpt lat="42.96809" lon="0.80777">
        <ele>838.81</ele>
        <time>2019-09-07T09:38:54Z</time>
      </trkpt>
      <trkpt lat="42.96816" lon="0.80802">
        <ele>837.17</ele>
        <time>2019-09-07T09:39:10Z</time>
      </trkpt>
      <trkpt lat="42.96817" lon="0.80811">
        <ele>836.47</ele>
        <time>2019-09-07T09:39:14Z</time>
      </trkpt>
      <trkpt lat="42.96818" lon="0.80826">
        <ele>834.95</ele>
        <time>2019-09-07T09:39:22Z</time>
      </trkpt>
      <trkpt lat="42.96825" lon="0.80843">
        <ele>832.81</ele>
        <time>2019-09-07T09:39:32Z</time>
      </trkpt>
      <trkpt lat="42.96828" lon="0.80859">
        <ele>831.35</ele>
        <time>2019-09-07T09:39:41Z</time>
      </trkpt>
      <trkpt lat="42.96836" lon="0.8088">
        <ele>828.94</ele>
        <time>2019-09-07T09:39:55Z</time>
      </trkpt>
      <trkpt lat="42.96859" lon="0.80893">
        <ele>825.85</ele>
        <time>2019-09-07T09:40:12Z</time>
      </trkpt>
      <trkpt lat="42.96868" lon="0.80913">
        <ele>822.7</ele>
        <time>2019-09-07T09:40:27Z</time>
      </trkpt>
      <trkpt lat="42.96872" lon="0.80919">
        <ele>821.96</ele>
        <time>2019-09-07T09:40:31Z</time>
      </trkpt>
      <trkpt lat="42.9688" lon="0.8092">
        <ele>821.2</ele>
        <time>2019-09-07T09:40:37Z</time>
      </trkpt>
      <trkpt lat="42.96897" lon="0.80906">
        <ele>818.79</ele>
        <time>2019-09-07T09:40:48Z</time>
      </trkpt>
      <trkpt lat="42.96903" lon="0.80889">
        <ele>818.18</ele>
        <time>2019-09-07T09:41:01Z</time>
      </trkpt>
      <trkpt lat="42.96904" lon="0.80853">
        <ele>817.05</ele>
        <time>2019-09-07T09:41:21Z</time>
      </trkpt>
      <trkpt lat="42.9691" lon="0.80827">
        <ele>816.46</ele>
        <time>2019-09-07T09:41:39Z</time>
      </trkpt>
      <trkpt lat="42.96911" lon="0.80825">
        <ele>816.28</ele>
        <time>2019-09-07T09:41:40Z</time>
      </trkpt>
      <trkpt lat="42.96912" lon="0.80823">
        <ele>816.11</ele>
        <time>2019-09-07T09:41:41Z</time>
      </trkpt>
      <trkpt lat="42.96914" lon="0.80821">
        <ele>815.95</ele>
        <time>2019-09-07T09:41:42Z</time>
      </trkpt>
      <trkpt lat="42.96915" lon="0.80819">
        <ele>815.78</ele>
        <time>2019-09-07T09:41:43Z</time>
      </trkpt>
      <trkpt lat="42.96916" lon="0.80818">
        <ele>815.6</ele>
        <time>2019-09-07T09:41:44Z</time>
      </trkpt>
      <trkpt lat="42.96935" lon="0.80806">
        <ele>812.89</ele>
        <time>2019-09-07T09:42:00Z</time>
      </trkpt>
      <trkpt lat="42.96955" lon="0.80812">
        <ele>810.34</ele>
        <time>2019-09-07T09:42:17Z</time>
      </trkpt>
      <trkpt lat="42.96974" lon="0.80826">
        <ele>807.9</ele>
        <time>2019-09-07T09:42:33Z</time>
      </trkpt>
      <trkpt lat="42.96992" lon="0.80837">
        <ele>807.45</ele>
        <time>2019-09-07T09:42:46Z</time>
      </trkpt>
      <trkpt lat="42.96998" lon="0.80836">
        <ele>807.49</ele>
        <time>2019-09-07T09:42:49Z</time>
      </trkpt>
      <trkpt lat="42.96999" lon="0.80836">
        <ele>807.49</ele>
        <time>2019-09-07T09:42:50Z</time>
      </trkpt>
      <trkpt lat="42.97009" lon="0.80815">
        <ele>807.01</ele>
        <time>2019-09-07T09:43:04Z</time>
      </trkpt>
      <trkpt lat="42.97005" lon="0.80789">
        <ele>806.33</ele>
        <time>2019-09-07T09:43:21Z</time>
      </trkpt>
      <trkpt lat="42.97008" lon="0.80758">
        <ele>805.03</ele>
        <time>2019-09-07T09:43:39Z</time>
      </trkpt>
      <trkpt lat="42.97008" lon="0.80753">
        <ele>804.9</ele>
        <time>2019-09-07T09:43:41Z</time>
      </trkpt>
      <trkpt lat="42.97009" lon="0.80751">
        <ele>804.83</ele>
        <time>2019-09-07T09:43:42Z</time>
      </trkpt>
      <trkpt lat="42.97012" lon="0.80739">
        <ele>804.4</ele>
        <time>2019-09-07T09:43:48Z</time>
      </trkpt>
      <trkpt lat="42.97014" lon="0.80731">
        <ele>803.63</ele>
        <time>2019-09-07T09:44:05Z</time>
      </trkpt>
      <trkpt lat="42.97016" lon="0.80723">
        <ele>803.24</ele>
        <time>2019-09-07T09:44:19Z</time>
      </trkpt>
      <trkpt lat="42.97017" lon="0.80722">
        <ele>803.22</ele>
        <time>2019-09-07T09:44:20Z</time>
      </trkpt>
      <trkpt lat="42.97018" lon="0.8072">
        <ele>803.2</ele>
        <time>2019-09-07T09:44:21Z</time>
      </trkpt>
      <trkpt lat="42.97018" lon="0.80719">
        <ele>803.2</ele>
        <time>2019-09-07T09:44:22Z</time>
      </trkpt>
      <trkpt lat="42.97035" lon="0.80698">
        <ele>800.15</ele>
        <time>2019-09-07T09:44:42Z</time>
      </trkpt>
      <trkpt lat="42.97038" lon="0.80696">
        <ele>799.69</ele>
        <time>2019-09-07T09:44:45Z</time>
      </trkpt>
      <trkpt lat="42.97042" lon="0.80695">
        <ele>799.4</ele>
        <time>2019-09-07T09:44:48Z</time>
      </trkpt>
      <trkpt lat="42.97052" lon="0.80686">
        <ele>797.85</ele>
        <time>2019-09-07T09:44:59Z</time>
      </trkpt>
      <trkpt lat="42.97055" lon="0.80677">
        <ele>796.84</ele>
        <time>2019-09-07T09:45:04Z</time>
      </trkpt>
      <trkpt lat="42.97055" lon="0.80672">
        <ele>796.36</ele>
        <time>2019-09-07T09:45:06Z</time>
      </trkpt>
      <trkpt lat="42.97051" lon="0.8064">
        <ele>793.59</ele>
        <time>2019-09-07T09:45:22Z</time>
      </trkpt>
      <trkpt lat="42.97045" lon="0.80617">
        <ele>793.11</ele>
        <time>2019-09-07T09:45:32Z</time>
      </trkpt>
      <trkpt lat="42.97041" lon="0.80597">
        <ele>791.61</ele>
        <time>2019-09-07T09:45:47Z</time>
      </trkpt>
      <trkpt lat="42.97029" lon="0.80581">
        <ele>791.42</ele>
        <time>2019-09-07T09:46:03Z</time>
      </trkpt>
      <trkpt lat="42.97028" lon="0.80579">
        <ele>791.42</ele>
        <time>2019-09-07T09:46:04Z</time>
      </trkpt>
      <trkpt lat="42.97028" lon="0.80577">
        <ele>791.41</ele>
        <time>2019-09-07T09:46:05Z</time>
      </trkpt>
      <trkpt lat="42.97029" lon="0.80574">
        <ele>791.39</ele>
        <time>2019-09-07T09:46:06Z</time>
      </trkpt>
      <trkpt lat="42.97029" lon="0.80572">
        <ele>791.36</ele>
        <time>2019-09-07T09:46:07Z</time>
      </trkpt>
      <trkpt lat="42.97032" lon="0.80536">
        <ele>789.73</ele>
        <time>2019-09-07T09:46:27Z</time>
      </trkpt>
      <trkpt lat="42.97031" lon="0.80502">
        <ele>787.34</ele>
        <time>2019-09-07T09:46:47Z</time>
      </trkpt>
      <trkpt lat="42.97038" lon="0.80478">
        <ele>785.12</ele>
        <time>2019-09-07T09:47:03Z</time>
      </trkpt>
      <trkpt lat="42.97042" lon="0.80442">
        <ele>784.22</ele>
        <time>2019-09-07T09:47:20Z</time>
      </trkpt>
      <trkpt lat="42.97047" lon="0.80417">
        <ele>781.93</ele>
        <time>2019-09-07T09:47:36Z</time>
      </trkpt>
      <trkpt lat="42.97052" lon="0.80391">
        <ele>778.87</ele>
        <time>2019-09-07T09:47:51Z</time>
      </trkpt>
      <trkpt lat="42.97059" lon="0.80367">
        <ele>775.74</ele>
        <time>2019-09-07T09:48:05Z</time>
      </trkpt>
      <trkpt lat="42.97066" lon="0.80342">
        <ele>774.24</ele>
        <time>2019-09-07T09:48:18Z</time>
      </trkpt>
      <trkpt lat="42.97066" lon="0.80341">
        <ele>774.23</ele>
        <time>2019-09-07T09:48:19Z</time>
      </trkpt>
      <trkpt lat="42.97067" lon="0.80339">
        <ele>774.29</ele>
        <time>2019-09-07T09:48:20Z</time>
      </trkpt>
      <trkpt lat="42.97068" lon="0.80337">
        <ele>774.53</ele>
        <time>2019-09-07T09:48:21Z</time>
      </trkpt>
      <trkpt lat="42.97068" lon="0.80335">
        <ele>774.75</ele>
        <time>2019-09-07T09:48:22Z</time>
      </trkpt>
      <trkpt lat="42.97069" lon="0.80334">
        <ele>774.86</ele>
        <time>2019-09-07T09:48:23Z</time>
      </trkpt>
      <trkpt lat="42.97069" lon="0.80332">
        <ele>774.92</ele>
        <time>2019-09-07T09:48:24Z</time>
      </trkpt>
      <trkpt lat="42.9707" lon="0.8033">
        <ele>774.88</ele>
        <time>2019-09-07T09:48:25Z</time>
      </trkpt>
      <trkpt lat="42.9707" lon="0.80328">
        <ele>774.75</ele>
        <time>2019-09-07T09:48:26Z</time>
      </trkpt>
      <trkpt lat="42.97077" lon="0.80293">
        <ele>772.33</ele>
        <time>2019-09-07T09:48:46Z</time>
      </trkpt>
      <trkpt lat="42.97085" lon="0.80265">
        <ele>770.19</ele>
        <time>2019-09-07T09:49:04Z</time>
      </trkpt>
      <trkpt lat="42.97085" lon="0.80263">
        <ele>769.44</ele>
        <time>2019-09-07T09:49:14Z</time>
      </trkpt>
      <trkpt lat="42.97086" lon="0.80261">
        <ele>769.42</ele>
        <time>2019-09-07T09:49:15Z</time>
      </trkpt>
      <trkpt lat="42.97096" lon="0.80247">
        <ele>768.31</ele>
        <time>2019-09-07T09:49:29Z</time>
      </trkpt>
      <trkpt lat="42.97107" lon="0.80219">
        <ele>766.92</ele>
        <time>2019-09-07T09:49:46Z</time>
      </trkpt>
      <trkpt lat="42.97119" lon="0.80188">
        <ele>765.37</ele>
        <time>2019-09-07T09:50:03Z</time>
      </trkpt>
      <trkpt lat="42.97135" lon="0.80166">
        <ele>762.92</ele>
        <time>2019-09-07T09:50:20Z</time>
      </trkpt>
      <trkpt lat="42.97151" lon="0.80152">
        <ele>760.61</ele>
        <time>2019-09-07T09:50:34Z</time>
      </trkpt>
      <trkpt lat="42.97172" lon="0.80134">
        <ele>758.37</ele>
        <time>2019-09-07T09:50:51Z</time>
      </trkpt>
      <trkpt lat="42.97185" lon="0.80124">
        <ele>755.21</ele>
        <time>2019-09-07T09:51:05Z</time>
      </trkpt>
      <trkpt lat="42.97188" lon="0.80122">
        <ele>754.81</ele>
        <time>2019-09-07T09:51:07Z</time>
      </trkpt>
      <trkpt lat="42.9719" lon="0.80122">
        <ele>754.52</ele>
        <time>2019-09-07T09:51:08Z</time>
      </trkpt>
      <trkpt lat="42.97191" lon="0.80121">
        <ele>754.17</ele>
        <time>2019-09-07T09:51:09Z</time>
      </trkpt>
      <trkpt lat="42.97198" lon="0.80114">
        <ele>752.97</ele>
        <time>2019-09-07T09:51:16Z</time>
      </trkpt>
      <trkpt lat="42.97204" lon="0.80104">
        <ele>751.54</ele>
        <time>2019-09-07T09:51:25Z</time>
      </trkpt>
      <trkpt lat="42.97221" lon="0.80078">
        <ele>748.7</ele>
        <time>2019-09-07T09:51:44Z</time>
      </trkpt>
      <trkpt lat="42.97227" lon="0.80066">
        <ele>747.78</ele>
        <time>2019-09-07T09:51:50Z</time>
      </trkpt>
      <trkpt lat="42.97228" lon="0.8005">
        <ele>745.27</ele>
        <time>2019-09-07T09:52:04Z</time>
      </trkpt>
      <trkpt lat="42.97215" lon="0.80058">
        <ele>743.55</ele>
        <time>2019-09-07T09:52:14Z</time>
      </trkpt>
      <trkpt lat="42.97193" lon="0.80079">
        <ele>741.95</ele>
        <time>2019-09-07T09:52:34Z</time>
      </trkpt>
      <trkpt lat="42.97171" lon="0.80093">
        <ele>740.48</ele>
        <time>2019-09-07T09:52:52Z</time>
      </trkpt>
      <trkpt lat="42.9715" lon="0.80101">
        <ele>738.4</ele>
        <time>2019-09-07T09:53:09Z</time>
      </trkpt>
      <trkpt lat="42.97132" lon="0.80108">
        <ele>736.03</ele>
        <time>2019-09-07T09:53:25Z</time>
      </trkpt>
      <trkpt lat="42.97119" lon="0.80107">
        <ele>734.7</ele>
        <time>2019-09-07T09:53:34Z</time>
      </trkpt>
      <trkpt lat="42.9709" lon="0.80102">
        <ele>731.84</ele>
        <time>2019-09-07T09:53:53Z</time>
      </trkpt>
      <trkpt lat="42.97067" lon="0.80106">
        <ele>728.8</ele>
        <time>2019-09-07T09:54:10Z</time>
      </trkpt>
      <trkpt lat="42.97049" lon="0.80134">
        <ele>726.05</ele>
        <time>2019-09-07T09:54:30Z</time>
      </trkpt>
      <trkpt lat="42.97035" lon="0.80154">
        <ele>724.25</ele>
        <time>2019-09-07T09:54:48Z</time>
      </trkpt>
      <trkpt lat="42.9702" lon="0.80174">
        <ele>723.07</ele>
        <time>2019-09-07T09:55:06Z</time>
      </trkpt>
      <trkpt lat="42.96996" lon="0.80196">
        <ele>721.48</ele>
        <time>2019-09-07T09:55:24Z</time>
      </trkpt>
      <trkpt lat="42.96995" lon="0.80197">
        <ele>721.38</ele>
        <time>2019-09-07T09:55:25Z</time>
      </trkpt>
      <trkpt lat="42.96975" lon="0.80223">
        <ele>719.12</ele>
        <time>2019-09-07T09:55:45Z</time>
      </trkpt>
      <trkpt lat="42.96971" lon="0.80214">
        <ele>718.65</ele>
        <time>2019-09-07T09:55:49Z</time>
      </trkpt>
      <trkpt lat="42.96974" lon="0.80204">
        <ele>717.78</ele>
        <time>2019-09-07T09:55:54Z</time>
      </trkpt>
      <trkpt lat="42.96987" lon="0.80181">
        <ele>714.38</ele>
        <time>2019-09-07T09:56:11Z</time>
      </trkpt>
      <trkpt lat="42.96991" lon="0.80174">
        <ele>713.65</ele>
        <time>2019-09-07T09:56:15Z</time>
      </trkpt>
      <trkpt lat="42.96999" lon="0.80153">
        <ele>710.83</ele>
        <time>2019-09-07T09:56:29Z</time>
      </trkpt>
      <trkpt lat="42.97005" lon="0.80119">
        <ele>709.08</ele>
        <time>2019-09-07T09:56:48Z</time>
      </trkpt>
      <trkpt lat="42.97008" lon="0.80092">
        <ele>708.51</ele>
        <time>2019-09-07T09:57:03Z</time>
      </trkpt>
      <trkpt lat="42.97003" lon="0.80061">
        <ele>707.07</ele>
        <time>2019-09-07T09:57:20Z</time>
      </trkpt>
      <trkpt lat="42.97006" lon="0.80027">
        <ele>703.98</ele>
        <time>2019-09-07T09:57:38Z</time>
      </trkpt>
      <trkpt lat="42.9701" lon="0.80021">
        <ele>702.95</ele>
        <time>2019-09-07T09:57:44Z</time>
      </trkpt>
      <trkpt lat="42.97012" lon="0.8002">
        <ele>702.82</ele>
        <time>2019-09-07T09:57:45Z</time>
      </trkpt>
      <trkpt lat="42.97014" lon="0.80017">
        <ele>702.61</ele>
        <time>2019-09-07T09:57:47Z</time>
      </trkpt>
      <trkpt lat="42.97028" lon="0.79986">
        <ele>701.09</ele>
        <time>2019-09-07T09:58:06Z</time>
      </trkpt>
      <trkpt lat="42.97036" lon="0.79965">
        <ele>698.11</ele>
        <time>2019-09-07T09:58:21Z</time>
      </trkpt>
      <trkpt lat="42.97051" lon="0.79938">
        <ele>694.99</ele>
        <time>2019-09-07T09:58:38Z</time>
      </trkpt>
      <trkpt lat="42.9706" lon="0.79926">
        <ele>691.98</ele>
        <time>2019-09-07T09:58:49Z</time>
      </trkpt>
      <trkpt lat="42.97063" lon="0.79922">
        <ele>691.4</ele>
        <time>2019-09-07T09:58:52Z</time>
      </trkpt>
      <trkpt lat="42.97064" lon="0.79921">
        <ele>691.22</ele>
        <time>2019-09-07T09:58:53Z</time>
      </trkpt>
      <trkpt lat="42.97065" lon="0.7992">
        <ele>691.05</ele>
        <time>2019-09-07T09:58:54Z</time>
      </trkpt>
      <trkpt lat="42.97066" lon="0.79919">
        <ele>690.9</ele>
        <time>2019-09-07T09:58:55Z</time>
      </trkpt>
      <trkpt lat="42.97068" lon="0.79917">
        <ele>690.76</ele>
        <time>2019-09-07T09:58:56Z</time>
      </trkpt>
      <trkpt lat="42.97069" lon="0.79916">
        <ele>690.62</ele>
        <time>2019-09-07T09:58:57Z</time>
      </trkpt>
      <trkpt lat="42.97084" lon="0.79911">
        <ele>688.77</ele>
        <time>2019-09-07T09:59:09Z</time>
      </trkpt>
      <trkpt lat="42.97093" lon="0.79912">
        <ele>687.99</ele>
        <time>2019-09-07T09:59:15Z</time>
      </trkpt>
      <trkpt lat="42.97094" lon="0.79912">
        <ele>687.84</ele>
        <time>2019-09-07T09:59:16Z</time>
      </trkpt>
      <trkpt lat="42.97114" lon="0.79916">
        <ele>685.56</ele>
        <time>2019-09-07T09:59:30Z</time>
      </trkpt>
      <trkpt lat="42.97117" lon="0.79916">
        <ele>685.1</ele>
        <time>2019-09-07T09:59:32Z</time>
      </trkpt>
      <trkpt lat="42.9713" lon="0.79917">
        <ele>683.65</ele>
        <time>2019-09-07T09:59:41Z</time>
      </trkpt>
      <trkpt lat="42.97148" lon="0.79906">
        <ele>681.04</ele>
        <time>2019-09-07T09:59:57Z</time>
      </trkpt>
      <trkpt lat="42.97164" lon="0.79887">
        <ele>679.26</ele>
        <time>2019-09-07T10:00:13Z</time>
      </trkpt>
      <trkpt lat="42.97176" lon="0.7986">
        <ele>676.95</ele>
        <time>2019-09-07T10:00:30Z</time>
      </trkpt>
      <trkpt lat="42.97177" lon="0.7985">
        <ele>676.11</ele>
        <time>2019-09-07T10:00:36Z</time>
      </trkpt>
      <trkpt lat="42.97177" lon="0.79848">
        <ele>675.98</ele>
        <time>2019-09-07T10:00:37Z</time>
      </trkpt>
      <trkpt lat="42.9718" lon="0.79821">
        <ele>674.82</ele>
        <time>2019-09-07T10:00:55Z</time>
      </trkpt>
      <trkpt lat="42.97182" lon="0.79787">
        <ele>671.64</ele>
        <time>2019-09-07T10:01:14Z</time>
      </trkpt>
      <trkpt lat="42.9718" lon="0.79778">
        <ele>670.27</ele>
        <time>2019-09-07T10:01:20Z</time>
      </trkpt>
      <trkpt lat="42.97178" lon="0.79775">
        <ele>669.74</ele>
        <time>2019-09-07T10:01:22Z</time>
      </trkpt>
      <trkpt lat="42.97164" lon="0.79779">
        <ele>666.49</ele>
        <time>2019-09-07T10:01:34Z</time>
      </trkpt>
      <trkpt lat="42.97154" lon="0.79795">
        <ele>663.88</ele>
        <time>2019-09-07T10:01:46Z</time>
      </trkpt>
      <trkpt lat="42.97149" lon="0.79803">
        <ele>662.99</ele>
        <time>2019-09-07T10:01:51Z</time>
      </trkpt>
      <trkpt lat="42.97147" lon="0.79804">
        <ele>662.83</ele>
        <time>2019-09-07T10:01:52Z</time>
      </trkpt>
      <trkpt lat="42.97132" lon="0.79814">
        <ele>660.59</ele>
        <time>2019-09-07T10:02:05Z</time>
      </trkpt>
      <trkpt lat="42.97117" lon="0.79809">
        <ele>658.42</ele>
        <time>2019-09-07T10:02:17Z</time>
      </trkpt>
      <trkpt lat="42.97115" lon="0.79809">
        <ele>658.22</ele>
        <time>2019-09-07T10:02:18Z</time>
      </trkpt>
      <trkpt lat="42.97114" lon="0.79807">
        <ele>658.04</ele>
        <time>2019-09-07T10:02:19Z</time>
      </trkpt>
      <trkpt lat="42.97112" lon="0.79806">
        <ele>657.89</ele>
        <time>2019-09-07T10:02:20Z</time>
      </trkpt>
      <trkpt lat="42.97111" lon="0.79804">
        <ele>657.72</ele>
        <time>2019-09-07T10:02:21Z</time>
      </trkpt>
      <trkpt lat="42.9711" lon="0.79803">
        <ele>657.49</ele>
        <time>2019-09-07T10:02:22Z</time>
      </trkpt>
      <trkpt lat="42.971" lon="0.79791">
        <ele>656.43</ele>
        <time>2019-09-07T10:02:32Z</time>
      </trkpt>
      <trkpt lat="42.97087" lon="0.79775">
        <ele>655.73</ele>
        <time>2019-09-07T10:02:45Z</time>
      </trkpt>
      <trkpt lat="42.97068" lon="0.79768">
        <ele>652.98</ele>
        <time>2019-09-07T10:03:01Z</time>
      </trkpt>
      <trkpt lat="42.97053" lon="0.79784">
        <ele>649.94</ele>
        <time>2019-09-07T10:03:17Z</time>
      </trkpt>
      <trkpt lat="42.9703" lon="0.79804">
        <ele>647.57</ele>
        <time>2019-09-07T10:03:35Z</time>
      </trkpt>
      <trkpt lat="42.97007" lon="0.79802">
        <ele>646.06</ele>
        <time>2019-09-07T10:03:51Z</time>
      </trkpt>
      <trkpt lat="42.96995" lon="0.79794">
        <ele>645.63</ele>
        <time>2019-09-07T10:03:59Z</time>
      </trkpt>
      <trkpt lat="42.96994" lon="0.79792">
        <ele>645.57</ele>
        <time>2019-09-07T10:04:00Z</time>
      </trkpt>
      <trkpt lat="42.9698" lon="0.79764">
        <ele>643.93</ele>
        <time>2019-09-07T10:04:17Z</time>
      </trkpt>
      <trkpt lat="42.96979" lon="0.79758">
        <ele>643.41</ele>
        <time>2019-09-07T10:04:20Z</time>
      </trkpt>
      <trkpt lat="42.9698" lon="0.79733">
        <ele>640.93</ele>
        <time>2019-09-07T10:04:35Z</time>
      </trkpt>
      <trkpt lat="42.96984" lon="0.79721">
        <ele>639.55</ele>
        <time>2019-09-07T10:04:42Z</time>
      </trkpt>
      <trkpt lat="42.96984" lon="0.79696">
        <ele>636.49</ele>
        <time>2019-09-07T10:04:57Z</time>
      </trkpt>
      <trkpt lat="42.96982" lon="0.79694">
        <ele>636.07</ele>
        <time>2019-09-07T10:04:59Z</time>
      </trkpt>
      <trkpt lat="42.96975" lon="0.79691">
        <ele>634.94</ele>
        <time>2019-09-07T10:05:04Z</time>
      </trkpt>
      <trkpt lat="42.96952" lon="0.79695">
        <ele>631.85</ele>
        <time>2019-09-07T10:05:21Z</time>
      </trkpt>
      <trkpt lat="42.96934" lon="0.79706">
        <ele>628.71</ele>
        <time>2019-09-07T10:05:37Z</time>
      </trkpt>
      <trkpt lat="42.96931" lon="0.79713">
        <ele>627.97</ele>
        <time>2019-09-07T10:05:42Z</time>
      </trkpt>
      <trkpt lat="42.96926" lon="0.79732">
        <ele>626.41</ele>
        <time>2019-09-07T10:05:55Z</time>
      </trkpt>
      <trkpt lat="42.96925" lon="0.79734">
        <ele>626.28</ele>
        <time>2019-09-07T10:05:56Z</time>
      </trkpt>
      <trkpt lat="42.96925" lon="0.79736">
        <ele>626.13</ele>
        <time>2019-09-07T10:05:57Z</time>
      </trkpt>
      <trkpt lat="42.96925" lon="0.79738">
        <ele>625.83</ele>
        <time>2019-09-07T10:05:58Z</time>
      </trkpt>
      <trkpt lat="42.9692" lon="0.79768">
        <ele>623.15</ele>
        <time>2019-09-07T10:06:15Z</time>
      </trkpt>
      <trkpt lat="42.96915" lon="0.79776">
        <ele>622.31</ele>
        <time>2019-09-07T10:06:20Z</time>
      </trkpt>
      <trkpt lat="42.96914" lon="0.79778">
        <ele>622.17</ele>
        <time>2019-09-07T10:06:21Z</time>
      </trkpt>
      <trkpt lat="42.96893" lon="0.79785">
        <ele>619.46</ele>
        <time>2019-09-07T10:06:37Z</time>
      </trkpt>
      <trkpt lat="42.96874" lon="0.79778">
        <ele>617.55</ele>
        <time>2019-09-07T10:06:51Z</time>
      </trkpt>
      <trkpt lat="42.96859" lon="0.79777">
        <ele>614.51</ele>
        <time>2019-09-07T10:07:03Z</time>
      </trkpt>
      <trkpt lat="42.9684" lon="0.79786">
        <ele>611.88</ele>
        <time>2019-09-07T10:07:20Z</time>
      </trkpt>
      <trkpt lat="42.96833" lon="0.79796">
        <ele>610.92</ele>
        <time>2019-09-07T10:07:27Z</time>
      </trkpt>
      <trkpt lat="42.96835" lon="0.79813">
        <ele>609.54</ele>
        <time>2019-09-07T10:07:37Z</time>
      </trkpt>
      <trkpt lat="42.96836" lon="0.79816">
        <ele>609.35</ele>
        <time>2019-09-07T10:07:39Z</time>
      </trkpt>
      <trkpt lat="42.96836" lon="0.79821">
        <ele>609.65</ele>
        <time>2019-09-07T10:07:42Z</time>
      </trkpt>
      <trkpt lat="42.96836" lon="0.79823">
        <ele>609.69</ele>
        <time>2019-09-07T10:07:43Z</time>
      </trkpt>
      <trkpt lat="42.96836" lon="0.79824">
        <ele>609.68</ele>
        <time>2019-09-07T10:07:44Z</time>
      </trkpt>
      <trkpt lat="42.96828" lon="0.79839">
        <ele>607.73</ele>
        <time>2019-09-07T10:07:56Z</time>
      </trkpt>
      <trkpt lat="42.96827" lon="0.7984">
        <ele>607.56</ele>
        <time>2019-09-07T10:07:57Z</time>
      </trkpt>
      <trkpt lat="42.96808" lon="0.79854">
        <ele>604.38</ele>
        <time>2019-09-07T10:08:13Z</time>
      </trkpt>
      <trkpt lat="42.96795" lon="0.79875">
        <ele>601.38</ele>
        <time>2019-09-07T10:08:28Z</time>
      </trkpt>
      <trkpt lat="42.96792" lon="0.79871">
        <ele>600.61</ele>
        <time>2019-09-07T10:08:32Z</time>
      </trkpt>
      <trkpt lat="42.96792" lon="0.79869">
        <ele>600.46</ele>
        <time>2019-09-07T10:08:33Z</time>
      </trkpt>
      <trkpt lat="42.96794" lon="0.79865">
        <ele>600.15</ele>
        <time>2019-09-07T10:08:35Z</time>
      </trkpt>
      <trkpt lat="42.96806" lon="0.79835">
        <ele>598.36</ele>
        <time>2019-09-07T10:08:50Z</time>
      </trkpt>
      <trkpt lat="42.96809" lon="0.79804">
        <ele>597.5</ele>
        <time>2019-09-07T10:09:07Z</time>
      </trkpt>
      <trkpt lat="42.96805" lon="0.79776">
        <ele>597.31</ele>
        <time>2019-09-07T10:09:25Z</time>
      </trkpt>
      <trkpt lat="42.96806" lon="0.79745">
        <ele>598.21</ele>
        <time>2019-09-07T10:09:45Z</time>
      </trkpt>
      <trkpt lat="42.96818" lon="0.79727">
        <ele>599.17</ele>
        <time>2019-09-07T10:10:01Z</time>
      </trkpt>
      <trkpt lat="42.9683" lon="0.79715">
        <ele>599.59</ele>
        <time>2019-09-07T10:10:14Z</time>
      </trkpt>
      <trkpt lat="42.96849" lon="0.79701">
        <ele>598.4</ele>
        <time>2019-09-07T10:10:31Z</time>
      </trkpt>
      <trkpt lat="42.9685" lon="0.79699">
        <ele>598.22</ele>
        <time>2019-09-07T10:10:33Z</time>
      </trkpt>
      <trkpt lat="42.96874" lon="0.79679">
        <ele>596.34</ele>
        <time>2019-09-07T10:10:50Z</time>
      </trkpt>
      <trkpt lat="42.9688" lon="0.7967">
        <ele>595.79</ele>
        <time>2019-09-07T10:10:56Z</time>
      </trkpt>
      <trkpt lat="42.96889" lon="0.79647">
        <ele>594.61</ele>
        <time>2019-09-07T10:11:11Z</time>
      </trkpt>
      <trkpt lat="42.96888" lon="0.79641">
        <ele>594.33</ele>
        <time>2019-09-07T10:11:14Z</time>
      </trkpt>
      <trkpt lat="42.96885" lon="0.79625">
        <ele>592.92</ele>
        <time>2019-09-07T10:11:25Z</time>
      </trkpt>
      <trkpt lat="42.96881" lon="0.79608">
        <ele>590.9</ele>
        <time>2019-09-07T10:11:40Z</time>
      </trkpt>
      <trkpt lat="42.96882" lon="0.79605">
        <ele>590.74</ele>
        <time>2019-09-07T10:11:42Z</time>
      </trkpt>
      <trkpt lat="42.96885" lon="0.79594">
        <ele>590.1</ele>
        <time>2019-09-07T10:11:49Z</time>
      </trkpt>
      <trkpt lat="42.96885" lon="0.79592">
        <ele>589.97</ele>
        <time>2019-09-07T10:11:50Z</time>
      </trkpt>
      <trkpt lat="42.96891" lon="0.79563">
        <ele>587.55</ele>
        <time>2019-09-07T10:12:08Z</time>
      </trkpt>
      <trkpt lat="42.96895" lon="0.79545">
        <ele>588.52</ele>
        <time>2019-09-07T10:12:23Z</time>
      </trkpt>
      <trkpt lat="42.96896" lon="0.79543">
        <ele>589.62</ele>
        <time>2019-09-07T10:12:43Z</time>
      </trkpt>
      <trkpt lat="42.96897" lon="0.79542">
        <ele>588.96</ele>
        <time>2019-09-07T10:13:05Z</time>
      </trkpt>
      <trkpt lat="42.969" lon="0.79545">
        <ele>588.59</ele>
        <time>2019-09-07T10:13:30Z</time>
      </trkpt>
      <trkpt lat="42.96895" lon="0.79545">
        <ele>587.64</ele>
        <time>2019-09-07T10:13:42Z</time>
      </trkpt>
      <trkpt lat="42.96896" lon="0.79541">
        <ele>588.82</ele>
        <time>2019-09-07T10:14:27Z</time>
      </trkpt>
      <trkpt lat="42.96896" lon="0.79542">
        <ele>590.39</ele>
        <time>2019-09-07T10:14:30Z</time>
      </trkpt>
      <trkpt lat="42.96894" lon="0.79535">
        <ele>587.49</ele>
        <time>2019-09-07T10:15:05Z</time>
      </trkpt>
      <trkpt lat="42.96895" lon="0.79534">
        <ele>587.42</ele>
        <time>2019-09-07T10:15:06Z</time>
      </trkpt>
      <trkpt lat="42.96903" lon="0.79531">
        <ele>587.74</ele>
        <time>2019-09-07T10:15:34Z</time>
      </trkpt>
      <trkpt lat="42.96904" lon="0.79532">
        <ele>576.28</ele>
        <time>2019-09-07T10:15:38Z</time>
      </trkpt>
      <trkpt lat="42.96904" lon="0.79533">
        <ele>581.95</ele>
        <time>2019-09-07T10:15:39Z</time>
      </trkpt>
      <trkpt lat="42.96904" lon="0.79533">
        <ele>586.3</ele>
        <time>2019-09-07T10:15:41Z</time>
      </trkpt>
      <trkpt lat="42.96897" lon="0.79532">
        <ele>587.57</ele>
        <time>2019-09-07T10:16:30Z</time>
      </trkpt>
      <trkpt lat="42.96895" lon="0.79534">
        <ele>587.54</ele>
        <time>2019-09-07T10:17:13Z</time>
      </trkpt>
      <trkpt lat="42.96896" lon="0.79546">
        <ele>587.5</ele>
        <time>2019-09-07T10:17:41Z</time>
      </trkpt>
      <trkpt lat="42.96896" lon="0.79548">
        <ele>587.5</ele>
        <time>2019-09-07T10:18:05Z</time>
      </trkpt>
      <trkpt lat="42.969" lon="0.79548">
        <ele>587.5</ele>
        <time>2019-09-07T10:18:21Z</time>
      </trkpt>
      <trkpt lat="42.96896" lon="0.79549">
        <ele>587.5</ele>
        <time>2019-09-07T10:18:29Z</time>
      </trkpt>
      <trkpt lat="42.96884" lon="0.79545">
        <ele>587.5</ele>
        <time>2019-09-07T10:19:48Z</time>
      </trkpt>
      <trkpt lat="42.96887" lon="0.79545">
        <ele>588.04</ele>
        <time>2019-09-07T10:20:38Z</time>
      </trkpt>
      <trkpt lat="42.96896" lon="0.79553">
        <ele>587.76</ele>
        <time>2019-09-07T10:23:00Z</time>
      </trkpt>
      <trkpt lat="42.96888" lon="0.79547">
        <ele>587.76</ele>
        <time>2019-09-07T10:23:35Z</time>
      </trkpt>
      <trkpt lat="42.96884" lon="0.79542">
        <ele>587.76</ele>
        <time>2019-09-07T10:23:51Z</time>
      </trkpt>
      <trkpt lat="42.96882" lon="0.79543">
        <ele>587.76</ele>
        <time>2019-09-07T10:24:14Z</time>
      </trkpt>
      <trkpt lat="42.96889" lon="0.79545">
        <ele>587.76</ele>
        <time>2019-09-07T10:25:02Z</time>
      </trkpt>
      <trkpt lat="42.9689" lon="0.79544">
        <ele>587.88</ele>
        <time>2019-09-07T10:25:26Z</time>
      </trkpt>
      <trkpt lat="42.96894" lon="0.79546">
        <ele>587.69</ele>
        <time>2019-09-07T10:25:52Z</time>
      </trkpt>
      <trkpt lat="42.96899" lon="0.79553">
        <ele>587.43</ele>
        <time>2019-09-07T10:26:36Z</time>
      </trkpt>
      <trkpt lat="42.96897" lon="0.79554">
        <ele>587.42</ele>
        <time>2019-09-07T10:27:00Z</time>
      </trkpt>
      <trkpt lat="42.96895" lon="0.79546">
        <ele>587.62</ele>
        <time>2019-09-07T10:27:29Z</time>
      </trkpt>
      <trkpt lat="42.96878" lon="0.79555">
        <ele>587.55</ele>
        <time>2019-09-07T10:28:30Z</time>
      </trkpt>
      <trkpt lat="42.96883" lon="0.79558">
        <ele>587.56</ele>
        <time>2019-09-07T10:28:50Z</time>
      </trkpt>
      <trkpt lat="42.96887" lon="0.79562">
        <ele>587.5</ele>
        <time>2019-09-07T10:29:14Z</time>
      </trkpt>
      <trkpt lat="42.96892" lon="0.79555">
        <ele>587.51</ele>
        <time>2019-09-07T10:29:43Z</time>
      </trkpt>
      <trkpt lat="42.96894" lon="0.79552">
        <ele>587.36</ele>
        <time>2019-09-07T10:30:13Z</time>
      </trkpt>
      <trkpt lat="42.96893" lon="0.79552">
        <ele>587.36</ele>
        <time>2019-09-07T10:30:40Z</time>
      </trkpt>
      <trkpt lat="42.96897" lon="0.79551">
        <ele>587.36</ele>
        <time>2019-09-07T10:31:02Z</time>
      </trkpt>
      <trkpt lat="42.96902" lon="0.79558">
        <ele>587.36</ele>
        <time>2019-09-07T10:31:32Z</time>
      </trkpt>
      <trkpt lat="42.96899" lon="0.79559">
        <ele>587.36</ele>
        <time>2019-09-07T10:31:55Z</time>
      </trkpt>
      <trkpt lat="42.96903" lon="0.79559">
        <ele>587.36</ele>
        <time>2019-09-07T10:32:10Z</time>
      </trkpt>
      <trkpt lat="42.96904" lon="0.79563">
        <ele>587.49</ele>
        <time>2019-09-07T10:32:33Z</time>
      </trkpt>
      <trkpt lat="42.9691" lon="0.79563">
        <ele>587.54</ele>
        <time>2019-09-07T10:32:54Z</time>
      </trkpt>
      <trkpt lat="42.96908" lon="0.79557">
        <ele>587.53</ele>
        <time>2019-09-07T10:33:16Z</time>
      </trkpt>
      <trkpt lat="42.96904" lon="0.79558">
        <ele>587.26</ele>
        <time>2019-09-07T10:33:26Z</time>
      </trkpt>
      <trkpt lat="42.96904" lon="0.79555">
        <ele>587.37</ele>
        <time>2019-09-07T10:33:58Z</time>
      </trkpt>
      <trkpt lat="42.969" lon="0.79549">
        <ele>587.7</ele>
        <time>2019-09-07T10:34:27Z</time>
      </trkpt>
      <trkpt lat="42.96901" lon="0.7955">
        <ele>584.92</ele>
        <time>2019-09-07T10:34:38Z</time>
      </trkpt>
      <trkpt lat="42.96899" lon="0.7955">
        <ele>587.94</ele>
        <time>2019-09-07T10:34:43Z</time>
      </trkpt>
      <trkpt lat="42.96896" lon="0.79543">
        <ele>587.99</ele>
        <time>2019-09-07T10:35:07Z</time>
      </trkpt>
      <trkpt lat="42.9689" lon="0.79538">
        <ele>587.84</ele>
        <time>2019-09-07T10:35:44Z</time>
      </trkpt>
      <trkpt lat="42.96889" lon="0.79539">
        <ele>587.84</ele>
        <time>2019-09-07T10:36:04Z</time>
      </trkpt>
      <trkpt lat="42.96889" lon="0.79538">
        <ele>587.84</ele>
        <time>2019-09-07T10:36:17Z</time>
      </trkpt>
      <trkpt lat="42.96893" lon="0.7954">
        <ele>587.84</ele>
        <time>2019-09-07T10:36:40Z</time>
      </trkpt>
      <trkpt lat="42.96901" lon="0.7954">
        <ele>587.19</ele>
        <time>2019-09-07T10:37:13Z</time>
      </trkpt>
      <trkpt lat="42.969" lon="0.79542">
        <ele>586.71</ele>
        <time>2019-09-07T10:38:14Z</time>
      </trkpt>
      <trkpt lat="42.96898" lon="0.79542">
        <ele>587.19</ele>
        <time>2019-09-07T10:38:24Z</time>
      </trkpt>
      <trkpt lat="42.96891" lon="0.79547">
        <ele>584.16</ele>
        <time>2019-09-07T10:38:44Z</time>
      </trkpt>
      <trkpt lat="42.96891" lon="0.79547">
        <ele>583.34</ele>
        <time>2019-09-07T10:38:46Z</time>
      </trkpt>
      <trkpt lat="42.96894" lon="0.79548">
        <ele>588.93</ele>
        <time>2019-09-07T10:38:50Z</time>
      </trkpt>
      <trkpt lat="42.96894" lon="0.79549">
        <ele>592.2</ele>
        <time>2019-09-07T10:38:52Z</time>
      </trkpt>
      <trkpt lat="42.96894" lon="0.79544">
        <ele>589.01</ele>
        <time>2019-09-07T10:38:58Z</time>
      </trkpt>
      <trkpt lat="42.96894" lon="0.79544">
        <ele>585.26</ele>
        <time>2019-09-07T10:39:00Z</time>
      </trkpt>
      <trkpt lat="42.96895" lon="0.79545">
        <ele>583.29</ele>
        <time>2019-09-07T10:39:03Z</time>
      </trkpt>
      <trkpt lat="42.96893" lon="0.79544">
        <ele>586.7</ele>
        <time>2019-09-07T10:39:06Z</time>
      </trkpt>
      <trkpt lat="42.969" lon="0.79543">
        <ele>588</ele>
        <time>2019-09-07T10:39:23Z</time>
      </trkpt>
      <trkpt lat="42.96905" lon="0.79547">
        <ele>587.08</ele>
        <time>2019-09-07T10:39:30Z</time>
      </trkpt>
      <trkpt lat="42.96894" lon="0.79536">
        <ele>586.49</ele>
        <time>2019-09-07T10:40:16Z</time>
      </trkpt>
      <trkpt lat="42.96898" lon="0.79544">
        <ele>587</ele>
        <time>2019-09-07T10:41:17Z</time>
      </trkpt>
      <trkpt lat="42.969" lon="0.79546">
        <ele>587</ele>
        <time>2019-09-07T10:41:31Z</time>
      </trkpt>
      <trkpt lat="42.96897" lon="0.79543">
        <ele>586.79</ele>
        <time>2019-09-07T10:41:40Z</time>
      </trkpt>
      <trkpt lat="42.96895" lon="0.7954">
        <ele>586.73</ele>
        <time>2019-09-07T10:41:48Z</time>
      </trkpt>
      <trkpt lat="42.96894" lon="0.79538">
        <ele>586.79</ele>
        <time>2019-09-07T10:41:51Z</time>
      </trkpt>
      <trkpt lat="42.96896" lon="0.79542">
        <ele>586.81</ele>
        <time>2019-09-07T10:42:15Z</time>
      </trkpt>
      <trkpt lat="42.96899" lon="0.79542">
        <ele>587.09</ele>
        <time>2019-09-07T10:42:32Z</time>
      </trkpt>
      <trkpt lat="42.96895" lon="0.79544">
        <ele>586.82</ele>
        <time>2019-09-07T10:42:53Z</time>
      </trkpt>
      <trkpt lat="42.96898" lon="0.79546">
        <ele>586.82</ele>
        <time>2019-09-07T10:43:45Z</time>
      </trkpt>
      <trkpt lat="42.96895" lon="0.79539">
        <ele>586.82</ele>
        <time>2019-09-07T10:44:13Z</time>
      </trkpt>
      <trkpt lat="42.96893" lon="0.7954">
        <ele>586.82</ele>
        <time>2019-09-07T10:44:37Z</time>
      </trkpt>
      <trkpt lat="42.96892" lon="0.79537">
        <ele>586.82</ele>
        <time>2019-09-07T10:45:05Z</time>
      </trkpt>
      <trkpt lat="42.96891" lon="0.79541">
        <ele>586.82</ele>
        <time>2019-09-07T10:45:28Z</time>
      </trkpt>
      <trkpt lat="42.96897" lon="0.79545">
        <ele>586.82</ele>
        <time>2019-09-07T10:45:35Z</time>
      </trkpt>
      <trkpt lat="42.96899" lon="0.79546">
        <ele>586.82</ele>
        <time>2019-09-07T10:45:36Z</time>
      </trkpt>
      <trkpt lat="42.96903" lon="0.79546">
        <ele>587.02</ele>
        <time>2019-09-07T10:45:39Z</time>
      </trkpt>
      <trkpt lat="42.96906" lon="0.79545">
        <ele>587.63</ele>
        <time>2019-09-07T10:45:56Z</time>
      </trkpt>
      <trkpt lat="42.96908" lon="0.79544">
        <ele>587.66</ele>
        <time>2019-09-07T10:45:57Z</time>
      </trkpt>
      <trkpt lat="42.9691" lon="0.79544">
        <ele>587.67</ele>
        <time>2019-09-07T10:45:58Z</time>
      </trkpt>
      <trkpt lat="42.96911" lon="0.79544">
        <ele>587.68</ele>
        <time>2019-09-07T10:45:59Z</time>
      </trkpt>
      <trkpt lat="42.96912" lon="0.79544">
        <ele>587.68</ele>
        <time>2019-09-07T10:46:00Z</time>
      </trkpt>
      <trkpt lat="42.96914" lon="0.79544">
        <ele>587.66</ele>
        <time>2019-09-07T10:46:01Z</time>
      </trkpt>
      <trkpt lat="42.96915" lon="0.79544">
        <ele>587.62</ele>
        <time>2019-09-07T10:46:02Z</time>
      </trkpt>
      <trkpt lat="42.96917" lon="0.79544">
        <ele>587.54</ele>
        <time>2019-09-07T10:46:03Z</time>
      </trkpt>
      <trkpt lat="42.96918" lon="0.79545">
        <ele>587.43</ele>
        <time>2019-09-07T10:46:04Z</time>
      </trkpt>
      <trkpt lat="42.96919" lon="0.79545">
        <ele>587.32</ele>
        <time>2019-09-07T10:46:05Z</time>
      </trkpt>
      <trkpt lat="42.9694" lon="0.79549">
        <ele>587.53</ele>
        <time>2019-09-07T10:46:25Z</time>
      </trkpt>
      <trkpt lat="42.96962" lon="0.79546">
        <ele>586.67</ele>
        <time>2019-09-07T10:46:42Z</time>
      </trkpt>
      <trkpt lat="42.96979" lon="0.79547">
        <ele>586.41</ele>
        <time>2019-09-07T10:46:58Z</time>
      </trkpt>
      <trkpt lat="42.96988" lon="0.79545">
        <ele>585.55</ele>
        <time>2019-09-07T10:47:08Z</time>
      </trkpt>
      <trkpt lat="42.96998" lon="0.79543">
        <ele>584.74</ele>
        <time>2019-09-07T10:47:16Z</time>
      </trkpt>
      <trkpt lat="42.97014" lon="0.79532">
        <ele>582.32</ele>
        <time>2019-09-07T10:47:30Z</time>
      </trkpt>
      <trkpt lat="42.97033" lon="0.79515">
        <ele>579.26</ele>
        <time>2019-09-07T10:47:46Z</time>
      </trkpt>
      <trkpt lat="42.97051" lon="0.79511">
        <ele>576.19</ele>
        <time>2019-09-07T10:48:01Z</time>
      </trkpt>
      <trkpt lat="42.97057" lon="0.79512">
        <ele>575.09</ele>
        <time>2019-09-07T10:48:06Z</time>
      </trkpt>
      <trkpt lat="42.97062" lon="0.79513">
        <ele>574.51</ele>
        <time>2019-09-07T10:48:09Z</time>
      </trkpt>
      <trkpt lat="42.97064" lon="0.79513">
        <ele>574.33</ele>
        <time>2019-09-07T10:48:10Z</time>
      </trkpt>
      <trkpt lat="42.97066" lon="0.79514">
        <ele>574.15</ele>
        <time>2019-09-07T10:48:11Z</time>
      </trkpt>
      <trkpt lat="42.97073" lon="0.79515">
        <ele>573.38</ele>
        <time>2019-09-07T10:48:16Z</time>
      </trkpt>
      <trkpt lat="42.97075" lon="0.79515">
        <ele>573.25</ele>
        <time>2019-09-07T10:48:17Z</time>
      </trkpt>
      <trkpt lat="42.97076" lon="0.79515">
        <ele>573.12</ele>
        <time>2019-09-07T10:48:18Z</time>
      </trkpt>
      <trkpt lat="42.97088" lon="0.795">
        <ele>571.82</ele>
        <time>2019-09-07T10:48:33Z</time>
      </trkpt>
      <trkpt lat="42.97089" lon="0.79492">
        <ele>572.17</ele>
        <time>2019-09-07T10:48:50Z</time>
      </trkpt>
      <trkpt lat="42.97089" lon="0.7949">
        <ele>572.12</ele>
        <time>2019-09-07T10:48:55Z</time>
      </trkpt>
      <trkpt lat="42.9709" lon="0.79488">
        <ele>572.09</ele>
        <time>2019-09-07T10:48:56Z</time>
      </trkpt>
      <trkpt lat="42.9709" lon="0.79487">
        <ele>572.05</ele>
        <time>2019-09-07T10:48:57Z</time>
      </trkpt>
      <trkpt lat="42.97091" lon="0.79485">
        <ele>572.03</ele>
        <time>2019-09-07T10:48:58Z</time>
      </trkpt>
      <trkpt lat="42.97097" lon="0.79472">
        <ele>570.93</ele>
        <time>2019-09-07T10:49:11Z</time>
      </trkpt>
      <trkpt lat="42.97105" lon="0.79445">
        <ele>569.76</ele>
        <time>2019-09-07T10:49:26Z</time>
      </trkpt>
      <trkpt lat="42.97111" lon="0.79414">
        <ele>569.38</ele>
        <time>2019-09-07T10:49:45Z</time>
      </trkpt>
      <trkpt lat="42.97127" lon="0.79394">
        <ele>568.24</ele>
        <time>2019-09-07T10:50:03Z</time>
      </trkpt>
      <trkpt lat="42.97149" lon="0.79371">
        <ele>567.15</ele>
        <time>2019-09-07T10:50:23Z</time>
      </trkpt>
      <trkpt lat="42.97169" lon="0.79359">
        <ele>564.42</ele>
        <time>2019-09-07T10:50:40Z</time>
      </trkpt>
      <trkpt lat="42.97178" lon="0.79355">
        <ele>562.77</ele>
        <time>2019-09-07T10:50:48Z</time>
      </trkpt>
      <trkpt lat="42.9718" lon="0.79355">
        <ele>562.57</ele>
        <time>2019-09-07T10:50:49Z</time>
      </trkpt>
      <trkpt lat="42.97201" lon="0.7935">
        <ele>559.92</ele>
        <time>2019-09-07T10:51:05Z</time>
      </trkpt>
      <trkpt lat="42.97208" lon="0.79347">
        <ele>558.38</ele>
        <time>2019-09-07T10:51:12Z</time>
      </trkpt>
      <trkpt lat="42.97223" lon="0.79347">
        <ele>556.22</ele>
        <time>2019-09-07T10:51:25Z</time>
      </trkpt>
      <trkpt lat="42.9724" lon="0.7937">
        <ele>553.57</ele>
        <time>2019-09-07T10:51:44Z</time>
      </trkpt>
      <trkpt lat="42.97245" lon="0.79375">
        <ele>552.79</ele>
        <time>2019-09-07T10:51:51Z</time>
      </trkpt>
      <trkpt lat="42.97254" lon="0.79388">
        <ele>551.27</ele>
        <time>2019-09-07T10:52:11Z</time>
      </trkpt>
      <trkpt lat="42.9727" lon="0.79385">
        <ele>549.85</ele>
        <time>2019-09-07T10:52:31Z</time>
      </trkpt>
      <trkpt lat="42.97275" lon="0.7937">
        <ele>548.99</ele>
        <time>2019-09-07T10:52:47Z</time>
      </trkpt>
      <trkpt lat="42.97276" lon="0.79343">
        <ele>548.58</ele>
        <time>2019-09-07T10:53:06Z</time>
      </trkpt>
      <trkpt lat="42.97276" lon="0.79338">
        <ele>548.65</ele>
        <time>2019-09-07T10:53:09Z</time>
      </trkpt>
      <trkpt lat="42.97276" lon="0.79336">
        <ele>548.69</ele>
        <time>2019-09-07T10:53:10Z</time>
      </trkpt>
      <trkpt lat="42.97276" lon="0.79334">
        <ele>548.73</ele>
        <time>2019-09-07T10:53:11Z</time>
      </trkpt>
      <trkpt lat="42.97276" lon="0.79333">
        <ele>548.79</ele>
        <time>2019-09-07T10:53:12Z</time>
      </trkpt>
      <trkpt lat="42.97285" lon="0.79305">
        <ele>549.58</ele>
        <time>2019-09-07T10:53:30Z</time>
      </trkpt>
      <trkpt lat="42.97299" lon="0.7929">
        <ele>548.55</ele>
        <time>2019-09-07T10:53:46Z</time>
      </trkpt>
      <trkpt lat="42.97313" lon="0.79273">
        <ele>547.82</ele>
        <time>2019-09-07T10:54:04Z</time>
      </trkpt>
      <trkpt lat="42.97327" lon="0.79254">
        <ele>547.89</ele>
        <time>2019-09-07T10:54:25Z</time>
      </trkpt>
      <trkpt lat="42.97332" lon="0.79249">
        <ele>547.9</ele>
        <time>2019-09-07T10:54:34Z</time>
      </trkpt>
      <trkpt lat="42.97351" lon="0.79223">
        <ele>547.9</ele>
        <time>2019-09-07T10:54:57Z</time>
      </trkpt>
      <trkpt lat="42.9737" lon="0.79202">
        <ele>547.9</ele>
        <time>2019-09-07T10:55:15Z</time>
      </trkpt>
      <trkpt lat="42.97383" lon="0.79181">
        <ele>547.9</ele>
        <time>2019-09-07T10:55:31Z</time>
      </trkpt>
      <trkpt lat="42.97401" lon="0.79166">
        <ele>547.9</ele>
        <time>2019-09-07T10:55:48Z</time>
      </trkpt>
      <trkpt lat="42.97406" lon="0.79165">
        <ele>547.9</ele>
        <time>2019-09-07T10:55:52Z</time>
      </trkpt>
      <trkpt lat="42.97412" lon="0.79165">
        <ele>544.32</ele>
        <time>2019-09-07T10:55:58Z</time>
      </trkpt>
      <trkpt lat="42.97415" lon="0.79168">
        <ele>543.64</ele>
        <time>2019-09-07T10:56:01Z</time>
      </trkpt>
      <trkpt lat="42.97419" lon="0.79173">
        <ele>543.52</ele>
        <time>2019-09-07T10:56:16Z</time>
      </trkpt>
      <trkpt lat="42.97421" lon="0.79174">
        <ele>543.5</ele>
        <time>2019-09-07T10:56:23Z</time>
      </trkpt>
      <trkpt lat="42.97422" lon="0.79173">
        <ele>543.44</ele>
        <time>2019-09-07T10:56:24Z</time>
      </trkpt>
      <trkpt lat="42.97423" lon="0.79172">
        <ele>543.36</ele>
        <time>2019-09-07T10:56:25Z</time>
      </trkpt>
      <trkpt lat="42.97424" lon="0.79171">
        <ele>543.27</ele>
        <time>2019-09-07T10:56:26Z</time>
      </trkpt>
      <trkpt lat="42.97424" lon="0.79169">
        <ele>543.21</ele>
        <time>2019-09-07T10:56:27Z</time>
      </trkpt>
      <trkpt lat="42.97439" lon="0.79147">
        <ele>541.52</ele>
        <time>2019-09-07T10:56:44Z</time>
      </trkpt>
      <trkpt lat="42.97462" lon="0.79138">
        <ele>539.06</ele>
        <time>2019-09-07T10:57:03Z</time>
      </trkpt>
      <trkpt lat="42.97465" lon="0.79139">
        <ele>538.54</ele>
        <time>2019-09-07T10:57:06Z</time>
      </trkpt>
      <trkpt lat="42.97466" lon="0.79139">
        <ele>538.39</ele>
        <time>2019-09-07T10:57:07Z</time>
      </trkpt>
      <trkpt lat="42.97468" lon="0.7914">
        <ele>538.24</ele>
        <time>2019-09-07T10:57:08Z</time>
      </trkpt>
      <trkpt lat="42.97469" lon="0.7914">
        <ele>538.07</ele>
        <time>2019-09-07T10:57:09Z</time>
      </trkpt>
      <trkpt lat="42.97485" lon="0.79145">
        <ele>534.96</ele>
        <time>2019-09-07T10:57:24Z</time>
      </trkpt>
      <trkpt lat="42.97493" lon="0.79149">
        <ele>533.33</ele>
        <time>2019-09-07T10:57:31Z</time>
      </trkpt>
      <trkpt lat="42.97502" lon="0.79153">
        <ele>531.84</ele>
        <time>2019-09-07T10:57:38Z</time>
      </trkpt>
      <trkpt lat="42.97511" lon="0.79158">
        <ele>530.5</ele>
        <time>2019-09-07T10:57:45Z</time>
      </trkpt>
      <trkpt lat="42.97512" lon="0.79159">
        <ele>530.29</ele>
        <time>2019-09-07T10:57:46Z</time>
      </trkpt>
      <trkpt lat="42.97514" lon="0.7916">
        <ele>530.06</ele>
        <time>2019-09-07T10:57:47Z</time>
      </trkpt>
      <trkpt lat="42.97516" lon="0.79161">
        <ele>529.82</ele>
        <time>2019-09-07T10:57:48Z</time>
      </trkpt>
      <trkpt lat="42.97517" lon="0.79162">
        <ele>529.57</ele>
        <time>2019-09-07T10:57:49Z</time>
      </trkpt>
      <trkpt lat="42.9753" lon="0.7917">
        <ele>526.56</ele>
        <time>2019-09-07T10:58:00Z</time>
      </trkpt>
      <trkpt lat="42.97546" lon="0.7918">
        <ele>523.78</ele>
        <time>2019-09-07T10:58:15Z</time>
      </trkpt>
      <trkpt lat="42.97557" lon="0.79185">
        <ele>523.08</ele>
        <time>2019-09-07T10:58:22Z</time>
      </trkpt>
      <trkpt lat="42.97562" lon="0.79187">
        <ele>522.84</ele>
        <time>2019-09-07T10:58:25Z</time>
      </trkpt>
      <trkpt lat="42.97595" lon="0.79202">
        <ele>521.51</ele>
        <time>2019-09-07T10:58:48Z</time>
      </trkpt>
      <trkpt lat="42.97608" lon="0.79215">
        <ele>520.73</ele>
        <time>2019-09-07T10:59:02Z</time>
      </trkpt>
      <trkpt lat="42.97615" lon="0.79213">
        <ele>521.36</ele>
        <time>2019-09-07T10:59:19Z</time>
      </trkpt>
      <trkpt lat="42.97619" lon="0.79208">
        <ele>520.69</ele>
        <time>2019-09-07T10:59:40Z</time>
      </trkpt>
      <trkpt lat="42.97632" lon="0.79191">
        <ele>519.75</ele>
        <time>2019-09-07T10:59:56Z</time>
      </trkpt>
      <trkpt lat="42.97651" lon="0.79181">
        <ele>518.6</ele>
        <time>2019-09-07T11:00:13Z</time>
      </trkpt>
      <trkpt lat="42.97664" lon="0.79176">
        <ele>518.19</ele>
        <time>2019-09-07T11:00:23Z</time>
      </trkpt>
      <trkpt lat="42.97685" lon="0.79175">
        <ele>517.27</ele>
        <time>2019-09-07T11:00:39Z</time>
      </trkpt>
      <trkpt lat="42.97703" lon="0.79178">
        <ele>516.77</ele>
        <time>2019-09-07T11:00:55Z</time>
      </trkpt>
      <trkpt lat="42.97717" lon="0.79179">
        <ele>517.07</ele>
        <time>2019-09-07T11:01:08Z</time>
      </trkpt>
      <trkpt lat="42.97736" lon="0.79186">
        <ele>517.95</ele>
        <time>2019-09-07T11:01:26Z</time>
      </trkpt>
      <trkpt lat="42.97751" lon="0.79166">
        <ele>517.37</ele>
        <time>2019-09-07T11:01:46Z</time>
      </trkpt>
      <trkpt lat="42.97773" lon="0.79153">
        <ele>516.57</ele>
        <time>2019-09-07T11:02:02Z</time>
      </trkpt>
      <trkpt lat="42.97795" lon="0.79158">
        <ele>516.57</ele>
        <time>2019-09-07T11:02:21Z</time>
      </trkpt>
      <trkpt lat="42.97816" lon="0.79165">
        <ele>517.06</ele>
        <time>2019-09-07T11:02:41Z</time>
      </trkpt>
      <trkpt lat="42.97844" lon="0.79169">
        <ele>516.78</ele>
        <time>2019-09-07T11:03:00Z</time>
      </trkpt>
      <trkpt lat="42.97857" lon="0.79177">
        <ele>517.27</ele>
        <time>2019-09-07T11:03:13Z</time>
      </trkpt>
      <trkpt lat="42.97872" lon="0.79195">
        <ele>517.38</ele>
        <time>2019-09-07T11:03:30Z</time>
      </trkpt>
      <trkpt lat="42.97879" lon="0.79215">
        <ele>516.36</ele>
        <time>2019-09-07T11:03:47Z</time>
      </trkpt>
      <trkpt lat="42.97897" lon="0.79245">
        <ele>515.79</ele>
        <time>2019-09-07T11:04:04Z</time>
      </trkpt>
      <trkpt lat="42.97919" lon="0.79242">
        <ele>515.42</ele>
        <time>2019-09-07T11:04:21Z</time>
      </trkpt>
      <trkpt lat="42.97924" lon="0.79242">
        <ele>515.37</ele>
        <time>2019-09-07T11:04:24Z</time>
      </trkpt>
      <trkpt lat="42.97931" lon="0.79242">
        <ele>515.63</ele>
        <time>2019-09-07T11:04:33Z</time>
      </trkpt>
      <trkpt lat="42.97937" lon="0.79241">
        <ele>515.96</ele>
        <time>2019-09-07T11:04:37Z</time>
      </trkpt>
      <trkpt lat="42.97939" lon="0.79242">
        <ele>515.93</ele>
        <time>2019-09-07T11:04:39Z</time>
      </trkpt>
      <trkpt lat="42.97958" lon="0.79245">
        <ele>514.28</ele>
        <time>2019-09-07T11:04:55Z</time>
      </trkpt>
      <trkpt lat="42.97976" lon="0.79246">
        <ele>513.79</ele>
        <time>2019-09-07T11:05:11Z</time>
      </trkpt>
      <trkpt lat="42.97979" lon="0.79245">
        <ele>513.72</ele>
        <time>2019-09-07T11:05:13Z</time>
      </trkpt>
      <trkpt lat="42.97988" lon="0.79243">
        <ele>513.52</ele>
        <time>2019-09-07T11:05:20Z</time>
      </trkpt>
      <trkpt lat="42.98008" lon="0.7924">
        <ele>512.74</ele>
        <time>2019-09-07T11:05:38Z</time>
      </trkpt>
      <trkpt lat="42.98026" lon="0.79245">
        <ele>512.04</ele>
        <time>2019-09-07T11:05:51Z</time>
      </trkpt>
      <trkpt lat="42.98045" lon="0.79248">
        <ele>511.24</ele>
        <time>2019-09-07T11:06:07Z</time>
      </trkpt>
      <trkpt lat="42.98073" lon="0.79254">
        <ele>510.67</ele>
        <time>2019-09-07T11:06:29Z</time>
      </trkpt>
      <trkpt lat="42.98095" lon="0.79252">
        <ele>510.49</ele>
        <time>2019-09-07T11:06:45Z</time>
      </trkpt>
      <trkpt lat="42.98109" lon="0.79245">
        <ele>509.95</ele>
        <time>2019-09-07T11:06:55Z</time>
      </trkpt>
      <trkpt lat="42.98123" lon="0.79252">
        <ele>508.94</ele>
        <time>2019-09-07T11:07:10Z</time>
      </trkpt>
      <trkpt lat="42.98126" lon="0.79252">
        <ele>508.36</ele>
        <time>2019-09-07T11:07:13Z</time>
      </trkpt>
      <trkpt lat="42.98143" lon="0.79254">
        <ele>505.08</ele>
        <time>2019-09-07T11:07:27Z</time>
      </trkpt>
      <trkpt lat="42.98158" lon="0.79254">
        <ele>501.93</ele>
        <time>2019-09-07T11:07:40Z</time>
      </trkpt>
      <trkpt lat="42.98172" lon="0.79254">
        <ele>499.68</ele>
        <time>2019-09-07T11:07:51Z</time>
      </trkpt>
      <trkpt lat="42.9819" lon="0.79266">
        <ele>496.44</ele>
        <time>2019-09-07T11:08:10Z</time>
      </trkpt>
      <trkpt lat="42.98193" lon="0.79253">
        <ele>493.81</ele>
        <time>2019-09-07T11:08:27Z</time>
      </trkpt>
      <trkpt lat="42.98194" lon="0.79237">
        <ele>490.68</ele>
        <time>2019-09-07T11:08:40Z</time>
      </trkpt>
      <trkpt lat="42.98196" lon="0.7921">
        <ele>487.73</ele>
        <time>2019-09-07T11:08:56Z</time>
      </trkpt>
      <trkpt lat="42.98206" lon="0.79199">
        <ele>486.91</ele>
        <time>2019-09-07T11:09:05Z</time>
      </trkpt>
      <trkpt lat="42.98207" lon="0.79199">
        <ele>486.78</ele>
        <time>2019-09-07T11:09:06Z</time>
      </trkpt>
      <trkpt lat="42.98209" lon="0.79197">
        <ele>486.7</ele>
        <time>2019-09-07T11:09:07Z</time>
      </trkpt>
      <trkpt lat="42.98223" lon="0.7919">
        <ele>484.81</ele>
        <time>2019-09-07T11:09:18Z</time>
      </trkpt>
      <trkpt lat="42.98224" lon="0.7919">
        <ele>484.58</ele>
        <time>2019-09-07T11:09:19Z</time>
      </trkpt>
      <trkpt lat="42.98225" lon="0.7919">
        <ele>484.34</ele>
        <time>2019-09-07T11:09:20Z</time>
      </trkpt>
      <trkpt lat="42.98231" lon="0.7919">
        <ele>483.25</ele>
        <time>2019-09-07T11:09:25Z</time>
      </trkpt>
      <trkpt lat="42.98232" lon="0.79191">
        <ele>483.07</ele>
        <time>2019-09-07T11:09:26Z</time>
      </trkpt>
      <trkpt lat="42.98233" lon="0.79191">
        <ele>482.9</ele>
        <time>2019-09-07T11:09:27Z</time>
      </trkpt>
      <trkpt lat="42.98234" lon="0.79191">
        <ele>482.73</ele>
        <time>2019-09-07T11:09:28Z</time>
      </trkpt>
      <trkpt lat="42.98235" lon="0.79191">
        <ele>482.54</ele>
        <time>2019-09-07T11:09:29Z</time>
      </trkpt>
      <trkpt lat="42.98236" lon="0.79191">
        <ele>482.36</ele>
        <time>2019-09-07T11:09:30Z</time>
      </trkpt>
      <trkpt lat="42.98256" lon="0.79193">
        <ele>481.96</ele>
        <time>2019-09-07T11:09:46Z</time>
      </trkpt>
      <trkpt lat="42.98282" lon="0.79195">
        <ele>480.63</ele>
        <time>2019-09-07T11:10:03Z</time>
      </trkpt>
      <trkpt lat="42.98291" lon="0.79196">
        <ele>480.6</ele>
        <time>2019-09-07T11:10:12Z</time>
      </trkpt>
      <trkpt lat="42.98301" lon="0.79193">
        <ele>480.59</ele>
        <time>2019-09-07T11:10:20Z</time>
      </trkpt>
      <trkpt lat="42.98302" lon="0.79192">
        <ele>480.59</ele>
        <time>2019-09-07T11:10:21Z</time>
      </trkpt>
      <trkpt lat="42.98303" lon="0.7919">
        <ele>480.59</ele>
        <time>2019-09-07T11:10:22Z</time>
      </trkpt>
      <trkpt lat="42.98304" lon="0.79188">
        <ele>480.6</ele>
        <time>2019-09-07T11:10:23Z</time>
      </trkpt>
      <trkpt lat="42.98305" lon="0.79186">
        <ele>480.6</ele>
        <time>2019-09-07T11:10:24Z</time>
      </trkpt>
      <trkpt lat="42.98306" lon="0.79183">
        <ele>480.6</ele>
        <time>2019-09-07T11:10:25Z</time>
      </trkpt>
      <trkpt lat="42.98306" lon="0.79181">
        <ele>480.62</ele>
        <time>2019-09-07T11:10:26Z</time>
      </trkpt>
      <trkpt lat="42.98307" lon="0.79179">
        <ele>480.66</ele>
        <time>2019-09-07T11:10:27Z</time>
      </trkpt>
      <trkpt lat="42.98307" lon="0.79148">
        <ele>480.71</ele>
        <time>2019-09-07T11:10:45Z</time>
      </trkpt>
      <trkpt lat="42.9831" lon="0.79121">
        <ele>480.28</ele>
        <time>2019-09-07T11:11:02Z</time>
      </trkpt>
      <trkpt lat="42.98311" lon="0.79118">
        <ele>480.28</ele>
        <time>2019-09-07T11:11:04Z</time>
      </trkpt>
      <trkpt lat="42.98312" lon="0.79112">
        <ele>480.28</ele>
        <time>2019-09-07T11:11:07Z</time>
      </trkpt>
      <trkpt lat="42.98305" lon="0.791">
        <ele>481.17</ele>
        <time>2019-09-07T11:11:20Z</time>
      </trkpt>
      <trkpt lat="42.98284" lon="0.79096">
        <ele>482.85</ele>
        <time>2019-09-07T11:11:39Z</time>
      </trkpt>
      <trkpt lat="42.98262" lon="0.7909">
        <ele>484.32</ele>
        <time>2019-09-07T11:11:59Z</time>
      </trkpt>
      <trkpt lat="42.98244" lon="0.79085">
        <ele>484.86</ele>
        <time>2019-09-07T11:12:16Z</time>
      </trkpt>
      <trkpt lat="42.98236" lon="0.79083">
        <ele>484.92</ele>
        <time>2019-09-07T11:12:23Z</time>
      </trkpt>
      <trkpt lat="42.98213" lon="0.79076">
        <ele>485.51</ele>
        <time>2019-09-07T11:12:41Z</time>
      </trkpt>
      <trkpt lat="42.98194" lon="0.79066">
        <ele>486.47</ele>
        <time>2019-09-07T11:12:58Z</time>
      </trkpt>
      <trkpt lat="42.98175" lon="0.79053">
        <ele>487.56</ele>
        <time>2019-09-07T11:13:15Z</time>
      </trkpt>
      <trkpt lat="42.98164" lon="0.79048">
        <ele>488.37</ele>
        <time>2019-09-07T11:13:24Z</time>
      </trkpt>
      <trkpt lat="42.98153" lon="0.79051">
        <ele>489.28</ele>
        <time>2019-09-07T11:13:33Z</time>
      </trkpt>
      <trkpt lat="42.98152" lon="0.79051">
        <ele>489.3</ele>
        <time>2019-09-07T11:13:34Z</time>
      </trkpt>
      <trkpt lat="42.98139" lon="0.79062">
        <ele>491.21</ele>
        <time>2019-09-07T11:13:52Z</time>
      </trkpt>
      <trkpt lat="42.98126" lon="0.79064">
        <ele>494.42</ele>
        <time>2019-09-07T11:14:09Z</time>
      </trkpt>
      <trkpt lat="42.98114" lon="0.79067">
        <ele>496.76</ele>
        <time>2019-09-07T11:14:26Z</time>
      </trkpt>
      <trkpt lat="42.98107" lon="0.79066">
        <ele>499.93</ele>
        <time>2019-09-07T11:14:39Z</time>
      </trkpt>
      <trkpt lat="42.98106" lon="0.79062">
        <ele>501.52</ele>
        <time>2019-09-07T11:15:03Z</time>
      </trkpt>
      <trkpt lat="42.98091" lon="0.79052">
        <ele>503.67</ele>
        <time>2019-09-07T11:15:21Z</time>
      </trkpt>
      <trkpt lat="42.98087" lon="0.79037">
        <ele>505.44</ele>
        <time>2019-09-07T11:15:36Z</time>
      </trkpt>
      <trkpt lat="42.98081" lon="0.79018">
        <ele>508.05</ele>
        <time>2019-09-07T11:15:52Z</time>
      </trkpt>
      <trkpt lat="42.98076" lon="0.79006">
        <ele>508.95</ele>
        <time>2019-09-07T11:16:01Z</time>
      </trkpt>
      <trkpt lat="42.98076" lon="0.79004">
        <ele>509.02</ele>
        <time>2019-09-07T11:16:02Z</time>
      </trkpt>
      <trkpt lat="42.9807" lon="0.7899">
        <ele>509.54</ele>
        <time>2019-09-07T11:16:12Z</time>
      </trkpt>
      <trkpt lat="42.98068" lon="0.78978">
        <ele>509.91</ele>
        <time>2019-09-07T11:16:20Z</time>
      </trkpt>
      <trkpt lat="42.98067" lon="0.78976">
        <ele>509.98</ele>
        <time>2019-09-07T11:16:21Z</time>
      </trkpt>
      <trkpt lat="42.98063" lon="0.78946">
        <ele>510.8</ele>
        <time>2019-09-07T11:16:37Z</time>
      </trkpt>
      <trkpt lat="42.98059" lon="0.78919">
        <ele>512.02</ele>
        <time>2019-09-07T11:16:54Z</time>
      </trkpt>
      <trkpt lat="42.98054" lon="0.78904">
        <ele>513.28</ele>
        <time>2019-09-07T11:17:11Z</time>
      </trkpt>
      <trkpt lat="42.98047" lon="0.78881">
        <ele>515.57</ele>
        <time>2019-09-07T11:17:30Z</time>
      </trkpt>
      <trkpt lat="42.98046" lon="0.78853">
        <ele>517.82</ele>
        <time>2019-09-07T11:17:50Z</time>
      </trkpt>
      <trkpt lat="42.98048" lon="0.78848">
        <ele>517.89</ele>
        <time>2019-09-07T11:17:53Z</time>
      </trkpt>
      <trkpt lat="42.98058" lon="0.78843">
        <ele>518.78</ele>
        <time>2019-09-07T11:18:04Z</time>
      </trkpt>
      <trkpt lat="42.98075" lon="0.78837">
        <ele>520.18</ele>
        <time>2019-09-07T11:18:18Z</time>
      </trkpt>
      <trkpt lat="42.981" lon="0.78827">
        <ele>522.02</ele>
        <time>2019-09-07T11:18:39Z</time>
      </trkpt>
      <trkpt lat="42.98127" lon="0.7882">
        <ele>523.34</ele>
        <time>2019-09-07T11:19:02Z</time>
      </trkpt>
      <trkpt lat="42.98156" lon="0.78806">
        <ele>524.98</ele>
        <time>2019-09-07T11:19:28Z</time>
      </trkpt>
      <trkpt lat="42.98166" lon="0.78779">
        <ele>526.34</ele>
        <time>2019-09-07T11:19:49Z</time>
      </trkpt>
      <trkpt lat="42.98162" lon="0.78771">
        <ele>527.71</ele>
        <time>2019-09-07T11:20:03Z</time>
      </trkpt>
      <trkpt lat="42.98152" lon="0.78768">
        <ele>528.12</ele>
        <time>2019-09-07T11:20:13Z</time>
      </trkpt>
      <trkpt lat="42.98151" lon="0.78768">
        <ele>528.22</ele>
        <time>2019-09-07T11:20:14Z</time>
      </trkpt>
      <trkpt lat="42.9815" lon="0.78767">
        <ele>528.32</ele>
        <time>2019-09-07T11:20:15Z</time>
      </trkpt>
      <trkpt lat="42.98124" lon="0.78758">
        <ele>529.41</ele>
        <time>2019-09-07T11:20:35Z</time>
      </trkpt>
      <trkpt lat="42.98099" lon="0.78746">
        <ele>530.44</ele>
        <time>2019-09-07T11:20:57Z</time>
      </trkpt>
      <trkpt lat="42.98082" lon="0.78733">
        <ele>531.56</ele>
        <time>2019-09-07T11:21:15Z</time>
      </trkpt>
      <trkpt lat="42.98066" lon="0.78727">
        <ele>532.67</ele>
        <time>2019-09-07T11:21:30Z</time>
      </trkpt>
      <trkpt lat="42.98048" lon="0.78719">
        <ele>533.82</ele>
        <time>2019-09-07T11:21:45Z</time>
      </trkpt>
      <trkpt lat="42.98032" lon="0.78712">
        <ele>534.76</ele>
        <time>2019-09-07T11:21:59Z</time>
      </trkpt>
      <trkpt lat="42.98024" lon="0.78708">
        <ele>535.19</ele>
        <time>2019-09-07T11:22:06Z</time>
      </trkpt>
      <trkpt lat="42.98008" lon="0.787">
        <ele>536.17</ele>
        <time>2019-09-07T11:22:20Z</time>
      </trkpt>
      <trkpt lat="42.97988" lon="0.7869">
        <ele>537.47</ele>
        <time>2019-09-07T11:22:39Z</time>
      </trkpt>
      <trkpt lat="42.97963" lon="0.78674">
        <ele>538.49</ele>
        <time>2019-09-07T11:23:00Z</time>
      </trkpt>
      <trkpt lat="42.97961" lon="0.78673">
        <ele>538.45</ele>
        <time>2019-09-07T11:23:01Z</time>
      </trkpt>
      <trkpt lat="42.9796" lon="0.78673">
        <ele>538.43</ele>
        <time>2019-09-07T11:23:02Z</time>
      </trkpt>
      <trkpt lat="42.97959" lon="0.78672">
        <ele>538.42</ele>
        <time>2019-09-07T11:23:03Z</time>
      </trkpt>
      <trkpt lat="42.97958" lon="0.78671">
        <ele>538.42</ele>
        <time>2019-09-07T11:23:04Z</time>
      </trkpt>
      <trkpt lat="42.97956" lon="0.78671">
        <ele>538.5</ele>
        <time>2019-09-07T11:23:05Z</time>
      </trkpt>
      <trkpt lat="42.97955" lon="0.7867">
        <ele>538.61</ele>
        <time>2019-09-07T11:23:06Z</time>
      </trkpt>
      <trkpt lat="42.97954" lon="0.78669">
        <ele>538.67</ele>
        <time>2019-09-07T11:23:07Z</time>
      </trkpt>
      <trkpt lat="42.97953" lon="0.78667">
        <ele>538.69</ele>
        <time>2019-09-07T11:23:08Z</time>
      </trkpt>
      <trkpt lat="42.97952" lon="0.78665">
        <ele>538.7</ele>
        <time>2019-09-07T11:23:09Z</time>
      </trkpt>
      <trkpt lat="42.97934" lon="0.78643">
        <ele>539.72</ele>
        <time>2019-09-07T11:23:31Z</time>
      </trkpt>
      <trkpt lat="42.97932" lon="0.78638">
        <ele>541.19</ele>
        <time>2019-09-07T11:23:35Z</time>
      </trkpt>
      <trkpt lat="42.97925" lon="0.78618">
        <ele>541.52</ele>
        <time>2019-09-07T11:23:49Z</time>
      </trkpt>
      <trkpt lat="42.97917" lon="0.78592">
        <ele>542.76</ele>
        <time>2019-09-07T11:24:05Z</time>
      </trkpt>
      <trkpt lat="42.97915" lon="0.78584">
        <ele>543.12</ele>
        <time>2019-09-07T11:24:10Z</time>
      </trkpt>
      <trkpt lat="42.9791" lon="0.78555">
        <ele>544.34</ele>
        <time>2019-09-07T11:24:30Z</time>
      </trkpt>
      <trkpt lat="42.97908" lon="0.78541">
        <ele>545.08</ele>
        <time>2019-09-07T11:24:39Z</time>
      </trkpt>
      <trkpt lat="42.97905" lon="0.78528">
        <ele>545.62</ele>
        <time>2019-09-07T11:24:46Z</time>
      </trkpt>
      <trkpt lat="42.97905" lon="0.78526">
        <ele>545.65</ele>
        <time>2019-09-07T11:24:47Z</time>
      </trkpt>
      <trkpt lat="42.97904" lon="0.78519">
        <ele>545.99</ele>
        <time>2019-09-07T11:24:51Z</time>
      </trkpt>
      <trkpt lat="42.97904" lon="0.78489">
        <ele>547.51</ele>
        <time>2019-09-07T11:25:09Z</time>
      </trkpt>
      <trkpt lat="42.97906" lon="0.78466">
        <ele>548.94</ele>
        <time>2019-09-07T11:25:26Z</time>
      </trkpt>
      <trkpt lat="42.97915" lon="0.78431">
        <ele>550.27</ele>
        <time>2019-09-07T11:25:45Z</time>
      </trkpt>
      <trkpt lat="42.97918" lon="0.78417">
        <ele>550.71</ele>
        <time>2019-09-07T11:25:52Z</time>
      </trkpt>
      <trkpt lat="42.97922" lon="0.78393">
        <ele>551.51</ele>
        <time>2019-09-07T11:26:05Z</time>
      </trkpt>
      <trkpt lat="42.97928" lon="0.78377">
        <ele>552.25</ele>
        <time>2019-09-07T11:26:15Z</time>
      </trkpt>
      <trkpt lat="42.9793" lon="0.78356">
        <ele>553.07</ele>
        <time>2019-09-07T11:26:28Z</time>
      </trkpt>
      <trkpt lat="42.97928" lon="0.78327">
        <ele>554.24</ele>
        <time>2019-09-07T11:26:44Z</time>
      </trkpt>
      <trkpt lat="42.97928" lon="0.78321">
        <ele>554.44</ele>
        <time>2019-09-07T11:26:47Z</time>
      </trkpt>
      <trkpt lat="42.97927" lon="0.78301">
        <ele>555.11</ele>
        <time>2019-09-07T11:26:58Z</time>
      </trkpt>
      <trkpt lat="42.97922" lon="0.78279">
        <ele>555.64</ele>
        <time>2019-09-07T11:27:12Z</time>
      </trkpt>
      <trkpt lat="42.97918" lon="0.78248">
        <ele>555.98</ele>
        <time>2019-09-07T11:27:31Z</time>
      </trkpt>
      <trkpt lat="42.97916" lon="0.78219">
        <ele>556.64</ele>
        <time>2019-09-07T11:27:46Z</time>
      </trkpt>
      <trkpt lat="42.97913" lon="0.7819">
        <ele>557.22</ele>
        <time>2019-09-07T11:28:02Z</time>
      </trkpt>
      <trkpt lat="42.9791" lon="0.78176">
        <ele>557.54</ele>
        <time>2019-09-07T11:28:10Z</time>
      </trkpt>
      <trkpt lat="42.97908" lon="0.78161">
        <ele>557.92</ele>
        <time>2019-09-07T11:28:21Z</time>
      </trkpt>
      <trkpt lat="42.97907" lon="0.7813">
        <ele>558.42</ele>
        <time>2019-09-07T11:28:39Z</time>
      </trkpt>
      <trkpt lat="42.97906" lon="0.78124">
        <ele>558.46</ele>
        <time>2019-09-07T11:28:42Z</time>
      </trkpt>
      <trkpt lat="42.97906" lon="0.78122">
        <ele>558.47</ele>
        <time>2019-09-07T11:28:43Z</time>
      </trkpt>
      <trkpt lat="42.97908" lon="0.781">
        <ele>559.01</ele>
        <time>2019-09-07T11:28:57Z</time>
      </trkpt>
      <trkpt lat="42.97909" lon="0.78071">
        <ele>559.58</ele>
        <time>2019-09-07T11:29:13Z</time>
      </trkpt>
      <trkpt lat="42.9791" lon="0.78045">
        <ele>560.38</ele>
        <time>2019-09-07T11:29:29Z</time>
      </trkpt>
      <trkpt lat="42.97912" lon="0.78012">
        <ele>561.45</ele>
        <time>2019-09-07T11:29:50Z</time>
      </trkpt>
      <trkpt lat="42.97911" lon="0.77979">
        <ele>562.37</ele>
        <time>2019-09-07T11:30:08Z</time>
      </trkpt>
      <trkpt lat="42.97907" lon="0.77945">
        <ele>563</ele>
        <time>2019-09-07T11:30:22Z</time>
      </trkpt>
      <trkpt lat="42.97904" lon="0.7792">
        <ele>563.78</ele>
        <time>2019-09-07T11:30:36Z</time>
      </trkpt>
      <trkpt lat="42.97897" lon="0.77893">
        <ele>564.83</ele>
        <time>2019-09-07T11:30:55Z</time>
      </trkpt>
      <trkpt lat="42.97888" lon="0.77865">
        <ele>566.31</ele>
        <time>2019-09-07T11:31:15Z</time>
      </trkpt>
      <trkpt lat="42.9788" lon="0.77836">
        <ele>567.8</ele>
        <time>2019-09-07T11:31:33Z</time>
      </trkpt>
      <trkpt lat="42.9787" lon="0.77806">
        <ele>569.34</ele>
        <time>2019-09-07T11:31:55Z</time>
      </trkpt>
      <trkpt lat="42.97862" lon="0.77768">
        <ele>570.83</ele>
        <time>2019-09-07T11:32:14Z</time>
      </trkpt>
      <trkpt lat="42.97862" lon="0.77755">
        <ele>571.24</ele>
        <time>2019-09-07T11:32:20Z</time>
      </trkpt>
      <trkpt lat="42.97862" lon="0.77752">
        <ele>571.3</ele>
        <time>2019-09-07T11:32:21Z</time>
      </trkpt>
      <trkpt lat="42.97861" lon="0.7773">
        <ele>572.16</ele>
        <time>2019-09-07T11:32:35Z</time>
      </trkpt>
      <trkpt lat="42.97859" lon="0.77699">
        <ele>573.55</ele>
        <time>2019-09-07T11:32:56Z</time>
      </trkpt>
      <trkpt lat="42.97854" lon="0.77668">
        <ele>574.85</ele>
        <time>2019-09-07T11:33:15Z</time>
      </trkpt>
      <trkpt lat="42.97845" lon="0.7763">
        <ele>576.8</ele>
        <time>2019-09-07T11:33:37Z</time>
      </trkpt>
      <trkpt lat="42.97839" lon="0.77598">
        <ele>578.33</ele>
        <time>2019-09-07T11:33:57Z</time>
      </trkpt>
      <trkpt lat="42.9784" lon="0.77566">
        <ele>579.1</ele>
        <time>2019-09-07T11:34:13Z</time>
      </trkpt>
      <trkpt lat="42.97848" lon="0.77539">
        <ele>580.68</ele>
        <time>2019-09-07T11:34:33Z</time>
      </trkpt>
      <trkpt lat="42.97849" lon="0.77509">
        <ele>582.25</ele>
        <time>2019-09-07T11:34:53Z</time>
      </trkpt>
      <trkpt lat="42.97844" lon="0.77484">
        <ele>583.61</ele>
        <time>2019-09-07T11:35:12Z</time>
      </trkpt>
      <trkpt lat="42.97834" lon="0.77446">
        <ele>585.25</ele>
        <time>2019-09-07T11:35:33Z</time>
      </trkpt>
      <trkpt lat="42.97829" lon="0.77406">
        <ele>586.9</ele>
        <time>2019-09-07T11:35:54Z</time>
      </trkpt>
      <trkpt lat="42.9783" lon="0.7739">
        <ele>587.6</ele>
        <time>2019-09-07T11:36:03Z</time>
      </trkpt>
      <trkpt lat="42.97836" lon="0.77378">
        <ele>588.01</ele>
        <time>2019-09-07T11:36:09Z</time>
      </trkpt>
      <trkpt lat="42.97837" lon="0.77377">
        <ele>588.05</ele>
        <time>2019-09-07T11:36:10Z</time>
      </trkpt>
      <trkpt lat="42.97851" lon="0.77361">
        <ele>589.16</ele>
        <time>2019-09-07T11:36:24Z</time>
      </trkpt>
      <trkpt lat="42.97859" lon="0.77344">
        <ele>590.06</ele>
        <time>2019-09-07T11:36:39Z</time>
      </trkpt>
      <trkpt lat="42.97861" lon="0.7732">
        <ele>590.93</ele>
        <time>2019-09-07T11:36:56Z</time>
      </trkpt>
      <trkpt lat="42.97857" lon="0.77304">
        <ele>591.5</ele>
        <time>2019-09-07T11:37:06Z</time>
      </trkpt>
      <trkpt lat="42.97853" lon="0.7727">
        <ele>593.19</ele>
        <time>2019-09-07T11:37:26Z</time>
      </trkpt>
      <trkpt lat="42.97847" lon="0.77237">
        <ele>594.42</ele>
        <time>2019-09-07T11:37:45Z</time>
      </trkpt>
      <trkpt lat="42.97847" lon="0.77231">
        <ele>594.67</ele>
        <time>2019-09-07T11:37:48Z</time>
      </trkpt>
      <trkpt lat="42.97842" lon="0.77203">
        <ele>596.14</ele>
        <time>2019-09-07T11:38:05Z</time>
      </trkpt>
      <trkpt lat="42.97834" lon="0.77165">
        <ele>596.67</ele>
        <time>2019-09-07T11:38:28Z</time>
      </trkpt>
      <trkpt lat="42.97825" lon="0.77128">
        <ele>598.06</ele>
        <time>2019-09-07T11:38:49Z</time>
      </trkpt>
      <trkpt lat="42.9782" lon="0.77101">
        <ele>597.81</ele>
        <time>2019-09-07T11:39:05Z</time>
      </trkpt>
      <trkpt lat="42.97815" lon="0.77073">
        <ele>597.78</ele>
        <time>2019-09-07T11:39:21Z</time>
      </trkpt>
      <trkpt lat="42.97809" lon="0.77045">
        <ele>597.77</ele>
        <time>2019-09-07T11:39:39Z</time>
      </trkpt>
      <trkpt lat="42.97808" lon="0.77044">
        <ele>597.77</ele>
        <time>2019-09-07T11:39:40Z</time>
      </trkpt>
      <trkpt lat="42.9779" lon="0.77033">
        <ele>598.58</ele>
        <time>2019-09-07T11:39:57Z</time>
      </trkpt>
      <trkpt lat="42.97781" lon="0.7703">
        <ele>599.92</ele>
        <time>2019-09-07T11:40:06Z</time>
      </trkpt>
      <trkpt lat="42.97781" lon="0.77028">
        <ele>600.04</ele>
        <time>2019-09-07T11:40:07Z</time>
      </trkpt>
      <trkpt lat="42.9778" lon="0.77027">
        <ele>600.18</ele>
        <time>2019-09-07T11:40:08Z</time>
      </trkpt>
      <trkpt lat="42.97774" lon="0.76997">
        <ele>599.86</ele>
        <time>2019-09-07T11:40:25Z</time>
      </trkpt>
      <trkpt lat="42.97766" lon="0.76952">
        <ele>599.23</ele>
        <time>2019-09-07T11:40:51Z</time>
      </trkpt>
      <trkpt lat="42.97764" lon="0.76917">
        <ele>597.64</ele>
        <time>2019-09-07T11:41:11Z</time>
      </trkpt>
      <trkpt lat="42.97761" lon="0.76874">
        <ele>595.8</ele>
        <time>2019-09-07T11:41:35Z</time>
      </trkpt>
      <trkpt lat="42.97757" lon="0.76849">
        <ele>594.76</ele>
        <time>2019-09-07T11:41:52Z</time>
      </trkpt>
      <trkpt lat="42.9775" lon="0.76817">
        <ele>592.73</ele>
        <time>2019-09-07T11:42:10Z</time>
      </trkpt>
      <trkpt lat="42.97748" lon="0.76772">
        <ele>591.91</ele>
        <time>2019-09-07T11:42:31Z</time>
      </trkpt>
      <trkpt lat="42.9775" lon="0.76744">
        <ele>591.4</ele>
        <time>2019-09-07T11:42:48Z</time>
      </trkpt>
      <trkpt lat="42.97751" lon="0.7672">
        <ele>591.25</ele>
        <time>2019-09-07T11:43:03Z</time>
      </trkpt>
      <trkpt lat="42.97752" lon="0.76715">
        <ele>591.17</ele>
        <time>2019-09-07T11:43:06Z</time>
      </trkpt>
      <trkpt lat="42.97752" lon="0.76712">
        <ele>591.16</ele>
        <time>2019-09-07T11:43:07Z</time>
      </trkpt>
      <trkpt lat="42.97752" lon="0.7671">
        <ele>591.17</ele>
        <time>2019-09-07T11:43:08Z</time>
      </trkpt>
      <trkpt lat="42.97752" lon="0.76708">
        <ele>591.2</ele>
        <time>2019-09-07T11:43:09Z</time>
      </trkpt>
      <trkpt lat="42.97752" lon="0.76706">
        <ele>591.23</ele>
        <time>2019-09-07T11:43:10Z</time>
      </trkpt>
      <trkpt lat="42.97752" lon="0.76704">
        <ele>591.25</ele>
        <time>2019-09-07T11:43:11Z</time>
      </trkpt>
      <trkpt lat="42.97752" lon="0.7668">
        <ele>591.65</ele>
        <time>2019-09-07T11:43:25Z</time>
      </trkpt>
      <trkpt lat="42.97747" lon="0.76654">
        <ele>592.17</ele>
        <time>2019-09-07T11:43:41Z</time>
      </trkpt>
      <trkpt lat="42.97746" lon="0.76651">
        <ele>592.26</ele>
        <time>2019-09-07T11:43:43Z</time>
      </trkpt>
      <trkpt lat="42.97738" lon="0.76644">
        <ele>593.53</ele>
        <time>2019-09-07T11:43:58Z</time>
      </trkpt>
      <trkpt lat="42.9773" lon="0.76647">
        <ele>594.13</ele>
        <time>2019-09-07T11:44:22Z</time>
      </trkpt>
      <trkpt lat="42.97731" lon="0.76644">
        <ele>594.01</ele>
        <time>2019-09-07T11:44:45Z</time>
      </trkpt>
      <trkpt lat="42.97736" lon="0.76636">
        <ele>593.32</ele>
        <time>2019-09-07T11:44:51Z</time>
      </trkpt>
      <trkpt lat="42.97736" lon="0.76635">
        <ele>593.17</ele>
        <time>2019-09-07T11:44:52Z</time>
      </trkpt>
      <trkpt lat="42.97736" lon="0.76633">
        <ele>593.04</ele>
        <time>2019-09-07T11:44:53Z</time>
      </trkpt>
      <trkpt lat="42.97736" lon="0.76622">
        <ele>592.9</ele>
        <time>2019-09-07T11:45:00Z</time>
      </trkpt>
      <trkpt lat="42.97735" lon="0.76616">
        <ele>592.89</ele>
        <time>2019-09-07T11:45:03Z</time>
      </trkpt>
      <trkpt lat="42.9774" lon="0.76585">
        <ele>593.46</ele>
        <time>2019-09-07T11:45:22Z</time>
      </trkpt>
      <trkpt lat="42.97743" lon="0.76564">
        <ele>594.02</ele>
        <time>2019-09-07T11:45:35Z</time>
      </trkpt>
      <trkpt lat="42.97747" lon="0.76531">
        <ele>595.02</ele>
        <time>2019-09-07T11:45:54Z</time>
      </trkpt>
      <trkpt lat="42.97748" lon="0.76518">
        <ele>595.12</ele>
        <time>2019-09-07T11:46:02Z</time>
      </trkpt>
      <trkpt lat="42.97749" lon="0.76512">
        <ele>595.27</ele>
        <time>2019-09-07T11:46:06Z</time>
      </trkpt>
      <trkpt lat="42.97749" lon="0.76493">
        <ele>595.96</ele>
        <time>2019-09-07T11:46:18Z</time>
      </trkpt>
      <trkpt lat="42.97749" lon="0.76488">
        <ele>596.02</ele>
        <time>2019-09-07T11:46:21Z</time>
      </trkpt>
      <trkpt lat="42.97749" lon="0.76464">
        <ele>596.75</ele>
        <time>2019-09-07T11:46:36Z</time>
      </trkpt>
      <trkpt lat="42.97745" lon="0.76429">
        <ele>597.48</ele>
        <time>2019-09-07T11:46:56Z</time>
      </trkpt>
      <trkpt lat="42.97735" lon="0.76393">
        <ele>598.36</ele>
        <time>2019-09-07T11:47:19Z</time>
      </trkpt>
      <trkpt lat="42.97729" lon="0.7637">
        <ele>598.64</ele>
        <time>2019-09-07T11:47:33Z</time>
      </trkpt>
      <trkpt lat="42.97727" lon="0.76365">
        <ele>598.63</ele>
        <time>2019-09-07T11:47:36Z</time>
      </trkpt>
      <trkpt lat="42.97727" lon="0.76364">
        <ele>598.61</ele>
        <time>2019-09-07T11:47:37Z</time>
      </trkpt>
      <trkpt lat="42.97716" lon="0.76335">
        <ele>598.43</ele>
        <time>2019-09-07T11:47:56Z</time>
      </trkpt>
      <trkpt lat="42.97711" lon="0.76315">
        <ele>598.47</ele>
        <time>2019-09-07T11:48:10Z</time>
      </trkpt>
      <trkpt lat="42.97704" lon="0.7628">
        <ele>598.88</ele>
        <time>2019-09-07T11:48:29Z</time>
      </trkpt>
      <trkpt lat="42.97706" lon="0.76252">
        <ele>598.95</ele>
        <time>2019-09-07T11:48:48Z</time>
      </trkpt>
      <trkpt lat="42.97709" lon="0.76225">
        <ele>597.09</ele>
        <time>2019-09-07T11:49:03Z</time>
      </trkpt>
      <trkpt lat="42.97709" lon="0.76206">
        <ele>596.27</ele>
        <time>2019-09-07T11:49:16Z</time>
      </trkpt>
      <trkpt lat="42.97708" lon="0.76198">
        <ele>596.04</ele>
        <time>2019-09-07T11:49:20Z</time>
      </trkpt>
      <trkpt lat="42.97707" lon="0.76173">
        <ele>595.53</ele>
        <time>2019-09-07T11:49:32Z</time>
      </trkpt>
      <trkpt lat="42.97708" lon="0.76167">
        <ele>595.45</ele>
        <time>2019-09-07T11:49:36Z</time>
      </trkpt>
      <trkpt lat="42.97708" lon="0.76153">
        <ele>594.96</ele>
        <time>2019-09-07T11:49:45Z</time>
      </trkpt>
      <trkpt lat="42.97709" lon="0.76142">
        <ele>594.66</ele>
        <time>2019-09-07T11:49:51Z</time>
      </trkpt>
      <trkpt lat="42.97707" lon="0.76133">
        <ele>594.59</ele>
        <time>2019-09-07T11:49:56Z</time>
      </trkpt>
      <trkpt lat="42.97707" lon="0.76131">
        <ele>594.57</ele>
        <time>2019-09-07T11:49:57Z</time>
      </trkpt>
      <trkpt lat="42.97707" lon="0.76129">
        <ele>594.55</ele>
        <time>2019-09-07T11:49:58Z</time>
      </trkpt>
      <trkpt lat="42.97703" lon="0.76105">
        <ele>594.14</ele>
        <time>2019-09-07T11:50:14Z</time>
      </trkpt>
      <trkpt lat="42.97698" lon="0.76094">
        <ele>593.73</ele>
        <time>2019-09-07T11:50:22Z</time>
      </trkpt>
      <trkpt lat="42.97689" lon="0.76059">
        <ele>594.45</ele>
        <time>2019-09-07T11:50:41Z</time>
      </trkpt>
      <trkpt lat="42.97687" lon="0.76028">
        <ele>595.16</ele>
        <time>2019-09-07T11:50:58Z</time>
      </trkpt>
      <trkpt lat="42.97687" lon="0.76025">
        <ele>595.17</ele>
        <time>2019-09-07T11:50:59Z</time>
      </trkpt>
      <trkpt lat="42.97687" lon="0.76023">
        <ele>595.18</ele>
        <time>2019-09-07T11:51:00Z</time>
      </trkpt>
      <trkpt lat="42.97687" lon="0.76019">
        <ele>595.19</ele>
        <time>2019-09-07T11:51:02Z</time>
      </trkpt>
      <trkpt lat="42.97685" lon="0.76004">
        <ele>595.13</ele>
        <time>2019-09-07T11:51:14Z</time>
      </trkpt>
      <trkpt lat="42.97686" lon="0.76001">
        <ele>595.09</ele>
        <time>2019-09-07T11:51:17Z</time>
      </trkpt>
      <trkpt lat="42.97686" lon="0.75999">
        <ele>595.09</ele>
        <time>2019-09-07T11:51:18Z</time>
      </trkpt>
      <trkpt lat="42.97689" lon="0.75982">
        <ele>595.2</ele>
        <time>2019-09-07T11:51:31Z</time>
      </trkpt>
      <trkpt lat="42.9769" lon="0.75968">
        <ele>595.46</ele>
        <time>2019-09-07T11:51:38Z</time>
      </trkpt>
      <trkpt lat="42.97697" lon="0.7592">
        <ele>595.38</ele>
        <time>2019-09-07T11:52:03Z</time>
      </trkpt>
      <trkpt lat="42.97707" lon="0.75888">
        <ele>593.73</ele>
        <time>2019-09-07T11:52:23Z</time>
      </trkpt>
      <trkpt lat="42.97714" lon="0.75857">
        <ele>592.28</ele>
        <time>2019-09-07T11:52:43Z</time>
      </trkpt>
      <trkpt lat="42.97726" lon="0.7582">
        <ele>589.92</ele>
        <time>2019-09-07T11:53:04Z</time>
      </trkpt>
      <trkpt lat="42.97728" lon="0.75815">
        <ele>589.52</ele>
        <time>2019-09-07T11:53:08Z</time>
      </trkpt>
      <trkpt lat="42.97728" lon="0.75814">
        <ele>589.41</ele>
        <time>2019-09-07T11:53:09Z</time>
      </trkpt>
      <trkpt lat="42.97733" lon="0.75779">
        <ele>587.05</ele>
        <time>2019-09-07T11:53:28Z</time>
      </trkpt>
      <trkpt lat="42.97739" lon="0.75745">
        <ele>584.96</ele>
        <time>2019-09-07T11:53:46Z</time>
      </trkpt>
      <trkpt lat="42.97736" lon="0.75719">
        <ele>583.19</ele>
        <time>2019-09-07T11:54:03Z</time>
      </trkpt>
      <trkpt lat="42.9773" lon="0.75697">
        <ele>582.34</ele>
        <time>2019-09-07T11:54:18Z</time>
      </trkpt>
      <trkpt lat="42.97729" lon="0.75691">
        <ele>582.15</ele>
        <time>2019-09-07T11:54:21Z</time>
      </trkpt>
      <trkpt lat="42.97721" lon="0.75647">
        <ele>581.32</ele>
        <time>2019-09-07T11:54:45Z</time>
      </trkpt>
      <trkpt lat="42.97725" lon="0.75618">
        <ele>581.28</ele>
        <time>2019-09-07T11:55:02Z</time>
      </trkpt>
      <trkpt lat="42.97733" lon="0.75592">
        <ele>581.33</ele>
        <time>2019-09-07T11:55:19Z</time>
      </trkpt>
      <trkpt lat="42.97739" lon="0.75572">
        <ele>581.33</ele>
        <time>2019-09-07T11:55:34Z</time>
      </trkpt>
      <trkpt lat="42.97742" lon="0.7556">
        <ele>581.19</ele>
        <time>2019-09-07T11:55:41Z</time>
      </trkpt>
      <trkpt lat="42.97754" lon="0.75525">
        <ele>581.27</ele>
        <time>2019-09-07T11:56:00Z</time>
      </trkpt>
      <trkpt lat="42.9776" lon="0.75503">
        <ele>580.84</ele>
        <time>2019-09-07T11:56:14Z</time>
      </trkpt>
      <trkpt lat="42.97767" lon="0.75481">
        <ele>580.7</ele>
        <time>2019-09-07T11:56:28Z</time>
      </trkpt>
      <trkpt lat="42.97768" lon="0.75479">
        <ele>580.74</ele>
        <time>2019-09-07T11:56:29Z</time>
      </trkpt>
      <trkpt lat="42.97776" lon="0.75452">
        <ele>579.87</ele>
        <time>2019-09-07T11:56:46Z</time>
      </trkpt>
      <trkpt lat="42.97779" lon="0.75424">
        <ele>578.9</ele>
        <time>2019-09-07T11:57:01Z</time>
      </trkpt>
      <trkpt lat="42.97779" lon="0.75422">
        <ele>578.82</ele>
        <time>2019-09-07T11:57:02Z</time>
      </trkpt>
      <trkpt lat="42.97779" lon="0.75421">
        <ele>578.73</ele>
        <time>2019-09-07T11:57:03Z</time>
      </trkpt>
      <trkpt lat="42.97781" lon="0.75416">
        <ele>578.54</ele>
        <time>2019-09-07T11:57:06Z</time>
      </trkpt>
      <trkpt lat="42.97783" lon="0.75388">
        <ele>577</ele>
        <time>2019-09-07T11:57:22Z</time>
      </trkpt>
      <trkpt lat="42.97786" lon="0.75369">
        <ele>575.93</ele>
        <time>2019-09-07T11:57:33Z</time>
      </trkpt>
      <trkpt lat="42.97786" lon="0.75366">
        <ele>575.8</ele>
        <time>2019-09-07T11:57:34Z</time>
      </trkpt>
      <trkpt lat="42.97792" lon="0.7534">
        <ele>573.99</ele>
        <time>2019-09-07T11:57:48Z</time>
      </trkpt>
      <trkpt lat="42.97792" lon="0.75338">
        <ele>573.87</ele>
        <time>2019-09-07T11:57:49Z</time>
      </trkpt>
      <trkpt lat="42.97804" lon="0.75299">
        <ele>571.26</ele>
        <time>2019-09-07T11:58:11Z</time>
      </trkpt>
      <trkpt lat="42.97818" lon="0.75267">
        <ele>569.53</ele>
        <time>2019-09-07T11:58:32Z</time>
      </trkpt>
      <trkpt lat="42.97835" lon="0.75241">
        <ele>569.62</ele>
        <time>2019-09-07T11:58:52Z</time>
      </trkpt>
      <trkpt lat="42.97851" lon="0.75226">
        <ele>569.89</ele>
        <time>2019-09-07T11:59:07Z</time>
      </trkpt>
      <trkpt lat="42.97864" lon="0.75213">
        <ele>570.46</ele>
        <time>2019-09-07T11:59:21Z</time>
      </trkpt>
      <trkpt lat="42.97876" lon="0.75196">
        <ele>571.59</ele>
        <time>2019-09-07T11:59:36Z</time>
      </trkpt>
      <trkpt lat="42.97888" lon="0.75175">
        <ele>573.66</ele>
        <time>2019-09-07T11:59:55Z</time>
      </trkpt>
      <trkpt lat="42.9789" lon="0.75173">
        <ele>573.9</ele>
        <time>2019-09-07T11:59:57Z</time>
      </trkpt>
      <trkpt lat="42.97907" lon="0.75144">
        <ele>576.03</ele>
        <time>2019-09-07T12:00:20Z</time>
      </trkpt>
      <trkpt lat="42.97915" lon="0.75111">
        <ele>577.18</ele>
        <time>2019-09-07T12:00:40Z</time>
      </trkpt>
      <trkpt lat="42.97916" lon="0.75109">
        <ele>577.23</ele>
        <time>2019-09-07T12:00:41Z</time>
      </trkpt>
      <trkpt lat="42.97916" lon="0.75107">
        <ele>577.27</ele>
        <time>2019-09-07T12:00:42Z</time>
      </trkpt>
      <trkpt lat="42.97918" lon="0.75092">
        <ele>577.14</ele>
        <time>2019-09-07T12:00:51Z</time>
      </trkpt>
      <trkpt lat="42.97918" lon="0.7509">
        <ele>577.02</ele>
        <time>2019-09-07T12:00:52Z</time>
      </trkpt>
      <trkpt lat="42.9792" lon="0.75065">
        <ele>575.04</ele>
        <time>2019-09-07T12:01:08Z</time>
      </trkpt>
      <trkpt lat="42.97919" lon="0.75055">
        <ele>574.61</ele>
        <time>2019-09-07T12:01:14Z</time>
      </trkpt>
      <trkpt lat="42.97919" lon="0.75047">
        <ele>574.33</ele>
        <time>2019-09-07T12:01:19Z</time>
      </trkpt>
      <trkpt lat="42.97918" lon="0.75024">
        <ele>573.57</ele>
        <time>2019-09-07T12:01:34Z</time>
      </trkpt>
      <trkpt lat="42.97916" lon="0.74993">
        <ele>573.19</ele>
        <time>2019-09-07T12:01:51Z</time>
      </trkpt>
      <trkpt lat="42.97915" lon="0.74967">
        <ele>572.21</ele>
        <time>2019-09-07T12:02:06Z</time>
      </trkpt>
      <trkpt lat="42.97913" lon="0.74924">
        <ele>571.16</ele>
        <time>2019-09-07T12:02:28Z</time>
      </trkpt>
      <trkpt lat="42.97918" lon="0.74874">
        <ele>570.67</ele>
        <time>2019-09-07T12:02:56Z</time>
      </trkpt>
      <trkpt lat="42.97925" lon="0.74843">
        <ele>571.4</ele>
        <time>2019-09-07T12:03:14Z</time>
      </trkpt>
      <trkpt lat="42.97936" lon="0.74812">
        <ele>573.33</ele>
        <time>2019-09-07T12:03:35Z</time>
      </trkpt>
      <trkpt lat="42.97943" lon="0.7479">
        <ele>575.74</ele>
        <time>2019-09-07T12:03:52Z</time>
      </trkpt>
      <trkpt lat="42.97952" lon="0.74779">
        <ele>578.86</ele>
        <time>2019-09-07T12:04:09Z</time>
      </trkpt>
      <trkpt lat="42.97967" lon="0.74768">
        <ele>581.28</ele>
        <time>2019-09-07T12:04:26Z</time>
      </trkpt>
      <trkpt lat="42.9798" lon="0.74751">
        <ele>583.23</ele>
        <time>2019-09-07T12:04:41Z</time>
      </trkpt>
      <trkpt lat="42.97989" lon="0.74731">
        <ele>584.81</ele>
        <time>2019-09-07T12:04:57Z</time>
      </trkpt>
      <trkpt lat="42.97989" lon="0.74729">
        <ele>584.88</ele>
        <time>2019-09-07T12:04:58Z</time>
      </trkpt>
      <trkpt lat="42.98002" lon="0.74697">
        <ele>586.03</ele>
        <time>2019-09-07T12:05:18Z</time>
      </trkpt>
      <trkpt lat="42.98011" lon="0.74673">
        <ele>586.52</ele>
        <time>2019-09-07T12:05:35Z</time>
      </trkpt>
      <trkpt lat="42.9802" lon="0.74643">
        <ele>586.84</ele>
        <time>2019-09-07T12:05:55Z</time>
      </trkpt>
      <trkpt lat="42.98028" lon="0.74609">
        <ele>586.12</ele>
        <time>2019-09-07T12:06:16Z</time>
      </trkpt>
      <trkpt lat="42.98038" lon="0.74579">
        <ele>585.79</ele>
        <time>2019-09-07T12:06:35Z</time>
      </trkpt>
      <trkpt lat="42.98049" lon="0.74556">
        <ele>584.44</ele>
        <time>2019-09-07T12:06:52Z</time>
      </trkpt>
      <trkpt lat="42.98064" lon="0.74538">
        <ele>582.14</ele>
        <time>2019-09-07T12:07:07Z</time>
      </trkpt>
      <trkpt lat="42.98065" lon="0.74537">
        <ele>581.91</ele>
        <time>2019-09-07T12:07:08Z</time>
      </trkpt>
      <trkpt lat="42.98066" lon="0.74536">
        <ele>581.9</ele>
        <time>2019-09-07T12:07:09Z</time>
      </trkpt>
      <trkpt lat="42.98067" lon="0.74535">
        <ele>582.02</ele>
        <time>2019-09-07T12:07:10Z</time>
      </trkpt>
      <trkpt lat="42.98068" lon="0.74535">
        <ele>582.08</ele>
        <time>2019-09-07T12:07:11Z</time>
      </trkpt>
      <trkpt lat="42.9807" lon="0.74534">
        <ele>582.11</ele>
        <time>2019-09-07T12:07:12Z</time>
      </trkpt>
      <trkpt lat="42.98091" lon="0.74524">
        <ele>581.35</ele>
        <time>2019-09-07T12:07:29Z</time>
      </trkpt>
      <trkpt lat="42.98111" lon="0.74518">
        <ele>580.81</ele>
        <time>2019-09-07T12:07:46Z</time>
      </trkpt>
      <trkpt lat="42.98136" lon="0.74513">
        <ele>579.34</ele>
        <time>2019-09-07T12:08:05Z</time>
      </trkpt>
      <trkpt lat="42.98163" lon="0.74507">
        <ele>578.24</ele>
        <time>2019-09-07T12:08:24Z</time>
      </trkpt>
      <trkpt lat="42.9819" lon="0.7451">
        <ele>576.62</ele>
        <time>2019-09-07T12:08:45Z</time>
      </trkpt>
      <trkpt lat="42.98214" lon="0.74516">
        <ele>575.95</ele>
        <time>2019-09-07T12:09:05Z</time>
      </trkpt>
      <trkpt lat="42.98243" lon="0.74519">
        <ele>574.85</ele>
        <time>2019-09-07T12:09:27Z</time>
      </trkpt>
      <trkpt lat="42.98272" lon="0.74523">
        <ele>572.81</ele>
        <time>2019-09-07T12:09:50Z</time>
      </trkpt>
      <trkpt lat="42.983" lon="0.74517">
        <ele>570.54</ele>
        <time>2019-09-07T12:10:10Z</time>
      </trkpt>
      <trkpt lat="42.98327" lon="0.745">
        <ele>567.52</ele>
        <time>2019-09-07T12:10:32Z</time>
      </trkpt>
      <trkpt lat="42.98353" lon="0.74475">
        <ele>564.55</ele>
        <time>2019-09-07T12:10:56Z</time>
      </trkpt>
      <trkpt lat="42.98374" lon="0.7444">
        <ele>561.5</ele>
        <time>2019-09-07T12:11:22Z</time>
      </trkpt>
      <trkpt lat="42.98392" lon="0.74407">
        <ele>559.45</ele>
        <time>2019-09-07T12:11:45Z</time>
      </trkpt>
      <trkpt lat="42.98414" lon="0.74368">
        <ele>556.68</ele>
        <time>2019-09-07T12:12:11Z</time>
      </trkpt>
      <trkpt lat="42.98433" lon="0.74334">
        <ele>553.67</ele>
        <time>2019-09-07T12:12:35Z</time>
      </trkpt>
      <trkpt lat="42.98451" lon="0.74302">
        <ele>551.91</ele>
        <time>2019-09-07T12:12:58Z</time>
      </trkpt>
      <trkpt lat="42.98463" lon="0.74276">
        <ele>550.25</ele>
        <time>2019-09-07T12:13:17Z</time>
      </trkpt>
      <trkpt lat="42.98468" lon="0.74263">
        <ele>549.8</ele>
        <time>2019-09-07T12:13:25Z</time>
      </trkpt>
      <trkpt lat="42.98485" lon="0.74233">
        <ele>548.4</ele>
        <time>2019-09-07T12:13:45Z</time>
      </trkpt>
      <trkpt lat="42.98504" lon="0.74199">
        <ele>547.39</ele>
        <time>2019-09-07T12:14:07Z</time>
      </trkpt>
      <trkpt lat="42.98526" lon="0.74149">
        <ele>545.73</ele>
        <time>2019-09-07T12:14:38Z</time>
      </trkpt>
      <trkpt lat="42.98538" lon="0.74113">
        <ele>544.7</ele>
        <time>2019-09-07T12:14:59Z</time>
      </trkpt>
      <trkpt lat="42.98544" lon="0.74085">
        <ele>543.91</ele>
        <time>2019-09-07T12:15:16Z</time>
      </trkpt>
      <trkpt lat="42.98549" lon="0.74055">
        <ele>542.61</ele>
        <time>2019-09-07T12:15:35Z</time>
      </trkpt>
      <trkpt lat="42.98564" lon="0.74038">
        <ele>540.29</ele>
        <time>2019-09-07T12:15:50Z</time>
      </trkpt>
      <trkpt lat="42.98577" lon="0.74047">
        <ele>537.62</ele>
        <time>2019-09-07T12:16:01Z</time>
      </trkpt>
      <trkpt lat="42.9858" lon="0.7405">
        <ele>536.95</ele>
        <time>2019-09-07T12:16:04Z</time>
      </trkpt>
      <trkpt lat="42.98602" lon="0.74073">
        <ele>535.13</ele>
        <time>2019-09-07T12:16:21Z</time>
      </trkpt>
      <trkpt lat="42.98616" lon="0.74095">
        <ele>532.66</ele>
        <time>2019-09-07T12:16:36Z</time>
      </trkpt>
      <trkpt lat="42.98625" lon="0.74116">
        <ele>530.78</ele>
        <time>2019-09-07T12:16:49Z</time>
      </trkpt>
      <trkpt lat="42.98636" lon="0.74125">
        <ele>529.19</ele>
        <time>2019-09-07T12:16:59Z</time>
      </trkpt>
      <trkpt lat="42.98645" lon="0.74119">
        <ele>527.73</ele>
        <time>2019-09-07T12:17:08Z</time>
      </trkpt>
      <trkpt lat="42.98657" lon="0.74091">
        <ele>524.45</ele>
        <time>2019-09-07T12:17:26Z</time>
      </trkpt>
      <trkpt lat="42.98671" lon="0.74081">
        <ele>521.26</ele>
        <time>2019-09-07T12:17:39Z</time>
      </trkpt>
      <trkpt lat="42.98688" lon="0.74078">
        <ele>518.49</ele>
        <time>2019-09-07T12:17:54Z</time>
      </trkpt>
      <trkpt lat="42.98713" lon="0.74077">
        <ele>515.38</ele>
        <time>2019-09-07T12:18:12Z</time>
      </trkpt>
      <trkpt lat="42.98715" lon="0.74078">
        <ele>515.11</ele>
        <time>2019-09-07T12:18:14Z</time>
      </trkpt>
      <trkpt lat="42.98731" lon="0.74096">
        <ele>511.89</ele>
        <time>2019-09-07T12:18:29Z</time>
      </trkpt>
      <trkpt lat="42.98731" lon="0.74113">
        <ele>510.92</ele>
        <time>2019-09-07T12:18:43Z</time>
      </trkpt>
      <trkpt lat="42.98739" lon="0.74113">
        <ele>510.69</ele>
        <time>2019-09-07T12:19:18Z</time>
      </trkpt>
      <trkpt lat="42.9873" lon="0.74132">
        <ele>509.11</ele>
        <time>2019-09-07T12:19:36Z</time>
      </trkpt>
      <trkpt lat="42.98736" lon="0.74143">
        <ele>507.42</ele>
        <time>2019-09-07T12:19:44Z</time>
      </trkpt>
      <trkpt lat="42.98752" lon="0.7414">
        <ele>505</ele>
        <time>2019-09-07T12:19:58Z</time>
      </trkpt>
      <trkpt lat="42.98759" lon="0.74123">
        <ele>504.48</ele>
        <time>2019-09-07T12:20:08Z</time>
      </trkpt>
      <trkpt lat="42.9876" lon="0.7411">
        <ele>503.99</ele>
        <time>2019-09-07T12:20:14Z</time>
      </trkpt>
      <trkpt lat="42.98764" lon="0.74081">
        <ele>502.91</ele>
        <time>2019-09-07T12:20:30Z</time>
      </trkpt>
      <trkpt lat="42.98764" lon="0.74049">
        <ele>501.65</ele>
        <time>2019-09-07T12:20:50Z</time>
      </trkpt>
      <trkpt lat="42.98761" lon="0.7405">
        <ele>500.85</ele>
        <time>2019-09-07T12:21:27Z</time>
      </trkpt>
      <trkpt lat="42.98759" lon="0.74051">
        <ele>500.8</ele>
        <time>2019-09-07T12:22:10Z</time>
      </trkpt>
      <trkpt lat="42.98755" lon="0.74048">
        <ele>500.8</ele>
        <time>2019-09-07T12:22:45Z</time>
      </trkpt>
      <trkpt lat="42.98758" lon="0.74047">
        <ele>500.8</ele>
        <time>2019-09-07T12:23:22Z</time>
      </trkpt>
      <trkpt lat="42.9876" lon="0.7405">
        <ele>500.8</ele>
        <time>2019-09-07T12:23:55Z</time>
      </trkpt>
      <trkpt lat="42.98759" lon="0.74054">
        <ele>500.8</ele>
        <time>2019-09-07T12:24:16Z</time>
      </trkpt>
      <trkpt lat="42.98759" lon="0.74056">
        <ele>500.8</ele>
        <time>2019-09-07T12:25:00Z</time>
      </trkpt>
      <trkpt lat="42.98761" lon="0.74058">
        <ele>500.8</ele>
        <time>2019-09-07T12:25:47Z</time>
      </trkpt>
      <trkpt lat="42.98761" lon="0.74059">
        <ele>500.8</ele>
        <time>2019-09-07T12:26:16Z</time>
      </trkpt>
      <trkpt lat="42.98763" lon="0.74055">
        <ele>500.8</ele>
        <time>2019-09-07T12:26:53Z</time>
      </trkpt>
      <trkpt lat="42.98762" lon="0.74059">
        <ele>500.8</ele>
        <time>2019-09-07T12:27:32Z</time>
      </trkpt>
      <trkpt lat="42.98763" lon="0.74059">
        <ele>500.8</ele>
        <time>2019-09-07T12:27:55Z</time>
      </trkpt>
      <trkpt lat="42.9876" lon="0.74064">
        <ele>500.8</ele>
        <time>2019-09-07T12:28:31Z</time>
      </trkpt>
      <trkpt lat="42.98761" lon="0.74062">
        <ele>500.8</ele>
        <time>2019-09-07T12:29:00Z</time>
      </trkpt>
      <trkpt lat="42.98761" lon="0.74066">
        <ele>500.8</ele>
        <time>2019-09-07T12:29:31Z</time>
      </trkpt>
      <trkpt lat="42.98761" lon="0.74061">
        <ele>500.8</ele>
        <time>2019-09-07T12:30:19Z</time>
      </trkpt>
      <trkpt lat="42.98761" lon="0.74063">
        <ele>500.8</ele>
        <time>2019-09-07T12:31:11Z</time>
      </trkpt>
      <trkpt lat="42.98761" lon="0.74063">
        <ele>500.8</ele>
        <time>2019-09-07T12:31:43Z</time>
      </trkpt>
      <trkpt lat="42.98762" lon="0.74064">
        <ele>500.8</ele>
        <time>2019-09-07T12:32:13Z</time>
      </trkpt>
      <trkpt lat="42.98765" lon="0.74061">
        <ele>500.8</ele>
        <time>2019-09-07T12:32:55Z</time>
      </trkpt>
      <trkpt lat="42.98765" lon="0.74061">
        <ele>500.8</ele>
        <time>2019-09-07T12:33:23Z</time>
      </trkpt>
      <trkpt lat="42.98762" lon="0.74059">
        <ele>500.8</ele>
        <time>2019-09-07T12:33:56Z</time>
      </trkpt>
      <trkpt lat="42.98761" lon="0.74058">
        <ele>500.8</ele>
        <time>2019-09-07T12:34:23Z</time>
      </trkpt>
      <trkpt lat="42.98761" lon="0.74056">
        <ele>500.8</ele>
        <time>2019-09-07T12:35:17Z</time>
      </trkpt>
      <trkpt lat="42.98762" lon="0.74057">
        <ele>500.8</ele>
        <time>2019-09-07T12:35:48Z</time>
      </trkpt>
      <trkpt lat="42.98759" lon="0.74063">
        <ele>500.8</ele>
        <time>2019-09-07T12:36:33Z</time>
      </trkpt>
      <trkpt lat="42.98759" lon="0.7406">
        <ele>500.8</ele>
        <time>2019-09-07T12:37:13Z</time>
      </trkpt>
      <trkpt lat="42.98759" lon="0.74063">
        <ele>500.8</ele>
        <time>2019-09-07T12:37:42Z</time>
      </trkpt>
      <trkpt lat="42.98759" lon="0.74066">
        <ele>500.8</ele>
        <time>2019-09-07T12:38:19Z</time>
      </trkpt>
      <trkpt lat="42.98759" lon="0.74072">
        <ele>500.8</ele>
        <time>2019-09-07T12:39:01Z</time>
      </trkpt>
      <trkpt lat="42.98759" lon="0.74071">
        <ele>500.8</ele>
        <time>2019-09-07T12:39:30Z</time>
      </trkpt>
      <trkpt lat="42.98758" lon="0.74072">
        <ele>500.8</ele>
        <time>2019-09-07T12:40:03Z</time>
      </trkpt>
      <trkpt lat="42.98758" lon="0.74073">
        <ele>500.8</ele>
        <time>2019-09-07T12:40:57Z</time>
      </trkpt>
      <trkpt lat="42.98759" lon="0.74071">
        <ele>500.8</ele>
        <time>2019-09-07T12:41:28Z</time>
      </trkpt>
      <trkpt lat="42.98758" lon="0.74072">
        <ele>500.8</ele>
        <time>2019-09-07T12:42:23Z</time>
      </trkpt>
      <trkpt lat="42.98757" lon="0.7407">
        <ele>500.8</ele>
        <time>2019-09-07T12:43:02Z</time>
      </trkpt>
      <trkpt lat="42.98757" lon="0.74069">
        <ele>500.8</ele>
        <time>2019-09-07T12:43:43Z</time>
      </trkpt>
      <trkpt lat="42.98755" lon="0.74073">
        <ele>500.8</ele>
        <time>2019-09-07T12:44:26Z</time>
      </trkpt>
      <trkpt lat="42.98757" lon="0.74076">
        <ele>500.8</ele>
        <time>2019-09-07T12:45:19Z</time>
      </trkpt>
      <trkpt lat="42.98758" lon="0.74074">
        <ele>500.8</ele>
        <time>2019-09-07T12:45:52Z</time>
      </trkpt>
      <trkpt lat="42.98759" lon="0.74068">
        <ele>500.8</ele>
        <time>2019-09-07T12:46:36Z</time>
      </trkpt>
      <trkpt lat="42.9876" lon="0.74064">
        <ele>500.8</ele>
        <time>2019-09-07T12:47:17Z</time>
      </trkpt>
      <trkpt lat="42.9876" lon="0.74063">
        <ele>500.8</ele>
        <time>2019-09-07T12:48:13Z</time>
      </trkpt>
      <trkpt lat="42.98761" lon="0.74064">
        <ele>500.8</ele>
        <time>2019-09-07T12:48:38Z</time>
      </trkpt>
      <trkpt lat="42.98756" lon="0.74065">
        <ele>500.8</ele>
        <time>2019-09-07T12:49:12Z</time>
      </trkpt>
      <trkpt lat="42.98756" lon="0.74048">
        <ele>504.24</ele>
        <time>2019-09-07T12:49:19Z</time>
      </trkpt>
      <trkpt lat="42.98756" lon="0.74043">
        <ele>507.59</ele>
        <time>2019-09-07T12:49:21Z</time>
      </trkpt>
      <trkpt lat="42.98755" lon="0.74038">
        <ele>508.41</ele>
        <time>2019-09-07T12:49:23Z</time>
      </trkpt>
      <trkpt lat="42.98749" lon="0.74018">
        <ele>508.04</ele>
        <time>2019-09-07T12:49:33Z</time>
      </trkpt>
      <trkpt lat="42.98731" lon="0.73997">
        <ele>506.38</ele>
        <time>2019-09-07T12:49:50Z</time>
      </trkpt>
      <trkpt lat="42.98725" lon="0.7399">
        <ele>505.82</ele>
        <time>2019-09-07T12:49:56Z</time>
      </trkpt>
      <trkpt lat="42.98722" lon="0.73988">
        <ele>505.62</ele>
        <time>2019-09-07T12:49:58Z</time>
      </trkpt>
      <trkpt lat="42.9871" lon="0.73968">
        <ele>504.39</ele>
        <time>2019-09-07T12:50:12Z</time>
      </trkpt>
      <trkpt lat="42.98709" lon="0.73966">
        <ele>504.31</ele>
        <time>2019-09-07T12:50:13Z</time>
      </trkpt>
      <trkpt lat="42.98709" lon="0.73964">
        <ele>504.23</ele>
        <time>2019-09-07T12:50:14Z</time>
      </trkpt>
      <trkpt lat="42.98696" lon="0.73929">
        <ele>502.64</ele>
        <time>2019-09-07T12:50:33Z</time>
      </trkpt>
      <trkpt lat="42.98694" lon="0.73917">
        <ele>503.21</ele>
        <time>2019-09-07T12:50:39Z</time>
      </trkpt>
      <trkpt lat="42.98685" lon="0.73886">
        <ele>501.38</ele>
        <time>2019-09-07T12:50:55Z</time>
      </trkpt>
      <trkpt lat="42.98676" lon="0.73849">
        <ele>500.3</ele>
        <time>2019-09-07T12:51:14Z</time>
      </trkpt>
      <trkpt lat="42.98665" lon="0.73807">
        <ele>499.29</ele>
        <time>2019-09-07T12:51:38Z</time>
      </trkpt>
      <trkpt lat="42.98658" lon="0.73773">
        <ele>499.26</ele>
        <time>2019-09-07T12:51:59Z</time>
      </trkpt>
      <trkpt lat="42.98645" lon="0.7375">
        <ele>498.94</ele>
        <time>2019-09-07T12:52:19Z</time>
      </trkpt>
      <trkpt lat="42.98631" lon="0.73739">
        <ele>498.58</ele>
        <time>2019-09-07T12:52:32Z</time>
      </trkpt>
      <trkpt lat="42.98607" lon="0.73731">
        <ele>498.87</ele>
        <time>2019-09-07T12:52:50Z</time>
      </trkpt>
      <trkpt lat="42.98591" lon="0.73727">
        <ele>499.11</ele>
        <time>2019-09-07T12:53:04Z</time>
      </trkpt>
      <trkpt lat="42.98592" lon="0.7371">
        <ele>499.57</ele>
        <time>2019-09-07T12:53:16Z</time>
      </trkpt>
      <trkpt lat="42.98593" lon="0.73692">
        <ele>500.64</ele>
        <time>2019-09-07T12:53:28Z</time>
      </trkpt>
      <trkpt lat="42.98592" lon="0.73685">
        <ele>503.67</ele>
        <time>2019-09-07T12:53:41Z</time>
      </trkpt>
      <trkpt lat="42.98592" lon="0.73659">
        <ele>506.75</ele>
        <time>2019-09-07T12:54:04Z</time>
      </trkpt>
      <trkpt lat="42.98589" lon="0.73638">
        <ele>509.86</ele>
        <time>2019-09-07T12:54:24Z</time>
      </trkpt>
      <trkpt lat="42.98587" lon="0.73618">
        <ele>512.96</ele>
        <time>2019-09-07T12:54:44Z</time>
      </trkpt>
      <trkpt lat="42.98585" lon="0.73602">
        <ele>516.05</ele>
        <time>2019-09-07T12:55:02Z</time>
      </trkpt>
      <trkpt lat="42.98582" lon="0.73581">
        <ele>519.13</ele>
        <time>2019-09-07T12:55:19Z</time>
      </trkpt>
      <trkpt lat="42.9858" lon="0.73568">
        <ele>522.16</ele>
        <time>2019-09-07T12:55:38Z</time>
      </trkpt>
      <trkpt lat="42.98577" lon="0.73557">
        <ele>525.12</ele>
        <time>2019-09-07T12:55:56Z</time>
      </trkpt>
      <trkpt lat="42.98577" lon="0.7354">
        <ele>528.22</ele>
        <time>2019-09-07T12:56:15Z</time>
      </trkpt>
      <trkpt lat="42.98579" lon="0.73529">
        <ele>531.41</ele>
        <time>2019-09-07T12:56:33Z</time>
      </trkpt>
      <trkpt lat="42.98583" lon="0.73515">
        <ele>534.45</ele>
        <time>2019-09-07T12:56:50Z</time>
      </trkpt>
      <trkpt lat="42.98587" lon="0.73499">
        <ele>537.6</ele>
        <time>2019-09-07T12:57:07Z</time>
      </trkpt>
      <trkpt lat="42.98585" lon="0.73488">
        <ele>540.71</ele>
        <time>2019-09-07T12:57:25Z</time>
      </trkpt>
      <trkpt lat="42.98581" lon="0.73468">
        <ele>543.87</ele>
        <time>2019-09-07T12:57:45Z</time>
      </trkpt>
      <trkpt lat="42.98582" lon="0.73451">
        <ele>546.9</ele>
        <time>2019-09-07T12:58:04Z</time>
      </trkpt>
      <trkpt lat="42.98592" lon="0.73432">
        <ele>550.05</ele>
        <time>2019-09-07T12:58:23Z</time>
      </trkpt>
      <trkpt lat="42.98598" lon="0.73426">
        <ele>553.08</ele>
        <time>2019-09-07T12:58:39Z</time>
      </trkpt>
      <trkpt lat="42.986" lon="0.73397">
        <ele>555.79</ele>
        <time>2019-09-07T12:58:58Z</time>
      </trkpt>
      <trkpt lat="42.98595" lon="0.73367">
        <ele>558.17</ele>
        <time>2019-09-07T12:59:24Z</time>
      </trkpt>
      <trkpt lat="42.98592" lon="0.73341">
        <ele>561.24</ele>
        <time>2019-09-07T12:59:43Z</time>
      </trkpt>
      <trkpt lat="42.98605" lon="0.73329">
        <ele>564.24</ele>
        <time>2019-09-07T12:59:58Z</time>
      </trkpt>
      <trkpt lat="42.9861" lon="0.73316">
        <ele>567.28</ele>
        <time>2019-09-07T13:00:16Z</time>
      </trkpt>
      <trkpt lat="42.98608" lon="0.73289">
        <ele>569.56</ele>
        <time>2019-09-07T13:00:37Z</time>
      </trkpt>
      <trkpt lat="42.98609" lon="0.73254">
        <ele>570.88</ele>
        <time>2019-09-07T13:00:59Z</time>
      </trkpt>
      <trkpt lat="42.98612" lon="0.73232">
        <ele>569.37</ele>
        <time>2019-09-07T13:01:17Z</time>
      </trkpt>
      <trkpt lat="42.98612" lon="0.73227">
        <ele>569.16</ele>
        <time>2019-09-07T13:01:20Z</time>
      </trkpt>
      <trkpt lat="42.98616" lon="0.73207">
        <ele>568.01</ele>
        <time>2019-09-07T13:01:36Z</time>
      </trkpt>
      <trkpt lat="42.98621" lon="0.73173">
        <ele>568.01</ele>
        <time>2019-09-07T13:01:57Z</time>
      </trkpt>
      <trkpt lat="42.98627" lon="0.73145">
        <ele>568.16</ele>
        <time>2019-09-07T13:02:18Z</time>
      </trkpt>
      <trkpt lat="42.98619" lon="0.73111">
        <ele>569.85</ele>
        <time>2019-09-07T13:02:37Z</time>
      </trkpt>
      <trkpt lat="42.98619" lon="0.73091">
        <ele>571.01</ele>
        <time>2019-09-07T13:02:50Z</time>
      </trkpt>
      <trkpt lat="42.98627" lon="0.73068">
        <ele>573.5</ele>
        <time>2019-09-07T13:03:09Z</time>
      </trkpt>
      <trkpt lat="42.98633" lon="0.73048">
        <ele>576.22</ele>
        <time>2019-09-07T13:03:30Z</time>
      </trkpt>
      <trkpt lat="42.98634" lon="0.73039">
        <ele>576.92</ele>
        <time>2019-09-07T13:03:35Z</time>
      </trkpt>
      <trkpt lat="42.98642" lon="0.73018">
        <ele>579.98</ele>
        <time>2019-09-07T13:03:55Z</time>
      </trkpt>
      <trkpt lat="42.98647" lon="0.72998">
        <ele>583.18</ele>
        <time>2019-09-07T13:04:15Z</time>
      </trkpt>
      <trkpt lat="42.98654" lon="0.72987">
        <ele>586.26</ele>
        <time>2019-09-07T13:04:35Z</time>
      </trkpt>
      <trkpt lat="42.98662" lon="0.72963">
        <ele>588.91</ele>
        <time>2019-09-07T13:04:56Z</time>
      </trkpt>
      <trkpt lat="42.98664" lon="0.72921">
        <ele>590.8</ele>
        <time>2019-09-07T13:05:20Z</time>
      </trkpt>
      <trkpt lat="42.98662" lon="0.72892">
        <ele>592.22</ele>
        <time>2019-09-07T13:05:38Z</time>
      </trkpt>
      <trkpt lat="42.98666" lon="0.72864">
        <ele>594.06</ele>
        <time>2019-09-07T13:05:58Z</time>
      </trkpt>
      <trkpt lat="42.98677" lon="0.72873">
        <ele>597.08</ele>
        <time>2019-09-07T13:06:18Z</time>
      </trkpt>
      <trkpt lat="42.98686" lon="0.72897">
        <ele>600.1</ele>
        <time>2019-09-07T13:06:39Z</time>
      </trkpt>
      <trkpt lat="42.98687" lon="0.72931">
        <ele>600.4</ele>
        <time>2019-09-07T13:06:58Z</time>
      </trkpt>
      <trkpt lat="42.98688" lon="0.72936">
        <ele>599.85</ele>
        <time>2019-09-07T13:07:02Z</time>
      </trkpt>
      <trkpt lat="42.98693" lon="0.72954">
        <ele>599.85</ele>
        <time>2019-09-07T13:07:18Z</time>
      </trkpt>
      <trkpt lat="42.98706" lon="0.7297">
        <ele>600.5</ele>
        <time>2019-09-07T13:07:34Z</time>
      </trkpt>
      <trkpt lat="42.98722" lon="0.72978">
        <ele>601.43</ele>
        <time>2019-09-07T13:07:50Z</time>
      </trkpt>
      <trkpt lat="42.98728" lon="0.7298">
        <ele>601.52</ele>
        <time>2019-09-07T13:07:55Z</time>
      </trkpt>
      <trkpt lat="42.98744" lon="0.72976">
        <ele>602.57</ele>
        <time>2019-09-07T13:08:13Z</time>
      </trkpt>
      <trkpt lat="42.98745" lon="0.7297">
        <ele>602.9</ele>
        <time>2019-09-07T13:08:17Z</time>
      </trkpt>
      <trkpt lat="42.98741" lon="0.72937">
        <ele>604.64</ele>
        <time>2019-09-07T13:08:38Z</time>
      </trkpt>
      <trkpt lat="42.9874" lon="0.72915">
        <ele>606.25</ele>
        <time>2019-09-07T13:08:55Z</time>
      </trkpt>
      <trkpt lat="42.9874" lon="0.72893">
        <ele>609.27</ele>
        <time>2019-09-07T13:09:16Z</time>
      </trkpt>
      <trkpt lat="42.98743" lon="0.7287">
        <ele>612.04</ele>
        <time>2019-09-07T13:09:37Z</time>
      </trkpt>
      <trkpt lat="42.98744" lon="0.72859">
        <ele>612.71</ele>
        <time>2019-09-07T13:09:42Z</time>
      </trkpt>
      <trkpt lat="42.98748" lon="0.72831">
        <ele>614.6</ele>
        <time>2019-09-07T13:10:01Z</time>
      </trkpt>
      <trkpt lat="42.98755" lon="0.72809">
        <ele>616.49</ele>
        <time>2019-09-07T13:10:18Z</time>
      </trkpt>
      <trkpt lat="42.98763" lon="0.72784">
        <ele>617.91</ele>
        <time>2019-09-07T13:10:35Z</time>
      </trkpt>
      <trkpt lat="42.98761" lon="0.7276">
        <ele>619.66</ele>
        <time>2019-09-07T13:10:50Z</time>
      </trkpt>
      <trkpt lat="42.98759" lon="0.72755">
        <ele>619.87</ele>
        <time>2019-09-07T13:10:53Z</time>
      </trkpt>
      <trkpt lat="42.98754" lon="0.72741">
        <ele>620.69</ele>
        <time>2019-09-07T13:11:06Z</time>
      </trkpt>
      <trkpt lat="42.98744" lon="0.72731">
        <ele>621.65</ele>
        <time>2019-09-07T13:11:18Z</time>
      </trkpt>
      <trkpt lat="42.98725" lon="0.72716">
        <ele>622.74</ele>
        <time>2019-09-07T13:11:37Z</time>
      </trkpt>
      <trkpt lat="42.98703" lon="0.72716">
        <ele>623.77</ele>
        <time>2019-09-07T13:11:56Z</time>
      </trkpt>
      <trkpt lat="42.98681" lon="0.7271">
        <ele>625.87</ele>
        <time>2019-09-07T13:12:19Z</time>
      </trkpt>
      <trkpt lat="42.98667" lon="0.7269">
        <ele>627.88</ele>
        <time>2019-09-07T13:12:37Z</time>
      </trkpt>
      <trkpt lat="42.98665" lon="0.72686">
        <ele>628.31</ele>
        <time>2019-09-07T13:12:41Z</time>
      </trkpt>
      <trkpt lat="42.98663" lon="0.72668">
        <ele>630.75</ele>
        <time>2019-09-07T13:13:02Z</time>
      </trkpt>
      <trkpt lat="42.98662" lon="0.72637">
        <ele>632.38</ele>
        <time>2019-09-07T13:13:24Z</time>
      </trkpt>
      <trkpt lat="42.9866" lon="0.72619">
        <ele>633.87</ele>
        <time>2019-09-07T13:13:42Z</time>
      </trkpt>
      <trkpt lat="42.98655" lon="0.72577">
        <ele>636.59</ele>
        <time>2019-09-07T13:14:04Z</time>
      </trkpt>
      <trkpt lat="42.98663" lon="0.7255">
        <ele>638.87</ele>
        <time>2019-09-07T13:14:25Z</time>
      </trkpt>
      <trkpt lat="42.98665" lon="0.7255">
        <ele>638.9</ele>
        <time>2019-09-07T13:14:27Z</time>
      </trkpt>
      <trkpt lat="42.98667" lon="0.72552">
        <ele>638.34</ele>
        <time>2019-09-07T13:14:49Z</time>
      </trkpt>
      <trkpt lat="42.98667" lon="0.72553">
        <ele>635.69</ele>
        <time>2019-09-07T13:15:01Z</time>
      </trkpt>
      <trkpt lat="42.98666" lon="0.72554">
        <ele>638.7</ele>
        <time>2019-09-07T13:15:09Z</time>
      </trkpt>
      <trkpt lat="42.98667" lon="0.72553">
        <ele>637.87</ele>
        <time>2019-09-07T13:15:40Z</time>
      </trkpt>
      <trkpt lat="42.98666" lon="0.72556">
        <ele>634.2</ele>
        <time>2019-09-07T13:16:13Z</time>
      </trkpt>
      <trkpt lat="42.98666" lon="0.72556">
        <ele>635.3</ele>
        <time>2019-09-07T13:16:14Z</time>
      </trkpt>
      <trkpt lat="42.98667" lon="0.72555">
        <ele>636.15</ele>
        <time>2019-09-07T13:16:16Z</time>
      </trkpt>
      <trkpt lat="42.98667" lon="0.72553">
        <ele>636.43</ele>
        <time>2019-09-07T13:16:23Z</time>
      </trkpt>
      <trkpt lat="42.98669" lon="0.7256">
        <ele>637.18</ele>
        <time>2019-09-07T13:16:51Z</time>
      </trkpt>
      <trkpt lat="42.98668" lon="0.72551">
        <ele>636.95</ele>
        <time>2019-09-07T13:17:53Z</time>
      </trkpt>
      <trkpt lat="42.98667" lon="0.72554">
        <ele>636.85</ele>
        <time>2019-09-07T13:18:22Z</time>
      </trkpt>
      <trkpt lat="42.98664" lon="0.72552">
        <ele>636.98</ele>
        <time>2019-09-07T13:18:43Z</time>
      </trkpt>
      <trkpt lat="42.98665" lon="0.7255">
        <ele>636.98</ele>
        <time>2019-09-07T13:19:10Z</time>
      </trkpt>
      <trkpt lat="42.98668" lon="0.72548">
        <ele>636.98</ele>
        <time>2019-09-07T13:19:37Z</time>
      </trkpt>
      <trkpt lat="42.98668" lon="0.72549">
        <ele>636.98</ele>
        <time>2019-09-07T13:20:04Z</time>
      </trkpt>
      <trkpt lat="42.98667" lon="0.72547">
        <ele>636.98</ele>
        <time>2019-09-07T13:20:29Z</time>
      </trkpt>
      <trkpt lat="42.98662" lon="0.72549">
        <ele>636.98</ele>
        <time>2019-09-07T13:21:00Z</time>
      </trkpt>
      <trkpt lat="42.98662" lon="0.72553">
        <ele>636.98</ele>
        <time>2019-09-07T13:21:30Z</time>
      </trkpt>
      <trkpt lat="42.98664" lon="0.72553">
        <ele>636.98</ele>
        <time>2019-09-07T13:21:58Z</time>
      </trkpt>
      <trkpt lat="42.98667" lon="0.72556">
        <ele>636.98</ele>
        <time>2019-09-07T13:22:26Z</time>
      </trkpt>
      <trkpt lat="42.98668" lon="0.72556">
        <ele>636.98</ele>
        <time>2019-09-07T13:22:58Z</time>
      </trkpt>
      <trkpt lat="42.98669" lon="0.72557">
        <ele>636.98</ele>
        <time>2019-09-07T13:23:33Z</time>
      </trkpt>
      <trkpt lat="42.9867" lon="0.72553">
        <ele>636.98</ele>
        <time>2019-09-07T13:24:03Z</time>
      </trkpt>
      <trkpt lat="42.98668" lon="0.72553">
        <ele>636.98</ele>
        <time>2019-09-07T13:24:29Z</time>
      </trkpt>
      <trkpt lat="42.98668" lon="0.72551">
        <ele>640.22</ele>
        <time>2019-09-07T13:24:41Z</time>
      </trkpt>
      <trkpt lat="42.98668" lon="0.72552">
        <ele>638.36</ele>
        <time>2019-09-07T13:24:44Z</time>
      </trkpt>
      <trkpt lat="42.98667" lon="0.72552">
        <ele>637.05</ele>
        <time>2019-09-07T13:24:49Z</time>
      </trkpt>
      <trkpt lat="42.98667" lon="0.72554">
        <ele>636.9</ele>
        <time>2019-09-07T13:25:00Z</time>
      </trkpt>
      <trkpt lat="42.98669" lon="0.72553">
        <ele>639.47</ele>
        <time>2019-09-07T13:25:06Z</time>
      </trkpt>
      <trkpt lat="42.98679" lon="0.72562">
        <ele>637.08</ele>
        <time>2019-09-07T13:26:23Z</time>
      </trkpt>
      <trkpt lat="42.98676" lon="0.72561">
        <ele>636.8</ele>
        <time>2019-09-07T13:26:36Z</time>
      </trkpt>
      <trkpt lat="42.98667" lon="0.7256">
        <ele>638.31</ele>
        <time>2019-09-07T13:26:52Z</time>
      </trkpt>
      <trkpt lat="42.98667" lon="0.72552">
        <ele>636.95</ele>
        <time>2019-09-07T13:27:15Z</time>
      </trkpt>
      <trkpt lat="42.98673" lon="0.72539">
        <ele>638.6</ele>
        <time>2019-09-07T13:27:38Z</time>
      </trkpt>
      <trkpt lat="42.98667" lon="0.72547">
        <ele>638.83</ele>
        <time>2019-09-07T13:28:01Z</time>
      </trkpt>
      <trkpt lat="42.98665" lon="0.7255">
        <ele>638.83</ele>
        <time>2019-09-07T13:28:19Z</time>
      </trkpt>
      <trkpt lat="42.98665" lon="0.72556">
        <ele>638.83</ele>
        <time>2019-09-07T13:28:47Z</time>
      </trkpt>
      <trkpt lat="42.98668" lon="0.72557">
        <ele>638.83</ele>
        <time>2019-09-07T13:29:14Z</time>
      </trkpt>
      <trkpt lat="42.98669" lon="0.72557">
        <ele>638.83</ele>
        <time>2019-09-07T13:29:48Z</time>
      </trkpt>
      <trkpt lat="42.98672" lon="0.72559">
        <ele>638.83</ele>
        <time>2019-09-07T13:29:54Z</time>
      </trkpt>
      <trkpt lat="42.98658" lon="0.72552">
        <ele>638.83</ele>
        <time>2019-09-07T13:30:12Z</time>
      </trkpt>
      <trkpt lat="42.98659" lon="0.72542">
        <ele>638.83</ele>
        <time>2019-09-07T13:30:22Z</time>
      </trkpt>
      <trkpt lat="42.98667" lon="0.72511">
        <ele>638.83</ele>
        <time>2019-09-07T13:30:44Z</time>
      </trkpt>
      <trkpt lat="42.9867" lon="0.72504">
        <ele>638.83</ele>
        <time>2019-09-07T13:30:50Z</time>
      </trkpt>
      <trkpt lat="42.98671" lon="0.72502">
        <ele>642.39</ele>
        <time>2019-09-07T13:30:53Z</time>
      </trkpt>
      <trkpt lat="42.98684" lon="0.72476">
        <ele>645.23</ele>
        <time>2019-09-07T13:31:16Z</time>
      </trkpt>
      <trkpt lat="42.98696" lon="0.72449">
        <ele>647.46</ele>
        <time>2019-09-07T13:31:40Z</time>
      </trkpt>
      <trkpt lat="42.98704" lon="0.72425">
        <ele>650.06</ele>
        <time>2019-09-07T13:31:57Z</time>
      </trkpt>
      <trkpt lat="42.98704" lon="0.72412">
        <ele>652.62</ele>
        <time>2019-09-07T13:32:16Z</time>
      </trkpt>
      <trkpt lat="42.98707" lon="0.72384">
        <ele>654.93</ele>
        <time>2019-09-07T13:32:35Z</time>
      </trkpt>
      <trkpt lat="42.98718" lon="0.72363">
        <ele>656.81</ele>
        <time>2019-09-07T13:32:57Z</time>
      </trkpt>
      <trkpt lat="42.98732" lon="0.72339">
        <ele>659.3</ele>
        <time>2019-09-07T13:33:18Z</time>
      </trkpt>
      <trkpt lat="42.98748" lon="0.72319">
        <ele>660.73</ele>
        <time>2019-09-07T13:33:38Z</time>
      </trkpt>
      <trkpt lat="42.98759" lon="0.72292">
        <ele>662.91</ele>
        <time>2019-09-07T13:33:59Z</time>
      </trkpt>
      <trkpt lat="42.98771" lon="0.72263">
        <ele>663.32</ele>
        <time>2019-09-07T13:34:20Z</time>
      </trkpt>
      <trkpt lat="42.98783" lon="0.72234">
        <ele>664.3</ele>
        <time>2019-09-07T13:34:40Z</time>
      </trkpt>
      <trkpt lat="42.98794" lon="0.72205">
        <ele>664.42</ele>
        <time>2019-09-07T13:35:01Z</time>
      </trkpt>
      <trkpt lat="42.98801" lon="0.72179">
        <ele>665.42</ele>
        <time>2019-09-07T13:35:20Z</time>
      </trkpt>
      <trkpt lat="42.98808" lon="0.72147">
        <ele>666.37</ele>
        <time>2019-09-07T13:35:41Z</time>
      </trkpt>
      <trkpt lat="42.98814" lon="0.72122">
        <ele>666.98</ele>
        <time>2019-09-07T13:35:58Z</time>
      </trkpt>
      <trkpt lat="42.9882" lon="0.72097">
        <ele>667.54</ele>
        <time>2019-09-07T13:36:14Z</time>
      </trkpt>
      <trkpt lat="42.98821" lon="0.72094">
        <ele>667.62</ele>
        <time>2019-09-07T13:36:16Z</time>
      </trkpt>
      <trkpt lat="42.98827" lon="0.72068">
        <ele>668.49</ele>
        <time>2019-09-07T13:36:36Z</time>
      </trkpt>
      <trkpt lat="42.98832" lon="0.72038">
        <ele>668.86</ele>
        <time>2019-09-07T13:36:57Z</time>
      </trkpt>
      <trkpt lat="42.98841" lon="0.72006">
        <ele>668.46</ele>
        <time>2019-09-07T13:37:16Z</time>
      </trkpt>
      <trkpt lat="42.98851" lon="0.71977">
        <ele>670.17</ele>
        <time>2019-09-07T13:37:37Z</time>
      </trkpt>
      <trkpt lat="42.98861" lon="0.71945">
        <ele>672.39</ele>
        <time>2019-09-07T13:37:59Z</time>
      </trkpt>
      <trkpt lat="42.98863" lon="0.71942">
        <ele>672.89</ele>
        <time>2019-09-07T13:38:02Z</time>
      </trkpt>
      <trkpt lat="42.98881" lon="0.71924">
        <ele>675.41</ele>
        <time>2019-09-07T13:38:23Z</time>
      </trkpt>
      <trkpt lat="42.98897" lon="0.71894">
        <ele>676.16</ele>
        <time>2019-09-07T13:38:46Z</time>
      </trkpt>
      <trkpt lat="42.98913" lon="0.7187">
        <ele>677.15</ele>
        <time>2019-09-07T13:39:06Z</time>
      </trkpt>
      <trkpt lat="42.98924" lon="0.71841">
        <ele>677.88</ele>
        <time>2019-09-07T13:39:25Z</time>
      </trkpt>
      <trkpt lat="42.98931" lon="0.71811">
        <ele>678.68</ele>
        <time>2019-09-07T13:39:46Z</time>
      </trkpt>
      <trkpt lat="42.98937" lon="0.71777">
        <ele>680</ele>
        <time>2019-09-07T13:40:07Z</time>
      </trkpt>
      <trkpt lat="42.98944" lon="0.71749">
        <ele>680.66</ele>
        <time>2019-09-07T13:40:26Z</time>
      </trkpt>
      <trkpt lat="42.98948" lon="0.71713">
        <ele>681.73</ele>
        <time>2019-09-07T13:40:49Z</time>
      </trkpt>
      <trkpt lat="42.9895" lon="0.71682">
        <ele>682.44</ele>
        <time>2019-09-07T13:41:08Z</time>
      </trkpt>
      <trkpt lat="42.98953" lon="0.7165">
        <ele>683.71</ele>
        <time>2019-09-07T13:41:32Z</time>
      </trkpt>
      <trkpt lat="42.98957" lon="0.71616">
        <ele>684.25</ele>
        <time>2019-09-07T13:41:52Z</time>
      </trkpt>
      <trkpt lat="42.98956" lon="0.71577">
        <ele>685.07</ele>
        <time>2019-09-07T13:42:14Z</time>
      </trkpt>
      <trkpt lat="42.98962" lon="0.71543">
        <ele>686.36</ele>
        <time>2019-09-07T13:42:35Z</time>
      </trkpt>
      <trkpt lat="42.98963" lon="0.71529">
        <ele>686.93</ele>
        <time>2019-09-07T13:42:44Z</time>
      </trkpt>
      <trkpt lat="42.98962" lon="0.71516">
        <ele>687.85</ele>
        <time>2019-09-07T13:43:00Z</time>
      </trkpt>
      <trkpt lat="42.98956" lon="0.7149">
        <ele>688.96</ele>
        <time>2019-09-07T13:43:20Z</time>
      </trkpt>
      <trkpt lat="42.98949" lon="0.71456">
        <ele>688.91</ele>
        <time>2019-09-07T13:43:38Z</time>
      </trkpt>
      <trkpt lat="42.98943" lon="0.7142">
        <ele>690.59</ele>
        <time>2019-09-07T13:44:02Z</time>
      </trkpt>
      <trkpt lat="42.9894" lon="0.71396">
        <ele>691.33</ele>
        <time>2019-09-07T13:44:23Z</time>
      </trkpt>
      <trkpt lat="42.98935" lon="0.71369">
        <ele>692.47</ele>
        <time>2019-09-07T13:44:42Z</time>
      </trkpt>
      <trkpt lat="42.9893" lon="0.71338">
        <ele>693.67</ele>
        <time>2019-09-07T13:45:03Z</time>
      </trkpt>
      <trkpt lat="42.98925" lon="0.71299">
        <ele>694.04</ele>
        <time>2019-09-07T13:45:23Z</time>
      </trkpt>
      <trkpt lat="42.98922" lon="0.71258">
        <ele>694.15</ele>
        <time>2019-09-07T13:45:44Z</time>
      </trkpt>
      <trkpt lat="42.98926" lon="0.71246">
        <ele>695.69</ele>
        <time>2019-09-07T13:45:52Z</time>
      </trkpt>
      <trkpt lat="42.98934" lon="0.7122">
        <ele>697.04</ele>
        <time>2019-09-07T13:46:09Z</time>
      </trkpt>
      <trkpt lat="42.98947" lon="0.71195">
        <ele>696.07</ele>
        <time>2019-09-07T13:46:29Z</time>
      </trkpt>
      <trkpt lat="42.98955" lon="0.71181">
        <ele>694.55</ele>
        <time>2019-09-07T13:46:39Z</time>
      </trkpt>
      <trkpt lat="42.98966" lon="0.71156">
        <ele>693.57</ele>
        <time>2019-09-07T13:46:57Z</time>
      </trkpt>
      <trkpt lat="42.98975" lon="0.71126">
        <ele>693.06</ele>
        <time>2019-09-07T13:47:17Z</time>
      </trkpt>
      <trkpt lat="42.98986" lon="0.71092">
        <ele>691.73</ele>
        <time>2019-09-07T13:47:39Z</time>
      </trkpt>
      <trkpt lat="42.98991" lon="0.71052">
        <ele>689.93</ele>
        <time>2019-09-07T13:48:02Z</time>
      </trkpt>
      <trkpt lat="42.98996" lon="0.71021">
        <ele>688.25</ele>
        <time>2019-09-07T13:48:23Z</time>
      </trkpt>
      <trkpt lat="42.98999" lon="0.70996">
        <ele>687.33</ele>
        <time>2019-09-07T13:48:37Z</time>
      </trkpt>
      <trkpt lat="42.99005" lon="0.7097">
        <ele>687.11</ele>
        <time>2019-09-07T13:48:55Z</time>
      </trkpt>
      <trkpt lat="42.99013" lon="0.70946">
        <ele>687.06</ele>
        <time>2019-09-07T13:49:13Z</time>
      </trkpt>
      <trkpt lat="42.99024" lon="0.70913">
        <ele>688.12</ele>
        <time>2019-09-07T13:49:34Z</time>
      </trkpt>
      <trkpt lat="42.99033" lon="0.70887">
        <ele>689.09</ele>
        <time>2019-09-07T13:49:53Z</time>
      </trkpt>
      <trkpt lat="42.99044" lon="0.70858">
        <ele>690.59</ele>
        <time>2019-09-07T13:50:14Z</time>
      </trkpt>
      <trkpt lat="42.99053" lon="0.70832">
        <ele>692.12</ele>
        <time>2019-09-07T13:50:32Z</time>
      </trkpt>
      <trkpt lat="42.99059" lon="0.70812">
        <ele>693.33</ele>
        <time>2019-09-07T13:50:47Z</time>
      </trkpt>
      <trkpt lat="42.99064" lon="0.7078">
        <ele>694.88</ele>
        <time>2019-09-07T13:51:07Z</time>
      </trkpt>
      <trkpt lat="42.99066" lon="0.70748">
        <ele>696.42</ele>
        <time>2019-09-07T13:51:26Z</time>
      </trkpt>
      <trkpt lat="42.99073" lon="0.70722">
        <ele>698.07</ele>
        <time>2019-09-07T13:51:46Z</time>
      </trkpt>
      <trkpt lat="42.99077" lon="0.70696">
        <ele>698.44</ele>
        <time>2019-09-07T13:52:04Z</time>
      </trkpt>
      <trkpt lat="42.99085" lon="0.70666">
        <ele>699.14</ele>
        <time>2019-09-07T13:52:23Z</time>
      </trkpt>
      <trkpt lat="42.99092" lon="0.70632">
        <ele>697.75</ele>
        <time>2019-09-07T13:52:42Z</time>
      </trkpt>
      <trkpt lat="42.99097" lon="0.70597">
        <ele>697.87</ele>
        <time>2019-09-07T13:53:02Z</time>
      </trkpt>
      <trkpt lat="42.99104" lon="0.70572">
        <ele>697.47</ele>
        <time>2019-09-07T13:53:21Z</time>
      </trkpt>
      <trkpt lat="42.99105" lon="0.70541">
        <ele>698.64</ele>
        <time>2019-09-07T13:53:40Z</time>
      </trkpt>
      <trkpt lat="42.99108" lon="0.7052">
        <ele>701.66</ele>
        <time>2019-09-07T13:53:58Z</time>
      </trkpt>
      <trkpt lat="42.99118" lon="0.70493">
        <ele>704.31</ele>
        <time>2019-09-07T13:54:19Z</time>
      </trkpt>
      <trkpt lat="42.99124" lon="0.70473">
        <ele>706.85</ele>
        <time>2019-09-07T13:54:39Z</time>
      </trkpt>
      <trkpt lat="42.99131" lon="0.70448">
        <ele>709.55</ele>
        <time>2019-09-07T13:54:57Z</time>
      </trkpt>
      <trkpt lat="42.99137" lon="0.70422">
        <ele>711.96</ele>
        <time>2019-09-07T13:55:19Z</time>
      </trkpt>
      <trkpt lat="42.9914" lon="0.70402">
        <ele>715.03</ele>
        <time>2019-09-07T13:55:41Z</time>
      </trkpt>
      <trkpt lat="42.99142" lon="0.70395">
        <ele>716.22</ele>
        <time>2019-09-07T13:55:48Z</time>
      </trkpt>
      <trkpt lat="42.99156" lon="0.7039">
        <ele>719.24</ele>
        <time>2019-09-07T13:56:07Z</time>
      </trkpt>
      <trkpt lat="42.99168" lon="0.70382">
        <ele>722.4</ele>
        <time>2019-09-07T13:56:26Z</time>
      </trkpt>
      <trkpt lat="42.99177" lon="0.70375">
        <ele>725.51</ele>
        <time>2019-09-07T13:56:44Z</time>
      </trkpt>
      <trkpt lat="42.9919" lon="0.70359">
        <ele>728.46</ele>
        <time>2019-09-07T13:57:03Z</time>
      </trkpt>
      <trkpt lat="42.99197" lon="0.70347">
        <ele>730.1</ele>
        <time>2019-09-07T13:57:15Z</time>
      </trkpt>
      <trkpt lat="42.99202" lon="0.70336">
        <ele>731.53</ele>
        <time>2019-09-07T13:57:27Z</time>
      </trkpt>
      <trkpt lat="42.99202" lon="0.70321">
        <ele>733.2</ele>
        <time>2019-09-07T13:57:39Z</time>
      </trkpt>
      <trkpt lat="42.99202" lon="0.70311">
        <ele>734.99</ele>
        <time>2019-09-07T13:57:50Z</time>
      </trkpt>
      <trkpt lat="42.99201" lon="0.70298">
        <ele>737.21</ele>
        <time>2019-09-07T13:58:04Z</time>
      </trkpt>
      <trkpt lat="42.99196" lon="0.70294">
        <ele>737.74</ele>
        <time>2019-09-07T13:58:10Z</time>
      </trkpt>
      <trkpt lat="42.99185" lon="0.70292">
        <ele>738.3</ele>
        <time>2019-09-07T13:58:20Z</time>
      </trkpt>
      <trkpt lat="42.99176" lon="0.70295">
        <ele>738.98</ele>
        <time>2019-09-07T13:58:29Z</time>
      </trkpt>
      <trkpt lat="42.9917" lon="0.70298">
        <ele>739.45</ele>
        <time>2019-09-07T13:58:35Z</time>
      </trkpt>
      <trkpt lat="42.99165" lon="0.70289">
        <ele>739.94</ele>
        <time>2019-09-07T13:58:40Z</time>
      </trkpt>
      <trkpt lat="42.99167" lon="0.70278">
        <ele>742.33</ele>
        <time>2019-09-07T13:58:55Z</time>
      </trkpt>
      <trkpt lat="42.99168" lon="0.70259">
        <ele>744.84</ele>
        <time>2019-09-07T13:59:12Z</time>
      </trkpt>
      <trkpt lat="42.99168" lon="0.70247">
        <ele>747.08</ele>
        <time>2019-09-07T13:59:23Z</time>
      </trkpt>
      <trkpt lat="42.99168" lon="0.70246">
        <ele>747.22</ele>
        <time>2019-09-07T13:59:24Z</time>
      </trkpt>
      <trkpt lat="42.99167" lon="0.70236">
        <ele>749.37</ele>
        <time>2019-09-07T13:59:37Z</time>
      </trkpt>
      <trkpt lat="42.99169" lon="0.70219">
        <ele>752.38</ele>
        <time>2019-09-07T13:59:54Z</time>
      </trkpt>
      <trkpt lat="42.99169" lon="0.70204">
        <ele>755.44</ele>
        <time>2019-09-07T14:00:14Z</time>
      </trkpt>
      <trkpt lat="42.99152" lon="0.70154">
        <ele>758.37</ele>
        <time>2019-09-07T14:00:36Z</time>
      </trkpt>
      <trkpt lat="42.99153" lon="0.70128">
        <ele>760.09</ele>
        <time>2019-09-07T14:00:55Z</time>
      </trkpt>
      <trkpt lat="42.9915" lon="0.701">
        <ele>760.46</ele>
        <time>2019-09-07T14:01:12Z</time>
      </trkpt>
      <trkpt lat="42.99148" lon="0.70071">
        <ele>761.58</ele>
        <time>2019-09-07T14:01:29Z</time>
      </trkpt>
      <trkpt lat="42.99144" lon="0.70039">
        <ele>763.04</ele>
        <time>2019-09-07T14:01:51Z</time>
      </trkpt>
      <trkpt lat="42.99143" lon="0.70002">
        <ele>764.68</ele>
        <time>2019-09-07T14:02:13Z</time>
      </trkpt>
      <trkpt lat="42.99139" lon="0.69968">
        <ele>765.77</ele>
        <time>2019-09-07T14:02:33Z</time>
      </trkpt>
      <trkpt lat="42.9914" lon="0.69937">
        <ele>767.2</ele>
        <time>2019-09-07T14:02:51Z</time>
      </trkpt>
      <trkpt lat="42.99146" lon="0.69927">
        <ele>767.82</ele>
        <time>2019-09-07T14:02:59Z</time>
      </trkpt>
      <trkpt lat="42.99148" lon="0.69926">
        <ele>767.89</ele>
        <time>2019-09-07T14:03:00Z</time>
      </trkpt>
      <trkpt lat="42.99149" lon="0.69924">
        <ele>767.96</ele>
        <time>2019-09-07T14:03:01Z</time>
      </trkpt>
      <trkpt lat="42.99157" lon="0.69903">
        <ele>768.46</ele>
        <time>2019-09-07T14:03:16Z</time>
      </trkpt>
      <trkpt lat="42.9916" lon="0.69882">
        <ele>769.41</ele>
        <time>2019-09-07T14:03:31Z</time>
      </trkpt>
      <trkpt lat="42.9915" lon="0.69849">
        <ele>770.66</ele>
        <time>2019-09-07T14:03:53Z</time>
      </trkpt>
      <trkpt lat="42.99148" lon="0.69835">
        <ele>771.2</ele>
        <time>2019-09-07T14:04:01Z</time>
      </trkpt>
      <trkpt lat="42.99147" lon="0.69833">
        <ele>771.26</ele>
        <time>2019-09-07T14:04:02Z</time>
      </trkpt>
      <trkpt lat="42.99145" lon="0.69815">
        <ele>771.98</ele>
        <time>2019-09-07T14:04:14Z</time>
      </trkpt>
      <trkpt lat="42.99146" lon="0.69802">
        <ele>772.27</ele>
        <time>2019-09-07T14:04:21Z</time>
      </trkpt>
      <trkpt lat="42.99143" lon="0.69771">
        <ele>772.6</ele>
        <time>2019-09-07T14:04:38Z</time>
      </trkpt>
      <trkpt lat="42.99142" lon="0.69747">
        <ele>773.71</ele>
        <time>2019-09-07T14:04:54Z</time>
      </trkpt>
      <trkpt lat="42.99143" lon="0.69722">
        <ele>774.59</ele>
        <time>2019-09-07T14:05:09Z</time>
      </trkpt>
      <trkpt lat="42.99143" lon="0.69693">
        <ele>775.81</ele>
        <time>2019-09-07T14:05:25Z</time>
      </trkpt>
      <trkpt lat="42.99141" lon="0.69676">
        <ele>776.31</ele>
        <time>2019-09-07T14:05:37Z</time>
      </trkpt>
      <trkpt lat="42.99141" lon="0.69674">
        <ele>776.36</ele>
        <time>2019-09-07T14:05:38Z</time>
      </trkpt>
      <trkpt lat="42.99141" lon="0.69672">
        <ele>776.42</ele>
        <time>2019-09-07T14:05:39Z</time>
      </trkpt>
      <trkpt lat="42.99141" lon="0.6967">
        <ele>776.49</ele>
        <time>2019-09-07T14:05:40Z</time>
      </trkpt>
      <trkpt lat="42.9914" lon="0.69668">
        <ele>776.56</ele>
        <time>2019-09-07T14:05:41Z</time>
      </trkpt>
      <trkpt lat="42.9914" lon="0.69666">
        <ele>776.64</ele>
        <time>2019-09-07T14:05:42Z</time>
      </trkpt>
      <trkpt lat="42.99138" lon="0.69641">
        <ele>777.61</ele>
        <time>2019-09-07T14:05:57Z</time>
      </trkpt>
      <trkpt lat="42.99138" lon="0.69634">
        <ele>777.73</ele>
        <time>2019-09-07T14:06:01Z</time>
      </trkpt>
      <trkpt lat="42.99137" lon="0.69629">
        <ele>777.87</ele>
        <time>2019-09-07T14:06:04Z</time>
      </trkpt>
      <trkpt lat="42.99137" lon="0.69627">
        <ele>777.92</ele>
        <time>2019-09-07T14:06:05Z</time>
      </trkpt>
      <trkpt lat="42.99133" lon="0.69602">
        <ele>778.86</ele>
        <time>2019-09-07T14:06:20Z</time>
      </trkpt>
      <trkpt lat="42.99133" lon="0.696">
        <ele>778.92</ele>
        <time>2019-09-07T14:06:21Z</time>
      </trkpt>
      <trkpt lat="42.99125" lon="0.69577">
        <ele>779.75</ele>
        <time>2019-09-07T14:06:35Z</time>
      </trkpt>
      <trkpt lat="42.99121" lon="0.69551">
        <ele>780.56</ele>
        <time>2019-09-07T14:06:48Z</time>
      </trkpt>
      <trkpt lat="42.99117" lon="0.6953">
        <ele>781.27</ele>
        <time>2019-09-07T14:07:03Z</time>
      </trkpt>
      <trkpt lat="42.99112" lon="0.69505">
        <ele>782.49</ele>
        <time>2019-09-07T14:07:19Z</time>
      </trkpt>
      <trkpt lat="42.99107" lon="0.69485">
        <ele>783.15</ele>
        <time>2019-09-07T14:07:31Z</time>
      </trkpt>
      <trkpt lat="42.99106" lon="0.69463">
        <ele>784.89</ele>
        <time>2019-09-07T14:07:48Z</time>
      </trkpt>
      <trkpt lat="42.99107" lon="0.69434">
        <ele>786.12</ele>
        <time>2019-09-07T14:08:06Z</time>
      </trkpt>
      <trkpt lat="42.99107" lon="0.69406">
        <ele>787.03</ele>
        <time>2019-09-07T14:08:22Z</time>
      </trkpt>
      <trkpt lat="42.99105" lon="0.69399">
        <ele>787.46</ele>
        <time>2019-09-07T14:08:27Z</time>
      </trkpt>
      <trkpt lat="42.99102" lon="0.69391">
        <ele>788</ele>
        <time>2019-09-07T14:08:40Z</time>
      </trkpt>
      <trkpt lat="42.99096" lon="0.69383">
        <ele>788.11</ele>
        <time>2019-09-07T14:08:51Z</time>
      </trkpt>
      <trkpt lat="42.99092" lon="0.69377">
        <ele>787.91</ele>
        <time>2019-09-07T14:08:55Z</time>
      </trkpt>
      <trkpt lat="42.9908" lon="0.69363">
        <ele>788.95</ele>
        <time>2019-09-07T14:09:09Z</time>
      </trkpt>
      <trkpt lat="42.99074" lon="0.6936">
        <ele>788.78</ele>
        <time>2019-09-07T14:09:13Z</time>
      </trkpt>
      <trkpt lat="42.99072" lon="0.69358">
        <ele>788.6</ele>
        <time>2019-09-07T14:09:14Z</time>
      </trkpt>
      <trkpt lat="42.99071" lon="0.69356">
        <ele>788.32</ele>
        <time>2019-09-07T14:09:16Z</time>
      </trkpt>
      <trkpt lat="42.99055" lon="0.6934">
        <ele>787.37</ele>
        <time>2019-09-07T14:09:31Z</time>
      </trkpt>
      <trkpt lat="42.99041" lon="0.69329">
        <ele>786.54</ele>
        <time>2019-09-07T14:09:44Z</time>
      </trkpt>
      <trkpt lat="42.99029" lon="0.69328">
        <ele>785.83</ele>
        <time>2019-09-07T14:09:53Z</time>
      </trkpt>
      <trkpt lat="42.99028" lon="0.69328">
        <ele>785.63</ele>
        <time>2019-09-07T14:09:54Z</time>
      </trkpt>
      <trkpt lat="42.99019" lon="0.69332">
        <ele>785.02</ele>
        <time>2019-09-07T14:10:05Z</time>
      </trkpt>
      <trkpt lat="42.99017" lon="0.69332">
        <ele>784.94</ele>
        <time>2019-09-07T14:10:06Z</time>
      </trkpt>
      <trkpt lat="42.99013" lon="0.69323">
        <ele>784.98</ele>
        <time>2019-09-07T14:10:17Z</time>
      </trkpt>
      <trkpt lat="42.99014" lon="0.69322">
        <ele>784.76</ele>
        <time>2019-09-07T14:10:18Z</time>
      </trkpt>
      <trkpt lat="42.99016" lon="0.69321">
        <ele>784.32</ele>
        <time>2019-09-07T14:10:19Z</time>
      </trkpt>
      <trkpt lat="42.9902" lon="0.69317">
        <ele>783.68</ele>
        <time>2019-09-07T14:10:23Z</time>
      </trkpt>
      <trkpt lat="42.99022" lon="0.69318">
        <ele>783.55</ele>
        <time>2019-09-07T14:10:24Z</time>
      </trkpt>
      <trkpt lat="42.99023" lon="0.69318">
        <ele>783.41</ele>
        <time>2019-09-07T14:10:25Z</time>
      </trkpt>
      <trkpt lat="42.99042" lon="0.69312">
        <ele>782.46</ele>
        <time>2019-09-07T14:10:40Z</time>
      </trkpt>
      <trkpt lat="42.99047" lon="0.69299">
        <ele>780.9</ele>
        <time>2019-09-07T14:10:49Z</time>
      </trkpt>
      <trkpt lat="42.99044" lon="0.69271">
        <ele>777.85</ele>
        <time>2019-09-07T14:11:04Z</time>
      </trkpt>
      <trkpt lat="42.99042" lon="0.69263">
        <ele>776.52</ele>
        <time>2019-09-07T14:11:10Z</time>
      </trkpt>
      <trkpt lat="42.99033" lon="0.69256">
        <ele>774.64</ele>
        <time>2019-09-07T14:11:19Z</time>
      </trkpt>
      <trkpt lat="42.99032" lon="0.69256">
        <ele>774.44</ele>
        <time>2019-09-07T14:11:20Z</time>
      </trkpt>
      <trkpt lat="42.99027" lon="0.69255">
        <ele>773.71</ele>
        <time>2019-09-07T14:11:24Z</time>
      </trkpt>
      <trkpt lat="42.99026" lon="0.69254">
        <ele>773.36</ele>
        <time>2019-09-07T14:11:25Z</time>
      </trkpt>
      <trkpt lat="42.99022" lon="0.69252">
        <ele>772.81</ele>
        <time>2019-09-07T14:11:28Z</time>
      </trkpt>
      <trkpt lat="42.99013" lon="0.69249">
        <ele>771.44</ele>
        <time>2019-09-07T14:11:36Z</time>
      </trkpt>
      <trkpt lat="42.98997" lon="0.69244">
        <ele>769.55</ele>
        <time>2019-09-07T14:11:48Z</time>
      </trkpt>
      <trkpt lat="42.98977" lon="0.69237">
        <ele>767.73</ele>
        <time>2019-09-07T14:12:03Z</time>
      </trkpt>
      <trkpt lat="42.98959" lon="0.69234">
        <ele>766.28</ele>
        <time>2019-09-07T14:12:18Z</time>
      </trkpt>
      <trkpt lat="42.98943" lon="0.69214">
        <ele>765.4</ele>
        <time>2019-09-07T14:12:36Z</time>
      </trkpt>
      <trkpt lat="42.98935" lon="0.69194">
        <ele>765.53</ele>
        <time>2019-09-07T14:12:51Z</time>
      </trkpt>
      <trkpt lat="42.9893" lon="0.69172">
        <ele>764.48</ele>
        <time>2019-09-07T14:13:04Z</time>
      </trkpt>
      <trkpt lat="42.98924" lon="0.69145">
        <ele>763.37</ele>
        <time>2019-09-07T14:13:21Z</time>
      </trkpt>
      <trkpt lat="42.98918" lon="0.69113">
        <ele>761.5</ele>
        <time>2019-09-07T14:13:41Z</time>
      </trkpt>
      <trkpt lat="42.98911" lon="0.69085">
        <ele>759.71</ele>
        <time>2019-09-07T14:13:59Z</time>
      </trkpt>
      <trkpt lat="42.98907" lon="0.69063">
        <ele>758.37</ele>
        <time>2019-09-07T14:14:13Z</time>
      </trkpt>
      <trkpt lat="42.98899" lon="0.69035">
        <ele>757.12</ele>
        <time>2019-09-07T14:14:30Z</time>
      </trkpt>
      <trkpt lat="42.9889" lon="0.69006">
        <ele>755.63</ele>
        <time>2019-09-07T14:14:47Z</time>
      </trkpt>
      <trkpt lat="42.98887" lon="0.68978">
        <ele>754.59</ele>
        <time>2019-09-07T14:15:04Z</time>
      </trkpt>
      <trkpt lat="42.98877" lon="0.68944">
        <ele>752.05</ele>
        <time>2019-09-07T14:15:25Z</time>
      </trkpt>
      <trkpt lat="42.98866" lon="0.68925">
        <ele>748.94</ele>
        <time>2019-09-07T14:15:43Z</time>
      </trkpt>
      <trkpt lat="42.98851" lon="0.68903">
        <ele>745.76</ele>
        <time>2019-09-07T14:15:59Z</time>
      </trkpt>
      <trkpt lat="42.98839" lon="0.68886">
        <ele>743.52</ele>
        <time>2019-09-07T14:16:12Z</time>
      </trkpt>
      <trkpt lat="42.98825" lon="0.68863">
        <ele>740.48</ele>
        <time>2019-09-07T14:16:29Z</time>
      </trkpt>
      <trkpt lat="42.9881" lon="0.6884">
        <ele>738.46</ele>
        <time>2019-09-07T14:16:45Z</time>
      </trkpt>
      <trkpt lat="42.98797" lon="0.68814">
        <ele>736.42</ele>
        <time>2019-09-07T14:17:02Z</time>
      </trkpt>
      <trkpt lat="42.9879" lon="0.68789">
        <ele>734.48</ele>
        <time>2019-09-07T14:17:17Z</time>
      </trkpt>
      <trkpt lat="42.98786" lon="0.68762">
        <ele>732.32</ele>
        <time>2019-09-07T14:17:35Z</time>
      </trkpt>
      <trkpt lat="42.98783" lon="0.68739">
        <ele>730.4</ele>
        <time>2019-09-07T14:17:49Z</time>
      </trkpt>
      <trkpt lat="42.98781" lon="0.68712">
        <ele>728.17</ele>
        <time>2019-09-07T14:18:06Z</time>
      </trkpt>
      <trkpt lat="42.98776" lon="0.68686">
        <ele>727.29</ele>
        <time>2019-09-07T14:18:21Z</time>
      </trkpt>
      <trkpt lat="42.98771" lon="0.68657">
        <ele>724.4</ele>
        <time>2019-09-07T14:18:39Z</time>
      </trkpt>
      <trkpt lat="42.98764" lon="0.68631">
        <ele>722.19</ele>
        <time>2019-09-07T14:18:54Z</time>
      </trkpt>
      <trkpt lat="42.98759" lon="0.68602">
        <ele>719.63</ele>
        <time>2019-09-07T14:19:11Z</time>
      </trkpt>
      <trkpt lat="42.98749" lon="0.68576">
        <ele>717.88</ele>
        <time>2019-09-07T14:19:25Z</time>
      </trkpt>
      <trkpt lat="42.98745" lon="0.68564">
        <ele>716.97</ele>
        <time>2019-09-07T14:19:32Z</time>
      </trkpt>
      <trkpt lat="42.98743" lon="0.68558">
        <ele>716.51</ele>
        <time>2019-09-07T14:19:35Z</time>
      </trkpt>
      <trkpt lat="42.98738" lon="0.68544">
        <ele>715.12</ele>
        <time>2019-09-07T14:19:42Z</time>
      </trkpt>
      <trkpt lat="42.98734" lon="0.68524">
        <ele>713.32</ele>
        <time>2019-09-07T14:19:56Z</time>
      </trkpt>
      <trkpt lat="42.9873" lon="0.68505">
        <ele>711.29</ele>
        <time>2019-09-07T14:20:08Z</time>
      </trkpt>
      <trkpt lat="42.98725" lon="0.68485">
        <ele>709.05</ele>
        <time>2019-09-07T14:20:22Z</time>
      </trkpt>
      <trkpt lat="42.98721" lon="0.6846">
        <ele>706.92</ele>
        <time>2019-09-07T14:20:40Z</time>
      </trkpt>
      <trkpt lat="42.98716" lon="0.68434">
        <ele>704.71</ele>
        <time>2019-09-07T14:20:56Z</time>
      </trkpt>
      <trkpt lat="42.98711" lon="0.68407">
        <ele>701.91</ele>
        <time>2019-09-07T14:21:14Z</time>
      </trkpt>
      <trkpt lat="42.98703" lon="0.68376">
        <ele>699.5</ele>
        <time>2019-09-07T14:21:31Z</time>
      </trkpt>
      <trkpt lat="42.98696" lon="0.68345">
        <ele>697.31</ele>
        <time>2019-09-07T14:21:48Z</time>
      </trkpt>
      <trkpt lat="42.98691" lon="0.68323">
        <ele>695.03</ele>
        <time>2019-09-07T14:22:04Z</time>
      </trkpt>
      <trkpt lat="42.98684" lon="0.68294">
        <ele>692.5</ele>
        <time>2019-09-07T14:22:21Z</time>
      </trkpt>
      <trkpt lat="42.98676" lon="0.68271">
        <ele>689.91</ele>
        <time>2019-09-07T14:22:38Z</time>
      </trkpt>
      <trkpt lat="42.98667" lon="0.68241">
        <ele>687.66</ele>
        <time>2019-09-07T14:22:54Z</time>
      </trkpt>
      <trkpt lat="42.9866" lon="0.6821">
        <ele>684.64</ele>
        <time>2019-09-07T14:23:14Z</time>
      </trkpt>
      <trkpt lat="42.98654" lon="0.68187">
        <ele>683.16</ele>
        <time>2019-09-07T14:23:27Z</time>
      </trkpt>
      <trkpt lat="42.98648" lon="0.68167">
        <ele>681.51</ele>
        <time>2019-09-07T14:23:42Z</time>
      </trkpt>
      <trkpt lat="42.98636" lon="0.68135">
        <ele>679.47</ele>
        <time>2019-09-07T14:24:02Z</time>
      </trkpt>
      <trkpt lat="42.98622" lon="0.68108">
        <ele>677.14</ele>
        <time>2019-09-07T14:24:18Z</time>
      </trkpt>
      <trkpt lat="42.98621" lon="0.68107">
        <ele>676.96</ele>
        <time>2019-09-07T14:24:19Z</time>
      </trkpt>
      <trkpt lat="42.98604" lon="0.68084">
        <ele>674.43</ele>
        <time>2019-09-07T14:24:37Z</time>
      </trkpt>
      <trkpt lat="42.98593" lon="0.68075">
        <ele>673.91</ele>
        <time>2019-09-07T14:24:49Z</time>
      </trkpt>
      <trkpt lat="42.98578" lon="0.68063">
        <ele>672.94</ele>
        <time>2019-09-07T14:25:04Z</time>
      </trkpt>
      <trkpt lat="42.98557" lon="0.68047">
        <ele>671.13</ele>
        <time>2019-09-07T14:25:23Z</time>
      </trkpt>
      <trkpt lat="42.98543" lon="0.68028">
        <ele>669.3</ele>
        <time>2019-09-07T14:25:41Z</time>
      </trkpt>
      <trkpt lat="42.98527" lon="0.68001">
        <ele>667.42</ele>
        <time>2019-09-07T14:25:59Z</time>
      </trkpt>
      <trkpt lat="42.98519" lon="0.67979">
        <ele>665.92</ele>
        <time>2019-09-07T14:26:13Z</time>
      </trkpt>
      <trkpt lat="42.98507" lon="0.67954">
        <ele>663.77</ele>
        <time>2019-09-07T14:26:31Z</time>
      </trkpt>
      <trkpt lat="42.98495" lon="0.67929">
        <ele>661.49</ele>
        <time>2019-09-07T14:26:48Z</time>
      </trkpt>
      <trkpt lat="42.98477" lon="0.67907">
        <ele>659.74</ele>
        <time>2019-09-07T14:27:08Z</time>
      </trkpt>
      <trkpt lat="42.98458" lon="0.6789">
        <ele>657.59</ele>
        <time>2019-09-07T14:27:27Z</time>
      </trkpt>
      <trkpt lat="42.98436" lon="0.67865">
        <ele>655.63</ele>
        <time>2019-09-07T14:27:47Z</time>
      </trkpt>
      <trkpt lat="42.9842" lon="0.67841">
        <ele>653.64</ele>
        <time>2019-09-07T14:28:04Z</time>
      </trkpt>
      <trkpt lat="42.98407" lon="0.6782">
        <ele>652.24</ele>
        <time>2019-09-07T14:28:20Z</time>
      </trkpt>
      <trkpt lat="42.98394" lon="0.678">
        <ele>651.2</ele>
        <time>2019-09-07T14:28:36Z</time>
      </trkpt>
      <trkpt lat="42.98379" lon="0.67779">
        <ele>650.06</ele>
        <time>2019-09-07T14:28:56Z</time>
      </trkpt>
      <trkpt lat="42.98366" lon="0.6775">
        <ele>647.78</ele>
        <time>2019-09-07T14:29:15Z</time>
      </trkpt>
      <trkpt lat="42.98371" lon="0.67732">
        <ele>644.66</ele>
        <time>2019-09-07T14:29:30Z</time>
      </trkpt>
      <trkpt lat="42.98381" lon="0.67712">
        <ele>641.54</ele>
        <time>2019-09-07T14:29:44Z</time>
      </trkpt>
      <trkpt lat="42.98389" lon="0.67694">
        <ele>638.52</ele>
        <time>2019-09-07T14:29:58Z</time>
      </trkpt>
      <trkpt lat="42.98398" lon="0.67674">
        <ele>635.56</ele>
        <time>2019-09-07T14:30:13Z</time>
      </trkpt>
      <trkpt lat="42.98407" lon="0.67658">
        <ele>632.5</ele>
        <time>2019-09-07T14:30:27Z</time>
      </trkpt>
      <trkpt lat="42.9841" lon="0.67654">
        <ele>631.87</ele>
        <time>2019-09-07T14:30:31Z</time>
      </trkpt>
      <trkpt lat="42.98413" lon="0.6763">
        <ele>628.73</ele>
        <time>2019-09-07T14:30:48Z</time>
      </trkpt>
      <trkpt lat="42.98406" lon="0.6762">
        <ele>627.86</ele>
        <time>2019-09-07T14:31:05Z</time>
      </trkpt>
      <trkpt lat="42.98399" lon="0.6761">
        <ele>627.8</ele>
        <time>2019-09-07T14:31:21Z</time>
      </trkpt>
      <trkpt lat="42.98384" lon="0.67593">
        <ele>627.46</ele>
        <time>2019-09-07T14:31:40Z</time>
      </trkpt>
      <trkpt lat="42.98377" lon="0.6758">
        <ele>628.32</ele>
        <time>2019-09-07T14:31:49Z</time>
      </trkpt>
      <trkpt lat="42.98366" lon="0.67564">
        <ele>622.93</ele>
        <time>2019-09-07T14:32:02Z</time>
      </trkpt>
      <trkpt lat="42.98365" lon="0.67562">
        <ele>625.52</ele>
        <time>2019-09-07T14:32:03Z</time>
      </trkpt>
      <trkpt lat="42.98349" lon="0.67533">
        <ele>628.18</ele>
        <time>2019-09-07T14:32:24Z</time>
      </trkpt>
      <trkpt lat="42.98331" lon="0.67508">
        <ele>628.18</ele>
        <time>2019-09-07T14:32:45Z</time>
      </trkpt>
      <trkpt lat="42.98313" lon="0.67488">
        <ele>628.18</ele>
        <time>2019-09-07T14:33:05Z</time>
      </trkpt>
      <trkpt lat="42.98308" lon="0.6749">
        <ele>628.18</ele>
        <time>2019-09-07T14:33:35Z</time>
      </trkpt>
      <trkpt lat="42.98319" lon="0.67498">
        <ele>628.18</ele>
        <time>2019-09-07T14:34:00Z</time>
      </trkpt>
      <trkpt lat="42.98335" lon="0.67514">
        <ele>628.18</ele>
        <time>2019-09-07T14:34:18Z</time>
      </trkpt>
      <trkpt lat="42.98351" lon="0.67541">
        <ele>628.18</ele>
        <time>2019-09-07T14:34:38Z</time>
      </trkpt>
      <trkpt lat="42.9836" lon="0.67564">
        <ele>628.18</ele>
        <time>2019-09-07T14:34:57Z</time>
      </trkpt>
      <trkpt lat="42.98363" lon="0.6757">
        <ele>628.18</ele>
        <time>2019-09-07T14:35:01Z</time>
      </trkpt>
      <trkpt lat="42.98381" lon="0.67596">
        <ele>628.18</ele>
        <time>2019-09-07T14:35:20Z</time>
      </trkpt>
      <trkpt lat="42.98404" lon="0.67622">
        <ele>628.18</ele>
        <time>2019-09-07T14:35:41Z</time>
      </trkpt>
      <trkpt lat="42.98416" lon="0.6761">
        <ele>628.18</ele>
        <time>2019-09-07T14:35:56Z</time>
      </trkpt>
      <trkpt lat="42.98421" lon="0.67595">
        <ele>624.68</ele>
        <time>2019-09-07T14:36:06Z</time>
      </trkpt>
      <trkpt lat="42.98422" lon="0.67592">
        <ele>623.45</ele>
        <time>2019-09-07T14:36:09Z</time>
      </trkpt>
      <trkpt lat="42.98426" lon="0.67568">
        <ele>620.58</ele>
        <time>2019-09-07T14:36:25Z</time>
      </trkpt>
      <trkpt lat="42.98429" lon="0.67539">
        <ele>617.46</ele>
        <time>2019-09-07T14:36:42Z</time>
      </trkpt>
      <trkpt lat="42.98431" lon="0.67533">
        <ele>616.56</ele>
        <time>2019-09-07T14:36:46Z</time>
      </trkpt>
      <trkpt lat="42.98438" lon="0.67514">
        <ele>614.89</ele>
        <time>2019-09-07T14:36:59Z</time>
      </trkpt>
      <trkpt lat="42.98438" lon="0.67473">
        <ele>611.52</ele>
        <time>2019-09-07T14:37:18Z</time>
      </trkpt>
      <trkpt lat="42.98439" lon="0.67445">
        <ele>608.5</ele>
        <time>2019-09-07T14:37:36Z</time>
      </trkpt>
      <trkpt lat="42.98439" lon="0.67418">
        <ele>606.48</ele>
        <time>2019-09-07T14:37:50Z</time>
      </trkpt>
      <trkpt lat="42.98442" lon="0.67389">
        <ele>604.2</ele>
        <time>2019-09-07T14:38:06Z</time>
      </trkpt>
      <trkpt lat="42.98445" lon="0.67356">
        <ele>602.4</ele>
        <time>2019-09-07T14:38:26Z</time>
      </trkpt>
      <trkpt lat="42.98445" lon="0.67341">
        <ele>600.88</ele>
        <time>2019-09-07T14:38:44Z</time>
      </trkpt>
      <trkpt lat="42.98445" lon="0.67337">
        <ele>600.82</ele>
        <time>2019-09-07T14:38:49Z</time>
      </trkpt>
      <trkpt lat="42.98445" lon="0.67333">
        <ele>600.76</ele>
        <time>2019-09-07T14:38:51Z</time>
      </trkpt>
      <trkpt lat="42.98446" lon="0.67308">
        <ele>599.96</ele>
        <time>2019-09-07T14:39:06Z</time>
      </trkpt>
      <trkpt lat="42.98448" lon="0.67296">
        <ele>599.41</ele>
        <time>2019-09-07T14:39:13Z</time>
      </trkpt>
      <trkpt lat="42.98455" lon="0.67258">
        <ele>598.33</ele>
        <time>2019-09-07T14:39:35Z</time>
      </trkpt>
      <trkpt lat="42.98461" lon="0.67226">
        <ele>597.12</ele>
        <time>2019-09-07T14:39:54Z</time>
      </trkpt>
      <trkpt lat="42.98462" lon="0.672">
        <ele>596.52</ele>
        <time>2019-09-07T14:40:10Z</time>
      </trkpt>
      <trkpt lat="42.98457" lon="0.67173">
        <ele>595.55</ele>
        <time>2019-09-07T14:40:27Z</time>
      </trkpt>
      <trkpt lat="42.98451" lon="0.67154">
        <ele>595.36</ele>
        <time>2019-09-07T14:40:39Z</time>
      </trkpt>
      <trkpt lat="42.98436" lon="0.67138">
        <ele>595.77</ele>
        <time>2019-09-07T14:40:57Z</time>
      </trkpt>
      <trkpt lat="42.98431" lon="0.67132">
        <ele>595.98</ele>
        <time>2019-09-07T14:41:03Z</time>
      </trkpt>
      <trkpt lat="42.9843" lon="0.6713">
        <ele>596.04</ele>
        <time>2019-09-07T14:41:04Z</time>
      </trkpt>
      <trkpt lat="42.98409" lon="0.67107">
        <ele>596.85</ele>
        <time>2019-09-07T14:41:21Z</time>
      </trkpt>
      <trkpt lat="42.98398" lon="0.67088">
        <ele>597.82</ele>
        <time>2019-09-07T14:41:38Z</time>
      </trkpt>
      <trkpt lat="42.98397" lon="0.67087">
        <ele>597.91</ele>
        <time>2019-09-07T14:41:39Z</time>
      </trkpt>
      <trkpt lat="42.98396" lon="0.67085">
        <ele>597.99</ele>
        <time>2019-09-07T14:41:40Z</time>
      </trkpt>
      <trkpt lat="42.98396" lon="0.67084">
        <ele>598.06</ele>
        <time>2019-09-07T14:41:41Z</time>
      </trkpt>
      <trkpt lat="42.98394" lon="0.67083">
        <ele>598.14</ele>
        <time>2019-09-07T14:41:42Z</time>
      </trkpt>
      <trkpt lat="42.98383" lon="0.67066">
        <ele>599.1</ele>
        <time>2019-09-07T14:41:55Z</time>
      </trkpt>
      <trkpt lat="42.98379" lon="0.6706">
        <ele>599.4</ele>
        <time>2019-09-07T14:41:58Z</time>
      </trkpt>
      <trkpt lat="42.98375" lon="0.67052">
        <ele>599.7</ele>
        <time>2019-09-07T14:42:03Z</time>
      </trkpt>
      <trkpt lat="42.98374" lon="0.67051">
        <ele>599.73</ele>
        <time>2019-09-07T14:42:05Z</time>
      </trkpt>
      <trkpt lat="42.98373" lon="0.6705">
        <ele>599.75</ele>
        <time>2019-09-07T14:42:06Z</time>
      </trkpt>
      <trkpt lat="42.98372" lon="0.67049">
        <ele>599.77</ele>
        <time>2019-09-07T14:42:07Z</time>
      </trkpt>
      <trkpt lat="42.98372" lon="0.67049">
        <ele>599.79</ele>
        <time>2019-09-07T14:42:08Z</time>
      </trkpt>
      <trkpt lat="42.98371" lon="0.67039">
        <ele>600.1</ele>
        <time>2019-09-07T14:42:23Z</time>
      </trkpt>
      <trkpt lat="42.98369" lon="0.67043">
        <ele>600.41</ele>
        <time>2019-09-07T14:42:43Z</time>
      </trkpt>
      <trkpt lat="42.98385" lon="0.67026">
        <ele>603.14</ele>
        <time>2019-09-07T15:36:57Z</time>
      </trkpt>
      <trkpt lat="42.98385" lon="0.67025">
        <ele>603.14</ele>
        <time>2019-09-07T15:36:59Z</time>
      </trkpt>
      <trkpt lat="42.98383" lon="0.67032">
        <ele>603.14</ele>
        <time>2019-09-07T15:38:01Z</time>
      </trkpt>
      <trkpt lat="42.98381" lon="0.67036">
        <ele>603.14</ele>
        <time>2019-09-07T15:38:32Z</time>
      </trkpt>
      <trkpt lat="42.9838" lon="0.67032">
        <ele>603.14</ele>
        <time>2019-09-07T15:39:02Z</time>
      </trkpt>
      <trkpt lat="42.9838" lon="0.6703">
        <ele>603.14</ele>
        <time>2019-09-07T15:39:36Z</time>
      </trkpt>
      <trkpt lat="42.98381" lon="0.6703">
        <ele>603.14</ele>
        <time>2019-09-07T15:40:11Z</time>
      </trkpt>
      <trkpt lat="42.98381" lon="0.67031">
        <ele>603.14</ele>
        <time>2019-09-07T15:40:42Z</time>
      </trkpt>
      <trkpt lat="42.98382" lon="0.67035">
        <ele>603.14</ele>
        <time>2019-09-07T15:41:13Z</time>
      </trkpt>
      <trkpt lat="42.98379" lon="0.6704">
        <ele>603.14</ele>
        <time>2019-09-07T15:42:02Z</time>
      </trkpt>
      <trkpt lat="42.98378" lon="0.67038">
        <ele>602.85</ele>
        <time>2019-09-07T15:42:34Z</time>
      </trkpt>
      <trkpt lat="42.98378" lon="0.67036">
        <ele>602.99</ele>
        <time>2019-09-07T15:43:06Z</time>
      </trkpt>
      <trkpt lat="42.98379" lon="0.67036">
        <ele>603.09</ele>
        <time>2019-09-07T15:43:32Z</time>
      </trkpt>
      <trkpt lat="42.98381" lon="0.67036">
        <ele>603.09</ele>
        <time>2019-09-07T15:44:00Z</time>
      </trkpt>
      <trkpt lat="42.9838" lon="0.67035">
        <ele>603.09</ele>
        <time>2019-09-07T15:44:29Z</time>
      </trkpt>
      <trkpt lat="42.9838" lon="0.67034">
        <ele>603.09</ele>
        <time>2019-09-07T15:44:59Z</time>
      </trkpt>
      <trkpt lat="42.98378" lon="0.67034">
        <ele>603.09</ele>
        <time>2019-09-07T15:45:30Z</time>
      </trkpt>
      <trkpt lat="42.9838" lon="0.67035">
        <ele>603.09</ele>
        <time>2019-09-07T15:46:00Z</time>
      </trkpt>
      <trkpt lat="42.9838" lon="0.67033">
        <ele>603.09</ele>
        <time>2019-09-07T15:46:32Z</time>
      </trkpt>
      <trkpt lat="42.9838" lon="0.67028">
        <ele>603.09</ele>
        <time>2019-09-07T15:47:05Z</time>
      </trkpt>
      <trkpt lat="42.98379" lon="0.67024">
        <ele>603.09</ele>
        <time>2019-09-07T15:47:33Z</time>
      </trkpt>
      <trkpt lat="42.98382" lon="0.67029">
        <ele>603.09</ele>
        <time>2019-09-07T15:47:59Z</time>
      </trkpt>
      <trkpt lat="42.98381" lon="0.67033">
        <ele>603.09</ele>
        <time>2019-09-07T15:48:28Z</time>
      </trkpt>
      <trkpt lat="42.98382" lon="0.67037">
        <ele>603.09</ele>
        <time>2019-09-07T15:48:53Z</time>
      </trkpt>
      <trkpt lat="42.98387" lon="0.67042">
        <ele>603.09</ele>
        <time>2019-09-07T15:49:24Z</time>
      </trkpt>
      <trkpt lat="42.98381" lon="0.67038">
        <ele>603.09</ele>
        <time>2019-09-07T15:50:02Z</time>
      </trkpt>
      <trkpt lat="42.98374" lon="0.67035">
        <ele>603.09</ele>
        <time>2019-09-07T15:50:43Z</time>
      </trkpt>
      <trkpt lat="42.98379" lon="0.67032">
        <ele>603.09</ele>
        <time>2019-09-07T15:51:12Z</time>
      </trkpt>
      <trkpt lat="42.98381" lon="0.67031">
        <ele>603.09</ele>
        <time>2019-09-07T15:51:45Z</time>
      </trkpt>
      <trkpt lat="42.9838" lon="0.67032">
        <ele>603.09</ele>
        <time>2019-09-07T15:52:16Z</time>
      </trkpt>
      <trkpt lat="42.98383" lon="0.67033">
        <ele>603.09</ele>
        <time>2019-09-07T15:52:48Z</time>
      </trkpt>
      <trkpt lat="42.98382" lon="0.67036">
        <ele>603.09</ele>
        <time>2019-09-07T15:53:21Z</time>
      </trkpt>
      <trkpt lat="42.98383" lon="0.67038">
        <ele>603.09</ele>
        <time>2019-09-07T15:53:49Z</time>
      </trkpt>
      <trkpt lat="42.98386" lon="0.67035">
        <ele>603.09</ele>
        <time>2019-09-07T15:54:21Z</time>
      </trkpt>
      <trkpt lat="42.98386" lon="0.67037">
        <ele>603.09</ele>
        <time>2019-09-07T15:54:49Z</time>
      </trkpt>
      <trkpt lat="42.98387" lon="0.67033">
        <ele>603.09</ele>
        <time>2019-09-07T15:55:12Z</time>
      </trkpt>
      <trkpt lat="42.98382" lon="0.67038">
        <ele>600.7</ele>
        <time>2019-09-07T15:55:43Z</time>
      </trkpt>
      <trkpt lat="42.98383" lon="0.6704">
        <ele>600.7</ele>
        <time>2019-09-07T15:56:16Z</time>
      </trkpt>
      <trkpt lat="42.98383" lon="0.67043">
        <ele>600.34</ele>
        <time>2019-09-07T15:56:40Z</time>
      </trkpt>
      <trkpt lat="42.98387" lon="0.67049">
        <ele>600.49</ele>
        <time>2019-09-07T15:57:10Z</time>
      </trkpt>
      <trkpt lat="42.98387" lon="0.67039">
        <ele>600.37</ele>
        <time>2019-09-07T15:57:40Z</time>
      </trkpt>
      <trkpt lat="42.98386" lon="0.67038">
        <ele>600.19</ele>
        <time>2019-09-07T15:58:12Z</time>
      </trkpt>
      <trkpt lat="42.98382" lon="0.67037">
        <ele>600.19</ele>
        <time>2019-09-07T15:58:43Z</time>
      </trkpt>
      <trkpt lat="42.98382" lon="0.67036">
        <ele>600.19</ele>
        <time>2019-09-07T15:59:14Z</time>
      </trkpt>
      <trkpt lat="42.9838" lon="0.67035">
        <ele>600.19</ele>
        <time>2019-09-07T15:59:45Z</time>
      </trkpt>
      <trkpt lat="42.9838" lon="0.67035">
        <ele>600.19</ele>
        <time>2019-09-07T16:00:16Z</time>
      </trkpt>
      <trkpt lat="42.9838" lon="0.67034">
        <ele>600.19</ele>
        <time>2019-09-07T16:00:47Z</time>
      </trkpt>
      <trkpt lat="42.9838" lon="0.67034">
        <ele>600.19</ele>
        <time>2019-09-07T16:01:17Z</time>
      </trkpt>
      <trkpt lat="42.98384" lon="0.6703">
        <ele>600.19</ele>
        <time>2019-09-07T16:03:04Z</time>
      </trkpt>
      <trkpt lat="42.98384" lon="0.67031">
        <ele>600.19</ele>
        <time>2019-09-07T16:04:24Z</time>
      </trkpt>
      <trkpt lat="42.98383" lon="0.6703">
        <ele>600.19</ele>
        <time>2019-09-07T16:04:47Z</time>
      </trkpt>
      <trkpt lat="42.98387" lon="0.67037">
        <ele>600.19</ele>
        <time>2019-09-07T16:05:18Z</time>
      </trkpt>
      <trkpt lat="42.98386" lon="0.67035">
        <ele>600.19</ele>
        <time>2019-09-07T16:05:45Z</time>
      </trkpt>
      <trkpt lat="42.98385" lon="0.67033">
        <ele>600.19</ele>
        <time>2019-09-07T16:06:14Z</time>
      </trkpt>
      <trkpt lat="42.98385" lon="0.67031">
        <ele>600.19</ele>
        <time>2019-09-07T16:06:43Z</time>
      </trkpt>
      <trkpt lat="42.98384" lon="0.67029">
        <ele>600.19</ele>
        <time>2019-09-07T16:07:10Z</time>
      </trkpt>
      <trkpt lat="42.98383" lon="0.67028">
        <ele>600.19</ele>
        <time>2019-09-07T16:07:40Z</time>
      </trkpt>
      <trkpt lat="42.98385" lon="0.67027">
        <ele>600.19</ele>
        <time>2019-09-07T16:08:08Z</time>
      </trkpt>
      <trkpt lat="42.98385" lon="0.67028">
        <ele>600.19</ele>
        <time>2019-09-07T16:08:36Z</time>
      </trkpt>
      <trkpt lat="42.98383" lon="0.67029">
        <ele>600.19</ele>
        <time>2019-09-07T16:09:04Z</time>
      </trkpt>
      <trkpt lat="42.98385" lon="0.67036">
        <ele>600.19</ele>
        <time>2019-09-07T16:10:27Z</time>
      </trkpt>
      <trkpt lat="42.98385" lon="0.67031">
        <ele>597.88</ele>
        <time>2019-09-07T16:10:57Z</time>
      </trkpt>
      <trkpt lat="42.98383" lon="0.67029">
        <ele>597.74</ele>
        <time>2019-09-07T16:11:33Z</time>
      </trkpt>
      <trkpt lat="42.98383" lon="0.67027">
        <ele>597.64</ele>
        <time>2019-09-07T16:12:01Z</time>
      </trkpt>
      <trkpt lat="42.98383" lon="0.67028">
        <ele>597.64</ele>
        <time>2019-09-07T16:12:43Z</time>
      </trkpt>
      <trkpt lat="42.98388" lon="0.67035">
        <ele>597.64</ele>
        <time>2019-09-07T16:15:24Z</time>
      </trkpt>
      <trkpt lat="42.9839" lon="0.67034">
        <ele>597.64</ele>
        <time>2019-09-07T16:15:49Z</time>
      </trkpt>
      <trkpt lat="42.98383" lon="0.67034">
        <ele>597.64</ele>
        <time>2019-09-07T16:16:07Z</time>
      </trkpt>
      <trkpt lat="42.98383" lon="0.67033">
        <ele>597.48</ele>
        <time>2019-09-07T16:16:32Z</time>
      </trkpt>
      <trkpt lat="42.98384" lon="0.67036">
        <ele>597.52</ele>
        <time>2019-09-07T16:16:57Z</time>
      </trkpt>
      <trkpt lat="42.98383" lon="0.67038">
        <ele>597.55</ele>
        <time>2019-09-07T16:17:26Z</time>
      </trkpt>
      <trkpt lat="42.9838" lon="0.67034">
        <ele>597.57</ele>
        <time>2019-09-07T16:18:10Z</time>
      </trkpt>
      <trkpt lat="42.98373" lon="0.67036">
        <ele>597.64</ele>
        <time>2019-09-07T16:21:13Z</time>
      </trkpt>
      <trkpt lat="42.98379" lon="0.67043">
        <ele>597.64</ele>
        <time>2019-09-07T16:21:44Z</time>
      </trkpt>
      <trkpt lat="42.98384" lon="0.67039">
        <ele>597.64</ele>
        <time>2019-09-07T16:22:13Z</time>
      </trkpt>
      <trkpt lat="42.98386" lon="0.67029">
        <ele>597.64</ele>
        <time>2019-09-07T16:22:44Z</time>
      </trkpt>
      <trkpt lat="42.98386" lon="0.67028">
        <ele>597.64</ele>
        <time>2019-09-07T16:23:09Z</time>
      </trkpt>
      <trkpt lat="42.98384" lon="0.67028">
        <ele>597.64</ele>
        <time>2019-09-07T16:23:31Z</time>
      </trkpt>
      <trkpt lat="42.98385" lon="0.6703">
        <ele>597.64</ele>
        <time>2019-09-07T16:24:06Z</time>
      </trkpt>
      <trkpt lat="42.9839" lon="0.67028">
        <ele>597.64</ele>
        <time>2019-09-07T16:24:36Z</time>
      </trkpt>
      <trkpt lat="42.98389" lon="0.67025">
        <ele>597.64</ele>
        <time>2019-09-07T16:25:02Z</time>
      </trkpt>
      <trkpt lat="42.98389" lon="0.67025">
        <ele>597.64</ele>
        <time>2019-09-07T16:25:30Z</time>
      </trkpt>
      <trkpt lat="42.9839" lon="0.67021">
        <ele>597.22</ele>
        <time>2019-09-07T16:25:58Z</time>
      </trkpt>
      <trkpt lat="42.98393" lon="0.67018">
        <ele>597.11</ele>
        <time>2019-09-07T16:26:26Z</time>
      </trkpt>
      <trkpt lat="42.98394" lon="0.67018">
        <ele>596.9</ele>
        <time>2019-09-07T16:26:55Z</time>
      </trkpt>
      <trkpt lat="42.9839" lon="0.67031">
        <ele>596.9</ele>
        <time>2019-09-07T16:27:31Z</time>
      </trkpt>
      <trkpt lat="42.98388" lon="0.67024">
        <ele>596.9</ele>
        <time>2019-09-07T16:29:35Z</time>
      </trkpt>
      <trkpt lat="42.9839" lon="0.67026">
        <ele>596.9</ele>
        <time>2019-09-07T16:30:24Z</time>
      </trkpt>
      <trkpt lat="42.98393" lon="0.67031">
        <ele>596.4</ele>
        <time>2019-09-07T16:33:21Z</time>
      </trkpt>
      <trkpt lat="42.9838" lon="0.67026">
        <ele>596.14</ele>
        <time>2019-09-07T16:37:04Z</time>
      </trkpt>
      <trkpt lat="42.98379" lon="0.67031">
        <ele>596.08</ele>
        <time>2019-09-07T16:37:29Z</time>
      </trkpt>
      <trkpt lat="42.98381" lon="0.6703">
        <ele>596.08</ele>
        <time>2019-09-07T16:37:57Z</time>
      </trkpt>
      <trkpt lat="42.98384" lon="0.67027">
        <ele>596.08</ele>
        <time>2019-09-07T16:38:22Z</time>
      </trkpt>
      <trkpt lat="42.98386" lon="0.67023">
        <ele>596.08</ele>
        <time>2019-09-07T16:39:14Z</time>
      </trkpt>
      <trkpt lat="42.98388" lon="0.67022">
        <ele>596.08</ele>
        <time>2019-09-07T16:39:39Z</time>
      </trkpt>
      <trkpt lat="42.98389" lon="0.67018">
        <ele>596.08</ele>
        <time>2019-09-07T16:40:01Z</time>
      </trkpt>
      <trkpt lat="42.98387" lon="0.6702">
        <ele>596.08</ele>
        <time>2019-09-07T16:40:29Z</time>
      </trkpt>
      <trkpt lat="42.98384" lon="0.6703">
        <ele>596.08</ele>
        <time>2019-09-07T16:40:55Z</time>
      </trkpt>
      <trkpt lat="42.98385" lon="0.67037">
        <ele>596.08</ele>
        <time>2019-09-07T16:41:22Z</time>
      </trkpt>
      <trkpt lat="42.98385" lon="0.67028">
        <ele>596.08</ele>
        <time>2019-09-07T16:41:52Z</time>
      </trkpt>
      <trkpt lat="42.98387" lon="0.67025">
        <ele>596.08</ele>
        <time>2019-09-07T16:42:19Z</time>
      </trkpt>
      <trkpt lat="42.98388" lon="0.67025">
        <ele>596.08</ele>
        <time>2019-09-07T16:42:50Z</time>
      </trkpt>
      <trkpt lat="42.98387" lon="0.67028">
        <ele>596.06</ele>
        <time>2019-09-07T16:43:38Z</time>
      </trkpt>
      <trkpt lat="42.98383" lon="0.67025">
        <ele>596.15</ele>
        <time>2019-09-07T16:46:09Z</time>
      </trkpt>
      <trkpt lat="42.98381" lon="0.67028">
        <ele>596.15</ele>
        <time>2019-09-07T16:46:38Z</time>
      </trkpt>
      <trkpt lat="42.98383" lon="0.67028">
        <ele>596.15</ele>
        <time>2019-09-07T16:47:04Z</time>
      </trkpt>
      <trkpt lat="42.98384" lon="0.67031">
        <ele>596.15</ele>
        <time>2019-09-07T16:47:31Z</time>
      </trkpt>
      <trkpt lat="42.98385" lon="0.67031">
        <ele>596.15</ele>
        <time>2019-09-07T16:48:06Z</time>
      </trkpt>
      <trkpt lat="42.98384" lon="0.67036">
        <ele>595.97</ele>
        <time>2019-09-07T16:48:36Z</time>
      </trkpt>
      <trkpt lat="42.98388" lon="0.67035">
        <ele>595.58</ele>
        <time>2019-09-07T16:49:03Z</time>
      </trkpt>
      <trkpt lat="42.98391" lon="0.67037">
        <ele>595.46</ele>
        <time>2019-09-07T16:49:28Z</time>
      </trkpt>
      <trkpt lat="42.98388" lon="0.67036">
        <ele>595.41</ele>
        <time>2019-09-07T16:49:55Z</time>
      </trkpt>
      <trkpt lat="42.98387" lon="0.67034">
        <ele>595.41</ele>
        <time>2019-09-07T16:50:33Z</time>
      </trkpt>
      <trkpt lat="42.98381" lon="0.67038">
        <ele>595.41</ele>
        <time>2019-09-07T16:51:08Z</time>
      </trkpt>
      <trkpt lat="42.98383" lon="0.67033">
        <ele>595.41</ele>
        <time>2019-09-07T16:51:42Z</time>
      </trkpt>
      <trkpt lat="42.9839" lon="0.67032">
        <ele>595.41</ele>
        <time>2019-09-07T16:52:10Z</time>
      </trkpt>
      <trkpt lat="42.98391" lon="0.67032">
        <ele>595.41</ele>
        <time>2019-09-07T16:52:37Z</time>
      </trkpt>
      <trkpt lat="42.98392" lon="0.67032">
        <ele>595.41</ele>
        <time>2019-09-07T16:53:07Z</time>
      </trkpt>
      <trkpt lat="42.98392" lon="0.67034">
        <ele>595.41</ele>
        <time>2019-09-07T16:53:36Z</time>
      </trkpt>
      <trkpt lat="42.98389" lon="0.67034">
        <ele>595.41</ele>
        <time>2019-09-07T16:54:02Z</time>
      </trkpt>
      <trkpt lat="42.98389" lon="0.67033">
        <ele>595.41</ele>
        <time>2019-09-07T16:54:51Z</time>
      </trkpt>
      <trkpt lat="42.98379" lon="0.67027">
        <ele>593.84</ele>
        <time>2019-09-07T16:57:16Z</time>
      </trkpt>
      <trkpt lat="42.98394" lon="0.67024">
        <ele>593.68</ele>
        <time>2019-09-07T17:00:41Z</time>
      </trkpt>
      <trkpt lat="42.98388" lon="0.67027">
        <ele>593.71</ele>
        <time>2019-09-07T17:02:42Z</time>
      </trkpt>
      <trkpt lat="42.98388" lon="0.6703">
        <ele>593.71</ele>
        <time>2019-09-07T17:03:09Z</time>
      </trkpt>
      <trkpt lat="42.98389" lon="0.6703">
        <ele>593.71</ele>
        <time>2019-09-07T17:03:38Z</time>
      </trkpt>
      <trkpt lat="42.98383" lon="0.67027">
        <ele>593.71</ele>
        <time>2019-09-07T17:05:21Z</time>
      </trkpt>
      <trkpt lat="42.98383" lon="0.67025">
        <ele>593.71</ele>
        <time>2019-09-07T17:06:41Z</time>
      </trkpt>
      <trkpt lat="42.98386" lon="0.67027">
        <ele>593.71</ele>
        <time>2019-09-07T17:07:11Z</time>
      </trkpt>
      <trkpt lat="42.98388" lon="0.67029">
        <ele>593.71</ele>
        <time>2019-09-07T17:07:42Z</time>
      </trkpt>
      <trkpt lat="42.98385" lon="0.67029">
        <ele>593.71</ele>
        <time>2019-09-07T17:08:13Z</time>
      </trkpt>
      <trkpt lat="42.98384" lon="0.6703">
        <ele>593.71</ele>
        <time>2019-09-07T17:08:43Z</time>
      </trkpt>
      <trkpt lat="42.98383" lon="0.6703">
        <ele>593.71</ele>
        <time>2019-09-07T17:09:12Z</time>
      </trkpt>
      <trkpt lat="42.98383" lon="0.6703">
        <ele>593.71</ele>
        <time>2019-09-07T17:09:43Z</time>
      </trkpt>
      <trkpt lat="42.98385" lon="0.67033">
        <ele>593.71</ele>
        <time>2019-09-07T17:10:15Z</time>
      </trkpt>
      <trkpt lat="42.98386" lon="0.67031">
        <ele>593.71</ele>
        <time>2019-09-07T17:10:46Z</time>
      </trkpt>
      <trkpt lat="42.98387" lon="0.67033">
        <ele>593.71</ele>
        <time>2019-09-07T17:11:21Z</time>
      </trkpt>
      <trkpt lat="42.98387" lon="0.67031">
        <ele>593.71</ele>
        <time>2019-09-07T17:11:52Z</time>
      </trkpt>
      <trkpt lat="42.98386" lon="0.6703">
        <ele>593.71</ele>
        <time>2019-09-07T17:12:22Z</time>
      </trkpt>
      <trkpt lat="42.98385" lon="0.67027">
        <ele>593.71</ele>
        <time>2019-09-07T17:12:52Z</time>
      </trkpt>
      <trkpt lat="42.98386" lon="0.67029">
        <ele>593.71</ele>
        <time>2019-09-07T17:13:25Z</time>
      </trkpt>
      <trkpt lat="42.98386" lon="0.6703">
        <ele>593.71</ele>
        <time>2019-09-07T17:13:55Z</time>
      </trkpt>
      <trkpt lat="42.98386" lon="0.67028">
        <ele>593.71</ele>
        <time>2019-09-07T17:14:28Z</time>
      </trkpt>
      <trkpt lat="42.98387" lon="0.67029">
        <ele>593.71</ele>
        <time>2019-09-07T17:15:02Z</time>
      </trkpt>
      <trkpt lat="42.98387" lon="0.6703">
        <ele>593.71</ele>
        <time>2019-09-07T17:15:34Z</time>
      </trkpt>
      <trkpt lat="42.98388" lon="0.67031">
        <ele>593.71</ele>
        <time>2019-09-07T17:16:07Z</time>
      </trkpt>
      <trkpt lat="42.98387" lon="0.67031">
        <ele>593.71</ele>
        <time>2019-09-07T17:16:42Z</time>
      </trkpt>
      <trkpt lat="42.98389" lon="0.67031">
        <ele>593.71</ele>
        <time>2019-09-07T17:17:15Z</time>
      </trkpt>
      <trkpt lat="42.98391" lon="0.67029">
        <ele>593.71</ele>
        <time>2019-09-07T17:17:49Z</time>
      </trkpt>
      <trkpt lat="42.98386" lon="0.67027">
        <ele>593.71</ele>
        <time>2019-09-07T17:18:20Z</time>
      </trkpt>
      <trkpt lat="42.98387" lon="0.67028">
        <ele>593.71</ele>
        <time>2019-09-07T17:18:49Z</time>
      </trkpt>
      <trkpt lat="42.98389" lon="0.67034">
        <ele>593.71</ele>
        <time>2019-09-07T17:19:21Z</time>
      </trkpt>
      <trkpt lat="42.98389" lon="0.67034">
        <ele>593.71</ele>
        <time>2019-09-07T17:19:50Z</time>
      </trkpt>
      <trkpt lat="42.98395" lon="0.67045">
        <ele>593.71</ele>
        <time>2019-09-07T17:20:33Z</time>
      </trkpt>
      <trkpt lat="42.98392" lon="0.67039">
        <ele>593.71</ele>
        <time>2019-09-07T17:21:43Z</time>
      </trkpt>
      <trkpt lat="42.98391" lon="0.67035">
        <ele>593.71</ele>
        <time>2019-09-07T17:22:17Z</time>
      </trkpt>
      <trkpt lat="42.98382" lon="0.67027">
        <ele>593.71</ele>
        <time>2019-09-07T17:22:53Z</time>
      </trkpt>
      <trkpt lat="42.98383" lon="0.67026">
        <ele>593.71</ele>
        <time>2019-09-07T17:23:21Z</time>
      </trkpt>
      <trkpt lat="42.98387" lon="0.67026">
        <ele>593.67</ele>
        <time>2019-09-07T17:23:51Z</time>
      </trkpt>
      <trkpt lat="42.98389" lon="0.67026">
        <ele>593.7</ele>
        <time>2019-09-07T17:24:26Z</time>
      </trkpt>
      <trkpt lat="42.98389" lon="0.67024">
        <ele>593.73</ele>
        <time>2019-09-07T17:25:04Z</time>
      </trkpt>
      <trkpt lat="42.98388" lon="0.67025">
        <ele>593.73</ele>
        <time>2019-09-07T17:25:33Z</time>
      </trkpt>
      <trkpt lat="42.98389" lon="0.67027">
        <ele>593.73</ele>
        <time>2019-09-07T17:26:05Z</time>
      </trkpt>
      <trkpt lat="42.98391" lon="0.67027">
        <ele>593.73</ele>
        <time>2019-09-07T17:26:36Z</time>
      </trkpt>
      <trkpt lat="42.98389" lon="0.67031">
        <ele>593.73</ele>
        <time>2019-09-07T17:27:08Z</time>
      </trkpt>
      <trkpt lat="42.98387" lon="0.6703">
        <ele>593.73</ele>
        <time>2019-09-07T17:27:41Z</time>
      </trkpt>
      <trkpt lat="42.98386" lon="0.67032">
        <ele>593.73</ele>
        <time>2019-09-07T17:28:13Z</time>
      </trkpt>
      <trkpt lat="42.98387" lon="0.6703">
        <ele>593.73</ele>
        <time>2019-09-07T17:28:47Z</time>
      </trkpt>
      <trkpt lat="42.98387" lon="0.6703">
        <ele>593.73</ele>
        <time>2019-09-07T17:29:20Z</time>
      </trkpt>
      <trkpt lat="42.98388" lon="0.67025">
        <ele>593.73</ele>
        <time>2019-09-07T17:29:54Z</time>
      </trkpt>
      <trkpt lat="42.98388" lon="0.6703">
        <ele>593.73</ele>
        <time>2019-09-07T17:30:28Z</time>
      </trkpt>
      <trkpt lat="42.98389" lon="0.67029">
        <ele>593.73</ele>
        <time>2019-09-07T17:31:00Z</time>
      </trkpt>
      <trkpt lat="42.98391" lon="0.67028">
        <ele>593.73</ele>
        <time>2019-09-07T17:31:31Z</time>
      </trkpt>
      <trkpt lat="42.9839" lon="0.67026">
        <ele>593.73</ele>
        <time>2019-09-07T17:32:01Z</time>
      </trkpt>
      <trkpt lat="42.98389" lon="0.67028">
        <ele>593.73</ele>
        <time>2019-09-07T17:32:32Z</time>
      </trkpt>
      <trkpt lat="42.98386" lon="0.67031">
        <ele>593.73</ele>
        <time>2019-09-07T17:33:02Z</time>
      </trkpt>
      <trkpt lat="42.98386" lon="0.67033">
        <ele>593.73</ele>
        <time>2019-09-07T17:33:33Z</time>
      </trkpt>
      <trkpt lat="42.98383" lon="0.67037">
        <ele>593.73</ele>
        <time>2019-09-07T17:33:59Z</time>
      </trkpt>
      <trkpt lat="42.98382" lon="0.67039">
        <ele>593.73</ele>
        <time>2019-09-07T17:34:26Z</time>
      </trkpt>
      <trkpt lat="42.98384" lon="0.67035">
        <ele>593.73</ele>
        <time>2019-09-07T17:34:57Z</time>
      </trkpt>
      <trkpt lat="42.98386" lon="0.67036">
        <ele>593.73</ele>
        <time>2019-09-07T17:35:24Z</time>
      </trkpt>
      <trkpt lat="42.98386" lon="0.67036">
        <ele>593.73</ele>
        <time>2019-09-07T17:35:51Z</time>
      </trkpt>
      <trkpt lat="42.98388" lon="0.67034">
        <ele>593.73</ele>
        <time>2019-09-07T17:36:18Z</time>
      </trkpt>
      <trkpt lat="42.98387" lon="0.67033">
        <ele>593.73</ele>
        <time>2019-09-07T17:36:47Z</time>
      </trkpt>
      <trkpt lat="42.98386" lon="0.67031">
        <ele>593.73</ele>
        <time>2019-09-07T17:37:16Z</time>
      </trkpt>
      <trkpt lat="42.9838" lon="0.67027">
        <ele>593.73</ele>
        <time>2019-09-07T17:37:44Z</time>
      </trkpt>
      <trkpt lat="42.98377" lon="0.67029">
        <ele>593.73</ele>
        <time>2019-09-07T17:38:14Z</time>
      </trkpt>
      <trkpt lat="42.98379" lon="0.67029">
        <ele>593.73</ele>
        <time>2019-09-07T17:38:46Z</time>
      </trkpt>
      <trkpt lat="42.98382" lon="0.6703">
        <ele>593.73</ele>
        <time>2019-09-07T17:39:17Z</time>
      </trkpt>
      <trkpt lat="42.98381" lon="0.67029">
        <ele>593.73</ele>
        <time>2019-09-07T17:39:45Z</time>
      </trkpt>
      <trkpt lat="42.98381" lon="0.67028">
        <ele>593.73</ele>
        <time>2019-09-07T17:40:13Z</time>
      </trkpt>
      <trkpt lat="42.98381" lon="0.67027">
        <ele>593.73</ele>
        <time>2019-09-07T17:40:41Z</time>
      </trkpt>
      <trkpt lat="42.98381" lon="0.67028">
        <ele>593.73</ele>
        <time>2019-09-07T17:41:10Z</time>
      </trkpt>
      <trkpt lat="42.98383" lon="0.67029">
        <ele>593.73</ele>
        <time>2019-09-07T17:41:38Z</time>
      </trkpt>
      <trkpt lat="42.98386" lon="0.67029">
        <ele>593.73</ele>
        <time>2019-09-07T17:42:06Z</time>
      </trkpt>
      <trkpt lat="42.98385" lon="0.67028">
        <ele>593.73</ele>
        <time>2019-09-07T17:42:37Z</time>
      </trkpt>
      <trkpt lat="42.98383" lon="0.67029">
        <ele>593.73</ele>
        <time>2019-09-07T17:43:08Z</time>
      </trkpt>
      <trkpt lat="42.98382" lon="0.67028">
        <ele>593.73</ele>
        <time>2019-09-07T17:43:39Z</time>
      </trkpt>
      <trkpt lat="42.98386" lon="0.67027">
        <ele>593.73</ele>
        <time>2019-09-07T17:44:07Z</time>
      </trkpt>
      <trkpt lat="42.98387" lon="0.6703">
        <ele>593.73</ele>
        <time>2019-09-07T17:44:37Z</time>
      </trkpt>
      <trkpt lat="42.98385" lon="0.67031">
        <ele>593.73</ele>
        <time>2019-09-07T17:45:08Z</time>
      </trkpt>
      <trkpt lat="42.9839" lon="0.67036">
        <ele>593.73</ele>
        <time>2019-09-07T17:45:47Z</time>
      </trkpt>
      <trkpt lat="42.98389" lon="0.67031">
        <ele>593.73</ele>
        <time>2019-09-07T17:46:15Z</time>
      </trkpt>
      <trkpt lat="42.98391" lon="0.67033">
        <ele>593.73</ele>
        <time>2019-09-07T17:46:42Z</time>
      </trkpt>
      <trkpt lat="42.98391" lon="0.67039">
        <ele>593.73</ele>
        <time>2019-09-07T17:47:09Z</time>
      </trkpt>
      <trkpt lat="42.9839" lon="0.6704">
        <ele>593.73</ele>
        <time>2019-09-07T17:47:38Z</time>
      </trkpt>
      <trkpt lat="42.98387" lon="0.67037">
        <ele>593.73</ele>
        <time>2019-09-07T17:48:10Z</time>
      </trkpt>
      <trkpt lat="42.98385" lon="0.67035">
        <ele>593.73</ele>
        <time>2019-09-07T17:48:42Z</time>
      </trkpt>
      <trkpt lat="42.98384" lon="0.67034">
        <ele>593.73</ele>
        <time>2019-09-07T17:49:14Z</time>
      </trkpt>
      <trkpt lat="42.98383" lon="0.67034">
        <ele>593.73</ele>
        <time>2019-09-07T17:49:41Z</time>
      </trkpt>
      <trkpt lat="42.98384" lon="0.67032">
        <ele>593.73</ele>
        <time>2019-09-07T17:50:07Z</time>
      </trkpt>
      <trkpt lat="42.98387" lon="0.67035">
        <ele>592.65</ele>
        <time>2019-09-07T17:50:36Z</time>
      </trkpt>
      <trkpt lat="42.98385" lon="0.67034">
        <ele>592.71</ele>
        <time>2019-09-07T17:51:04Z</time>
      </trkpt>
      <trkpt lat="42.98385" lon="0.67032">
        <ele>592.95</ele>
        <time>2019-09-07T17:51:36Z</time>
      </trkpt>
      <trkpt lat="42.98384" lon="0.67031">
        <ele>592.9</ele>
        <time>2019-09-07T17:52:01Z</time>
      </trkpt>
      <trkpt lat="42.98386" lon="0.67032">
        <ele>592.9</ele>
        <time>2019-09-07T17:52:34Z</time>
      </trkpt>
      <trkpt lat="42.98389" lon="0.67034">
        <ele>592.9</ele>
        <time>2019-09-07T17:53:04Z</time>
      </trkpt>
      <trkpt lat="42.98393" lon="0.67035">
        <ele>592.9</ele>
        <time>2019-09-07T17:53:35Z</time>
      </trkpt>
      <trkpt lat="42.98393" lon="0.67036">
        <ele>592.9</ele>
        <time>2019-09-07T17:54:03Z</time>
      </trkpt>
      <trkpt lat="42.98394" lon="0.67041">
        <ele>592.9</ele>
        <time>2019-09-07T17:54:32Z</time>
      </trkpt>
      <trkpt lat="42.98388" lon="0.67036">
        <ele>592.9</ele>
        <time>2019-09-07T17:55:00Z</time>
      </trkpt>
      <trkpt lat="42.98379" lon="0.67031">
        <ele>592.9</ele>
        <time>2019-09-07T17:55:24Z</time>
      </trkpt>
      <trkpt lat="42.9838" lon="0.67031">
        <ele>592.9</ele>
        <time>2019-09-07T17:55:47Z</time>
      </trkpt>
      <trkpt lat="42.98384" lon="0.67029">
        <ele>592.9</ele>
        <time>2019-09-07T17:56:13Z</time>
      </trkpt>
      <trkpt lat="42.98387" lon="0.6703">
        <ele>592.9</ele>
        <time>2019-09-07T17:56:45Z</time>
      </trkpt>
      <trkpt lat="42.98387" lon="0.67027">
        <ele>592.9</ele>
        <time>2019-09-07T17:57:14Z</time>
      </trkpt>
      <trkpt lat="42.9839" lon="0.67027">
        <ele>592.9</ele>
        <time>2019-09-07T17:57:41Z</time>
      </trkpt>
      <trkpt lat="42.98388" lon="0.67028">
        <ele>592.9</ele>
        <time>2019-09-07T17:58:11Z</time>
      </trkpt>
      <trkpt lat="42.98389" lon="0.67026">
        <ele>592.9</ele>
        <time>2019-09-07T17:58:40Z</time>
      </trkpt>
      <trkpt lat="42.98387" lon="0.67027">
        <ele>592.9</ele>
        <time>2019-09-07T17:59:11Z</time>
      </trkpt>
      <trkpt lat="42.98386" lon="0.67031">
        <ele>592.9</ele>
        <time>2019-09-07T17:59:39Z</time>
      </trkpt>
      <trkpt lat="42.98394" lon="0.67041">
        <ele>592.9</ele>
        <time>2019-09-07T18:00:08Z</time>
      </trkpt>
      <trkpt lat="42.98393" lon="0.67037">
        <ele>592.9</ele>
        <time>2019-09-07T18:00:35Z</time>
      </trkpt>
      <trkpt lat="42.9839" lon="0.67032">
        <ele>592.9</ele>
        <time>2019-09-07T18:01:05Z</time>
      </trkpt>
      <trkpt lat="42.98388" lon="0.67031">
        <ele>592.9</ele>
        <time>2019-09-07T18:01:33Z</time>
      </trkpt>
      <trkpt lat="42.98387" lon="0.67029">
        <ele>592.9</ele>
        <time>2019-09-07T18:02:00Z</time>
      </trkpt>
      <trkpt lat="42.98389" lon="0.67031">
        <ele>592.9</ele>
        <time>2019-09-07T18:02:29Z</time>
      </trkpt>
      <trkpt lat="42.9839" lon="0.67033">
        <ele>592.9</ele>
        <time>2019-09-07T18:03:02Z</time>
      </trkpt>
      <trkpt lat="42.98389" lon="0.67032">
        <ele>592.9</ele>
        <time>2019-09-07T18:03:33Z</time>
      </trkpt>
      <trkpt lat="42.98388" lon="0.67031">
        <ele>592.9</ele>
        <time>2019-09-07T18:04:02Z</time>
      </trkpt>
      <trkpt lat="42.98386" lon="0.6703">
        <ele>592.9</ele>
        <time>2019-09-07T18:04:31Z</time>
      </trkpt>
      <trkpt lat="42.98386" lon="0.6703">
        <ele>592.9</ele>
        <time>2019-09-07T18:04:58Z</time>
      </trkpt>
      <trkpt lat="42.98385" lon="0.67031">
        <ele>592.9</ele>
        <time>2019-09-07T18:05:27Z</time>
      </trkpt>
      <trkpt lat="42.98381" lon="0.67028">
        <ele>592.9</ele>
        <time>2019-09-07T18:05:58Z</time>
      </trkpt>
      <trkpt lat="42.9838" lon="0.67026">
        <ele>592.9</ele>
        <time>2019-09-07T18:06:30Z</time>
      </trkpt>
      <trkpt lat="42.98384" lon="0.67031">
        <ele>592.9</ele>
        <time>2019-09-07T18:07:01Z</time>
      </trkpt>
      <trkpt lat="42.98384" lon="0.67032">
        <ele>592.9</ele>
        <time>2019-09-07T18:07:31Z</time>
      </trkpt>
      <trkpt lat="42.98384" lon="0.6703">
        <ele>592.9</ele>
        <time>2019-09-07T18:08:00Z</time>
      </trkpt>
      <trkpt lat="42.98384" lon="0.67029">
        <ele>592.9</ele>
        <time>2019-09-07T18:08:28Z</time>
      </trkpt>
      <trkpt lat="42.98384" lon="0.67029">
        <ele>592.9</ele>
        <time>2019-09-07T18:08:56Z</time>
      </trkpt>
      <trkpt lat="42.98384" lon="0.67027">
        <ele>592.9</ele>
        <time>2019-09-07T18:09:27Z</time>
      </trkpt>
      <trkpt lat="42.98386" lon="0.67029">
        <ele>597.9</ele>
        <time>2019-09-07T18:09:34Z</time>
      </trkpt>
      <trkpt lat="42.98386" lon="0.67029">
        <ele>598.58</ele>
        <time>2019-09-07T18:09:36Z</time>
      </trkpt>
      <trkpt lat="42.98386" lon="0.67032">
        <ele>598.91</ele>
        <time>2019-09-07T18:10:09Z</time>
      </trkpt>
      <trkpt lat="42.98386" lon="0.67031">
        <ele>598.96</ele>
        <time>2019-09-07T18:10:21Z</time>
      </trkpt>
      <trkpt lat="42.98386" lon="0.67031">
        <ele>606.73</ele>
        <time>2019-09-07T18:10:34Z</time>
      </trkpt>
      <trkpt lat="42.98386" lon="0.67031">
        <ele>602.87</ele>
        <time>2019-09-07T18:10:35Z</time>
      </trkpt>
      <trkpt lat="42.98386" lon="0.67031">
        <ele>599.43</ele>
        <time>2019-09-07T18:10:38Z</time>
      </trkpt>
      <trkpt lat="42.98386" lon="0.67032">
        <ele>599.17</ele>
        <time>2019-09-07T18:10:39Z</time>
      </trkpt>
      <trkpt lat="42.98387" lon="0.67033">
        <ele>598.91</ele>
        <time>2019-09-07T18:11:08Z</time>
      </trkpt>
      <trkpt lat="42.98386" lon="0.67032">
        <ele>598.89</ele>
        <time>2019-09-07T18:11:51Z</time>
      </trkpt>
      <trkpt lat="42.98385" lon="0.6703">
        <ele>598.89</ele>
        <time>2019-09-07T18:12:23Z</time>
      </trkpt>
      <trkpt lat="42.98385" lon="0.67029">
        <ele>598.89</ele>
        <time>2019-09-07T18:12:55Z</time>
      </trkpt>
      <trkpt lat="42.98386" lon="0.67029">
        <ele>598.89</ele>
        <time>2019-09-07T18:13:25Z</time>
      </trkpt>
      <trkpt lat="42.98387" lon="0.67028">
        <ele>598.89</ele>
        <time>2019-09-07T18:13:54Z</time>
      </trkpt>
      <trkpt lat="42.98387" lon="0.67027">
        <ele>598.89</ele>
        <time>2019-09-07T18:14:37Z</time>
      </trkpt>
      <trkpt lat="42.98387" lon="0.67029">
        <ele>598.89</ele>
        <time>2019-09-07T18:16:02Z</time>
      </trkpt>
      <trkpt lat="42.98386" lon="0.67029">
        <ele>598.89</ele>
        <time>2019-09-07T18:17:31Z</time>
      </trkpt>
      <trkpt lat="42.98385" lon="0.67027">
        <ele>598.89</ele>
        <time>2019-09-07T18:18:01Z</time>
      </trkpt>
      <trkpt lat="42.98388" lon="0.67031">
        <ele>598.89</ele>
        <time>2019-09-07T18:19:47Z</time>
      </trkpt>
      <trkpt lat="42.98386" lon="0.6703">
        <ele>598.89</ele>
        <time>2019-09-07T18:20:26Z</time>
      </trkpt>
      <trkpt lat="42.98383" lon="0.67029">
        <ele>598.89</ele>
        <time>2019-09-07T18:20:54Z</time>
      </trkpt>
      <trkpt lat="42.98385" lon="0.67026">
        <ele>598.89</ele>
        <time>2019-09-07T18:21:36Z</time>
      </trkpt>
      <trkpt lat="42.98388" lon="0.67034">
        <ele>598.89</ele>
        <time>2019-09-07T18:22:10Z</time>
      </trkpt>
      <trkpt lat="42.98387" lon="0.67032">
        <ele>598.89</ele>
        <time>2019-09-07T18:22:40Z</time>
      </trkpt>
      <trkpt lat="42.98387" lon="0.67032">
        <ele>598.89</ele>
        <time>2019-09-07T18:23:08Z</time>
      </trkpt>
      <trkpt lat="42.98387" lon="0.67031">
        <ele>598.89</ele>
        <time>2019-09-07T18:23:35Z</time>
      </trkpt>
      <trkpt lat="42.98388" lon="0.67034">
        <ele>598.89</ele>
        <time>2019-09-07T18:24:04Z</time>
      </trkpt>
      <trkpt lat="42.98386" lon="0.6703">
        <ele>598.89</ele>
        <time>2019-09-07T18:24:35Z</time>
      </trkpt>
      <trkpt lat="42.98387" lon="0.6703">
        <ele>598.89</ele>
        <time>2019-09-07T18:25:05Z</time>
      </trkpt>
      <trkpt lat="42.98388" lon="0.67032">
        <ele>598.89</ele>
        <time>2019-09-07T18:25:34Z</time>
      </trkpt>
      <trkpt lat="42.9839" lon="0.67037">
        <ele>598.89</ele>
        <time>2019-09-07T18:26:04Z</time>
      </trkpt>
      <trkpt lat="42.98387" lon="0.67032">
        <ele>598.89</ele>
        <time>2019-09-07T18:26:34Z</time>
      </trkpt>
      <trkpt lat="42.98386" lon="0.67028">
        <ele>598.89</ele>
        <time>2019-09-07T18:27:00Z</time>
      </trkpt>
      <trkpt lat="42.98386" lon="0.6703">
        <ele>598.89</ele>
        <time>2019-09-07T18:27:31Z</time>
      </trkpt>
      <trkpt lat="42.98384" lon="0.67026">
        <ele>598.89</ele>
        <time>2019-09-07T18:28:00Z</time>
      </trkpt>
      <trkpt lat="42.98384" lon="0.67028">
        <ele>598.89</ele>
        <time>2019-09-07T18:28:29Z</time>
      </trkpt>
      <trkpt lat="42.98383" lon="0.67027">
        <ele>598.89</ele>
        <time>2019-09-07T18:28:57Z</time>
      </trkpt>
      <trkpt lat="42.98384" lon="0.67029">
        <ele>598.89</ele>
        <time>2019-09-07T18:29:24Z</time>
      </trkpt>
      <trkpt lat="42.98383" lon="0.67025">
        <ele>598.89</ele>
        <time>2019-09-07T18:29:52Z</time>
      </trkpt>
      <trkpt lat="42.98386" lon="0.67026">
        <ele>598.89</ele>
        <time>2019-09-07T18:30:23Z</time>
      </trkpt>
      <trkpt lat="42.98384" lon="0.67023">
        <ele>598.89</ele>
        <time>2019-09-07T18:30:55Z</time>
      </trkpt>
      <trkpt lat="42.98379" lon="0.67014">
        <ele>598.89</ele>
        <time>2019-09-07T18:31:23Z</time>
      </trkpt>
      <trkpt lat="42.98377" lon="0.67012">
        <ele>598.89</ele>
        <time>2019-09-07T18:31:51Z</time>
      </trkpt>
      <trkpt lat="42.98378" lon="0.6701">
        <ele>598.89</ele>
        <time>2019-09-07T18:32:18Z</time>
      </trkpt>
      <trkpt lat="42.98381" lon="0.67017">
        <ele>598.89</ele>
        <time>2019-09-07T18:32:51Z</time>
      </trkpt>
      <trkpt lat="42.98377" lon="0.67021">
        <ele>598.89</ele>
        <time>2019-09-07T18:33:20Z</time>
      </trkpt>
      <trkpt lat="42.98378" lon="0.67021">
        <ele>598.89</ele>
        <time>2019-09-07T18:33:50Z</time>
      </trkpt>
      <trkpt lat="42.98381" lon="0.67024">
        <ele>598.89</ele>
        <time>2019-09-07T18:34:19Z</time>
      </trkpt>
      <trkpt lat="42.98383" lon="0.67025">
        <ele>598.89</ele>
        <time>2019-09-07T18:34:47Z</time>
      </trkpt>
      <trkpt lat="42.98383" lon="0.67024">
        <ele>598.89</ele>
        <time>2019-09-07T18:35:17Z</time>
      </trkpt>
      <trkpt lat="42.98383" lon="0.67029">
        <ele>601.68</ele>
        <time>2019-09-07T18:35:28Z</time>
      </trkpt>
      <trkpt lat="42.98383" lon="0.67031">
        <ele>601.83</ele>
        <time>2019-09-07T18:35:56Z</time>
      </trkpt>
      <trkpt lat="42.98387" lon="0.67036">
        <ele>601.85</ele>
        <time>2019-09-07T18:36:23Z</time>
      </trkpt>
      <trkpt lat="42.98387" lon="0.67036">
        <ele>605.85</ele>
        <time>2019-09-07T18:36:24Z</time>
      </trkpt>
      <trkpt lat="42.98388" lon="0.67037">
        <ele>603.88</ele>
        <time>2019-09-07T18:36:25Z</time>
      </trkpt>
      <trkpt lat="42.98388" lon="0.67038">
        <ele>602.1</ele>
        <time>2019-09-07T18:36:28Z</time>
      </trkpt>
      <trkpt lat="42.98387" lon="0.67033">
        <ele>601.85</ele>
        <time>2019-09-07T18:36:56Z</time>
      </trkpt>
      <trkpt lat="42.98387" lon="0.67023">
        <ele>601.85</ele>
        <time>2019-09-07T18:37:21Z</time>
      </trkpt>
      <trkpt lat="42.98387" lon="0.67018">
        <ele>601.85</ele>
        <time>2019-09-07T18:37:47Z</time>
      </trkpt>
      <trkpt lat="42.98385" lon="0.67021">
        <ele>601.85</ele>
        <time>2019-09-07T18:38:14Z</time>
      </trkpt>
      <trkpt lat="42.98385" lon="0.6702">
        <ele>601.85</ele>
        <time>2019-09-07T18:38:43Z</time>
      </trkpt>
      <trkpt lat="42.98384" lon="0.67022">
        <ele>601.85</ele>
        <time>2019-09-07T18:39:13Z</time>
      </trkpt>
      <trkpt lat="42.98382" lon="0.67019">
        <ele>601.85</ele>
        <time>2019-09-07T18:39:41Z</time>
      </trkpt>
      <trkpt lat="42.98383" lon="0.67023">
        <ele>601.85</ele>
        <time>2019-09-07T18:40:07Z</time>
      </trkpt>
      <trkpt lat="42.98385" lon="0.67023">
        <ele>601.85</ele>
        <time>2019-09-07T18:40:30Z</time>
      </trkpt>
      <trkpt lat="42.98387" lon="0.67027">
        <ele>601.85</ele>
        <time>2019-09-07T18:40:56Z</time>
      </trkpt>
      <trkpt lat="42.98387" lon="0.67025">
        <ele>601.85</ele>
        <time>2019-09-07T18:41:21Z</time>
      </trkpt>
      <trkpt lat="42.98384" lon="0.67025">
        <ele>601.85</ele>
        <time>2019-09-07T18:41:48Z</time>
      </trkpt>
      <trkpt lat="42.9839" lon="0.67025">
        <ele>601.85</ele>
        <time>2019-09-07T18:42:11Z</time>
      </trkpt>
      <trkpt lat="42.98386" lon="0.67023">
        <ele>601.85</ele>
        <time>2019-09-07T18:42:37Z</time>
      </trkpt>
      <trkpt lat="42.98384" lon="0.67026">
        <ele>601.85</ele>
        <time>2019-09-07T18:43:02Z</time>
      </trkpt>
      <trkpt lat="42.98388" lon="0.67034">
        <ele>601.85</ele>
        <time>2019-09-07T18:43:30Z</time>
      </trkpt>
      <trkpt lat="42.98387" lon="0.67034">
        <ele>601.85</ele>
        <time>2019-09-07T18:43:52Z</time>
      </trkpt>
      <trkpt lat="42.98387" lon="0.67034">
        <ele>601.85</ele>
        <time>2019-09-07T18:44:20Z</time>
      </trkpt>
      <trkpt lat="42.98385" lon="0.67033">
        <ele>601.85</ele>
        <time>2019-09-07T18:44:46Z</time>
      </trkpt>
      <trkpt lat="42.98385" lon="0.67032">
        <ele>601.85</ele>
        <time>2019-09-07T18:45:10Z</time>
      </trkpt>
      <trkpt lat="42.98384" lon="0.67028">
        <ele>601.85</ele>
        <time>2019-09-07T18:45:36Z</time>
      </trkpt>
      <trkpt lat="42.98386" lon="0.67028">
        <ele>601.85</ele>
        <time>2019-09-07T18:46:02Z</time>
      </trkpt>
      <trkpt lat="42.98388" lon="0.67034">
        <ele>601.85</ele>
        <time>2019-09-07T18:46:33Z</time>
      </trkpt>
      <trkpt lat="42.98389" lon="0.67033">
        <ele>601.85</ele>
        <time>2019-09-07T18:46:57Z</time>
      </trkpt>
      <trkpt lat="42.98389" lon="0.67031">
        <ele>601.85</ele>
        <time>2019-09-07T18:47:24Z</time>
      </trkpt>
      <trkpt lat="42.98389" lon="0.67033">
        <ele>601.85</ele>
        <time>2019-09-07T18:47:54Z</time>
      </trkpt>
      <trkpt lat="42.98388" lon="0.67032">
        <ele>601.85</ele>
        <time>2019-09-07T18:48:24Z</time>
      </trkpt>
      <trkpt lat="42.98389" lon="0.67031">
        <ele>601.85</ele>
        <time>2019-09-07T18:48:57Z</time>
      </trkpt>
      <trkpt lat="42.98392" lon="0.67032">
        <ele>601.85</ele>
        <time>2019-09-07T18:49:25Z</time>
      </trkpt>
      <trkpt lat="42.98392" lon="0.67031">
        <ele>601.85</ele>
        <time>2019-09-07T18:49:59Z</time>
      </trkpt>
      <trkpt lat="42.98392" lon="0.67028">
        <ele>601.85</ele>
        <time>2019-09-07T18:50:31Z</time>
      </trkpt>
      <trkpt lat="42.98393" lon="0.67031">
        <ele>601.85</ele>
        <time>2019-09-07T18:50:58Z</time>
      </trkpt>
      <trkpt lat="42.98391" lon="0.67031">
        <ele>601.85</ele>
        <time>2019-09-07T18:51:25Z</time>
      </trkpt>
      <trkpt lat="42.98391" lon="0.67032">
        <ele>601.85</ele>
        <time>2019-09-07T18:51:56Z</time>
      </trkpt>
      <trkpt lat="42.98389" lon="0.67033">
        <ele>600.38</ele>
        <time>2019-09-07T18:52:29Z</time>
      </trkpt>
      <trkpt lat="42.98391" lon="0.67028">
        <ele>600.25</ele>
        <time>2019-09-07T18:53:01Z</time>
      </trkpt>
      <trkpt lat="42.9839" lon="0.67027">
        <ele>600.15</ele>
        <time>2019-09-07T18:53:40Z</time>
      </trkpt>
      <trkpt lat="42.98391" lon="0.67024">
        <ele>600.15</ele>
        <time>2019-09-07T18:54:09Z</time>
      </trkpt>
      <trkpt lat="42.98392" lon="0.67025">
        <ele>600.15</ele>
        <time>2019-09-07T18:54:40Z</time>
      </trkpt>
      <trkpt lat="42.98393" lon="0.67037">
        <ele>600.15</ele>
        <time>2019-09-07T18:55:07Z</time>
      </trkpt>
      <trkpt lat="42.98393" lon="0.6704">
        <ele>600.15</ele>
        <time>2019-09-07T18:55:34Z</time>
      </trkpt>
      <trkpt lat="42.9839" lon="0.67035">
        <ele>600.15</ele>
        <time>2019-09-07T18:56:05Z</time>
      </trkpt>
      <trkpt lat="42.98387" lon="0.67027">
        <ele>600.15</ele>
        <time>2019-09-07T18:56:31Z</time>
      </trkpt>
      <trkpt lat="42.98389" lon="0.67026">
        <ele>600.15</ele>
        <time>2019-09-07T18:57:00Z</time>
      </trkpt>
      <trkpt lat="42.9839" lon="0.67031">
        <ele>599.52</ele>
        <time>2019-09-07T18:57:28Z</time>
      </trkpt>
      <trkpt lat="42.98392" lon="0.67035">
        <ele>599.47</ele>
        <time>2019-09-07T18:57:59Z</time>
      </trkpt>
      <trkpt lat="42.98393" lon="0.67031">
        <ele>599.37</ele>
        <time>2019-09-07T18:58:29Z</time>
      </trkpt>
      <trkpt lat="42.98389" lon="0.67025">
        <ele>599.37</ele>
        <time>2019-09-07T18:59:02Z</time>
      </trkpt>
      <trkpt lat="42.98384" lon="0.67028">
        <ele>599.37</ele>
        <time>2019-09-07T19:00:59Z</time>
      </trkpt>
      <trkpt lat="42.98385" lon="0.67028">
        <ele>599.37</ele>
        <time>2019-09-07T19:02:17Z</time>
      </trkpt>
      <trkpt lat="42.98387" lon="0.67027">
        <ele>599.37</ele>
        <time>2019-09-07T19:02:42Z</time>
      </trkpt>
      <trkpt lat="42.98383" lon="0.67029">
        <ele>599.37</ele>
        <time>2019-09-07T19:03:10Z</time>
      </trkpt>
      <trkpt lat="42.98383" lon="0.67028">
        <ele>599.37</ele>
        <time>2019-09-07T19:03:34Z</time>
      </trkpt>
      <trkpt lat="42.98383" lon="0.67028">
        <ele>599.37</ele>
        <time>2019-09-07T19:04:03Z</time>
      </trkpt>
      <trkpt lat="42.98384" lon="0.67029">
        <ele>599.37</ele>
        <time>2019-09-07T19:04:27Z</time>
      </trkpt>
      <trkpt lat="42.98386" lon="0.6703">
        <ele>599.37</ele>
        <time>2019-09-07T19:04:52Z</time>
      </trkpt>
      <trkpt lat="42.98387" lon="0.67029">
        <ele>599.37</ele>
        <time>2019-09-07T19:05:21Z</time>
      </trkpt>
      <trkpt lat="42.98388" lon="0.67027">
        <ele>599.37</ele>
        <time>2019-09-07T19:05:47Z</time>
      </trkpt>
      <trkpt lat="42.98387" lon="0.67026">
        <ele>599.37</ele>
        <time>2019-09-07T19:06:18Z</time>
      </trkpt>
      <trkpt lat="42.98388" lon="0.67031">
        <ele>599.37</ele>
        <time>2019-09-07T19:06:48Z</time>
      </trkpt>
      <trkpt lat="42.98387" lon="0.67035">
        <ele>599.37</ele>
        <time>2019-09-07T19:07:14Z</time>
      </trkpt>
      <trkpt lat="42.98387" lon="0.67031">
        <ele>599.37</ele>
        <time>2019-09-07T19:07:39Z</time>
      </trkpt>
      <trkpt lat="42.98384" lon="0.67028">
        <ele>599.37</ele>
        <time>2019-09-07T19:08:10Z</time>
      </trkpt>
      <trkpt lat="42.98388" lon="0.67031">
        <ele>599.37</ele>
        <time>2019-09-07T19:08:48Z</time>
      </trkpt>
      <trkpt lat="42.98388" lon="0.67031">
        <ele>599.37</ele>
        <time>2019-09-07T19:09:19Z</time>
      </trkpt>
      <trkpt lat="42.98389" lon="0.67035">
        <ele>599.37</ele>
        <time>2019-09-07T19:09:46Z</time>
      </trkpt>
      <trkpt lat="42.98391" lon="0.67035">
        <ele>599.37</ele>
        <time>2019-09-07T19:10:10Z</time>
      </trkpt>
      <trkpt lat="42.98394" lon="0.67039">
        <ele>599.37</ele>
        <time>2019-09-07T19:10:39Z</time>
      </trkpt>
      <trkpt lat="42.98388" lon="0.67033">
        <ele>599.37</ele>
        <time>2019-09-07T19:11:05Z</time>
      </trkpt>
      <trkpt lat="42.9839" lon="0.67036">
        <ele>599.37</ele>
        <time>2019-09-07T19:11:34Z</time>
      </trkpt>
      <trkpt lat="42.98387" lon="0.67036">
        <ele>599.37</ele>
        <time>2019-09-07T19:12:05Z</time>
      </trkpt>
      <trkpt lat="42.98386" lon="0.67031">
        <ele>599.37</ele>
        <time>2019-09-07T19:12:35Z</time>
      </trkpt>
      <trkpt lat="42.98387" lon="0.67029">
        <ele>599.37</ele>
        <time>2019-09-07T19:13:05Z</time>
      </trkpt>
      <trkpt lat="42.98387" lon="0.67026">
        <ele>599.37</ele>
        <time>2019-09-07T19:13:36Z</time>
      </trkpt>
      <trkpt lat="42.98387" lon="0.67022">
        <ele>599.37</ele>
        <time>2019-09-07T19:14:07Z</time>
      </trkpt>
      <trkpt lat="42.9839" lon="0.67024">
        <ele>599.37</ele>
        <time>2019-09-07T19:15:18Z</time>
      </trkpt>
      <trkpt lat="42.98388" lon="0.67022">
        <ele>599.37</ele>
        <time>2019-09-07T19:15:48Z</time>
      </trkpt>
      <trkpt lat="42.98392" lon="0.67023">
        <ele>599.37</ele>
        <time>2019-09-07T19:16:17Z</time>
      </trkpt>
      <trkpt lat="42.98393" lon="0.67025">
        <ele>599.37</ele>
        <time>2019-09-07T19:16:44Z</time>
      </trkpt>
      <trkpt lat="42.98392" lon="0.67027">
        <ele>599.37</ele>
        <time>2019-09-07T19:17:12Z</time>
      </trkpt>
      <trkpt lat="42.98389" lon="0.6703">
        <ele>599.37</ele>
        <time>2019-09-07T19:17:41Z</time>
      </trkpt>
      <trkpt lat="42.98386" lon="0.67028">
        <ele>599.37</ele>
        <time>2019-09-07T19:18:11Z</time>
      </trkpt>
      <trkpt lat="42.98384" lon="0.67029">
        <ele>599.37</ele>
        <time>2019-09-07T19:18:45Z</time>
      </trkpt>
      <trkpt lat="42.98385" lon="0.6703">
        <ele>599.37</ele>
        <time>2019-09-07T19:19:18Z</time>
      </trkpt>
      <trkpt lat="42.98385" lon="0.67028">
        <ele>599.37</ele>
        <time>2019-09-07T19:19:51Z</time>
      </trkpt>
      <trkpt lat="42.98384" lon="0.67026">
        <ele>599.37</ele>
        <time>2019-09-07T19:20:24Z</time>
      </trkpt>
      <trkpt lat="42.98386" lon="0.67026">
        <ele>599.37</ele>
        <time>2019-09-07T19:20:49Z</time>
      </trkpt>
      <trkpt lat="42.98385" lon="0.67027">
        <ele>599.37</ele>
        <time>2019-09-07T19:21:15Z</time>
      </trkpt>
      <trkpt lat="42.98388" lon="0.67026">
        <ele>599.37</ele>
        <time>2019-09-07T19:21:46Z</time>
      </trkpt>
      <trkpt lat="42.98388" lon="0.67027">
        <ele>599.37</ele>
        <time>2019-09-07T19:22:13Z</time>
      </trkpt>
      <trkpt lat="42.9839" lon="0.67028">
        <ele>599.37</ele>
        <time>2019-09-07T19:22:43Z</time>
      </trkpt>
      <trkpt lat="42.98388" lon="0.67025">
        <ele>599.37</ele>
        <time>2019-09-07T19:23:14Z</time>
      </trkpt>
      <trkpt lat="42.98386" lon="0.67024">
        <ele>599.37</ele>
        <time>2019-09-07T19:23:45Z</time>
      </trkpt>
      <trkpt lat="42.98392" lon="0.67029">
        <ele>599.74</ele>
        <time>2019-09-07T19:24:13Z</time>
      </trkpt>
      <trkpt lat="42.98389" lon="0.67024">
        <ele>599.74</ele>
        <time>2019-09-07T19:24:46Z</time>
      </trkpt>
      <trkpt lat="42.98389" lon="0.67023">
        <ele>599.78</ele>
        <time>2019-09-07T19:25:16Z</time>
      </trkpt>
      <trkpt lat="42.98387" lon="0.67024">
        <ele>599.78</ele>
        <time>2019-09-07T19:25:46Z</time>
      </trkpt>
      <trkpt lat="42.98386" lon="0.67025">
        <ele>599.78</ele>
        <time>2019-09-07T19:26:16Z</time>
      </trkpt>
      <trkpt lat="42.98385" lon="0.67029">
        <ele>599.78</ele>
        <time>2019-09-07T19:26:48Z</time>
      </trkpt>
      <trkpt lat="42.98386" lon="0.6703">
        <ele>599.78</ele>
        <time>2019-09-07T19:27:19Z</time>
      </trkpt>
      <trkpt lat="42.98388" lon="0.67029">
        <ele>599.78</ele>
        <time>2019-09-07T19:27:51Z</time>
      </trkpt>
      <trkpt lat="42.98385" lon="0.67031">
        <ele>599.78</ele>
        <time>2019-09-07T19:28:20Z</time>
      </trkpt>
      <trkpt lat="42.98384" lon="0.6703">
        <ele>599.78</ele>
        <time>2019-09-07T19:28:49Z</time>
      </trkpt>
      <trkpt lat="42.98381" lon="0.67028">
        <ele>599.78</ele>
        <time>2019-09-07T19:29:17Z</time>
      </trkpt>
      <trkpt lat="42.98384" lon="0.67029">
        <ele>599.78</ele>
        <time>2019-09-07T19:29:46Z</time>
      </trkpt>
      <trkpt lat="42.98384" lon="0.67031">
        <ele>599.78</ele>
        <time>2019-09-07T19:30:13Z</time>
      </trkpt>
      <trkpt lat="42.98385" lon="0.6703">
        <ele>599.78</ele>
        <time>2019-09-07T19:30:40Z</time>
      </trkpt>
      <trkpt lat="42.98382" lon="0.67032">
        <ele>599.42</ele>
        <time>2019-09-07T19:31:11Z</time>
      </trkpt>
      <trkpt lat="42.98381" lon="0.67031">
        <ele>599.38</ele>
        <time>2019-09-07T19:31:38Z</time>
      </trkpt>
      <trkpt lat="42.98387" lon="0.67034">
        <ele>599.44</ele>
        <time>2019-09-07T19:32:10Z</time>
      </trkpt>
      <trkpt lat="42.98387" lon="0.67031">
        <ele>599.44</ele>
        <time>2019-09-07T19:32:40Z</time>
      </trkpt>
      <trkpt lat="42.98387" lon="0.67031">
        <ele>599.44</ele>
        <time>2019-09-07T19:33:04Z</time>
      </trkpt>
      <trkpt lat="42.98387" lon="0.67049">
        <ele>599.14</ele>
        <time>2019-09-07T19:33:35Z</time>
      </trkpt>
      <trkpt lat="42.98389" lon="0.67043">
        <ele>598.88</ele>
        <time>2019-09-07T19:34:00Z</time>
      </trkpt>
      <trkpt lat="42.98389" lon="0.67036">
        <ele>598.57</ele>
        <time>2019-09-07T19:34:28Z</time>
      </trkpt>
      <trkpt lat="42.9839" lon="0.67032">
        <ele>598.47</ele>
        <time>2019-09-07T19:34:55Z</time>
      </trkpt>
      <trkpt lat="42.98385" lon="0.6703">
        <ele>598.22</ele>
        <time>2019-09-07T19:35:27Z</time>
      </trkpt>
      <trkpt lat="42.98385" lon="0.67028">
        <ele>598.09</ele>
        <time>2019-09-07T19:35:57Z</time>
      </trkpt>
      <trkpt lat="42.98386" lon="0.67031">
        <ele>598.05</ele>
        <time>2019-09-07T19:36:34Z</time>
      </trkpt>
      <trkpt lat="42.98366" lon="0.67032">
        <ele>598.1</ele>
        <time>2019-09-07T19:38:28Z</time>
      </trkpt>
      <trkpt lat="42.98375" lon="0.67032">
        <ele>598.1</ele>
        <time>2019-09-07T19:38:55Z</time>
      </trkpt>
      <trkpt lat="42.98381" lon="0.67029">
        <ele>598.1</ele>
        <time>2019-09-07T19:39:22Z</time>
      </trkpt>
      <trkpt lat="42.98383" lon="0.67028">
        <ele>598.1</ele>
        <time>2019-09-07T19:39:53Z</time>
      </trkpt>
      <trkpt lat="42.98378" lon="0.67029">
        <ele>598.1</ele>
        <time>2019-09-07T19:40:25Z</time>
      </trkpt>
      <trkpt lat="42.98374" lon="0.67026">
        <ele>598.1</ele>
        <time>2019-09-07T19:40:55Z</time>
      </trkpt>
      <trkpt lat="42.98381" lon="0.67026">
        <ele>598.1</ele>
        <time>2019-09-07T19:41:29Z</time>
      </trkpt>
      <trkpt lat="42.98383" lon="0.67027">
        <ele>598.1</ele>
        <time>2019-09-07T19:41:59Z</time>
      </trkpt>
      <trkpt lat="42.98383" lon="0.67028">
        <ele>598.1</ele>
        <time>2019-09-07T19:42:25Z</time>
      </trkpt>
      <trkpt lat="42.98382" lon="0.67028">
        <ele>598.1</ele>
        <time>2019-09-07T19:42:53Z</time>
      </trkpt>
      <trkpt lat="42.98384" lon="0.67026">
        <ele>598.1</ele>
        <time>2019-09-07T19:43:20Z</time>
      </trkpt>
      <trkpt lat="42.98386" lon="0.67025">
        <ele>598.1</ele>
        <time>2019-09-07T19:43:46Z</time>
      </trkpt>
      <trkpt lat="42.98385" lon="0.67021">
        <ele>598.1</ele>
        <time>2019-09-07T19:44:15Z</time>
      </trkpt>
      <trkpt lat="42.98386" lon="0.67022">
        <ele>598.1</ele>
        <time>2019-09-07T19:44:45Z</time>
      </trkpt>
      <trkpt lat="42.98387" lon="0.67023">
        <ele>598.1</ele>
        <time>2019-09-07T19:45:12Z</time>
      </trkpt>
      <trkpt lat="42.98386" lon="0.67023">
        <ele>598.1</ele>
        <time>2019-09-07T19:45:40Z</time>
      </trkpt>
      <trkpt lat="42.98386" lon="0.67026">
        <ele>598.1</ele>
        <time>2019-09-07T19:46:11Z</time>
      </trkpt>
      <trkpt lat="42.98383" lon="0.67028">
        <ele>598.1</ele>
        <time>2019-09-07T19:46:37Z</time>
      </trkpt>
      <trkpt lat="42.98385" lon="0.67027">
        <ele>598.1</ele>
        <time>2019-09-07T19:47:05Z</time>
      </trkpt>
      <trkpt lat="42.9839" lon="0.67025">
        <ele>598.1</ele>
        <time>2019-09-07T19:47:44Z</time>
      </trkpt>
      <trkpt lat="42.98385" lon="0.67025">
        <ele>598.1</ele>
        <time>2019-09-07T19:48:44Z</time>
      </trkpt>
      <trkpt lat="42.98386" lon="0.67023">
        <ele>598.1</ele>
        <time>2019-09-07T19:49:15Z</time>
      </trkpt>
      <trkpt lat="42.98391" lon="0.67023">
        <ele>598.1</ele>
        <time>2019-09-07T19:49:41Z</time>
      </trkpt>
      <trkpt lat="42.98389" lon="0.67021">
        <ele>598.1</ele>
        <time>2019-09-07T19:50:09Z</time>
      </trkpt>
      <trkpt lat="42.98386" lon="0.67023">
        <ele>598.1</ele>
        <time>2019-09-07T19:50:13Z</time>
      </trkpt>
      <trkpt lat="42.98384" lon="0.67025">
        <ele>598.59</ele>
        <time>2019-09-07T19:50:54Z</time>
      </trkpt>
      <trkpt lat="42.98388" lon="0.67027">
        <ele>598.58</ele>
        <time>2019-09-07T19:52:00Z</time>
      </trkpt>
      <trkpt lat="42.98383" lon="0.67026">
        <ele>598.12</ele>
        <time>2019-09-07T19:55:56Z</time>
      </trkpt>
      <trkpt lat="42.98386" lon="0.67028">
        <ele>598.12</ele>
        <time>2019-09-07T19:56:36Z</time>
      </trkpt>
      <trkpt lat="42.98384" lon="0.67028">
        <ele>598.12</ele>
        <time>2019-09-07T19:56:59Z</time>
      </trkpt>
      <trkpt lat="42.98383" lon="0.67029">
        <ele>598.12</ele>
        <time>2019-09-07T19:57:30Z</time>
      </trkpt>
      <trkpt lat="42.98383" lon="0.67029">
        <ele>598.12</ele>
        <time>2019-09-07T19:57:57Z</time>
      </trkpt>
      <trkpt lat="42.98382" lon="0.67028">
        <ele>598.12</ele>
        <time>2019-09-07T19:58:25Z</time>
      </trkpt>
      <trkpt lat="42.98383" lon="0.67027">
        <ele>598.12</ele>
        <time>2019-09-07T19:58:50Z</time>
      </trkpt>
      <trkpt lat="42.98383" lon="0.6703">
        <ele>598.12</ele>
        <time>2019-09-07T19:59:17Z</time>
      </trkpt>
      <trkpt lat="42.9838" lon="0.67027">
        <ele>598.12</ele>
        <time>2019-09-07T19:59:46Z</time>
      </trkpt>
      <trkpt lat="42.98379" lon="0.67028">
        <ele>598.12</ele>
        <time>2019-09-07T20:00:12Z</time>
      </trkpt>
      <trkpt lat="42.98381" lon="0.67028">
        <ele>598.12</ele>
        <time>2019-09-07T20:00:43Z</time>
      </trkpt>
      <trkpt lat="42.98377" lon="0.67026">
        <ele>598.12</ele>
        <time>2019-09-07T20:01:19Z</time>
      </trkpt>
      <trkpt lat="42.9838" lon="0.67024">
        <ele>598.12</ele>
        <time>2019-09-07T20:01:47Z</time>
      </trkpt>
      <trkpt lat="42.98383" lon="0.67022">
        <ele>598.12</ele>
        <time>2019-09-07T20:02:16Z</time>
      </trkpt>
      <trkpt lat="42.98381" lon="0.67024">
        <ele>597.87</ele>
        <time>2019-09-07T20:02:41Z</time>
      </trkpt>
      <trkpt lat="42.98382" lon="0.67026">
        <ele>597.88</ele>
        <time>2019-09-07T20:03:11Z</time>
      </trkpt>
      <trkpt lat="42.98378" lon="0.67022">
        <ele>597.93</ele>
        <time>2019-09-07T20:03:36Z</time>
      </trkpt>
      <trkpt lat="42.98375" lon="0.67025">
        <ele>597.92</ele>
        <time>2019-09-07T20:04:01Z</time>
      </trkpt>
      <trkpt lat="42.98377" lon="0.67029">
        <ele>598.01</ele>
        <time>2019-09-07T20:04:29Z</time>
      </trkpt>
      <trkpt lat="42.98378" lon="0.67028">
        <ele>598.07</ele>
        <time>2019-09-07T20:04:53Z</time>
      </trkpt>
      <trkpt lat="42.9838" lon="0.67026">
        <ele>598.07</ele>
        <time>2019-09-07T20:05:23Z</time>
      </trkpt>
      <trkpt lat="42.98384" lon="0.67028">
        <ele>598.07</ele>
        <time>2019-09-07T20:05:53Z</time>
      </trkpt>
      <trkpt lat="42.98383" lon="0.67025">
        <ele>598.07</ele>
        <time>2019-09-07T20:06:19Z</time>
      </trkpt>
      <trkpt lat="42.98381" lon="0.67029">
        <ele>598.07</ele>
        <time>2019-09-07T20:06:49Z</time>
      </trkpt>
      <trkpt lat="42.98382" lon="0.67031">
        <ele>598.07</ele>
        <time>2019-09-07T20:07:24Z</time>
      </trkpt>
      <trkpt lat="42.98382" lon="0.6703">
        <ele>598.07</ele>
        <time>2019-09-07T20:07:52Z</time>
      </trkpt>
      <trkpt lat="42.98383" lon="0.67028">
        <ele>598.07</ele>
        <time>2019-09-07T20:08:21Z</time>
      </trkpt>
      <trkpt lat="42.98383" lon="0.6703">
        <ele>598.07</ele>
        <time>2019-09-07T20:08:49Z</time>
      </trkpt>
      <trkpt lat="42.98383" lon="0.67029">
        <ele>598.07</ele>
        <time>2019-09-07T20:09:16Z</time>
      </trkpt>
      <trkpt lat="42.98385" lon="0.67031">
        <ele>598.07</ele>
        <time>2019-09-07T20:09:41Z</time>
      </trkpt>
      <trkpt lat="42.98384" lon="0.67032">
        <ele>598.07</ele>
        <time>2019-09-07T20:10:08Z</time>
      </trkpt>
      <trkpt lat="42.98385" lon="0.67032">
        <ele>598.07</ele>
        <time>2019-09-07T20:10:38Z</time>
      </trkpt>
      <trkpt lat="42.98384" lon="0.67033">
        <ele>598.07</ele>
        <time>2019-09-07T20:11:03Z</time>
      </trkpt>
      <trkpt lat="42.98384" lon="0.67034">
        <ele>598.07</ele>
        <time>2019-09-07T20:11:28Z</time>
      </trkpt>
      <trkpt lat="42.98381" lon="0.67036">
        <ele>598.07</ele>
        <time>2019-09-07T20:11:56Z</time>
      </trkpt>
      <trkpt lat="42.9838" lon="0.67036">
        <ele>598.07</ele>
        <time>2019-09-07T20:12:22Z</time>
      </trkpt>
      <trkpt lat="42.98382" lon="0.67034">
        <ele>598.07</ele>
        <time>2019-09-07T20:12:49Z</time>
      </trkpt>
      <trkpt lat="42.98382" lon="0.67035">
        <ele>598.07</ele>
        <time>2019-09-07T20:13:13Z</time>
      </trkpt>
      <trkpt lat="42.98382" lon="0.67033">
        <ele>598.07</ele>
        <time>2019-09-07T20:13:39Z</time>
      </trkpt>
      <trkpt lat="42.98382" lon="0.67033">
        <ele>598.07</ele>
        <time>2019-09-07T20:14:04Z</time>
      </trkpt>
      <trkpt lat="42.98382" lon="0.67031">
        <ele>598.07</ele>
        <time>2019-09-07T20:14:31Z</time>
      </trkpt>
      <trkpt lat="42.98382" lon="0.67029">
        <ele>598.07</ele>
        <time>2019-09-07T20:14:58Z</time>
      </trkpt>
      <trkpt lat="42.98382" lon="0.67031">
        <ele>598.07</ele>
        <time>2019-09-07T20:15:28Z</time>
      </trkpt>
      <trkpt lat="42.98381" lon="0.67032">
        <ele>598.07</ele>
        <time>2019-09-07T20:15:55Z</time>
      </trkpt>
      <trkpt lat="42.98379" lon="0.67032">
        <ele>598.07</ele>
        <time>2019-09-07T20:16:24Z</time>
      </trkpt>
      <trkpt lat="42.98375" lon="0.67031">
        <ele>598.07</ele>
        <time>2019-09-07T20:16:51Z</time>
      </trkpt>
      <trkpt lat="42.98376" lon="0.6703">
        <ele>598.07</ele>
        <time>2019-09-07T20:17:20Z</time>
      </trkpt>
      <trkpt lat="42.98378" lon="0.67032">
        <ele>598.07</ele>
        <time>2019-09-07T20:17:48Z</time>
      </trkpt>
      <trkpt lat="42.98378" lon="0.67036">
        <ele>598.07</ele>
        <time>2019-09-07T20:18:15Z</time>
      </trkpt>
      <trkpt lat="42.98375" lon="0.67033">
        <ele>598.07</ele>
        <time>2019-09-07T20:18:44Z</time>
      </trkpt>
      <trkpt lat="42.98373" lon="0.67029">
        <ele>598.07</ele>
        <time>2019-09-07T20:19:12Z</time>
      </trkpt>
      <trkpt lat="42.98373" lon="0.67028">
        <ele>598.07</ele>
        <time>2019-09-07T20:19:38Z</time>
      </trkpt>
      <trkpt lat="42.98377" lon="0.67028">
        <ele>598.07</ele>
        <time>2019-09-07T20:20:08Z</time>
      </trkpt>
      <trkpt lat="42.9838" lon="0.6703">
        <ele>598.07</ele>
        <time>2019-09-07T20:20:37Z</time>
      </trkpt>
      <trkpt lat="42.98381" lon="0.67031">
        <ele>598.07</ele>
        <time>2019-09-07T20:21:05Z</time>
      </trkpt>
      <trkpt lat="42.98383" lon="0.67032">
        <ele>598.07</ele>
        <time>2019-09-07T20:21:32Z</time>
      </trkpt>
      <trkpt lat="42.98381" lon="0.67034">
        <ele>598.07</ele>
        <time>2019-09-07T20:22:03Z</time>
      </trkpt>
      <trkpt lat="42.9838" lon="0.67037">
        <ele>598.07</ele>
        <time>2019-09-07T20:22:32Z</time>
      </trkpt>
      <trkpt lat="42.98377" lon="0.67031">
        <ele>598.07</ele>
        <time>2019-09-07T20:23:24Z</time>
      </trkpt>
      <trkpt lat="42.98379" lon="0.67027">
        <ele>598.07</ele>
        <time>2019-09-07T20:23:51Z</time>
      </trkpt>
      <trkpt lat="42.98377" lon="0.67026">
        <ele>598.07</ele>
        <time>2019-09-07T20:24:15Z</time>
      </trkpt>
      <trkpt lat="42.98379" lon="0.67032">
        <ele>598.07</ele>
        <time>2019-09-07T20:24:43Z</time>
      </trkpt>
      <trkpt lat="42.98377" lon="0.67032">
        <ele>598.07</ele>
        <time>2019-09-07T20:25:03Z</time>
      </trkpt>
      <trkpt lat="42.98378" lon="0.67031">
        <ele>598.07</ele>
        <time>2019-09-07T20:25:35Z</time>
      </trkpt>
      <trkpt lat="42.9838" lon="0.67034">
        <ele>598.07</ele>
        <time>2019-09-07T20:26:10Z</time>
      </trkpt>
      <trkpt lat="42.98382" lon="0.67036">
        <ele>598.07</ele>
        <time>2019-09-07T20:26:44Z</time>
      </trkpt>
      <trkpt lat="42.98381" lon="0.67034">
        <ele>598.07</ele>
        <time>2019-09-07T20:27:17Z</time>
      </trkpt>
      <trkpt lat="42.98384" lon="0.67034">
        <ele>598.07</ele>
        <time>2019-09-07T20:27:46Z</time>
      </trkpt>
      <trkpt lat="42.98384" lon="0.67032">
        <ele>598.07</ele>
        <time>2019-09-07T20:28:16Z</time>
      </trkpt>
      <trkpt lat="42.9838" lon="0.6703">
        <ele>598.07</ele>
        <time>2019-09-07T20:28:44Z</time>
      </trkpt>
      <trkpt lat="42.98379" lon="0.67029">
        <ele>598.07</ele>
        <time>2019-09-07T20:29:15Z</time>
      </trkpt>
      <trkpt lat="42.98378" lon="0.67027">
        <ele>598.07</ele>
        <time>2019-09-07T20:29:45Z</time>
      </trkpt>
      <trkpt lat="42.98378" lon="0.67028">
        <ele>598.07</ele>
        <time>2019-09-07T20:30:17Z</time>
      </trkpt>
      <trkpt lat="42.9838" lon="0.67028">
        <ele>598.07</ele>
        <time>2019-09-07T20:30:46Z</time>
      </trkpt>
      <trkpt lat="42.98379" lon="0.67024">
        <ele>598.07</ele>
        <time>2019-09-07T20:31:17Z</time>
      </trkpt>
      <trkpt lat="42.98376" lon="0.6702">
        <ele>598.07</ele>
        <time>2019-09-07T20:31:45Z</time>
      </trkpt>
      <trkpt lat="42.98376" lon="0.67026">
        <ele>598.07</ele>
        <time>2019-09-07T20:32:10Z</time>
      </trkpt>
      <trkpt lat="42.98375" lon="0.67033">
        <ele>598.07</ele>
        <time>2019-09-07T20:32:37Z</time>
      </trkpt>
      <trkpt lat="42.98376" lon="0.67033">
        <ele>598.07</ele>
        <time>2019-09-07T20:33:04Z</time>
      </trkpt>
      <trkpt lat="42.98376" lon="0.67033">
        <ele>598.07</ele>
        <time>2019-09-07T20:33:33Z</time>
      </trkpt>
      <trkpt lat="42.98379" lon="0.67034">
        <ele>598.4</ele>
        <time>2019-09-07T20:34:03Z</time>
      </trkpt>
      <trkpt lat="42.98381" lon="0.67034">
        <ele>600.93</ele>
        <time>2019-09-07T20:34:31Z</time>
      </trkpt>
      <trkpt lat="42.98378" lon="0.67029">
        <ele>600.87</ele>
        <time>2019-09-07T20:35:00Z</time>
      </trkpt>
      <trkpt lat="42.98377" lon="0.67028">
        <ele>601.12</ele>
        <time>2019-09-07T20:35:08Z</time>
      </trkpt>
      <trkpt lat="42.98376" lon="0.67028">
        <ele>600.84</ele>
        <time>2019-09-07T20:35:35Z</time>
      </trkpt>
      <trkpt lat="42.98373" lon="0.67029">
        <ele>600.84</ele>
        <time>2019-09-07T20:36:03Z</time>
      </trkpt>
      <trkpt lat="42.98376" lon="0.67033">
        <ele>600.88</ele>
        <time>2019-09-07T20:36:28Z</time>
      </trkpt>
      <trkpt lat="42.98374" lon="0.67033">
        <ele>600.87</ele>
        <time>2019-09-07T20:36:55Z</time>
      </trkpt>
      <trkpt lat="42.9837" lon="0.67029">
        <ele>600.87</ele>
        <time>2019-09-07T20:37:21Z</time>
      </trkpt>
      <trkpt lat="42.98373" lon="0.67032">
        <ele>600.87</ele>
        <time>2019-09-07T20:37:49Z</time>
      </trkpt>
      <trkpt lat="42.98375" lon="0.67031">
        <ele>600.87</ele>
        <time>2019-09-07T20:38:20Z</time>
      </trkpt>
      <trkpt lat="42.98375" lon="0.67032">
        <ele>600.87</ele>
        <time>2019-09-07T20:38:50Z</time>
      </trkpt>
      <trkpt lat="42.98379" lon="0.67033">
        <ele>600.87</ele>
        <time>2019-09-07T20:39:20Z</time>
      </trkpt>
      <trkpt lat="42.98379" lon="0.67033">
        <ele>600.87</ele>
        <time>2019-09-07T20:39:53Z</time>
      </trkpt>
      <trkpt lat="42.98382" lon="0.67035">
        <ele>600.87</ele>
        <time>2019-09-07T20:40:25Z</time>
      </trkpt>
      <trkpt lat="42.98382" lon="0.67038">
        <ele>600.87</ele>
        <time>2019-09-07T20:40:54Z</time>
      </trkpt>
      <trkpt lat="42.98377" lon="0.6703">
        <ele>600.87</ele>
        <time>2019-09-07T20:41:23Z</time>
      </trkpt>
      <trkpt lat="42.98378" lon="0.6703">
        <ele>600.87</ele>
        <time>2019-09-07T20:41:50Z</time>
      </trkpt>
      <trkpt lat="42.98378" lon="0.67029">
        <ele>600.87</ele>
        <time>2019-09-07T20:42:19Z</time>
      </trkpt>
      <trkpt lat="42.98377" lon="0.67027">
        <ele>600.87</ele>
        <time>2019-09-07T20:42:46Z</time>
      </trkpt>
      <trkpt lat="42.98376" lon="0.67026">
        <ele>600.87</ele>
        <time>2019-09-07T20:43:14Z</time>
      </trkpt>
      <trkpt lat="42.9838" lon="0.67028">
        <ele>600.87</ele>
        <time>2019-09-07T20:43:39Z</time>
      </trkpt>
      <trkpt lat="42.9838" lon="0.6703">
        <ele>600.87</ele>
        <time>2019-09-07T20:44:02Z</time>
      </trkpt>
      <trkpt lat="42.98381" lon="0.67031">
        <ele>600.87</ele>
        <time>2019-09-07T20:44:27Z</time>
      </trkpt>
      <trkpt lat="42.98379" lon="0.67034">
        <ele>600.87</ele>
        <time>2019-09-07T20:44:57Z</time>
      </trkpt>
      <trkpt lat="42.98377" lon="0.6703">
        <ele>600.87</ele>
        <time>2019-09-07T20:45:24Z</time>
      </trkpt>
      <trkpt lat="42.98376" lon="0.67028">
        <ele>600.87</ele>
        <time>2019-09-07T20:45:52Z</time>
      </trkpt>
      <trkpt lat="42.98375" lon="0.67028">
        <ele>600.87</ele>
        <time>2019-09-07T20:46:24Z</time>
      </trkpt>
      <trkpt lat="42.9837" lon="0.67031">
        <ele>600.87</ele>
        <time>2019-09-07T20:46:53Z</time>
      </trkpt>
      <trkpt lat="42.98371" lon="0.67029">
        <ele>600.87</ele>
        <time>2019-09-07T20:47:22Z</time>
      </trkpt>
      <trkpt lat="42.98375" lon="0.67027">
        <ele>600.87</ele>
        <time>2019-09-07T20:47:50Z</time>
      </trkpt>
      <trkpt lat="42.98376" lon="0.67029">
        <ele>600.87</ele>
        <time>2019-09-07T20:48:20Z</time>
      </trkpt>
      <trkpt lat="42.98378" lon="0.67033">
        <ele>600.87</ele>
        <time>2019-09-07T20:48:55Z</time>
      </trkpt>
      <trkpt lat="42.98375" lon="0.67031">
        <ele>600.87</ele>
        <time>2019-09-07T20:49:23Z</time>
      </trkpt>
      <trkpt lat="42.98372" lon="0.67026">
        <ele>600.87</ele>
        <time>2019-09-07T20:49:55Z</time>
      </trkpt>
      <trkpt lat="42.98374" lon="0.67027">
        <ele>600.87</ele>
        <time>2019-09-07T20:50:23Z</time>
      </trkpt>
      <trkpt lat="42.98375" lon="0.67027">
        <ele>600.87</ele>
        <time>2019-09-07T20:50:53Z</time>
      </trkpt>
      <trkpt lat="42.98377" lon="0.67026">
        <ele>600.87</ele>
        <time>2019-09-07T20:51:23Z</time>
      </trkpt>
      <trkpt lat="42.98379" lon="0.67029">
        <ele>600.87</ele>
        <time>2019-09-07T20:51:53Z</time>
      </trkpt>
      <trkpt lat="42.98379" lon="0.6703">
        <ele>600.87</ele>
        <time>2019-09-07T20:52:21Z</time>
      </trkpt>
      <trkpt lat="42.98382" lon="0.67031">
        <ele>600.87</ele>
        <time>2019-09-07T20:52:51Z</time>
      </trkpt>
      <trkpt lat="42.9838" lon="0.67029">
        <ele>600.87</ele>
        <time>2019-09-07T20:53:22Z</time>
      </trkpt>
      <trkpt lat="42.98379" lon="0.67028">
        <ele>600.87</ele>
        <time>2019-09-07T20:53:51Z</time>
      </trkpt>
      <trkpt lat="42.98382" lon="0.67029">
        <ele>600.87</ele>
        <time>2019-09-07T20:54:22Z</time>
      </trkpt>
      <trkpt lat="42.98381" lon="0.6703">
        <ele>600.87</ele>
        <time>2019-09-07T20:54:49Z</time>
      </trkpt>
      <trkpt lat="42.98381" lon="0.67031">
        <ele>600.87</ele>
        <time>2019-09-07T20:55:17Z</time>
      </trkpt>
      <trkpt lat="42.98381" lon="0.6703">
        <ele>600.87</ele>
        <time>2019-09-07T20:55:41Z</time>
      </trkpt>
      <trkpt lat="42.98378" lon="0.6703">
        <ele>600.87</ele>
        <time>2019-09-07T20:56:10Z</time>
      </trkpt>
      <trkpt lat="42.98377" lon="0.67029">
        <ele>600.87</ele>
        <time>2019-09-07T20:56:35Z</time>
      </trkpt>
      <trkpt lat="42.98378" lon="0.67028">
        <ele>600.87</ele>
        <time>2019-09-07T20:57:02Z</time>
      </trkpt>
      <trkpt lat="42.98377" lon="0.67029">
        <ele>600.87</ele>
        <time>2019-09-07T20:57:28Z</time>
      </trkpt>
      <trkpt lat="42.98379" lon="0.67037">
        <ele>600.87</ele>
        <time>2019-09-07T20:57:55Z</time>
      </trkpt>
      <trkpt lat="42.98381" lon="0.67032">
        <ele>600.87</ele>
        <time>2019-09-07T20:58:23Z</time>
      </trkpt>
      <trkpt lat="42.98376" lon="0.67031">
        <ele>600.87</ele>
        <time>2019-09-07T20:58:52Z</time>
      </trkpt>
      <trkpt lat="42.98375" lon="0.67029">
        <ele>600.87</ele>
        <time>2019-09-07T20:59:26Z</time>
      </trkpt>
      <trkpt lat="42.98377" lon="0.6703">
        <ele>600.87</ele>
        <time>2019-09-07T20:59:58Z</time>
      </trkpt>
      <trkpt lat="42.98379" lon="0.67032">
        <ele>600.87</ele>
        <time>2019-09-07T21:00:29Z</time>
      </trkpt>
      <trkpt lat="42.98378" lon="0.67031">
        <ele>600.87</ele>
        <time>2019-09-07T21:01:02Z</time>
      </trkpt>
      <trkpt lat="42.98381" lon="0.67035">
        <ele>600.87</ele>
        <time>2019-09-07T21:01:33Z</time>
      </trkpt>
      <trkpt lat="42.98385" lon="0.67035">
        <ele>600.87</ele>
        <time>2019-09-07T21:02:00Z</time>
      </trkpt>
      <trkpt lat="42.98387" lon="0.67035">
        <ele>600.87</ele>
        <time>2019-09-07T21:02:29Z</time>
      </trkpt>
      <trkpt lat="42.98385" lon="0.67036">
        <ele>600.87</ele>
        <time>2019-09-07T21:03:01Z</time>
      </trkpt>
      <trkpt lat="42.98382" lon="0.67036">
        <ele>600.87</ele>
        <time>2019-09-07T21:03:32Z</time>
      </trkpt>
      <trkpt lat="42.98383" lon="0.67034">
        <ele>600.87</ele>
        <time>2019-09-07T21:04:09Z</time>
      </trkpt>
      <trkpt lat="42.98384" lon="0.67035">
        <ele>600.87</ele>
        <time>2019-09-07T21:04:40Z</time>
      </trkpt>
      <trkpt lat="42.98384" lon="0.67035">
        <ele>600.87</ele>
        <time>2019-09-07T21:05:12Z</time>
      </trkpt>
      <trkpt lat="42.9838" lon="0.67031">
        <ele>600.87</ele>
        <time>2019-09-07T21:05:42Z</time>
      </trkpt>
      <trkpt lat="42.98378" lon="0.67032">
        <ele>600.87</ele>
        <time>2019-09-07T21:06:11Z</time>
      </trkpt>
      <trkpt lat="42.98377" lon="0.67033">
        <ele>600.87</ele>
        <time>2019-09-07T21:06:38Z</time>
      </trkpt>
      <trkpt lat="42.98377" lon="0.67033">
        <ele>600.87</ele>
        <time>2019-09-07T21:07:08Z</time>
      </trkpt>
      <trkpt lat="42.98381" lon="0.67026">
        <ele>600.87</ele>
        <time>2019-09-07T21:09:37Z</time>
      </trkpt>
      <trkpt lat="42.98382" lon="0.67028">
        <ele>600.87</ele>
        <time>2019-09-07T21:10:08Z</time>
      </trkpt>
      <trkpt lat="42.98381" lon="0.67029">
        <ele>600.87</ele>
        <time>2019-09-07T21:10:42Z</time>
      </trkpt>
      <trkpt lat="42.98379" lon="0.67028">
        <ele>600.87</ele>
        <time>2019-09-07T21:11:15Z</time>
      </trkpt>
      <trkpt lat="42.98377" lon="0.67025">
        <ele>600.87</ele>
        <time>2019-09-07T21:12:07Z</time>
      </trkpt>
      <trkpt lat="42.98378" lon="0.67027">
        <ele>602.04</ele>
        <time>2019-09-07T21:12:50Z</time>
      </trkpt>
      <trkpt lat="42.98382" lon="0.6703">
        <ele>602.09</ele>
        <time>2019-09-07T21:13:22Z</time>
      </trkpt>
      <trkpt lat="42.98383" lon="0.67029">
        <ele>603.41</ele>
        <time>2019-09-07T21:13:33Z</time>
      </trkpt>
      <trkpt lat="42.98382" lon="0.67028">
        <ele>602.13</ele>
        <time>2019-09-07T21:14:04Z</time>
      </trkpt>
      <trkpt lat="42.98383" lon="0.67026">
        <ele>602.13</ele>
        <time>2019-09-07T21:14:34Z</time>
      </trkpt>
      <trkpt lat="42.98384" lon="0.67027">
        <ele>602.13</ele>
        <time>2019-09-07T21:15:08Z</time>
      </trkpt>
      <trkpt lat="42.98384" lon="0.67027">
        <ele>602.13</ele>
        <time>2019-09-07T21:15:41Z</time>
      </trkpt>
      <trkpt lat="42.98383" lon="0.67028">
        <ele>602.13</ele>
        <time>2019-09-07T21:16:16Z</time>
      </trkpt>
      <trkpt lat="42.98383" lon="0.67031">
        <ele>602.13</ele>
        <time>2019-09-07T21:16:48Z</time>
      </trkpt>
      <trkpt lat="42.98384" lon="0.67034">
        <ele>602.13</ele>
        <time>2019-09-07T21:17:17Z</time>
      </trkpt>
      <trkpt lat="42.98388" lon="0.67035">
        <ele>602.13</ele>
        <time>2019-09-07T21:17:44Z</time>
      </trkpt>
      <trkpt lat="42.98384" lon="0.67032">
        <ele>602.13</ele>
        <time>2019-09-07T21:18:14Z</time>
      </trkpt>
      <trkpt lat="42.98382" lon="0.67032">
        <ele>602.13</ele>
        <time>2019-09-07T21:18:44Z</time>
      </trkpt>
      <trkpt lat="42.98383" lon="0.67027">
        <ele>602.13</ele>
        <time>2019-09-07T21:19:14Z</time>
      </trkpt>
      <trkpt lat="42.98385" lon="0.67026">
        <ele>602.13</ele>
        <time>2019-09-07T21:19:43Z</time>
      </trkpt>
      <trkpt lat="42.98389" lon="0.67027">
        <ele>602.13</ele>
        <time>2019-09-07T21:20:27Z</time>
      </trkpt>
      <trkpt lat="42.98385" lon="0.67029">
        <ele>603.49</ele>
        <time>2019-09-07T21:23:24Z</time>
      </trkpt>
      <trkpt lat="42.98383" lon="0.67025">
        <ele>603.49</ele>
        <time>2019-09-07T21:23:52Z</time>
      </trkpt>
      <trkpt lat="42.98382" lon="0.67038">
        <ele>606.82</ele>
        <time>2019-09-07T21:27:58Z</time>
      </trkpt>
      <trkpt lat="42.98383" lon="0.67026">
        <ele>606.34</ele>
        <time>2019-09-07T21:36:24Z</time>
      </trkpt>
      <trkpt lat="42.98384" lon="0.67038">
        <ele>609.18</ele>
        <time>2019-09-07T21:38:00Z</time>
      </trkpt>
      <trkpt lat="42.9838" lon="0.67028">
        <ele>609.68</ele>
        <time>2019-09-07T21:41:15Z</time>
      </trkpt>
      <trkpt lat="42.98382" lon="0.6703">
        <ele>609.68</ele>
        <time>2019-09-07T21:41:46Z</time>
      </trkpt>
      <trkpt lat="42.98382" lon="0.67033">
        <ele>609.68</ele>
        <time>2019-09-07T21:42:16Z</time>
      </trkpt>
      <trkpt lat="42.9838" lon="0.67029">
        <ele>609.68</ele>
        <time>2019-09-07T21:42:46Z</time>
      </trkpt>
      <trkpt lat="42.98381" lon="0.67033">
        <ele>609.68</ele>
        <time>2019-09-07T21:43:48Z</time>
      </trkpt>
      <trkpt lat="42.9838" lon="0.67034">
        <ele>609.68</ele>
        <time>2019-09-07T21:44:15Z</time>
      </trkpt>
      <trkpt lat="42.98382" lon="0.67031">
        <ele>609.68</ele>
        <time>2019-09-07T21:44:45Z</time>
      </trkpt>
      <trkpt lat="42.98382" lon="0.67032">
        <ele>609.68</ele>
        <time>2019-09-07T21:46:01Z</time>
      </trkpt>
      <trkpt lat="42.98384" lon="0.67028">
        <ele>609.68</ele>
        <time>2019-09-07T21:46:47Z</time>
      </trkpt>
      <trkpt lat="42.98383" lon="0.67029">
        <ele>609.68</ele>
        <time>2019-09-07T21:47:16Z</time>
      </trkpt>
      <trkpt lat="42.98383" lon="0.67026">
        <ele>609.68</ele>
        <time>2019-09-07T21:47:45Z</time>
      </trkpt>
      <trkpt lat="42.98384" lon="0.67025">
        <ele>609.68</ele>
        <time>2019-09-07T21:48:10Z</time>
      </trkpt>
      <trkpt lat="42.98383" lon="0.67024">
        <ele>609.68</ele>
        <time>2019-09-07T21:48:37Z</time>
      </trkpt>
      <trkpt lat="42.98379" lon="0.6703">
        <ele>609.68</ele>
        <time>2019-09-07T21:49:03Z</time>
      </trkpt>
      <trkpt lat="42.98379" lon="0.67033">
        <ele>609.68</ele>
        <time>2019-09-07T21:49:27Z</time>
      </trkpt>
      <trkpt lat="42.98379" lon="0.67035">
        <ele>611.28</ele>
        <time>2019-09-07T21:49:32Z</time>
      </trkpt>
      <trkpt lat="42.98383" lon="0.67038">
        <ele>611.62</ele>
        <time>2019-09-07T21:50:00Z</time>
      </trkpt>
      <trkpt lat="42.9838" lon="0.67037">
        <ele>611.73</ele>
        <time>2019-09-07T21:50:35Z</time>
      </trkpt>
      <trkpt lat="42.98378" lon="0.67036">
        <ele>611.72</ele>
        <time>2019-09-07T21:51:55Z</time>
      </trkpt>
      <trkpt lat="42.98379" lon="0.67041">
        <ele>611.72</ele>
        <time>2019-09-07T21:52:23Z</time>
      </trkpt>
      <trkpt lat="42.9838" lon="0.67039">
        <ele>611.72</ele>
        <time>2019-09-07T21:52:46Z</time>
      </trkpt>
      <trkpt lat="42.98381" lon="0.67039">
        <ele>611.72</ele>
        <time>2019-09-07T21:53:13Z</time>
      </trkpt>
      <trkpt lat="42.9838" lon="0.67035">
        <ele>611.72</ele>
        <time>2019-09-07T21:53:41Z</time>
      </trkpt>
      <trkpt lat="42.98379" lon="0.67032">
        <ele>611.72</ele>
        <time>2019-09-07T21:54:08Z</time>
      </trkpt>
      <trkpt lat="42.98376" lon="0.67033">
        <ele>611.72</ele>
        <time>2019-09-07T21:54:39Z</time>
      </trkpt>
      <trkpt lat="42.98379" lon="0.67039">
        <ele>611.72</ele>
        <time>2019-09-07T21:55:07Z</time>
      </trkpt>
      <trkpt lat="42.98377" lon="0.67041">
        <ele>615.21</ele>
        <time>2019-09-07T21:56:57Z</time>
      </trkpt>
      <trkpt lat="42.98377" lon="0.67046">
        <ele>620.95</ele>
        <time>2019-09-07T21:57:55Z</time>
      </trkpt>
      <trkpt lat="42.98377" lon="0.67046">
        <ele>618.76</ele>
        <time>2019-09-07T21:57:56Z</time>
      </trkpt>
      <trkpt lat="42.98377" lon="0.67046">
        <ele>616.8</ele>
        <time>2019-09-07T21:57:59Z</time>
      </trkpt>
      <trkpt lat="42.98378" lon="0.67047">
        <ele>616.52</ele>
        <time>2019-09-07T22:00:22Z</time>
      </trkpt>
    </trkseg>
  </trk>
</gpx>